<?xml version="1.0" encoding="UTF-8" standalone="no" ?>
<gpx xmlns="http://www.topografix.com/GPX/1/1" xmlns:xsi="http://www.w3.org/2001/XMLSchema-instance" xsi:schemaLocation="http://www.topografix.com/GPX/1/1 http://www.topografix.com/GPX/1/1/gpx.xsd" version="1.1" creator="VisuGPX - https://www.visugpx.com">
  <metadata>
    <name>Ski Rando - Pique d\'Estats 3143m</name>
    <desc><![CDATA[Avec , Jean , Ludo , Medhi , Patrick , Alain]]></desc>
  </metadata>
  <trk>
    <name><![CDATA[23-FEV-14 16:06:27]]></name>
    <trkseg>
      <trkpt lat="42.71044" lon="1.42501">
        <ele>1184.48</ele>
        <time>2014-02-23T05:10:40Z</time>
      </trkpt>
      <trkpt lat="42.71041" lon="1.42497">
        <ele>1183.52</ele>
        <time>2014-02-23T05:11:09Z</time>
      </trkpt>
      <trkpt lat="42.71042" lon="1.42496">
        <ele>1182.56</ele>
        <time>2014-02-23T05:11:36Z</time>
      </trkpt>
      <trkpt lat="42.7104" lon="1.42495">
        <ele>1178.23</ele>
        <time>2014-02-23T05:11:55Z</time>
      </trkpt>
      <trkpt lat="42.71042" lon="1.42496">
        <ele>1181.12</ele>
        <time>2014-02-23T05:12:15Z</time>
      </trkpt>
      <trkpt lat="42.71042" lon="1.42494">
        <ele>1178.23</ele>
        <time>2014-02-23T05:12:38Z</time>
      </trkpt>
      <trkpt lat="42.71043" lon="1.42497">
        <ele>1179.19</ele>
        <time>2014-02-23T05:12:58Z</time>
      </trkpt>
      <trkpt lat="42.71042" lon="1.42499">
        <ele>1183.52</ele>
        <time>2014-02-23T05:13:14Z</time>
      </trkpt>
      <trkpt lat="42.71041" lon="1.42502">
        <ele>1185.44</ele>
        <time>2014-02-23T05:13:26Z</time>
      </trkpt>
      <trkpt lat="42.71041" lon="1.425">
        <ele>1187.85</ele>
        <time>2014-02-23T05:13:49Z</time>
      </trkpt>
      <trkpt lat="42.71042" lon="1.42499">
        <ele>1189.77</ele>
        <time>2014-02-23T05:14:13Z</time>
      </trkpt>
      <trkpt lat="42.71039" lon="1.42502">
        <ele>1191.69</ele>
        <time>2014-02-23T05:14:30Z</time>
      </trkpt>
      <trkpt lat="42.71041" lon="1.42502">
        <ele>1190.25</ele>
        <time>2014-02-23T05:14:48Z</time>
      </trkpt>
      <trkpt lat="42.7104" lon="1.425">
        <ele>1189.29</ele>
        <time>2014-02-23T05:14:57Z</time>
      </trkpt>
      <trkpt lat="42.71038" lon="1.42502">
        <ele>1188.33</ele>
        <time>2014-02-23T05:15:18Z</time>
      </trkpt>
      <trkpt lat="42.71036" lon="1.42503">
        <ele>1189.29</ele>
        <time>2014-02-23T05:15:36Z</time>
      </trkpt>
      <trkpt lat="42.71039" lon="1.42502">
        <ele>1189.77</ele>
        <time>2014-02-23T05:15:54Z</time>
      </trkpt>
      <trkpt lat="42.71039" lon="1.425">
        <ele>1186.88</ele>
        <time>2014-02-23T05:16:21Z</time>
      </trkpt>
      <trkpt lat="42.71038" lon="1.42499">
        <ele>1191.21</ele>
        <time>2014-02-23T05:16:49Z</time>
      </trkpt>
      <trkpt lat="42.71038" lon="1.425">
        <ele>1192.17</ele>
        <time>2014-02-23T05:17:06Z</time>
      </trkpt>
      <trkpt lat="42.71039" lon="1.42506">
        <ele>1189.77</ele>
        <time>2014-02-23T05:17:39Z</time>
      </trkpt>
      <trkpt lat="42.71036" lon="1.42504">
        <ele>1187.37</ele>
        <time>2014-02-23T05:17:54Z</time>
      </trkpt>
      <trkpt lat="42.71033" lon="1.42497">
        <ele>1186.88</ele>
        <time>2014-02-23T05:18:06Z</time>
      </trkpt>
      <trkpt lat="42.71035" lon="1.42501">
        <ele>1186.88</ele>
        <time>2014-02-23T05:18:31Z</time>
      </trkpt>
      <trkpt lat="42.71035" lon="1.42499">
        <ele>1188.33</ele>
        <time>2014-02-23T05:18:48Z</time>
      </trkpt>
      <trkpt lat="42.71032" lon="1.42501">
        <ele>1184</ele>
        <time>2014-02-23T05:19:14Z</time>
      </trkpt>
      <trkpt lat="42.71032" lon="1.42501">
        <ele>1183.04</ele>
        <time>2014-02-23T05:19:31Z</time>
      </trkpt>
      <trkpt lat="42.71034" lon="1.42496">
        <ele>1184</ele>
        <time>2014-02-23T05:19:52Z</time>
      </trkpt>
      <trkpt lat="42.71035" lon="1.42495">
        <ele>1184</ele>
        <time>2014-02-23T05:20:07Z</time>
      </trkpt>
      <trkpt lat="42.71032" lon="1.42495">
        <ele>1184</ele>
        <time>2014-02-23T05:20:30Z</time>
      </trkpt>
      <trkpt lat="42.71029" lon="1.42492">
        <ele>1183.52</ele>
        <time>2014-02-23T05:20:41Z</time>
      </trkpt>
      <trkpt lat="42.71027" lon="1.42495">
        <ele>1184.96</ele>
        <time>2014-02-23T05:20:51Z</time>
      </trkpt>
      <trkpt lat="42.71023" lon="1.42494">
        <ele>1183.52</ele>
        <time>2014-02-23T05:21:05Z</time>
      </trkpt>
      <trkpt lat="42.7102" lon="1.42495">
        <ele>1181.12</ele>
        <time>2014-02-23T05:21:18Z</time>
      </trkpt>
      <trkpt lat="42.71021" lon="1.42497">
        <ele>1181.12</ele>
        <time>2014-02-23T05:21:32Z</time>
      </trkpt>
      <trkpt lat="42.71023" lon="1.42494">
        <ele>1181.12</ele>
        <time>2014-02-23T05:21:47Z</time>
      </trkpt>
      <trkpt lat="42.71022" lon="1.42496">
        <ele>1182.08</ele>
        <time>2014-02-23T05:22:08Z</time>
      </trkpt>
      <trkpt lat="42.71021" lon="1.42492">
        <ele>1182.08</ele>
        <time>2014-02-23T05:22:18Z</time>
      </trkpt>
      <trkpt lat="42.71022" lon="1.42485">
        <ele>1181.12</ele>
        <time>2014-02-23T05:22:24Z</time>
      </trkpt>
      <trkpt lat="42.71018" lon="1.42481">
        <ele>1179.67</ele>
        <time>2014-02-23T05:22:31Z</time>
      </trkpt>
      <trkpt lat="42.71009" lon="1.4246">
        <ele>1179.67</ele>
        <time>2014-02-23T05:22:46Z</time>
      </trkpt>
      <trkpt lat="42.71004" lon="1.4244">
        <ele>1180.16</ele>
        <time>2014-02-23T05:22:58Z</time>
      </trkpt>
      <trkpt lat="42.71" lon="1.42429">
        <ele>1182.08</ele>
        <time>2014-02-23T05:23:06Z</time>
      </trkpt>
      <trkpt lat="42.70992" lon="1.42406">
        <ele>1182.08</ele>
        <time>2014-02-23T05:23:20Z</time>
      </trkpt>
      <trkpt lat="42.70987" lon="1.42389">
        <ele>1181.12</ele>
        <time>2014-02-23T05:23:36Z</time>
      </trkpt>
      <trkpt lat="42.70987" lon="1.42384">
        <ele>1182.08</ele>
        <time>2014-02-23T05:23:47Z</time>
      </trkpt>
      <trkpt lat="42.70982" lon="1.4236">
        <ele>1181.6</ele>
        <time>2014-02-23T05:24:02Z</time>
      </trkpt>
      <trkpt lat="42.70971" lon="1.42338">
        <ele>1182.56</ele>
        <time>2014-02-23T05:24:17Z</time>
      </trkpt>
      <trkpt lat="42.70967" lon="1.42325">
        <ele>1183.52</ele>
        <time>2014-02-23T05:24:25Z</time>
      </trkpt>
      <trkpt lat="42.70963" lon="1.42296">
        <ele>1182.08</ele>
        <time>2014-02-23T05:24:42Z</time>
      </trkpt>
      <trkpt lat="42.70962" lon="1.42268">
        <ele>1181.6</ele>
        <time>2014-02-23T05:24:58Z</time>
      </trkpt>
      <trkpt lat="42.7096" lon="1.42254">
        <ele>1181.6</ele>
        <time>2014-02-23T05:25:08Z</time>
      </trkpt>
      <trkpt lat="42.70959" lon="1.42248">
        <ele>1181.12</ele>
        <time>2014-02-23T05:25:12Z</time>
      </trkpt>
      <trkpt lat="42.70956" lon="1.42221">
        <ele>1181.6</ele>
        <time>2014-02-23T05:25:29Z</time>
      </trkpt>
      <trkpt lat="42.70954" lon="1.42199">
        <ele>1181.6</ele>
        <time>2014-02-23T05:25:43Z</time>
      </trkpt>
      <trkpt lat="42.70952" lon="1.42184">
        <ele>1183.04</ele>
        <time>2014-02-23T05:25:54Z</time>
      </trkpt>
      <trkpt lat="42.70951" lon="1.42181">
        <ele>1183.52</ele>
        <time>2014-02-23T05:25:56Z</time>
      </trkpt>
      <trkpt lat="42.7095" lon="1.42178">
        <ele>1184.48</ele>
        <time>2014-02-23T05:25:58Z</time>
      </trkpt>
      <trkpt lat="42.70947" lon="1.42164">
        <ele>1181.6</ele>
        <time>2014-02-23T05:26:07Z</time>
      </trkpt>
      <trkpt lat="42.70944" lon="1.4215">
        <ele>1183.52</ele>
        <time>2014-02-23T05:26:21Z</time>
      </trkpt>
      <trkpt lat="42.7094" lon="1.42144">
        <ele>1182.56</ele>
        <time>2014-02-23T05:26:31Z</time>
      </trkpt>
      <trkpt lat="42.70939" lon="1.42141">
        <ele>1182.56</ele>
        <time>2014-02-23T05:26:42Z</time>
      </trkpt>
      <trkpt lat="42.70938" lon="1.42129">
        <ele>1185.44</ele>
        <time>2014-02-23T05:26:53Z</time>
      </trkpt>
      <trkpt lat="42.70935" lon="1.42119">
        <ele>1188.33</ele>
        <time>2014-02-23T05:27:05Z</time>
      </trkpt>
      <trkpt lat="42.70932" lon="1.4211">
        <ele>1191.69</ele>
        <time>2014-02-23T05:27:18Z</time>
      </trkpt>
      <trkpt lat="42.70932" lon="1.421">
        <ele>1194.58</ele>
        <time>2014-02-23T05:27:31Z</time>
      </trkpt>
      <trkpt lat="42.70932" lon="1.42092">
        <ele>1196.5</ele>
        <time>2014-02-23T05:27:42Z</time>
      </trkpt>
      <trkpt lat="42.70933" lon="1.42089">
        <ele>1200.34</ele>
        <time>2014-02-23T05:27:53Z</time>
      </trkpt>
      <trkpt lat="42.7093" lon="1.42082">
        <ele>1201.3</ele>
        <time>2014-02-23T05:28:07Z</time>
      </trkpt>
      <trkpt lat="42.70922" lon="1.42067">
        <ele>1199.86</ele>
        <time>2014-02-23T05:28:21Z</time>
      </trkpt>
      <trkpt lat="42.70918" lon="1.42053">
        <ele>1200.34</ele>
        <time>2014-02-23T05:28:33Z</time>
      </trkpt>
      <trkpt lat="42.7092" lon="1.42029">
        <ele>1199.86</ele>
        <time>2014-02-23T05:28:48Z</time>
      </trkpt>
      <trkpt lat="42.70921" lon="1.42023">
        <ele>1200.34</ele>
        <time>2014-02-23T05:28:52Z</time>
      </trkpt>
      <trkpt lat="42.70924" lon="1.41999">
        <ele>1202.27</ele>
        <time>2014-02-23T05:29:08Z</time>
      </trkpt>
      <trkpt lat="42.70926" lon="1.41986">
        <ele>1206.11</ele>
        <time>2014-02-23T05:29:18Z</time>
      </trkpt>
      <trkpt lat="42.70928" lon="1.41974">
        <ele>1206.59</ele>
        <time>2014-02-23T05:29:28Z</time>
      </trkpt>
      <trkpt lat="42.7093" lon="1.41965">
        <ele>1206.11</ele>
        <time>2014-02-23T05:29:35Z</time>
      </trkpt>
      <trkpt lat="42.70937" lon="1.41948">
        <ele>1208.03</ele>
        <time>2014-02-23T05:29:50Z</time>
      </trkpt>
      <trkpt lat="42.70936" lon="1.41942">
        <ele>1208.03</ele>
        <time>2014-02-23T05:29:55Z</time>
      </trkpt>
      <trkpt lat="42.70938" lon="1.41923">
        <ele>1208.03</ele>
        <time>2014-02-23T05:30:09Z</time>
      </trkpt>
      <trkpt lat="42.70938" lon="1.41917">
        <ele>1208.03</ele>
        <time>2014-02-23T05:30:12Z</time>
      </trkpt>
      <trkpt lat="42.70941" lon="1.4191">
        <ele>1208.03</ele>
        <time>2014-02-23T05:30:17Z</time>
      </trkpt>
      <trkpt lat="42.70939" lon="1.41894">
        <ele>1205.15</ele>
        <time>2014-02-23T05:30:28Z</time>
      </trkpt>
      <trkpt lat="42.70933" lon="1.41873">
        <ele>1205.15</ele>
        <time>2014-02-23T05:30:42Z</time>
      </trkpt>
      <trkpt lat="42.7093" lon="1.41868">
        <ele>1205.15</ele>
        <time>2014-02-23T05:30:48Z</time>
      </trkpt>
      <trkpt lat="42.70933" lon="1.41849">
        <ele>1206.59</ele>
        <time>2014-02-23T05:31:02Z</time>
      </trkpt>
      <trkpt lat="42.70934" lon="1.41845">
        <ele>1206.59</ele>
        <time>2014-02-23T05:31:06Z</time>
      </trkpt>
      <trkpt lat="42.70931" lon="1.41832">
        <ele>1206.59</ele>
        <time>2014-02-23T05:31:17Z</time>
      </trkpt>
      <trkpt lat="42.70927" lon="1.41815">
        <ele>1206.11</ele>
        <time>2014-02-23T05:31:29Z</time>
      </trkpt>
      <trkpt lat="42.70928" lon="1.41801">
        <ele>1205.63</ele>
        <time>2014-02-23T05:31:42Z</time>
      </trkpt>
      <trkpt lat="42.7093" lon="1.41794">
        <ele>1206.11</ele>
        <time>2014-02-23T05:31:48Z</time>
      </trkpt>
      <trkpt lat="42.70926" lon="1.41782">
        <ele>1208.03</ele>
        <time>2014-02-23T05:32:00Z</time>
      </trkpt>
      <trkpt lat="42.70924" lon="1.41777">
        <ele>1208.51</ele>
        <time>2014-02-23T05:32:05Z</time>
      </trkpt>
      <trkpt lat="42.70917" lon="1.41764">
        <ele>1209.96</ele>
        <time>2014-02-23T05:32:18Z</time>
      </trkpt>
      <trkpt lat="42.70916" lon="1.41758">
        <ele>1211.4</ele>
        <time>2014-02-23T05:32:26Z</time>
      </trkpt>
      <trkpt lat="42.70912" lon="1.41741">
        <ele>1210.44</ele>
        <time>2014-02-23T05:32:40Z</time>
      </trkpt>
      <trkpt lat="42.70912" lon="1.41738">
        <ele>1210.44</ele>
        <time>2014-02-23T05:32:42Z</time>
      </trkpt>
      <trkpt lat="42.70909" lon="1.41735">
        <ele>1209.96</ele>
        <time>2014-02-23T05:32:45Z</time>
      </trkpt>
      <trkpt lat="42.70904" lon="1.41724">
        <ele>1213.32</ele>
        <time>2014-02-23T05:32:57Z</time>
      </trkpt>
      <trkpt lat="42.70902" lon="1.41714">
        <ele>1215.72</ele>
        <time>2014-02-23T05:33:06Z</time>
      </trkpt>
      <trkpt lat="42.70901" lon="1.417">
        <ele>1218.61</ele>
        <time>2014-02-23T05:33:18Z</time>
      </trkpt>
      <trkpt lat="42.70899" lon="1.41686">
        <ele>1220.05</ele>
        <time>2014-02-23T05:33:32Z</time>
      </trkpt>
      <trkpt lat="42.70898" lon="1.41682">
        <ele>1221.01</ele>
        <time>2014-02-23T05:33:36Z</time>
      </trkpt>
      <trkpt lat="42.70896" lon="1.41663">
        <ele>1219.57</ele>
        <time>2014-02-23T05:33:50Z</time>
      </trkpt>
      <trkpt lat="42.70894" lon="1.41651">
        <ele>1220.05</ele>
        <time>2014-02-23T05:34:02Z</time>
      </trkpt>
      <trkpt lat="42.70893" lon="1.41644">
        <ele>1220.53</ele>
        <time>2014-02-23T05:34:08Z</time>
      </trkpt>
      <trkpt lat="42.70892" lon="1.41632">
        <ele>1222.45</ele>
        <time>2014-02-23T05:34:18Z</time>
      </trkpt>
      <trkpt lat="42.70892" lon="1.41629">
        <ele>1222.93</ele>
        <time>2014-02-23T05:34:20Z</time>
      </trkpt>
      <trkpt lat="42.7089" lon="1.41614">
        <ele>1225.34</ele>
        <time>2014-02-23T05:34:33Z</time>
      </trkpt>
      <trkpt lat="42.70888" lon="1.41597">
        <ele>1225.82</ele>
        <time>2014-02-23T05:34:48Z</time>
      </trkpt>
      <trkpt lat="42.70885" lon="1.41586">
        <ele>1226.78</ele>
        <time>2014-02-23T05:35:00Z</time>
      </trkpt>
      <trkpt lat="42.70887" lon="1.41579">
        <ele>1229.66</ele>
        <time>2014-02-23T05:35:16Z</time>
      </trkpt>
      <trkpt lat="42.70887" lon="1.41577">
        <ele>1230.14</ele>
        <time>2014-02-23T05:35:35Z</time>
      </trkpt>
      <trkpt lat="42.70887" lon="1.41577">
        <ele>1230.14</ele>
        <time>2014-02-23T05:35:48Z</time>
      </trkpt>
      <trkpt lat="42.70886" lon="1.41578">
        <ele>1229.66</ele>
        <time>2014-02-23T05:35:52Z</time>
      </trkpt>
      <trkpt lat="42.70886" lon="1.41581">
        <ele>1229.18</ele>
        <time>2014-02-23T05:36:05Z</time>
      </trkpt>
      <trkpt lat="42.70887" lon="1.41578">
        <ele>1229.66</ele>
        <time>2014-02-23T05:36:25Z</time>
      </trkpt>
      <trkpt lat="42.70889" lon="1.41576">
        <ele>1233.51</ele>
        <time>2014-02-23T05:36:47Z</time>
      </trkpt>
      <trkpt lat="42.70887" lon="1.41575">
        <ele>1233.99</ele>
        <time>2014-02-23T05:37:05Z</time>
      </trkpt>
      <trkpt lat="42.70887" lon="1.41577">
        <ele>1235.43</ele>
        <time>2014-02-23T05:37:21Z</time>
      </trkpt>
      <trkpt lat="42.70891" lon="1.41569">
        <ele>1236.87</ele>
        <time>2014-02-23T05:37:33Z</time>
      </trkpt>
      <trkpt lat="42.70892" lon="1.41569">
        <ele>1236.87</ele>
        <time>2014-02-23T05:37:34Z</time>
      </trkpt>
      <trkpt lat="42.70895" lon="1.41558">
        <ele>1236.87</ele>
        <time>2014-02-23T05:37:46Z</time>
      </trkpt>
      <trkpt lat="42.70896" lon="1.41548">
        <ele>1239.76</ele>
        <time>2014-02-23T05:37:59Z</time>
      </trkpt>
      <trkpt lat="42.70895" lon="1.41537">
        <ele>1240.72</ele>
        <time>2014-02-23T05:38:11Z</time>
      </trkpt>
      <trkpt lat="42.70894" lon="1.41535">
        <ele>1240.72</ele>
        <time>2014-02-23T05:38:13Z</time>
      </trkpt>
      <trkpt lat="42.70888" lon="1.41531">
        <ele>1241.68</ele>
        <time>2014-02-23T05:38:24Z</time>
      </trkpt>
      <trkpt lat="42.70882" lon="1.4153">
        <ele>1244.08</ele>
        <time>2014-02-23T05:38:37Z</time>
      </trkpt>
      <trkpt lat="42.70875" lon="1.41528">
        <ele>1245.53</ele>
        <time>2014-02-23T05:38:49Z</time>
      </trkpt>
      <trkpt lat="42.70868" lon="1.41528">
        <ele>1246.97</ele>
        <time>2014-02-23T05:39:00Z</time>
      </trkpt>
      <trkpt lat="42.70864" lon="1.41529">
        <ele>1247.93</ele>
        <time>2014-02-23T05:39:05Z</time>
      </trkpt>
      <trkpt lat="42.70858" lon="1.41527">
        <ele>1248.41</ele>
        <time>2014-02-23T05:39:16Z</time>
      </trkpt>
      <trkpt lat="42.70852" lon="1.41529">
        <ele>1250.33</ele>
        <time>2014-02-23T05:39:27Z</time>
      </trkpt>
      <trkpt lat="42.70843" lon="1.41529">
        <ele>1251.77</ele>
        <time>2014-02-23T05:39:41Z</time>
      </trkpt>
      <trkpt lat="42.70838" lon="1.41536">
        <ele>1255.14</ele>
        <time>2014-02-23T05:39:57Z</time>
      </trkpt>
      <trkpt lat="42.70834" lon="1.41541">
        <ele>1257.06</ele>
        <time>2014-02-23T05:40:09Z</time>
      </trkpt>
      <trkpt lat="42.70832" lon="1.41545">
        <ele>1257.54</ele>
        <time>2014-02-23T05:40:14Z</time>
      </trkpt>
      <trkpt lat="42.70831" lon="1.41555">
        <ele>1259.46</ele>
        <time>2014-02-23T05:40:27Z</time>
      </trkpt>
      <trkpt lat="42.70828" lon="1.41561">
        <ele>1262.35</ele>
        <time>2014-02-23T05:40:40Z</time>
      </trkpt>
      <trkpt lat="42.70825" lon="1.41567">
        <ele>1263.31</ele>
        <time>2014-02-23T05:40:51Z</time>
      </trkpt>
      <trkpt lat="42.7082" lon="1.41571">
        <ele>1266.19</ele>
        <time>2014-02-23T05:41:04Z</time>
      </trkpt>
      <trkpt lat="42.70819" lon="1.41576">
        <ele>1266.67</ele>
        <time>2014-02-23T05:41:14Z</time>
      </trkpt>
      <trkpt lat="42.70816" lon="1.4158">
        <ele>1268.12</ele>
        <time>2014-02-23T05:41:25Z</time>
      </trkpt>
      <trkpt lat="42.70815" lon="1.41582">
        <ele>1271.96</ele>
        <time>2014-02-23T05:41:38Z</time>
      </trkpt>
      <trkpt lat="42.70811" lon="1.41583">
        <ele>1273.4</ele>
        <time>2014-02-23T05:41:48Z</time>
      </trkpt>
      <trkpt lat="42.70807" lon="1.4159">
        <ele>1274.85</ele>
        <time>2014-02-23T05:42:00Z</time>
      </trkpt>
      <trkpt lat="42.70805" lon="1.41597">
        <ele>1276.77</ele>
        <time>2014-02-23T05:42:11Z</time>
      </trkpt>
      <trkpt lat="42.70801" lon="1.416">
        <ele>1278.21</ele>
        <time>2014-02-23T05:42:22Z</time>
      </trkpt>
      <trkpt lat="42.70798" lon="1.41604">
        <ele>1281.09</ele>
        <time>2014-02-23T05:42:34Z</time>
      </trkpt>
      <trkpt lat="42.70795" lon="1.41603">
        <ele>1283.5</ele>
        <time>2014-02-23T05:42:45Z</time>
      </trkpt>
      <trkpt lat="42.70793" lon="1.41606">
        <ele>1286.86</ele>
        <time>2014-02-23T05:42:56Z</time>
      </trkpt>
      <trkpt lat="42.70789" lon="1.41608">
        <ele>1288.78</ele>
        <time>2014-02-23T05:43:07Z</time>
      </trkpt>
      <trkpt lat="42.70786" lon="1.41608">
        <ele>1290.71</ele>
        <time>2014-02-23T05:43:19Z</time>
      </trkpt>
      <trkpt lat="42.70781" lon="1.41609">
        <ele>1292.63</ele>
        <time>2014-02-23T05:43:30Z</time>
      </trkpt>
      <trkpt lat="42.70777" lon="1.41613">
        <ele>1295.03</ele>
        <time>2014-02-23T05:43:41Z</time>
      </trkpt>
      <trkpt lat="42.70774" lon="1.41619">
        <ele>1296.96</ele>
        <time>2014-02-23T05:43:53Z</time>
      </trkpt>
      <trkpt lat="42.70769" lon="1.41624">
        <ele>1300.32</ele>
        <time>2014-02-23T05:44:05Z</time>
      </trkpt>
      <trkpt lat="42.70765" lon="1.41628">
        <ele>1303.2</ele>
        <time>2014-02-23T05:44:17Z</time>
      </trkpt>
      <trkpt lat="42.70764" lon="1.41632">
        <ele>1305.61</ele>
        <time>2014-02-23T05:44:29Z</time>
      </trkpt>
      <trkpt lat="42.70759" lon="1.41634">
        <ele>1309.45</ele>
        <time>2014-02-23T05:44:41Z</time>
      </trkpt>
      <trkpt lat="42.70754" lon="1.41638">
        <ele>1314.26</ele>
        <time>2014-02-23T05:44:54Z</time>
      </trkpt>
      <trkpt lat="42.70751" lon="1.41642">
        <ele>1316.66</ele>
        <time>2014-02-23T05:45:06Z</time>
      </trkpt>
      <trkpt lat="42.70747" lon="1.4165">
        <ele>1319.55</ele>
        <time>2014-02-23T05:45:19Z</time>
      </trkpt>
      <trkpt lat="42.70743" lon="1.4166">
        <ele>1321.95</ele>
        <time>2014-02-23T05:45:33Z</time>
      </trkpt>
      <trkpt lat="42.70739" lon="1.41663">
        <ele>1325.31</ele>
        <time>2014-02-23T05:45:45Z</time>
      </trkpt>
      <trkpt lat="42.70734" lon="1.41666">
        <ele>1328.68</ele>
        <time>2014-02-23T05:45:55Z</time>
      </trkpt>
      <trkpt lat="42.70731" lon="1.4167">
        <ele>1331.56</ele>
        <time>2014-02-23T05:46:08Z</time>
      </trkpt>
      <trkpt lat="42.70726" lon="1.41676">
        <ele>1332.04</ele>
        <time>2014-02-23T05:46:22Z</time>
      </trkpt>
      <trkpt lat="42.70723" lon="1.41684">
        <ele>1333.49</ele>
        <time>2014-02-23T05:46:33Z</time>
      </trkpt>
      <trkpt lat="42.70718" lon="1.4169">
        <ele>1334.45</ele>
        <time>2014-02-23T05:46:45Z</time>
      </trkpt>
      <trkpt lat="42.70716" lon="1.41698">
        <ele>1338.29</ele>
        <time>2014-02-23T05:46:57Z</time>
      </trkpt>
      <trkpt lat="42.70716" lon="1.41705">
        <ele>1340.7</ele>
        <time>2014-02-23T05:47:09Z</time>
      </trkpt>
      <trkpt lat="42.7071" lon="1.41713">
        <ele>1343.58</ele>
        <time>2014-02-23T05:47:20Z</time>
      </trkpt>
      <trkpt lat="42.70707" lon="1.41715">
        <ele>1345.02</ele>
        <time>2014-02-23T05:47:32Z</time>
      </trkpt>
      <trkpt lat="42.70705" lon="1.41705">
        <ele>1349.35</ele>
        <time>2014-02-23T05:47:46Z</time>
      </trkpt>
      <trkpt lat="42.70704" lon="1.41695">
        <ele>1352.23</ele>
        <time>2014-02-23T05:47:58Z</time>
      </trkpt>
      <trkpt lat="42.70703" lon="1.41692">
        <ele>1357.04</ele>
        <time>2014-02-23T05:48:11Z</time>
      </trkpt>
      <trkpt lat="42.70705" lon="1.41692">
        <ele>1360.4</ele>
        <time>2014-02-23T05:48:37Z</time>
      </trkpt>
      <trkpt lat="42.70703" lon="1.41684">
        <ele>1358.48</ele>
        <time>2014-02-23T05:48:47Z</time>
      </trkpt>
      <trkpt lat="42.70699" lon="1.41677">
        <ele>1359.44</ele>
        <time>2014-02-23T05:49:01Z</time>
      </trkpt>
      <trkpt lat="42.70694" lon="1.41669">
        <ele>1362.33</ele>
        <time>2014-02-23T05:49:13Z</time>
      </trkpt>
      <trkpt lat="42.7069" lon="1.41658">
        <ele>1365.21</ele>
        <time>2014-02-23T05:49:27Z</time>
      </trkpt>
      <trkpt lat="42.7069" lon="1.41644">
        <ele>1368.09</ele>
        <time>2014-02-23T05:49:40Z</time>
      </trkpt>
      <trkpt lat="42.70689" lon="1.41633">
        <ele>1369.05</ele>
        <time>2014-02-23T05:49:52Z</time>
      </trkpt>
      <trkpt lat="42.70686" lon="1.41622">
        <ele>1369.54</ele>
        <time>2014-02-23T05:50:06Z</time>
      </trkpt>
      <trkpt lat="42.70685" lon="1.41611">
        <ele>1372.42</ele>
        <time>2014-02-23T05:50:18Z</time>
      </trkpt>
      <trkpt lat="42.70683" lon="1.41601">
        <ele>1374.34</ele>
        <time>2014-02-23T05:50:32Z</time>
      </trkpt>
      <trkpt lat="42.70679" lon="1.41595">
        <ele>1374.82</ele>
        <time>2014-02-23T05:50:45Z</time>
      </trkpt>
      <trkpt lat="42.70675" lon="1.41593">
        <ele>1374.34</ele>
        <time>2014-02-23T05:50:57Z</time>
      </trkpt>
      <trkpt lat="42.70674" lon="1.41593">
        <ele>1375.3</ele>
        <time>2014-02-23T05:51:07Z</time>
      </trkpt>
      <trkpt lat="42.70671" lon="1.41586">
        <ele>1377.23</ele>
        <time>2014-02-23T05:51:20Z</time>
      </trkpt>
      <trkpt lat="42.70668" lon="1.41573">
        <ele>1378.67</ele>
        <time>2014-02-23T05:51:35Z</time>
      </trkpt>
      <trkpt lat="42.70668" lon="1.41563">
        <ele>1379.15</ele>
        <time>2014-02-23T05:51:47Z</time>
      </trkpt>
      <trkpt lat="42.70663" lon="1.41558">
        <ele>1381.55</ele>
        <time>2014-02-23T05:52:01Z</time>
      </trkpt>
      <trkpt lat="42.70661" lon="1.41554">
        <ele>1382.99</ele>
        <time>2014-02-23T05:52:12Z</time>
      </trkpt>
      <trkpt lat="42.7066" lon="1.41547">
        <ele>1384.92</ele>
        <time>2014-02-23T05:52:25Z</time>
      </trkpt>
      <trkpt lat="42.70658" lon="1.41541">
        <ele>1383.47</ele>
        <time>2014-02-23T05:52:39Z</time>
      </trkpt>
      <trkpt lat="42.70654" lon="1.41535">
        <ele>1385.88</ele>
        <time>2014-02-23T05:52:50Z</time>
      </trkpt>
      <trkpt lat="42.70654" lon="1.41532">
        <ele>1386.84</ele>
        <time>2014-02-23T05:52:58Z</time>
      </trkpt>
      <trkpt lat="42.70657" lon="1.41528">
        <ele>1388.76</ele>
        <time>2014-02-23T05:53:09Z</time>
      </trkpt>
      <trkpt lat="42.70658" lon="1.41525">
        <ele>1387.8</ele>
        <time>2014-02-23T05:53:22Z</time>
      </trkpt>
      <trkpt lat="42.70662" lon="1.41525">
        <ele>1388.76</ele>
        <time>2014-02-23T05:53:34Z</time>
      </trkpt>
      <trkpt lat="42.70664" lon="1.41522">
        <ele>1387.8</ele>
        <time>2014-02-23T05:53:44Z</time>
      </trkpt>
      <trkpt lat="42.70669" lon="1.4152">
        <ele>1387.32</ele>
        <time>2014-02-23T05:53:52Z</time>
      </trkpt>
      <trkpt lat="42.70674" lon="1.41511">
        <ele>1387.32</ele>
        <time>2014-02-23T05:54:05Z</time>
      </trkpt>
      <trkpt lat="42.70677" lon="1.41496">
        <ele>1387.32</ele>
        <time>2014-02-23T05:54:19Z</time>
      </trkpt>
      <trkpt lat="42.70677" lon="1.41487">
        <ele>1390.2</ele>
        <time>2014-02-23T05:54:30Z</time>
      </trkpt>
      <trkpt lat="42.70676" lon="1.41474">
        <ele>1390.68</ele>
        <time>2014-02-23T05:54:43Z</time>
      </trkpt>
      <trkpt lat="42.70676" lon="1.41466">
        <ele>1391.65</ele>
        <time>2014-02-23T05:54:51Z</time>
      </trkpt>
      <trkpt lat="42.70676" lon="1.41462">
        <ele>1392.13</ele>
        <time>2014-02-23T05:54:54Z</time>
      </trkpt>
      <trkpt lat="42.70675" lon="1.41454">
        <ele>1391.65</ele>
        <time>2014-02-23T05:55:01Z</time>
      </trkpt>
      <trkpt lat="42.70674" lon="1.41442">
        <ele>1395.49</ele>
        <time>2014-02-23T05:55:15Z</time>
      </trkpt>
      <trkpt lat="42.70678" lon="1.41423">
        <ele>1398.86</ele>
        <time>2014-02-23T05:55:30Z</time>
      </trkpt>
      <trkpt lat="42.70683" lon="1.41404">
        <ele>1405.58</ele>
        <time>2014-02-23T05:55:46Z</time>
      </trkpt>
      <trkpt lat="42.70685" lon="1.4139">
        <ele>1409.91</ele>
        <time>2014-02-23T05:55:59Z</time>
      </trkpt>
      <trkpt lat="42.70686" lon="1.4138">
        <ele>1416.16</ele>
        <time>2014-02-23T05:56:11Z</time>
      </trkpt>
      <trkpt lat="42.70687" lon="1.41365">
        <ele>1419.04</ele>
        <time>2014-02-23T05:56:24Z</time>
      </trkpt>
      <trkpt lat="42.7069" lon="1.41355">
        <ele>1421.93</ele>
        <time>2014-02-23T05:56:36Z</time>
      </trkpt>
      <trkpt lat="42.70689" lon="1.41342">
        <ele>1426.25</ele>
        <time>2014-02-23T05:56:49Z</time>
      </trkpt>
      <trkpt lat="42.70689" lon="1.41328">
        <ele>1426.73</ele>
        <time>2014-02-23T05:57:03Z</time>
      </trkpt>
      <trkpt lat="42.70687" lon="1.41317">
        <ele>1431.06</ele>
        <time>2014-02-23T05:57:16Z</time>
      </trkpt>
      <trkpt lat="42.70689" lon="1.41307">
        <ele>1434.42</ele>
        <time>2014-02-23T05:57:29Z</time>
      </trkpt>
      <trkpt lat="42.70691" lon="1.41295">
        <ele>1439.23</ele>
        <time>2014-02-23T05:57:41Z</time>
      </trkpt>
      <trkpt lat="42.70693" lon="1.41278">
        <ele>1437.79</ele>
        <time>2014-02-23T05:57:54Z</time>
      </trkpt>
      <trkpt lat="42.70695" lon="1.41263">
        <ele>1439.23</ele>
        <time>2014-02-23T05:58:07Z</time>
      </trkpt>
      <trkpt lat="42.70698" lon="1.41248">
        <ele>1440.19</ele>
        <time>2014-02-23T05:58:20Z</time>
      </trkpt>
      <trkpt lat="42.70699" lon="1.4124">
        <ele>1445.48</ele>
        <time>2014-02-23T05:58:33Z</time>
      </trkpt>
      <trkpt lat="42.70702" lon="1.41228">
        <ele>1447.4</ele>
        <time>2014-02-23T05:58:47Z</time>
      </trkpt>
      <trkpt lat="42.70705" lon="1.41209">
        <ele>1445</ele>
        <time>2014-02-23T05:59:00Z</time>
      </trkpt>
      <trkpt lat="42.70707" lon="1.41195">
        <ele>1442.6</ele>
        <time>2014-02-23T05:59:13Z</time>
      </trkpt>
      <trkpt lat="42.70709" lon="1.41179">
        <ele>1441.15</ele>
        <time>2014-02-23T05:59:27Z</time>
      </trkpt>
      <trkpt lat="42.70709" lon="1.41168">
        <ele>1443.56</ele>
        <time>2014-02-23T05:59:43Z</time>
      </trkpt>
      <trkpt lat="42.70707" lon="1.41159">
        <ele>1443.56</ele>
        <time>2014-02-23T05:59:54Z</time>
      </trkpt>
      <trkpt lat="42.70705" lon="1.41147">
        <ele>1445.48</ele>
        <time>2014-02-23T06:00:08Z</time>
      </trkpt>
      <trkpt lat="42.70704" lon="1.41133">
        <ele>1446.44</ele>
        <time>2014-02-23T06:00:22Z</time>
      </trkpt>
      <trkpt lat="42.707" lon="1.41119">
        <ele>1445.48</ele>
        <time>2014-02-23T06:00:36Z</time>
      </trkpt>
      <trkpt lat="42.70696" lon="1.41108">
        <ele>1445.96</ele>
        <time>2014-02-23T06:00:49Z</time>
      </trkpt>
      <trkpt lat="42.70695" lon="1.41096">
        <ele>1448.36</ele>
        <time>2014-02-23T06:01:01Z</time>
      </trkpt>
      <trkpt lat="42.70691" lon="1.41088">
        <ele>1450.77</ele>
        <time>2014-02-23T06:01:15Z</time>
      </trkpt>
      <trkpt lat="42.70688" lon="1.41076">
        <ele>1450.29</ele>
        <time>2014-02-23T06:01:27Z</time>
      </trkpt>
      <trkpt lat="42.70686" lon="1.41066">
        <ele>1452.69</ele>
        <time>2014-02-23T06:01:40Z</time>
      </trkpt>
      <trkpt lat="42.70683" lon="1.41055">
        <ele>1453.65</ele>
        <time>2014-02-23T06:01:52Z</time>
      </trkpt>
      <trkpt lat="42.7068" lon="1.41045">
        <ele>1451.25</ele>
        <time>2014-02-23T06:02:07Z</time>
      </trkpt>
      <trkpt lat="42.70676" lon="1.41036">
        <ele>1452.21</ele>
        <time>2014-02-23T06:02:20Z</time>
      </trkpt>
      <trkpt lat="42.70672" lon="1.4103">
        <ele>1452.21</ele>
        <time>2014-02-23T06:02:37Z</time>
      </trkpt>
      <trkpt lat="42.70672" lon="1.41024">
        <ele>1460.38</ele>
        <time>2014-02-23T06:02:50Z</time>
      </trkpt>
      <trkpt lat="42.70671" lon="1.41027">
        <ele>1457.5</ele>
        <time>2014-02-23T06:03:01Z</time>
      </trkpt>
      <trkpt lat="42.70669" lon="1.41032">
        <ele>1456.53</ele>
        <time>2014-02-23T06:03:10Z</time>
      </trkpt>
      <trkpt lat="42.70666" lon="1.41035">
        <ele>1456.05</ele>
        <time>2014-02-23T06:03:15Z</time>
      </trkpt>
      <trkpt lat="42.70666" lon="1.41045">
        <ele>1457.98</ele>
        <time>2014-02-23T06:03:26Z</time>
      </trkpt>
      <trkpt lat="42.70662" lon="1.41043">
        <ele>1460.86</ele>
        <time>2014-02-23T06:03:38Z</time>
      </trkpt>
      <trkpt lat="42.70658" lon="1.41036">
        <ele>1464.71</ele>
        <time>2014-02-23T06:03:50Z</time>
      </trkpt>
      <trkpt lat="42.70658" lon="1.41025">
        <ele>1469.51</ele>
        <time>2014-02-23T06:04:03Z</time>
      </trkpt>
      <trkpt lat="42.70656" lon="1.41013">
        <ele>1476.72</ele>
        <time>2014-02-23T06:04:18Z</time>
      </trkpt>
      <trkpt lat="42.70655" lon="1.41">
        <ele>1483.45</ele>
        <time>2014-02-23T06:04:34Z</time>
      </trkpt>
      <trkpt lat="42.70654" lon="1.40999">
        <ele>1483.45</ele>
        <time>2014-02-23T06:04:37Z</time>
      </trkpt>
      <trkpt lat="42.70653" lon="1.40983">
        <ele>1484.41</ele>
        <time>2014-02-23T06:04:49Z</time>
      </trkpt>
      <trkpt lat="42.70658" lon="1.40969">
        <ele>1486.82</ele>
        <time>2014-02-23T06:05:02Z</time>
      </trkpt>
      <trkpt lat="42.70657" lon="1.40958">
        <ele>1487.3</ele>
        <time>2014-02-23T06:05:14Z</time>
      </trkpt>
      <trkpt lat="42.70657" lon="1.40946">
        <ele>1488.26</ele>
        <time>2014-02-23T06:05:26Z</time>
      </trkpt>
      <trkpt lat="42.70658" lon="1.40934">
        <ele>1489.22</ele>
        <time>2014-02-23T06:05:40Z</time>
      </trkpt>
      <trkpt lat="42.70657" lon="1.40921">
        <ele>1489.7</ele>
        <time>2014-02-23T06:05:52Z</time>
      </trkpt>
      <trkpt lat="42.70655" lon="1.40908">
        <ele>1489.7</ele>
        <time>2014-02-23T06:06:05Z</time>
      </trkpt>
      <trkpt lat="42.70656" lon="1.40895">
        <ele>1492.1</ele>
        <time>2014-02-23T06:06:18Z</time>
      </trkpt>
      <trkpt lat="42.70658" lon="1.40887">
        <ele>1486.82</ele>
        <time>2014-02-23T06:06:33Z</time>
      </trkpt>
      <trkpt lat="42.70658" lon="1.40885">
        <ele>1483.93</ele>
        <time>2014-02-23T06:06:45Z</time>
      </trkpt>
      <trkpt lat="42.70655" lon="1.40881">
        <ele>1480.09</ele>
        <time>2014-02-23T06:07:01Z</time>
      </trkpt>
      <trkpt lat="42.70652" lon="1.40879">
        <ele>1478.16</ele>
        <time>2014-02-23T06:07:24Z</time>
      </trkpt>
      <trkpt lat="42.70654" lon="1.40878">
        <ele>1478.65</ele>
        <time>2014-02-23T06:07:38Z</time>
      </trkpt>
      <trkpt lat="42.70655" lon="1.40873">
        <ele>1478.16</ele>
        <time>2014-02-23T06:08:02Z</time>
      </trkpt>
      <trkpt lat="42.70658" lon="1.40874">
        <ele>1478.16</ele>
        <time>2014-02-23T06:08:31Z</time>
      </trkpt>
      <trkpt lat="42.70656" lon="1.4088">
        <ele>1477.2</ele>
        <time>2014-02-23T06:08:46Z</time>
      </trkpt>
      <trkpt lat="42.70648" lon="1.40878">
        <ele>1478.16</ele>
        <time>2014-02-23T06:09:14Z</time>
      </trkpt>
      <trkpt lat="42.70648" lon="1.40878">
        <ele>1481.05</ele>
        <time>2014-02-23T06:09:48Z</time>
      </trkpt>
      <trkpt lat="42.70649" lon="1.40879">
        <ele>1479.13</ele>
        <time>2014-02-23T06:10:19Z</time>
      </trkpt>
      <trkpt lat="42.70658" lon="1.40878">
        <ele>1483.45</ele>
        <time>2014-02-23T06:10:41Z</time>
      </trkpt>
      <trkpt lat="42.70657" lon="1.40877">
        <ele>1482.01</ele>
        <time>2014-02-23T06:11:05Z</time>
      </trkpt>
      <trkpt lat="42.70648" lon="1.40879">
        <ele>1474.8</ele>
        <time>2014-02-23T06:11:33Z</time>
      </trkpt>
      <trkpt lat="42.70649" lon="1.40879">
        <ele>1470.47</ele>
        <time>2014-02-23T06:12:11Z</time>
      </trkpt>
      <trkpt lat="42.70649" lon="1.40876">
        <ele>1464.71</ele>
        <time>2014-02-23T06:12:45Z</time>
      </trkpt>
      <trkpt lat="42.70651" lon="1.40874">
        <ele>1470.95</ele>
        <time>2014-02-23T06:13:09Z</time>
      </trkpt>
      <trkpt lat="42.70652" lon="1.40874">
        <ele>1477.2</ele>
        <time>2014-02-23T06:13:31Z</time>
      </trkpt>
      <trkpt lat="42.70653" lon="1.40875">
        <ele>1479.61</ele>
        <time>2014-02-23T06:13:51Z</time>
      </trkpt>
      <trkpt lat="42.70654" lon="1.40875">
        <ele>1479.61</ele>
        <time>2014-02-23T06:14:02Z</time>
      </trkpt>
      <trkpt lat="42.70652" lon="1.40876">
        <ele>1477.68</ele>
        <time>2014-02-23T06:14:18Z</time>
      </trkpt>
      <trkpt lat="42.70652" lon="1.40877">
        <ele>1477.68</ele>
        <time>2014-02-23T06:14:33Z</time>
      </trkpt>
      <trkpt lat="42.70651" lon="1.40876">
        <ele>1478.65</ele>
        <time>2014-02-23T06:14:49Z</time>
      </trkpt>
      <trkpt lat="42.70652" lon="1.40878">
        <ele>1478.16</ele>
        <time>2014-02-23T06:15:08Z</time>
      </trkpt>
      <trkpt lat="42.7065" lon="1.40878">
        <ele>1475.76</ele>
        <time>2014-02-23T06:15:28Z</time>
      </trkpt>
      <trkpt lat="42.7065" lon="1.40877">
        <ele>1476.24</ele>
        <time>2014-02-23T06:15:29Z</time>
      </trkpt>
      <trkpt lat="42.70654" lon="1.40868">
        <ele>1483.93</ele>
        <time>2014-02-23T06:15:42Z</time>
      </trkpt>
      <trkpt lat="42.70653" lon="1.40855">
        <ele>1487.3</ele>
        <time>2014-02-23T06:15:56Z</time>
      </trkpt>
      <trkpt lat="42.70656" lon="1.40853">
        <ele>1488.26</ele>
        <time>2014-02-23T06:16:09Z</time>
      </trkpt>
      <trkpt lat="42.70651" lon="1.40846">
        <ele>1490.18</ele>
        <time>2014-02-23T06:16:24Z</time>
      </trkpt>
      <trkpt lat="42.7065" lon="1.40832">
        <ele>1489.7</ele>
        <time>2014-02-23T06:16:39Z</time>
      </trkpt>
      <trkpt lat="42.70647" lon="1.40823">
        <ele>1489.7</ele>
        <time>2014-02-23T06:16:53Z</time>
      </trkpt>
      <trkpt lat="42.70642" lon="1.40816">
        <ele>1492.1</ele>
        <time>2014-02-23T06:17:04Z</time>
      </trkpt>
      <trkpt lat="42.70637" lon="1.4081">
        <ele>1495.47</ele>
        <time>2014-02-23T06:17:19Z</time>
      </trkpt>
      <trkpt lat="42.70634" lon="1.40808">
        <ele>1491.62</ele>
        <time>2014-02-23T06:17:32Z</time>
      </trkpt>
      <trkpt lat="42.70635" lon="1.40807">
        <ele>1490.66</ele>
        <time>2014-02-23T06:17:44Z</time>
      </trkpt>
      <trkpt lat="42.70636" lon="1.40805">
        <ele>1490.18</ele>
        <time>2014-02-23T06:17:59Z</time>
      </trkpt>
      <trkpt lat="42.70635" lon="1.40808">
        <ele>1489.22</ele>
        <time>2014-02-23T06:18:15Z</time>
      </trkpt>
      <trkpt lat="42.70635" lon="1.40806">
        <ele>1489.22</ele>
        <time>2014-02-23T06:18:46Z</time>
      </trkpt>
      <trkpt lat="42.70635" lon="1.40805">
        <ele>1488.74</ele>
        <time>2014-02-23T06:18:56Z</time>
      </trkpt>
      <trkpt lat="42.70636" lon="1.40806">
        <ele>1488.74</ele>
        <time>2014-02-23T06:19:11Z</time>
      </trkpt>
      <trkpt lat="42.70633" lon="1.4081">
        <ele>1487.78</ele>
        <time>2014-02-23T06:19:27Z</time>
      </trkpt>
      <trkpt lat="42.70634" lon="1.40811">
        <ele>1489.7</ele>
        <time>2014-02-23T06:19:41Z</time>
      </trkpt>
      <trkpt lat="42.70634" lon="1.40809">
        <ele>1489.7</ele>
        <time>2014-02-23T06:20:01Z</time>
      </trkpt>
      <trkpt lat="42.7063" lon="1.40806">
        <ele>1493.06</ele>
        <time>2014-02-23T06:20:14Z</time>
      </trkpt>
      <trkpt lat="42.70622" lon="1.40798">
        <ele>1497.87</ele>
        <time>2014-02-23T06:20:27Z</time>
      </trkpt>
      <trkpt lat="42.70621" lon="1.40796">
        <ele>1497.39</ele>
        <time>2014-02-23T06:20:31Z</time>
      </trkpt>
      <trkpt lat="42.70616" lon="1.40787">
        <ele>1500.27</ele>
        <time>2014-02-23T06:20:41Z</time>
      </trkpt>
      <trkpt lat="42.70611" lon="1.40787">
        <ele>1502.2</ele>
        <time>2014-02-23T06:20:52Z</time>
      </trkpt>
      <trkpt lat="42.70611" lon="1.40788">
        <ele>1502.68</ele>
        <time>2014-02-23T06:20:53Z</time>
      </trkpt>
      <trkpt lat="42.70607" lon="1.40793">
        <ele>1505.08</ele>
        <time>2014-02-23T06:21:03Z</time>
      </trkpt>
      <trkpt lat="42.70606" lon="1.40796">
        <ele>1505.56</ele>
        <time>2014-02-23T06:21:21Z</time>
      </trkpt>
      <trkpt lat="42.706" lon="1.40796">
        <ele>1507.97</ele>
        <time>2014-02-23T06:21:32Z</time>
      </trkpt>
      <trkpt lat="42.70599" lon="1.40796">
        <ele>1511.33</ele>
        <time>2014-02-23T06:21:44Z</time>
      </trkpt>
      <trkpt lat="42.70595" lon="1.40801">
        <ele>1511.81</ele>
        <time>2014-02-23T06:21:50Z</time>
      </trkpt>
      <trkpt lat="42.70589" lon="1.40806">
        <ele>1512.77</ele>
        <time>2014-02-23T06:22:02Z</time>
      </trkpt>
      <trkpt lat="42.70587" lon="1.40806">
        <ele>1512.77</ele>
        <time>2014-02-23T06:22:14Z</time>
      </trkpt>
      <trkpt lat="42.70585" lon="1.40807">
        <ele>1513.73</ele>
        <time>2014-02-23T06:22:21Z</time>
      </trkpt>
      <trkpt lat="42.70581" lon="1.40811">
        <ele>1518.54</ele>
        <time>2014-02-23T06:22:32Z</time>
      </trkpt>
      <trkpt lat="42.70575" lon="1.4081">
        <ele>1520.94</ele>
        <time>2014-02-23T06:22:43Z</time>
      </trkpt>
      <trkpt lat="42.70572" lon="1.40803">
        <ele>1526.71</ele>
        <time>2014-02-23T06:22:56Z</time>
      </trkpt>
      <trkpt lat="42.70571" lon="1.40793">
        <ele>1529.59</ele>
        <time>2014-02-23T06:23:09Z</time>
      </trkpt>
      <trkpt lat="42.7057" lon="1.40786">
        <ele>1532.96</ele>
        <time>2014-02-23T06:23:19Z</time>
      </trkpt>
      <trkpt lat="42.70567" lon="1.40776">
        <ele>1536.8</ele>
        <time>2014-02-23T06:23:33Z</time>
      </trkpt>
      <trkpt lat="42.70566" lon="1.40762">
        <ele>1538.25</ele>
        <time>2014-02-23T06:23:48Z</time>
      </trkpt>
      <trkpt lat="42.70564" lon="1.40755">
        <ele>1538.73</ele>
        <time>2014-02-23T06:24:00Z</time>
      </trkpt>
      <trkpt lat="42.70561" lon="1.40747">
        <ele>1540.65</ele>
        <time>2014-02-23T06:24:13Z</time>
      </trkpt>
      <trkpt lat="42.70561" lon="1.40737">
        <ele>1542.57</ele>
        <time>2014-02-23T06:24:24Z</time>
      </trkpt>
      <trkpt lat="42.7056" lon="1.40727">
        <ele>1543.53</ele>
        <time>2014-02-23T06:24:37Z</time>
      </trkpt>
      <trkpt lat="42.70557" lon="1.40731">
        <ele>1544.98</ele>
        <time>2014-02-23T06:24:47Z</time>
      </trkpt>
      <trkpt lat="42.70548" lon="1.40735">
        <ele>1545.94</ele>
        <time>2014-02-23T06:25:02Z</time>
      </trkpt>
      <trkpt lat="42.70542" lon="1.40736">
        <ele>1547.86</ele>
        <time>2014-02-23T06:25:16Z</time>
      </trkpt>
      <trkpt lat="42.70542" lon="1.40731">
        <ele>1550.74</ele>
        <time>2014-02-23T06:25:27Z</time>
      </trkpt>
      <trkpt lat="42.7054" lon="1.40721">
        <ele>1552.67</ele>
        <time>2014-02-23T06:25:39Z</time>
      </trkpt>
      <trkpt lat="42.70537" lon="1.40716">
        <ele>1556.03</ele>
        <time>2014-02-23T06:25:51Z</time>
      </trkpt>
      <trkpt lat="42.70536" lon="1.40715">
        <ele>1555.55</ele>
        <time>2014-02-23T06:26:04Z</time>
      </trkpt>
      <trkpt lat="42.70536" lon="1.4071">
        <ele>1555.55</ele>
        <time>2014-02-23T06:26:20Z</time>
      </trkpt>
      <trkpt lat="42.70536" lon="1.40706">
        <ele>1555.07</ele>
        <time>2014-02-23T06:26:30Z</time>
      </trkpt>
      <trkpt lat="42.70536" lon="1.40699">
        <ele>1557.95</ele>
        <time>2014-02-23T06:26:43Z</time>
      </trkpt>
      <trkpt lat="42.70533" lon="1.40697">
        <ele>1556.99</ele>
        <time>2014-02-23T06:26:52Z</time>
      </trkpt>
      <trkpt lat="42.70531" lon="1.40695">
        <ele>1555.55</ele>
        <time>2014-02-23T06:27:02Z</time>
      </trkpt>
      <trkpt lat="42.70532" lon="1.40688">
        <ele>1556.03</ele>
        <time>2014-02-23T06:27:12Z</time>
      </trkpt>
      <trkpt lat="42.70531" lon="1.40683">
        <ele>1557.47</ele>
        <time>2014-02-23T06:27:22Z</time>
      </trkpt>
      <trkpt lat="42.70532" lon="1.40675">
        <ele>1560.84</ele>
        <time>2014-02-23T06:27:34Z</time>
      </trkpt>
      <trkpt lat="42.70532" lon="1.40667">
        <ele>1562.28</ele>
        <time>2014-02-23T06:27:43Z</time>
      </trkpt>
      <trkpt lat="42.70532" lon="1.40658">
        <ele>1564.68</ele>
        <time>2014-02-23T06:27:54Z</time>
      </trkpt>
      <trkpt lat="42.70529" lon="1.40649">
        <ele>1564.68</ele>
        <time>2014-02-23T06:28:05Z</time>
      </trkpt>
      <trkpt lat="42.70525" lon="1.40643">
        <ele>1565.16</ele>
        <time>2014-02-23T06:28:16Z</time>
      </trkpt>
      <trkpt lat="42.70522" lon="1.40639">
        <ele>1565.16</ele>
        <time>2014-02-23T06:28:28Z</time>
      </trkpt>
      <trkpt lat="42.70523" lon="1.40638">
        <ele>1564.2</ele>
        <time>2014-02-23T06:28:39Z</time>
      </trkpt>
      <trkpt lat="42.70523" lon="1.40643">
        <ele>1565.64</ele>
        <time>2014-02-23T06:28:53Z</time>
      </trkpt>
      <trkpt lat="42.70521" lon="1.40642">
        <ele>1567.09</ele>
        <time>2014-02-23T06:29:07Z</time>
      </trkpt>
      <trkpt lat="42.70518" lon="1.4064">
        <ele>1568.53</ele>
        <time>2014-02-23T06:29:17Z</time>
      </trkpt>
      <trkpt lat="42.70515" lon="1.40634">
        <ele>1569.01</ele>
        <time>2014-02-23T06:29:31Z</time>
      </trkpt>
      <trkpt lat="42.70513" lon="1.40632">
        <ele>1569.49</ele>
        <time>2014-02-23T06:29:43Z</time>
      </trkpt>
      <trkpt lat="42.70512" lon="1.40631">
        <ele>1568.53</ele>
        <time>2014-02-23T06:29:56Z</time>
      </trkpt>
      <trkpt lat="42.70512" lon="1.4063">
        <ele>1568.53</ele>
        <time>2014-02-23T06:30:13Z</time>
      </trkpt>
      <trkpt lat="42.70512" lon="1.4063">
        <ele>1568.53</ele>
        <time>2014-02-23T06:30:24Z</time>
      </trkpt>
      <trkpt lat="42.70511" lon="1.40634">
        <ele>1570.45</ele>
        <time>2014-02-23T06:30:38Z</time>
      </trkpt>
      <trkpt lat="42.70509" lon="1.4064">
        <ele>1572.37</ele>
        <time>2014-02-23T06:30:47Z</time>
      </trkpt>
      <trkpt lat="42.70503" lon="1.40647">
        <ele>1575.26</ele>
        <time>2014-02-23T06:31:00Z</time>
      </trkpt>
      <trkpt lat="42.70499" lon="1.40654">
        <ele>1577.66</ele>
        <time>2014-02-23T06:31:11Z</time>
      </trkpt>
      <trkpt lat="42.70496" lon="1.40653">
        <ele>1578.62</ele>
        <time>2014-02-23T06:31:22Z</time>
      </trkpt>
      <trkpt lat="42.70497" lon="1.40651">
        <ele>1578.62</ele>
        <time>2014-02-23T06:31:46Z</time>
      </trkpt>
      <trkpt lat="42.70497" lon="1.40651">
        <ele>1579.1</ele>
        <time>2014-02-23T06:31:59Z</time>
      </trkpt>
      <trkpt lat="42.70497" lon="1.40652">
        <ele>1577.66</ele>
        <time>2014-02-23T06:32:11Z</time>
      </trkpt>
      <trkpt lat="42.70498" lon="1.40652">
        <ele>1579.1</ele>
        <time>2014-02-23T06:32:29Z</time>
      </trkpt>
      <trkpt lat="42.70497" lon="1.40652">
        <ele>1580.54</ele>
        <time>2014-02-23T06:32:43Z</time>
      </trkpt>
      <trkpt lat="42.70496" lon="1.40649">
        <ele>1581.51</ele>
        <time>2014-02-23T06:32:46Z</time>
      </trkpt>
      <trkpt lat="42.70492" lon="1.40638">
        <ele>1583.91</ele>
        <time>2014-02-23T06:32:58Z</time>
      </trkpt>
      <trkpt lat="42.70487" lon="1.40632">
        <ele>1585.83</ele>
        <time>2014-02-23T06:33:09Z</time>
      </trkpt>
      <trkpt lat="42.70487" lon="1.40634">
        <ele>1585.83</ele>
        <time>2014-02-23T06:33:15Z</time>
      </trkpt>
      <trkpt lat="42.70484" lon="1.40638">
        <ele>1586.79</ele>
        <time>2014-02-23T06:33:24Z</time>
      </trkpt>
      <trkpt lat="42.70483" lon="1.40635">
        <ele>1587.27</ele>
        <time>2014-02-23T06:33:36Z</time>
      </trkpt>
      <trkpt lat="42.7048" lon="1.4063">
        <ele>1588.24</ele>
        <time>2014-02-23T06:33:46Z</time>
      </trkpt>
      <trkpt lat="42.70479" lon="1.40626">
        <ele>1589.68</ele>
        <time>2014-02-23T06:33:53Z</time>
      </trkpt>
      <trkpt lat="42.70474" lon="1.40623">
        <ele>1591.6</ele>
        <time>2014-02-23T06:34:03Z</time>
      </trkpt>
      <trkpt lat="42.70472" lon="1.40624">
        <ele>1594</ele>
        <time>2014-02-23T06:34:13Z</time>
      </trkpt>
      <trkpt lat="42.70468" lon="1.40631">
        <ele>1594.96</ele>
        <time>2014-02-23T06:34:21Z</time>
      </trkpt>
      <trkpt lat="42.70464" lon="1.40642">
        <ele>1597.37</ele>
        <time>2014-02-23T06:34:34Z</time>
      </trkpt>
      <trkpt lat="42.70458" lon="1.40651">
        <ele>1599.77</ele>
        <time>2014-02-23T06:34:46Z</time>
      </trkpt>
      <trkpt lat="42.70457" lon="1.40654">
        <ele>1600.25</ele>
        <time>2014-02-23T06:34:55Z</time>
      </trkpt>
      <trkpt lat="42.70453" lon="1.40659">
        <ele>1601.69</ele>
        <time>2014-02-23T06:35:06Z</time>
      </trkpt>
      <trkpt lat="42.70452" lon="1.40657">
        <ele>1603.14</ele>
        <time>2014-02-23T06:35:17Z</time>
      </trkpt>
      <trkpt lat="42.70449" lon="1.40652">
        <ele>1606.02</ele>
        <time>2014-02-23T06:35:26Z</time>
      </trkpt>
      <trkpt lat="42.70446" lon="1.40647">
        <ele>1608.9</ele>
        <time>2014-02-23T06:35:35Z</time>
      </trkpt>
      <trkpt lat="42.70444" lon="1.4065">
        <ele>1608.9</ele>
        <time>2014-02-23T06:35:46Z</time>
      </trkpt>
      <trkpt lat="42.70441" lon="1.40655">
        <ele>1609.86</ele>
        <time>2014-02-23T06:35:57Z</time>
      </trkpt>
      <trkpt lat="42.7044" lon="1.40648">
        <ele>1611.31</ele>
        <time>2014-02-23T06:36:11Z</time>
      </trkpt>
      <trkpt lat="42.70437" lon="1.40641">
        <ele>1614.19</ele>
        <time>2014-02-23T06:36:22Z</time>
      </trkpt>
      <trkpt lat="42.70436" lon="1.40637">
        <ele>1615.15</ele>
        <time>2014-02-23T06:36:28Z</time>
      </trkpt>
      <trkpt lat="42.70435" lon="1.40634">
        <ele>1617.07</ele>
        <time>2014-02-23T06:36:40Z</time>
      </trkpt>
      <trkpt lat="42.70432" lon="1.40634">
        <ele>1618.04</ele>
        <time>2014-02-23T06:36:46Z</time>
      </trkpt>
      <trkpt lat="42.70424" lon="1.40642">
        <ele>1619.48</ele>
        <time>2014-02-23T06:36:58Z</time>
      </trkpt>
      <trkpt lat="42.70422" lon="1.40645">
        <ele>1620.92</ele>
        <time>2014-02-23T06:37:08Z</time>
      </trkpt>
      <trkpt lat="42.7042" lon="1.40649">
        <ele>1621.88</ele>
        <time>2014-02-23T06:37:15Z</time>
      </trkpt>
      <trkpt lat="42.70418" lon="1.40642">
        <ele>1623.32</ele>
        <time>2014-02-23T06:37:25Z</time>
      </trkpt>
      <trkpt lat="42.70417" lon="1.40638">
        <ele>1623.8</ele>
        <time>2014-02-23T06:37:29Z</time>
      </trkpt>
      <trkpt lat="42.70416" lon="1.40626">
        <ele>1624.28</ele>
        <time>2014-02-23T06:37:41Z</time>
      </trkpt>
      <trkpt lat="42.70414" lon="1.40617">
        <ele>1626.69</ele>
        <time>2014-02-23T06:37:54Z</time>
      </trkpt>
      <trkpt lat="42.70409" lon="1.40612">
        <ele>1627.17</ele>
        <time>2014-02-23T06:38:05Z</time>
      </trkpt>
      <trkpt lat="42.70409" lon="1.40614">
        <ele>1628.13</ele>
        <time>2014-02-23T06:38:17Z</time>
      </trkpt>
      <trkpt lat="42.7041" lon="1.40613">
        <ele>1628.13</ele>
        <time>2014-02-23T06:38:47Z</time>
      </trkpt>
      <trkpt lat="42.70408" lon="1.40614">
        <ele>1628.61</ele>
        <time>2014-02-23T06:38:58Z</time>
      </trkpt>
      <trkpt lat="42.70405" lon="1.40617">
        <ele>1629.57</ele>
        <time>2014-02-23T06:39:02Z</time>
      </trkpt>
      <trkpt lat="42.70401" lon="1.4062">
        <ele>1631.49</ele>
        <time>2014-02-23T06:39:08Z</time>
      </trkpt>
      <trkpt lat="42.70395" lon="1.40613">
        <ele>1634.86</ele>
        <time>2014-02-23T06:39:19Z</time>
      </trkpt>
      <trkpt lat="42.7039" lon="1.40607">
        <ele>1635.82</ele>
        <time>2014-02-23T06:39:27Z</time>
      </trkpt>
      <trkpt lat="42.70382" lon="1.40602">
        <ele>1638.22</ele>
        <time>2014-02-23T06:39:39Z</time>
      </trkpt>
      <trkpt lat="42.70375" lon="1.40597">
        <ele>1640.15</ele>
        <time>2014-02-23T06:39:51Z</time>
      </trkpt>
      <trkpt lat="42.70368" lon="1.40593">
        <ele>1643.03</ele>
        <time>2014-02-23T06:40:02Z</time>
      </trkpt>
      <trkpt lat="42.70362" lon="1.40591">
        <ele>1644.95</ele>
        <time>2014-02-23T06:40:14Z</time>
      </trkpt>
      <trkpt lat="42.70358" lon="1.4059">
        <ele>1646.88</ele>
        <time>2014-02-23T06:40:23Z</time>
      </trkpt>
      <trkpt lat="42.70352" lon="1.40587">
        <ele>1650.24</ele>
        <time>2014-02-23T06:40:34Z</time>
      </trkpt>
      <trkpt lat="42.70345" lon="1.40583">
        <ele>1651.68</ele>
        <time>2014-02-23T06:40:47Z</time>
      </trkpt>
      <trkpt lat="42.70337" lon="1.4058">
        <ele>1654.09</ele>
        <time>2014-02-23T06:41:00Z</time>
      </trkpt>
      <trkpt lat="42.7033" lon="1.40576">
        <ele>1655.53</ele>
        <time>2014-02-23T06:41:12Z</time>
      </trkpt>
      <trkpt lat="42.70326" lon="1.40574">
        <ele>1657.93</ele>
        <time>2014-02-23T06:41:22Z</time>
      </trkpt>
      <trkpt lat="42.70325" lon="1.40574">
        <ele>1658.41</ele>
        <time>2014-02-23T06:41:25Z</time>
      </trkpt>
      <trkpt lat="42.70319" lon="1.40572">
        <ele>1660.81</ele>
        <time>2014-02-23T06:41:37Z</time>
      </trkpt>
      <trkpt lat="42.70311" lon="1.40571">
        <ele>1662.26</ele>
        <time>2014-02-23T06:41:49Z</time>
      </trkpt>
      <trkpt lat="42.70303" lon="1.4057">
        <ele>1664.66</ele>
        <time>2014-02-23T06:42:00Z</time>
      </trkpt>
      <trkpt lat="42.703" lon="1.40568">
        <ele>1665.62</ele>
        <time>2014-02-23T06:42:14Z</time>
      </trkpt>
      <trkpt lat="42.70298" lon="1.40567">
        <ele>1665.14</ele>
        <time>2014-02-23T06:42:17Z</time>
      </trkpt>
      <trkpt lat="42.70295" lon="1.40564">
        <ele>1666.1</ele>
        <time>2014-02-23T06:42:23Z</time>
      </trkpt>
      <trkpt lat="42.7029" lon="1.40557">
        <ele>1668.51</ele>
        <time>2014-02-23T06:42:35Z</time>
      </trkpt>
      <trkpt lat="42.70287" lon="1.40553">
        <ele>1669.95</ele>
        <time>2014-02-23T06:42:46Z</time>
      </trkpt>
      <trkpt lat="42.70287" lon="1.40553">
        <ele>1669.95</ele>
        <time>2014-02-23T06:42:47Z</time>
      </trkpt>
      <trkpt lat="42.70276" lon="1.40553">
        <ele>1671.87</ele>
        <time>2014-02-23T06:42:59Z</time>
      </trkpt>
      <trkpt lat="42.70279" lon="1.40554">
        <ele>1675.72</ele>
        <time>2014-02-23T06:43:23Z</time>
      </trkpt>
      <trkpt lat="42.70277" lon="1.40553">
        <ele>1676.68</ele>
        <time>2014-02-23T06:43:49Z</time>
      </trkpt>
      <trkpt lat="42.70278" lon="1.40552">
        <ele>1675.72</ele>
        <time>2014-02-23T06:44:06Z</time>
      </trkpt>
      <trkpt lat="42.70277" lon="1.40553">
        <ele>1674.27</ele>
        <time>2014-02-23T06:44:34Z</time>
      </trkpt>
      <trkpt lat="42.70277" lon="1.40552">
        <ele>1673.31</ele>
        <time>2014-02-23T06:45:02Z</time>
      </trkpt>
      <trkpt lat="42.70276" lon="1.40554">
        <ele>1673.79</ele>
        <time>2014-02-23T06:45:18Z</time>
      </trkpt>
      <trkpt lat="42.70273" lon="1.40553">
        <ele>1672.83</ele>
        <time>2014-02-23T06:45:39Z</time>
      </trkpt>
      <trkpt lat="42.70265" lon="1.40556">
        <ele>1674.27</ele>
        <time>2014-02-23T06:45:50Z</time>
      </trkpt>
      <trkpt lat="42.70255" lon="1.40562">
        <ele>1674.75</ele>
        <time>2014-02-23T06:46:02Z</time>
      </trkpt>
      <trkpt lat="42.70252" lon="1.40563">
        <ele>1677.16</ele>
        <time>2014-02-23T06:46:12Z</time>
      </trkpt>
      <trkpt lat="42.7025" lon="1.40564">
        <ele>1678.12</ele>
        <time>2014-02-23T06:46:20Z</time>
      </trkpt>
      <trkpt lat="42.70247" lon="1.40565">
        <ele>1679.56</ele>
        <time>2014-02-23T06:46:24Z</time>
      </trkpt>
      <trkpt lat="42.7024" lon="1.40568">
        <ele>1681.96</ele>
        <time>2014-02-23T06:46:35Z</time>
      </trkpt>
      <trkpt lat="42.70235" lon="1.40569">
        <ele>1683.41</ele>
        <time>2014-02-23T06:46:42Z</time>
      </trkpt>
      <trkpt lat="42.70229" lon="1.40577">
        <ele>1684.37</ele>
        <time>2014-02-23T06:46:54Z</time>
      </trkpt>
      <trkpt lat="42.70223" lon="1.40583">
        <ele>1687.25</ele>
        <time>2014-02-23T06:47:06Z</time>
      </trkpt>
      <trkpt lat="42.70217" lon="1.40585">
        <ele>1689.17</ele>
        <time>2014-02-23T06:47:16Z</time>
      </trkpt>
      <trkpt lat="42.70212" lon="1.40586">
        <ele>1691.58</ele>
        <time>2014-02-23T06:47:26Z</time>
      </trkpt>
      <trkpt lat="42.70207" lon="1.40586">
        <ele>1693.98</ele>
        <time>2014-02-23T06:47:37Z</time>
      </trkpt>
      <trkpt lat="42.702" lon="1.40586">
        <ele>1696.38</ele>
        <time>2014-02-23T06:47:49Z</time>
      </trkpt>
      <trkpt lat="42.70199" lon="1.40587">
        <ele>1696.86</ele>
        <time>2014-02-23T06:47:53Z</time>
      </trkpt>
      <trkpt lat="42.70198" lon="1.40597">
        <ele>1699.27</ele>
        <time>2014-02-23T06:48:05Z</time>
      </trkpt>
      <trkpt lat="42.70194" lon="1.40606">
        <ele>1701.19</ele>
        <time>2014-02-23T06:48:17Z</time>
      </trkpt>
      <trkpt lat="42.70192" lon="1.40614">
        <ele>1702.63</ele>
        <time>2014-02-23T06:48:28Z</time>
      </trkpt>
      <trkpt lat="42.70191" lon="1.40623">
        <ele>1704.55</ele>
        <time>2014-02-23T06:48:39Z</time>
      </trkpt>
      <trkpt lat="42.70191" lon="1.40629">
        <ele>1706</ele>
        <time>2014-02-23T06:48:50Z</time>
      </trkpt>
      <trkpt lat="42.70186" lon="1.40626">
        <ele>1707.44</ele>
        <time>2014-02-23T06:49:02Z</time>
      </trkpt>
      <trkpt lat="42.7018" lon="1.40624">
        <ele>1710.8</ele>
        <time>2014-02-23T06:49:14Z</time>
      </trkpt>
      <trkpt lat="42.70174" lon="1.40621">
        <ele>1712.25</ele>
        <time>2014-02-23T06:49:24Z</time>
      </trkpt>
      <trkpt lat="42.70169" lon="1.40618">
        <ele>1713.69</ele>
        <time>2014-02-23T06:49:37Z</time>
      </trkpt>
      <trkpt lat="42.70168" lon="1.40617">
        <ele>1713.21</ele>
        <time>2014-02-23T06:49:48Z</time>
      </trkpt>
      <trkpt lat="42.70167" lon="1.40617">
        <ele>1713.69</ele>
        <time>2014-02-23T06:50:03Z</time>
      </trkpt>
      <trkpt lat="42.70161" lon="1.40612">
        <ele>1716.09</ele>
        <time>2014-02-23T06:50:16Z</time>
      </trkpt>
      <trkpt lat="42.70155" lon="1.40608">
        <ele>1718.01</ele>
        <time>2014-02-23T06:50:28Z</time>
      </trkpt>
      <trkpt lat="42.70151" lon="1.40606">
        <ele>1719.46</ele>
        <time>2014-02-23T06:50:40Z</time>
      </trkpt>
      <trkpt lat="42.70151" lon="1.40605">
        <ele>1718.97</ele>
        <time>2014-02-23T06:51:10Z</time>
      </trkpt>
      <trkpt lat="42.70147" lon="1.40603">
        <ele>1720.42</ele>
        <time>2014-02-23T06:51:31Z</time>
      </trkpt>
      <trkpt lat="42.70141" lon="1.40598">
        <ele>1721.86</ele>
        <time>2014-02-23T06:51:43Z</time>
      </trkpt>
      <trkpt lat="42.70137" lon="1.40593">
        <ele>1724.26</ele>
        <time>2014-02-23T06:51:52Z</time>
      </trkpt>
      <trkpt lat="42.70133" lon="1.40586">
        <ele>1725.7</ele>
        <time>2014-02-23T06:52:03Z</time>
      </trkpt>
      <trkpt lat="42.70129" lon="1.4058">
        <ele>1727.15</ele>
        <time>2014-02-23T06:52:15Z</time>
      </trkpt>
      <trkpt lat="42.70126" lon="1.40573">
        <ele>1729.07</ele>
        <time>2014-02-23T06:52:25Z</time>
      </trkpt>
      <trkpt lat="42.70124" lon="1.4057">
        <ele>1729.07</ele>
        <time>2014-02-23T06:52:30Z</time>
      </trkpt>
      <trkpt lat="42.70121" lon="1.40563">
        <ele>1730.99</ele>
        <time>2014-02-23T06:52:43Z</time>
      </trkpt>
      <trkpt lat="42.7012" lon="1.40562">
        <ele>1730.99</ele>
        <time>2014-02-23T06:52:55Z</time>
      </trkpt>
      <trkpt lat="42.7012" lon="1.40561">
        <ele>1730.99</ele>
        <time>2014-02-23T06:53:08Z</time>
      </trkpt>
      <trkpt lat="42.7012" lon="1.40562">
        <ele>1731.95</ele>
        <time>2014-02-23T06:53:31Z</time>
      </trkpt>
      <trkpt lat="42.7012" lon="1.40564">
        <ele>1732.43</ele>
        <time>2014-02-23T06:53:48Z</time>
      </trkpt>
      <trkpt lat="42.70119" lon="1.40566">
        <ele>1730.99</ele>
        <time>2014-02-23T06:54:03Z</time>
      </trkpt>
      <trkpt lat="42.70119" lon="1.40568">
        <ele>1730.99</ele>
        <time>2014-02-23T06:54:05Z</time>
      </trkpt>
      <trkpt lat="42.70119" lon="1.40577">
        <ele>1733.39</ele>
        <time>2014-02-23T06:54:16Z</time>
      </trkpt>
      <trkpt lat="42.70119" lon="1.40587">
        <ele>1735.32</ele>
        <time>2014-02-23T06:54:26Z</time>
      </trkpt>
      <trkpt lat="42.70119" lon="1.40593">
        <ele>1735.8</ele>
        <time>2014-02-23T06:54:37Z</time>
      </trkpt>
      <trkpt lat="42.70116" lon="1.40589">
        <ele>1736.28</ele>
        <time>2014-02-23T06:54:46Z</time>
      </trkpt>
      <trkpt lat="42.70112" lon="1.40583">
        <ele>1738.2</ele>
        <time>2014-02-23T06:54:57Z</time>
      </trkpt>
      <trkpt lat="42.70105" lon="1.40573">
        <ele>1740.12</ele>
        <time>2014-02-23T06:55:11Z</time>
      </trkpt>
      <trkpt lat="42.70101" lon="1.40565">
        <ele>1741.08</ele>
        <time>2014-02-23T06:55:22Z</time>
      </trkpt>
      <trkpt lat="42.70095" lon="1.40556">
        <ele>1743.97</ele>
        <time>2014-02-23T06:55:34Z</time>
      </trkpt>
      <trkpt lat="42.70091" lon="1.40548">
        <ele>1745.89</ele>
        <time>2014-02-23T06:55:46Z</time>
      </trkpt>
      <trkpt lat="42.70088" lon="1.40546">
        <ele>1747.33</ele>
        <time>2014-02-23T06:55:53Z</time>
      </trkpt>
      <trkpt lat="42.70084" lon="1.40549">
        <ele>1747.81</ele>
        <time>2014-02-23T06:56:00Z</time>
      </trkpt>
      <trkpt lat="42.70077" lon="1.40552">
        <ele>1750.22</ele>
        <time>2014-02-23T06:56:11Z</time>
      </trkpt>
      <trkpt lat="42.70072" lon="1.40553">
        <ele>1751.66</ele>
        <time>2014-02-23T06:56:19Z</time>
      </trkpt>
      <trkpt lat="42.70066" lon="1.40552">
        <ele>1754.54</ele>
        <time>2014-02-23T06:56:30Z</time>
      </trkpt>
      <trkpt lat="42.70059" lon="1.40549">
        <ele>1756.95</ele>
        <time>2014-02-23T06:56:44Z</time>
      </trkpt>
      <trkpt lat="42.70055" lon="1.40544">
        <ele>1760.31</ele>
        <time>2014-02-23T06:56:56Z</time>
      </trkpt>
      <trkpt lat="42.7005" lon="1.40536">
        <ele>1761.75</ele>
        <time>2014-02-23T06:57:12Z</time>
      </trkpt>
      <trkpt lat="42.70047" lon="1.40531">
        <ele>1763.2</ele>
        <time>2014-02-23T06:57:22Z</time>
      </trkpt>
      <trkpt lat="42.70046" lon="1.40526">
        <ele>1764.16</ele>
        <time>2014-02-23T06:57:35Z</time>
      </trkpt>
      <trkpt lat="42.70045" lon="1.40527">
        <ele>1765.12</ele>
        <time>2014-02-23T06:57:42Z</time>
      </trkpt>
      <trkpt lat="42.70041" lon="1.40535">
        <ele>1766.56</ele>
        <time>2014-02-23T06:57:53Z</time>
      </trkpt>
      <trkpt lat="42.70039" lon="1.40542">
        <ele>1768.96</ele>
        <time>2014-02-23T06:58:03Z</time>
      </trkpt>
      <trkpt lat="42.70038" lon="1.40549">
        <ele>1771.37</ele>
        <time>2014-02-23T06:58:14Z</time>
      </trkpt>
      <trkpt lat="42.70037" lon="1.40557">
        <ele>1773.29</ele>
        <time>2014-02-23T06:58:24Z</time>
      </trkpt>
      <trkpt lat="42.70037" lon="1.4056">
        <ele>1773.29</ele>
        <time>2014-02-23T06:58:27Z</time>
      </trkpt>
      <trkpt lat="42.70036" lon="1.40571">
        <ele>1774.73</ele>
        <time>2014-02-23T06:58:38Z</time>
      </trkpt>
      <trkpt lat="42.70034" lon="1.40575">
        <ele>1777.13</ele>
        <time>2014-02-23T06:58:47Z</time>
      </trkpt>
      <trkpt lat="42.70026" lon="1.40576">
        <ele>1778.1</ele>
        <time>2014-02-23T06:59:00Z</time>
      </trkpt>
      <trkpt lat="42.70024" lon="1.40575">
        <ele>1779.54</ele>
        <time>2014-02-23T06:59:13Z</time>
      </trkpt>
      <trkpt lat="42.70021" lon="1.40574">
        <ele>1778.58</ele>
        <time>2014-02-23T06:59:25Z</time>
      </trkpt>
      <trkpt lat="42.70015" lon="1.40575">
        <ele>1781.46</ele>
        <time>2014-02-23T06:59:37Z</time>
      </trkpt>
      <trkpt lat="42.70013" lon="1.4058">
        <ele>1782.9</ele>
        <time>2014-02-23T06:59:49Z</time>
      </trkpt>
      <trkpt lat="42.70011" lon="1.40583">
        <ele>1784.34</ele>
        <time>2014-02-23T07:00:03Z</time>
      </trkpt>
      <trkpt lat="42.70006" lon="1.40585">
        <ele>1787.23</ele>
        <time>2014-02-23T07:00:14Z</time>
      </trkpt>
      <trkpt lat="42.7" lon="1.40579">
        <ele>1789.63</ele>
        <time>2014-02-23T07:00:26Z</time>
      </trkpt>
      <trkpt lat="42.69998" lon="1.4057">
        <ele>1792.03</ele>
        <time>2014-02-23T07:00:38Z</time>
      </trkpt>
      <trkpt lat="42.69995" lon="1.40561">
        <ele>1793.96</ele>
        <time>2014-02-23T07:00:51Z</time>
      </trkpt>
      <trkpt lat="42.69993" lon="1.40555">
        <ele>1795.4</ele>
        <time>2014-02-23T07:00:57Z</time>
      </trkpt>
      <trkpt lat="42.69989" lon="1.40542">
        <ele>1797.32</ele>
        <time>2014-02-23T07:01:10Z</time>
      </trkpt>
      <trkpt lat="42.69986" lon="1.40533">
        <ele>1800.21</ele>
        <time>2014-02-23T07:01:23Z</time>
      </trkpt>
      <trkpt lat="42.69983" lon="1.40525">
        <ele>1801.65</ele>
        <time>2014-02-23T07:01:36Z</time>
      </trkpt>
      <trkpt lat="42.6998" lon="1.40521">
        <ele>1803.09</ele>
        <time>2014-02-23T07:01:47Z</time>
      </trkpt>
      <trkpt lat="42.69973" lon="1.40517">
        <ele>1804.53</ele>
        <time>2014-02-23T07:02:02Z</time>
      </trkpt>
      <trkpt lat="42.69967" lon="1.40516">
        <ele>1805.97</ele>
        <time>2014-02-23T07:02:13Z</time>
      </trkpt>
      <trkpt lat="42.69965" lon="1.40517">
        <ele>1807.42</ele>
        <time>2014-02-23T07:02:20Z</time>
      </trkpt>
      <trkpt lat="42.6996" lon="1.40525">
        <ele>1809.82</ele>
        <time>2014-02-23T07:02:32Z</time>
      </trkpt>
      <trkpt lat="42.69958" lon="1.40532">
        <ele>1811.26</ele>
        <time>2014-02-23T07:02:42Z</time>
      </trkpt>
      <trkpt lat="42.69957" lon="1.40533">
        <ele>1812.22</ele>
        <time>2014-02-23T07:02:53Z</time>
      </trkpt>
      <trkpt lat="42.69956" lon="1.40531">
        <ele>1812.7</ele>
        <time>2014-02-23T07:02:56Z</time>
      </trkpt>
      <trkpt lat="42.69949" lon="1.40522">
        <ele>1814.15</ele>
        <time>2014-02-23T07:03:10Z</time>
      </trkpt>
      <trkpt lat="42.69944" lon="1.40513">
        <ele>1816.55</ele>
        <time>2014-02-23T07:03:23Z</time>
      </trkpt>
      <trkpt lat="42.6994" lon="1.40504">
        <ele>1817.99</ele>
        <time>2014-02-23T07:03:36Z</time>
      </trkpt>
      <trkpt lat="42.69936" lon="1.40496">
        <ele>1818.95</ele>
        <time>2014-02-23T07:03:48Z</time>
      </trkpt>
      <trkpt lat="42.69931" lon="1.40489">
        <ele>1822.32</ele>
        <time>2014-02-23T07:04:01Z</time>
      </trkpt>
      <trkpt lat="42.69926" lon="1.40482">
        <ele>1823.76</ele>
        <time>2014-02-23T07:04:13Z</time>
      </trkpt>
      <trkpt lat="42.69925" lon="1.40481">
        <ele>1824.24</ele>
        <time>2014-02-23T07:04:15Z</time>
      </trkpt>
      <trkpt lat="42.69923" lon="1.40476">
        <ele>1824.24</ele>
        <time>2014-02-23T07:04:21Z</time>
      </trkpt>
      <trkpt lat="42.69916" lon="1.40465">
        <ele>1825.68</ele>
        <time>2014-02-23T07:04:35Z</time>
      </trkpt>
      <trkpt lat="42.69914" lon="1.40462">
        <ele>1826.64</ele>
        <time>2014-02-23T07:04:45Z</time>
      </trkpt>
      <trkpt lat="42.69909" lon="1.40453">
        <ele>1828.08</ele>
        <time>2014-02-23T07:04:59Z</time>
      </trkpt>
      <trkpt lat="42.69908" lon="1.40459">
        <ele>1829.05</ele>
        <time>2014-02-23T07:05:08Z</time>
      </trkpt>
      <trkpt lat="42.69905" lon="1.40467">
        <ele>1831.93</ele>
        <time>2014-02-23T07:05:19Z</time>
      </trkpt>
      <trkpt lat="42.69903" lon="1.40477">
        <ele>1833.85</ele>
        <time>2014-02-23T07:05:32Z</time>
      </trkpt>
      <trkpt lat="42.69902" lon="1.40478">
        <ele>1834.81</ele>
        <time>2014-02-23T07:05:43Z</time>
      </trkpt>
      <trkpt lat="42.699" lon="1.40475">
        <ele>1834.81</ele>
        <time>2014-02-23T07:05:58Z</time>
      </trkpt>
      <trkpt lat="42.69897" lon="1.40469">
        <ele>1835.77</ele>
        <time>2014-02-23T07:06:13Z</time>
      </trkpt>
      <trkpt lat="42.69891" lon="1.40459">
        <ele>1837.7</ele>
        <time>2014-02-23T07:06:25Z</time>
      </trkpt>
      <trkpt lat="42.69886" lon="1.4045">
        <ele>1840.1</ele>
        <time>2014-02-23T07:06:37Z</time>
      </trkpt>
      <trkpt lat="42.69885" lon="1.40448">
        <ele>1840.58</ele>
        <time>2014-02-23T07:06:39Z</time>
      </trkpt>
      <trkpt lat="42.69881" lon="1.40438">
        <ele>1842.5</ele>
        <time>2014-02-23T07:06:51Z</time>
      </trkpt>
      <trkpt lat="42.69876" lon="1.40429">
        <ele>1844.91</ele>
        <time>2014-02-23T07:07:03Z</time>
      </trkpt>
      <trkpt lat="42.6987" lon="1.40422">
        <ele>1846.83</ele>
        <time>2014-02-23T07:07:14Z</time>
      </trkpt>
      <trkpt lat="42.69866" lon="1.40418">
        <ele>1847.31</ele>
        <time>2014-02-23T07:07:22Z</time>
      </trkpt>
      <trkpt lat="42.69857" lon="1.40412">
        <ele>1849.71</ele>
        <time>2014-02-23T07:07:35Z</time>
      </trkpt>
      <trkpt lat="42.69856" lon="1.40412">
        <ele>1849.71</ele>
        <time>2014-02-23T07:07:36Z</time>
      </trkpt>
      <trkpt lat="42.69848" lon="1.40405">
        <ele>1851.64</ele>
        <time>2014-02-23T07:07:48Z</time>
      </trkpt>
      <trkpt lat="42.69842" lon="1.404">
        <ele>1852.6</ele>
        <time>2014-02-23T07:07:59Z</time>
      </trkpt>
      <trkpt lat="42.69833" lon="1.40392">
        <ele>1854.04</ele>
        <time>2014-02-23T07:08:12Z</time>
      </trkpt>
      <trkpt lat="42.69823" lon="1.40385">
        <ele>1855.48</ele>
        <time>2014-02-23T07:08:25Z</time>
      </trkpt>
      <trkpt lat="42.69814" lon="1.40375">
        <ele>1856.44</ele>
        <time>2014-02-23T07:08:38Z</time>
      </trkpt>
      <trkpt lat="42.6981" lon="1.40371">
        <ele>1857.4</ele>
        <time>2014-02-23T07:08:45Z</time>
      </trkpt>
      <trkpt lat="42.69808" lon="1.40368">
        <ele>1857.89</ele>
        <time>2014-02-23T07:08:49Z</time>
      </trkpt>
      <trkpt lat="42.69805" lon="1.40366">
        <ele>1858.37</ele>
        <time>2014-02-23T07:08:53Z</time>
      </trkpt>
      <trkpt lat="42.69798" lon="1.40358">
        <ele>1859.81</ele>
        <time>2014-02-23T07:09:05Z</time>
      </trkpt>
      <trkpt lat="42.69791" lon="1.4035">
        <ele>1860.77</ele>
        <time>2014-02-23T07:09:17Z</time>
      </trkpt>
      <trkpt lat="42.69784" lon="1.40345">
        <ele>1861.73</ele>
        <time>2014-02-23T07:09:27Z</time>
      </trkpt>
      <trkpt lat="42.69781" lon="1.40341">
        <ele>1862.21</ele>
        <time>2014-02-23T07:09:33Z</time>
      </trkpt>
      <trkpt lat="42.69773" lon="1.40333">
        <ele>1863.65</ele>
        <time>2014-02-23T07:09:46Z</time>
      </trkpt>
      <trkpt lat="42.69766" lon="1.40327">
        <ele>1864.61</ele>
        <time>2014-02-23T07:09:58Z</time>
      </trkpt>
      <trkpt lat="42.69759" lon="1.4032">
        <ele>1866.54</ele>
        <time>2014-02-23T07:10:10Z</time>
      </trkpt>
      <trkpt lat="42.69752" lon="1.40313">
        <ele>1867.98</ele>
        <time>2014-02-23T07:10:22Z</time>
      </trkpt>
      <trkpt lat="42.69747" lon="1.40306">
        <ele>1869.9</ele>
        <time>2014-02-23T07:10:33Z</time>
      </trkpt>
      <trkpt lat="42.69741" lon="1.40299">
        <ele>1870.86</ele>
        <time>2014-02-23T07:10:46Z</time>
      </trkpt>
      <trkpt lat="42.69732" lon="1.40292">
        <ele>1870.86</ele>
        <time>2014-02-23T07:11:00Z</time>
      </trkpt>
      <trkpt lat="42.69726" lon="1.40286">
        <ele>1871.82</ele>
        <time>2014-02-23T07:11:12Z</time>
      </trkpt>
      <trkpt lat="42.69723" lon="1.40276">
        <ele>1874.71</ele>
        <time>2014-02-23T07:11:24Z</time>
      </trkpt>
      <trkpt lat="42.69719" lon="1.40267">
        <ele>1877.11</ele>
        <time>2014-02-23T07:11:36Z</time>
      </trkpt>
      <trkpt lat="42.69715" lon="1.40258">
        <ele>1878.07</ele>
        <time>2014-02-23T07:11:47Z</time>
      </trkpt>
      <trkpt lat="42.69709" lon="1.40254">
        <ele>1880</ele>
        <time>2014-02-23T07:11:56Z</time>
      </trkpt>
      <trkpt lat="42.69704" lon="1.40256">
        <ele>1881.44</ele>
        <time>2014-02-23T07:12:07Z</time>
      </trkpt>
      <trkpt lat="42.69702" lon="1.40256">
        <ele>1881.92</ele>
        <time>2014-02-23T07:12:09Z</time>
      </trkpt>
      <trkpt lat="42.69694" lon="1.40258">
        <ele>1883.84</ele>
        <time>2014-02-23T07:12:21Z</time>
      </trkpt>
      <trkpt lat="42.69686" lon="1.40261">
        <ele>1886.24</ele>
        <time>2014-02-23T07:12:33Z</time>
      </trkpt>
      <trkpt lat="42.69684" lon="1.40261">
        <ele>1886.72</ele>
        <time>2014-02-23T07:12:36Z</time>
      </trkpt>
      <trkpt lat="42.69676" lon="1.40262">
        <ele>1887.69</ele>
        <time>2014-02-23T07:12:46Z</time>
      </trkpt>
      <trkpt lat="42.69667" lon="1.40263">
        <ele>1889.61</ele>
        <time>2014-02-23T07:12:58Z</time>
      </trkpt>
      <trkpt lat="42.69659" lon="1.40262">
        <ele>1890.09</ele>
        <time>2014-02-23T07:13:09Z</time>
      </trkpt>
      <trkpt lat="42.69653" lon="1.40262">
        <ele>1892.01</ele>
        <time>2014-02-23T07:13:20Z</time>
      </trkpt>
      <trkpt lat="42.69646" lon="1.4026">
        <ele>1894.42</ele>
        <time>2014-02-23T07:13:32Z</time>
      </trkpt>
      <trkpt lat="42.69639" lon="1.40254">
        <ele>1896.82</ele>
        <time>2014-02-23T07:13:44Z</time>
      </trkpt>
      <trkpt lat="42.6963" lon="1.40249">
        <ele>1898.74</ele>
        <time>2014-02-23T07:13:56Z</time>
      </trkpt>
      <trkpt lat="42.69624" lon="1.40243">
        <ele>1899.22</ele>
        <time>2014-02-23T07:14:04Z</time>
      </trkpt>
      <trkpt lat="42.69616" lon="1.40238">
        <ele>1901.14</ele>
        <time>2014-02-23T07:14:17Z</time>
      </trkpt>
      <trkpt lat="42.69608" lon="1.40233">
        <ele>1903.55</ele>
        <time>2014-02-23T07:14:29Z</time>
      </trkpt>
      <trkpt lat="42.69603" lon="1.40231">
        <ele>1904.51</ele>
        <time>2014-02-23T07:14:37Z</time>
      </trkpt>
      <trkpt lat="42.69597" lon="1.4023">
        <ele>1906.91</ele>
        <time>2014-02-23T07:14:48Z</time>
      </trkpt>
      <trkpt lat="42.69589" lon="1.4023">
        <ele>1907.87</ele>
        <time>2014-02-23T07:15:00Z</time>
      </trkpt>
      <trkpt lat="42.69582" lon="1.4023">
        <ele>1910.28</ele>
        <time>2014-02-23T07:15:11Z</time>
      </trkpt>
      <trkpt lat="42.69574" lon="1.40229">
        <ele>1912.68</ele>
        <time>2014-02-23T07:15:22Z</time>
      </trkpt>
      <trkpt lat="42.69572" lon="1.40229">
        <ele>1913.16</ele>
        <time>2014-02-23T07:15:25Z</time>
      </trkpt>
      <trkpt lat="42.69565" lon="1.40231">
        <ele>1914.6</ele>
        <time>2014-02-23T07:15:37Z</time>
      </trkpt>
      <trkpt lat="42.69557" lon="1.40233">
        <ele>1916.04</ele>
        <time>2014-02-23T07:15:48Z</time>
      </trkpt>
      <trkpt lat="42.69548" lon="1.40234">
        <ele>1917.97</ele>
        <time>2014-02-23T07:16:00Z</time>
      </trkpt>
      <trkpt lat="42.69542" lon="1.40232">
        <ele>1917.97</ele>
        <time>2014-02-23T07:16:08Z</time>
      </trkpt>
      <trkpt lat="42.69535" lon="1.40228">
        <ele>1920.37</ele>
        <time>2014-02-23T07:16:20Z</time>
      </trkpt>
      <trkpt lat="42.69533" lon="1.40225">
        <ele>1921.33</ele>
        <time>2014-02-23T07:16:24Z</time>
      </trkpt>
      <trkpt lat="42.69529" lon="1.40218">
        <ele>1923.25</ele>
        <time>2014-02-23T07:16:37Z</time>
      </trkpt>
      <trkpt lat="42.69523" lon="1.4021">
        <ele>1924.7</ele>
        <time>2014-02-23T07:16:49Z</time>
      </trkpt>
      <trkpt lat="42.69521" lon="1.40204">
        <ele>1927.1</ele>
        <time>2014-02-23T07:16:59Z</time>
      </trkpt>
      <trkpt lat="42.69516" lon="1.40196">
        <ele>1929.5</ele>
        <time>2014-02-23T07:17:12Z</time>
      </trkpt>
      <trkpt lat="42.69512" lon="1.40189">
        <ele>1929.98</ele>
        <time>2014-02-23T07:17:25Z</time>
      </trkpt>
      <trkpt lat="42.69509" lon="1.40177">
        <ele>1930.95</ele>
        <time>2014-02-23T07:17:37Z</time>
      </trkpt>
      <trkpt lat="42.69506" lon="1.40167">
        <ele>1930.46</ele>
        <time>2014-02-23T07:17:50Z</time>
      </trkpt>
      <trkpt lat="42.69505" lon="1.4016">
        <ele>1931.91</ele>
        <time>2014-02-23T07:17:58Z</time>
      </trkpt>
      <trkpt lat="42.69501" lon="1.40148">
        <ele>1934.79</ele>
        <time>2014-02-23T07:18:11Z</time>
      </trkpt>
      <trkpt lat="42.69501" lon="1.40146">
        <ele>1934.31</ele>
        <time>2014-02-23T07:18:13Z</time>
      </trkpt>
      <trkpt lat="42.69497" lon="1.40134">
        <ele>1935.27</ele>
        <time>2014-02-23T07:18:26Z</time>
      </trkpt>
      <trkpt lat="42.69497" lon="1.40122">
        <ele>1936.23</ele>
        <time>2014-02-23T07:18:39Z</time>
      </trkpt>
      <trkpt lat="42.69496" lon="1.40111">
        <ele>1937.19</ele>
        <time>2014-02-23T07:18:51Z</time>
      </trkpt>
      <trkpt lat="42.69494" lon="1.401">
        <ele>1937.67</ele>
        <time>2014-02-23T07:19:02Z</time>
      </trkpt>
      <trkpt lat="42.69494" lon="1.40087">
        <ele>1940.56</ele>
        <time>2014-02-23T07:19:16Z</time>
      </trkpt>
      <trkpt lat="42.69494" lon="1.40076">
        <ele>1941.04</ele>
        <time>2014-02-23T07:19:29Z</time>
      </trkpt>
      <trkpt lat="42.69494" lon="1.40067">
        <ele>1942.96</ele>
        <time>2014-02-23T07:19:41Z</time>
      </trkpt>
      <trkpt lat="42.69494" lon="1.40055">
        <ele>1944.88</ele>
        <time>2014-02-23T07:19:54Z</time>
      </trkpt>
      <trkpt lat="42.69492" lon="1.40043">
        <ele>1946.33</ele>
        <time>2014-02-23T07:20:06Z</time>
      </trkpt>
      <trkpt lat="42.69491" lon="1.40031">
        <ele>1946.81</ele>
        <time>2014-02-23T07:20:18Z</time>
      </trkpt>
      <trkpt lat="42.69491" lon="1.40016">
        <ele>1947.77</ele>
        <time>2014-02-23T07:20:31Z</time>
      </trkpt>
      <trkpt lat="42.69492" lon="1.40004">
        <ele>1948.73</ele>
        <time>2014-02-23T07:20:43Z</time>
      </trkpt>
      <trkpt lat="42.69494" lon="1.39994">
        <ele>1949.69</ele>
        <time>2014-02-23T07:20:56Z</time>
      </trkpt>
      <trkpt lat="42.69499" lon="1.39982">
        <ele>1950.65</ele>
        <time>2014-02-23T07:21:10Z</time>
      </trkpt>
      <trkpt lat="42.69503" lon="1.39973">
        <ele>1952.09</ele>
        <time>2014-02-23T07:21:23Z</time>
      </trkpt>
      <trkpt lat="42.69503" lon="1.39971">
        <ele>1952.09</ele>
        <time>2014-02-23T07:21:25Z</time>
      </trkpt>
      <trkpt lat="42.69506" lon="1.39962">
        <ele>1953.54</ele>
        <time>2014-02-23T07:21:36Z</time>
      </trkpt>
      <trkpt lat="42.69506" lon="1.39961">
        <ele>1954.02</ele>
        <time>2014-02-23T07:21:37Z</time>
      </trkpt>
      <trkpt lat="42.6951" lon="1.39949">
        <ele>1955.46</ele>
        <time>2014-02-23T07:21:50Z</time>
      </trkpt>
      <trkpt lat="42.69512" lon="1.39939">
        <ele>1957.86</ele>
        <time>2014-02-23T07:22:03Z</time>
      </trkpt>
      <trkpt lat="42.69514" lon="1.39927">
        <ele>1959.78</ele>
        <time>2014-02-23T07:22:16Z</time>
      </trkpt>
      <trkpt lat="42.69516" lon="1.39916">
        <ele>1961.23</ele>
        <time>2014-02-23T07:22:27Z</time>
      </trkpt>
      <trkpt lat="42.69518" lon="1.39906">
        <ele>1962.67</ele>
        <time>2014-02-23T07:22:39Z</time>
      </trkpt>
      <trkpt lat="42.69521" lon="1.39895">
        <ele>1963.63</ele>
        <time>2014-02-23T07:22:51Z</time>
      </trkpt>
      <trkpt lat="42.69522" lon="1.39882">
        <ele>1966.51</ele>
        <time>2014-02-23T07:23:03Z</time>
      </trkpt>
      <trkpt lat="42.69525" lon="1.39871">
        <ele>1968.44</ele>
        <time>2014-02-23T07:23:15Z</time>
      </trkpt>
      <trkpt lat="42.69531" lon="1.39864">
        <ele>1969.88</ele>
        <time>2014-02-23T07:23:28Z</time>
      </trkpt>
      <trkpt lat="42.69538" lon="1.39855">
        <ele>1970.36</ele>
        <time>2014-02-23T07:23:41Z</time>
      </trkpt>
      <trkpt lat="42.69542" lon="1.39848">
        <ele>1971.32</ele>
        <time>2014-02-23T07:23:52Z</time>
      </trkpt>
      <trkpt lat="42.69545" lon="1.3984">
        <ele>1972.28</ele>
        <time>2014-02-23T07:24:03Z</time>
      </trkpt>
      <trkpt lat="42.69547" lon="1.39831">
        <ele>1974.2</ele>
        <time>2014-02-23T07:24:14Z</time>
      </trkpt>
      <trkpt lat="42.69548" lon="1.39822">
        <ele>1977.09</ele>
        <time>2014-02-23T07:24:25Z</time>
      </trkpt>
      <trkpt lat="42.69549" lon="1.39819">
        <ele>1978.05</ele>
        <time>2014-02-23T07:24:29Z</time>
      </trkpt>
      <trkpt lat="42.6955" lon="1.3981">
        <ele>1980.45</ele>
        <time>2014-02-23T07:24:41Z</time>
      </trkpt>
      <trkpt lat="42.69551" lon="1.398">
        <ele>1981.41</ele>
        <time>2014-02-23T07:24:54Z</time>
      </trkpt>
      <trkpt lat="42.69551" lon="1.39792">
        <ele>1982.38</ele>
        <time>2014-02-23T07:25:04Z</time>
      </trkpt>
      <trkpt lat="42.69552" lon="1.39785">
        <ele>1983.82</ele>
        <time>2014-02-23T07:25:15Z</time>
      </trkpt>
      <trkpt lat="42.69554" lon="1.39777">
        <ele>1987.66</ele>
        <time>2014-02-23T07:25:26Z</time>
      </trkpt>
      <trkpt lat="42.69553" lon="1.39769">
        <ele>1989.59</ele>
        <time>2014-02-23T07:25:38Z</time>
      </trkpt>
      <trkpt lat="42.69553" lon="1.3976">
        <ele>1991.99</ele>
        <time>2014-02-23T07:25:49Z</time>
      </trkpt>
      <trkpt lat="42.69554" lon="1.39752">
        <ele>1993.43</ele>
        <time>2014-02-23T07:26:01Z</time>
      </trkpt>
      <trkpt lat="42.69554" lon="1.39743">
        <ele>1993.91</ele>
        <time>2014-02-23T07:26:12Z</time>
      </trkpt>
      <trkpt lat="42.69555" lon="1.39736">
        <ele>1996.8</ele>
        <time>2014-02-23T07:26:24Z</time>
      </trkpt>
      <trkpt lat="42.69556" lon="1.39731">
        <ele>1996.8</ele>
        <time>2014-02-23T07:26:36Z</time>
      </trkpt>
      <trkpt lat="42.69555" lon="1.39727">
        <ele>1996.8</ele>
        <time>2014-02-23T07:27:08Z</time>
      </trkpt>
      <trkpt lat="42.6955" lon="1.39724">
        <ele>1999.68</ele>
        <time>2014-02-23T07:27:18Z</time>
      </trkpt>
      <trkpt lat="42.69548" lon="1.39722">
        <ele>2001.12</ele>
        <time>2014-02-23T07:27:22Z</time>
      </trkpt>
      <trkpt lat="42.69541" lon="1.39722">
        <ele>2004.01</ele>
        <time>2014-02-23T07:27:33Z</time>
      </trkpt>
      <trkpt lat="42.69536" lon="1.39723">
        <ele>2005.93</ele>
        <time>2014-02-23T07:27:44Z</time>
      </trkpt>
      <trkpt lat="42.69537" lon="1.39722">
        <ele>2005.93</ele>
        <time>2014-02-23T07:27:48Z</time>
      </trkpt>
      <trkpt lat="42.69535" lon="1.39719">
        <ele>2004.49</ele>
        <time>2014-02-23T07:28:02Z</time>
      </trkpt>
      <trkpt lat="42.69535" lon="1.39714">
        <ele>2006.41</ele>
        <time>2014-02-23T07:28:18Z</time>
      </trkpt>
      <trkpt lat="42.69535" lon="1.39712">
        <ele>2007.37</ele>
        <time>2014-02-23T07:28:20Z</time>
      </trkpt>
      <trkpt lat="42.69537" lon="1.39701">
        <ele>2008.33</ele>
        <time>2014-02-23T07:28:32Z</time>
      </trkpt>
      <trkpt lat="42.69539" lon="1.39692">
        <ele>2010.73</ele>
        <time>2014-02-23T07:28:44Z</time>
      </trkpt>
      <trkpt lat="42.69539" lon="1.39685">
        <ele>2012.66</ele>
        <time>2014-02-23T07:28:55Z</time>
      </trkpt>
      <trkpt lat="42.6954" lon="1.39676">
        <ele>2015.54</ele>
        <time>2014-02-23T07:29:07Z</time>
      </trkpt>
      <trkpt lat="42.69539" lon="1.39668">
        <ele>2017.94</ele>
        <time>2014-02-23T07:29:18Z</time>
      </trkpt>
      <trkpt lat="42.69538" lon="1.3966">
        <ele>2019.87</ele>
        <time>2014-02-23T07:29:30Z</time>
      </trkpt>
      <trkpt lat="42.69537" lon="1.39653">
        <ele>2020.83</ele>
        <time>2014-02-23T07:29:42Z</time>
      </trkpt>
      <trkpt lat="42.69534" lon="1.39642">
        <ele>2022.75</ele>
        <time>2014-02-23T07:29:56Z</time>
      </trkpt>
      <trkpt lat="42.69533" lon="1.39638">
        <ele>2025.15</ele>
        <time>2014-02-23T07:30:05Z</time>
      </trkpt>
      <trkpt lat="42.69532" lon="1.39632">
        <ele>2025.64</ele>
        <time>2014-02-23T07:30:18Z</time>
      </trkpt>
      <trkpt lat="42.6953" lon="1.39629">
        <ele>2026.6</ele>
        <time>2014-02-23T07:30:30Z</time>
      </trkpt>
      <trkpt lat="42.69529" lon="1.39622">
        <ele>2027.56</ele>
        <time>2014-02-23T07:30:40Z</time>
      </trkpt>
      <trkpt lat="42.69527" lon="1.39617">
        <ele>2029.96</ele>
        <time>2014-02-23T07:30:53Z</time>
      </trkpt>
      <trkpt lat="42.69528" lon="1.39615">
        <ele>2029.48</ele>
        <time>2014-02-23T07:31:04Z</time>
      </trkpt>
      <trkpt lat="42.69526" lon="1.39614">
        <ele>2029.48</ele>
        <time>2014-02-23T07:31:17Z</time>
      </trkpt>
      <trkpt lat="42.69523" lon="1.39607">
        <ele>2030.92</ele>
        <time>2014-02-23T07:31:31Z</time>
      </trkpt>
      <trkpt lat="42.69521" lon="1.396">
        <ele>2034.77</ele>
        <time>2014-02-23T07:31:46Z</time>
      </trkpt>
      <trkpt lat="42.69518" lon="1.39592">
        <ele>2035.73</ele>
        <time>2014-02-23T07:31:57Z</time>
      </trkpt>
      <trkpt lat="42.69517" lon="1.3959">
        <ele>2037.17</ele>
        <time>2014-02-23T07:32:11Z</time>
      </trkpt>
      <trkpt lat="42.69518" lon="1.39591">
        <ele>2036.21</ele>
        <time>2014-02-23T07:32:17Z</time>
      </trkpt>
      <trkpt lat="42.69516" lon="1.39596">
        <ele>2036.21</ele>
        <time>2014-02-23T07:32:26Z</time>
      </trkpt>
      <trkpt lat="42.69514" lon="1.39602">
        <ele>2039.09</ele>
        <time>2014-02-23T07:32:37Z</time>
      </trkpt>
      <trkpt lat="42.69511" lon="1.39606">
        <ele>2040.05</ele>
        <time>2014-02-23T07:32:49Z</time>
      </trkpt>
      <trkpt lat="42.69506" lon="1.39613">
        <ele>2042.46</ele>
        <time>2014-02-23T07:33:01Z</time>
      </trkpt>
      <trkpt lat="42.69501" lon="1.3962">
        <ele>2044.38</ele>
        <time>2014-02-23T07:33:14Z</time>
      </trkpt>
      <trkpt lat="42.69496" lon="1.39625">
        <ele>2046.3</ele>
        <time>2014-02-23T07:33:25Z</time>
      </trkpt>
      <trkpt lat="42.69496" lon="1.3962">
        <ele>2049.19</ele>
        <time>2014-02-23T07:33:36Z</time>
      </trkpt>
      <trkpt lat="42.69495" lon="1.39619">
        <ele>2049.19</ele>
        <time>2014-02-23T07:33:39Z</time>
      </trkpt>
      <trkpt lat="42.69491" lon="1.3962">
        <ele>2050.15</ele>
        <time>2014-02-23T07:33:47Z</time>
      </trkpt>
      <trkpt lat="42.69487" lon="1.39622">
        <ele>2051.59</ele>
        <time>2014-02-23T07:33:58Z</time>
      </trkpt>
      <trkpt lat="42.6948" lon="1.39625">
        <ele>2053.51</ele>
        <time>2014-02-23T07:34:09Z</time>
      </trkpt>
      <trkpt lat="42.69474" lon="1.39627">
        <ele>2054.96</ele>
        <time>2014-02-23T07:34:22Z</time>
      </trkpt>
      <trkpt lat="42.69468" lon="1.39629">
        <ele>2057.36</ele>
        <time>2014-02-23T07:34:33Z</time>
      </trkpt>
      <trkpt lat="42.69463" lon="1.39631">
        <ele>2059.76</ele>
        <time>2014-02-23T07:34:46Z</time>
      </trkpt>
      <trkpt lat="42.69457" lon="1.39634">
        <ele>2062.17</ele>
        <time>2014-02-23T07:34:58Z</time>
      </trkpt>
      <trkpt lat="42.69449" lon="1.39638">
        <ele>2064.57</ele>
        <time>2014-02-23T07:35:11Z</time>
      </trkpt>
      <trkpt lat="42.69445" lon="1.39638">
        <ele>2066.97</ele>
        <time>2014-02-23T07:35:23Z</time>
      </trkpt>
      <trkpt lat="42.69443" lon="1.39633">
        <ele>2066.97</ele>
        <time>2014-02-23T07:35:33Z</time>
      </trkpt>
      <trkpt lat="42.69443" lon="1.39627">
        <ele>2069.86</ele>
        <time>2014-02-23T07:35:44Z</time>
      </trkpt>
      <trkpt lat="42.6944" lon="1.39617">
        <ele>2072.26</ele>
        <time>2014-02-23T07:35:58Z</time>
      </trkpt>
      <trkpt lat="42.69436" lon="1.39617">
        <ele>2074.66</ele>
        <time>2014-02-23T07:36:07Z</time>
      </trkpt>
      <trkpt lat="42.69432" lon="1.39614">
        <ele>2078.03</ele>
        <time>2014-02-23T07:36:18Z</time>
      </trkpt>
      <trkpt lat="42.69427" lon="1.39613">
        <ele>2078.51</ele>
        <time>2014-02-23T07:36:26Z</time>
      </trkpt>
      <trkpt lat="42.69421" lon="1.39611">
        <ele>2079.95</ele>
        <time>2014-02-23T07:36:36Z</time>
      </trkpt>
      <trkpt lat="42.69418" lon="1.39612">
        <ele>2082.35</ele>
        <time>2014-02-23T07:36:49Z</time>
      </trkpt>
      <trkpt lat="42.6941" lon="1.39608">
        <ele>2084.28</ele>
        <time>2014-02-23T07:37:03Z</time>
      </trkpt>
      <trkpt lat="42.69408" lon="1.39608">
        <ele>2087.16</ele>
        <time>2014-02-23T07:37:14Z</time>
      </trkpt>
      <trkpt lat="42.69402" lon="1.39611">
        <ele>2087.64</ele>
        <time>2014-02-23T07:37:24Z</time>
      </trkpt>
      <trkpt lat="42.69397" lon="1.39617">
        <ele>2089.56</ele>
        <time>2014-02-23T07:37:35Z</time>
      </trkpt>
      <trkpt lat="42.69395" lon="1.39619">
        <ele>2092.93</ele>
        <time>2014-02-23T07:37:45Z</time>
      </trkpt>
      <trkpt lat="42.69388" lon="1.39622">
        <ele>2094.37</ele>
        <time>2014-02-23T07:37:59Z</time>
      </trkpt>
      <trkpt lat="42.69383" lon="1.39623">
        <ele>2095.81</ele>
        <time>2014-02-23T07:38:10Z</time>
      </trkpt>
      <trkpt lat="42.69375" lon="1.39626">
        <ele>2098.21</ele>
        <time>2014-02-23T07:38:25Z</time>
      </trkpt>
      <trkpt lat="42.69372" lon="1.39628">
        <ele>2100.62</ele>
        <time>2014-02-23T07:38:36Z</time>
      </trkpt>
      <trkpt lat="42.69367" lon="1.39632">
        <ele>2103.02</ele>
        <time>2014-02-23T07:38:48Z</time>
      </trkpt>
      <trkpt lat="42.69364" lon="1.39637">
        <ele>2104.94</ele>
        <time>2014-02-23T07:39:01Z</time>
      </trkpt>
      <trkpt lat="42.69359" lon="1.39643">
        <ele>2105.42</ele>
        <time>2014-02-23T07:39:14Z</time>
      </trkpt>
      <trkpt lat="42.69356" lon="1.39643">
        <ele>2105.91</ele>
        <time>2014-02-23T07:39:21Z</time>
      </trkpt>
      <trkpt lat="42.69355" lon="1.39638">
        <ele>2106.39</ele>
        <time>2014-02-23T07:39:34Z</time>
      </trkpt>
      <trkpt lat="42.69354" lon="1.39631">
        <ele>2109.75</ele>
        <time>2014-02-23T07:39:47Z</time>
      </trkpt>
      <trkpt lat="42.69353" lon="1.39631">
        <ele>2108.79</ele>
        <time>2014-02-23T07:40:03Z</time>
      </trkpt>
      <trkpt lat="42.69352" lon="1.39633">
        <ele>2109.75</ele>
        <time>2014-02-23T07:40:12Z</time>
      </trkpt>
      <trkpt lat="42.6935" lon="1.39635">
        <ele>2110.23</ele>
        <time>2014-02-23T07:40:15Z</time>
      </trkpt>
      <trkpt lat="42.69346" lon="1.39639">
        <ele>2112.15</ele>
        <time>2014-02-23T07:40:23Z</time>
      </trkpt>
      <trkpt lat="42.69341" lon="1.39642">
        <ele>2115.04</ele>
        <time>2014-02-23T07:40:36Z</time>
      </trkpt>
      <trkpt lat="42.6934" lon="1.39642">
        <ele>2116.96</ele>
        <time>2014-02-23T07:40:48Z</time>
      </trkpt>
      <trkpt lat="42.69341" lon="1.39635">
        <ele>2117.44</ele>
        <time>2014-02-23T07:40:59Z</time>
      </trkpt>
      <trkpt lat="42.69341" lon="1.39631">
        <ele>2118.4</ele>
        <time>2014-02-23T07:41:08Z</time>
      </trkpt>
      <trkpt lat="42.6934" lon="1.39629">
        <ele>2117.92</ele>
        <time>2014-02-23T07:41:18Z</time>
      </trkpt>
      <trkpt lat="42.6934" lon="1.39627">
        <ele>2118.4</ele>
        <time>2014-02-23T07:41:28Z</time>
      </trkpt>
      <trkpt lat="42.6934" lon="1.39626">
        <ele>2119.36</ele>
        <time>2014-02-23T07:41:39Z</time>
      </trkpt>
      <trkpt lat="42.6934" lon="1.39624">
        <ele>2120.81</ele>
        <time>2014-02-23T07:41:49Z</time>
      </trkpt>
      <trkpt lat="42.69341" lon="1.39622">
        <ele>2120.32</ele>
        <time>2014-02-23T07:42:01Z</time>
      </trkpt>
      <trkpt lat="42.69338" lon="1.39623">
        <ele>2121.77</ele>
        <time>2014-02-23T07:42:11Z</time>
      </trkpt>
      <trkpt lat="42.69333" lon="1.39625">
        <ele>2124.17</ele>
        <time>2014-02-23T07:42:24Z</time>
      </trkpt>
      <trkpt lat="42.69333" lon="1.39627">
        <ele>2124.65</ele>
        <time>2014-02-23T07:42:34Z</time>
      </trkpt>
      <trkpt lat="42.69333" lon="1.3962">
        <ele>2125.13</ele>
        <time>2014-02-23T07:42:45Z</time>
      </trkpt>
      <trkpt lat="42.69332" lon="1.39608">
        <ele>2128.98</ele>
        <time>2014-02-23T07:42:58Z</time>
      </trkpt>
      <trkpt lat="42.6933" lon="1.39612">
        <ele>2129.94</ele>
        <time>2014-02-23T07:43:06Z</time>
      </trkpt>
      <trkpt lat="42.69329" lon="1.39612">
        <ele>2129.46</ele>
        <time>2014-02-23T07:43:21Z</time>
      </trkpt>
      <trkpt lat="42.69327" lon="1.39614">
        <ele>2130.9</ele>
        <time>2014-02-23T07:43:32Z</time>
      </trkpt>
      <trkpt lat="42.69325" lon="1.39616">
        <ele>2131.38</ele>
        <time>2014-02-23T07:43:42Z</time>
      </trkpt>
      <trkpt lat="42.69321" lon="1.3962">
        <ele>2132.82</ele>
        <time>2014-02-23T07:43:56Z</time>
      </trkpt>
      <trkpt lat="42.69319" lon="1.39622">
        <ele>2132.82</ele>
        <time>2014-02-23T07:44:07Z</time>
      </trkpt>
      <trkpt lat="42.69319" lon="1.39623">
        <ele>2132.34</ele>
        <time>2014-02-23T07:44:22Z</time>
      </trkpt>
      <trkpt lat="42.69317" lon="1.39626">
        <ele>2134.26</ele>
        <time>2014-02-23T07:44:31Z</time>
      </trkpt>
      <trkpt lat="42.69316" lon="1.39625">
        <ele>2135.71</ele>
        <time>2014-02-23T07:44:43Z</time>
      </trkpt>
      <trkpt lat="42.69315" lon="1.39629">
        <ele>2135.23</ele>
        <time>2014-02-23T07:44:55Z</time>
      </trkpt>
      <trkpt lat="42.69315" lon="1.39629">
        <ele>2135.71</ele>
        <time>2014-02-23T07:45:06Z</time>
      </trkpt>
      <trkpt lat="42.69315" lon="1.39628">
        <ele>2135.71</ele>
        <time>2014-02-23T07:45:18Z</time>
      </trkpt>
      <trkpt lat="42.69313" lon="1.39632">
        <ele>2137.63</ele>
        <time>2014-02-23T07:45:35Z</time>
      </trkpt>
      <trkpt lat="42.69314" lon="1.39631">
        <ele>2138.11</ele>
        <time>2014-02-23T07:45:49Z</time>
      </trkpt>
      <trkpt lat="42.69314" lon="1.3963">
        <ele>2137.15</ele>
        <time>2014-02-23T07:45:56Z</time>
      </trkpt>
      <trkpt lat="42.69315" lon="1.3963">
        <ele>2137.15</ele>
        <time>2014-02-23T07:46:07Z</time>
      </trkpt>
      <trkpt lat="42.69314" lon="1.39628">
        <ele>2136.67</ele>
        <time>2014-02-23T07:46:20Z</time>
      </trkpt>
      <trkpt lat="42.69313" lon="1.39626">
        <ele>2137.63</ele>
        <time>2014-02-23T07:46:30Z</time>
      </trkpt>
      <trkpt lat="42.69313" lon="1.39622">
        <ele>2138.59</ele>
        <time>2014-02-23T07:46:41Z</time>
      </trkpt>
      <trkpt lat="42.69313" lon="1.3962">
        <ele>2139.55</ele>
        <time>2014-02-23T07:46:52Z</time>
      </trkpt>
      <trkpt lat="42.69313" lon="1.39618">
        <ele>2140.03</ele>
        <time>2014-02-23T07:47:02Z</time>
      </trkpt>
      <trkpt lat="42.69313" lon="1.39619">
        <ele>2140.99</ele>
        <time>2014-02-23T07:47:15Z</time>
      </trkpt>
      <trkpt lat="42.69311" lon="1.3962">
        <ele>2140.99</ele>
        <time>2014-02-23T07:47:25Z</time>
      </trkpt>
      <trkpt lat="42.69311" lon="1.39619">
        <ele>2141.47</ele>
        <time>2014-02-23T07:47:38Z</time>
      </trkpt>
      <trkpt lat="42.6931" lon="1.39617">
        <ele>2142.92</ele>
        <time>2014-02-23T07:47:49Z</time>
      </trkpt>
      <trkpt lat="42.69311" lon="1.39618">
        <ele>2142.92</ele>
        <time>2014-02-23T07:48:02Z</time>
      </trkpt>
      <trkpt lat="42.6931" lon="1.39617">
        <ele>2143.4</ele>
        <time>2014-02-23T07:48:17Z</time>
      </trkpt>
      <trkpt lat="42.6931" lon="1.39618">
        <ele>2142.44</ele>
        <time>2014-02-23T07:48:33Z</time>
      </trkpt>
      <trkpt lat="42.6931" lon="1.39617">
        <ele>2142.92</ele>
        <time>2014-02-23T07:48:45Z</time>
      </trkpt>
      <trkpt lat="42.69309" lon="1.39618">
        <ele>2145.32</ele>
        <time>2014-02-23T07:48:58Z</time>
      </trkpt>
      <trkpt lat="42.69308" lon="1.39618">
        <ele>2146.76</ele>
        <time>2014-02-23T07:49:12Z</time>
      </trkpt>
      <trkpt lat="42.69307" lon="1.39617">
        <ele>2148.2</ele>
        <time>2014-02-23T07:49:25Z</time>
      </trkpt>
      <trkpt lat="42.69307" lon="1.39616">
        <ele>2148.2</ele>
        <time>2014-02-23T07:49:36Z</time>
      </trkpt>
      <trkpt lat="42.69305" lon="1.39616">
        <ele>2148.68</ele>
        <time>2014-02-23T07:49:49Z</time>
      </trkpt>
      <trkpt lat="42.69305" lon="1.39615">
        <ele>2149.16</ele>
        <time>2014-02-23T07:50:02Z</time>
      </trkpt>
      <trkpt lat="42.69304" lon="1.39616">
        <ele>2150.61</ele>
        <time>2014-02-23T07:50:16Z</time>
      </trkpt>
      <trkpt lat="42.69302" lon="1.39616">
        <ele>2151.57</ele>
        <time>2014-02-23T07:50:26Z</time>
      </trkpt>
      <trkpt lat="42.693" lon="1.39615">
        <ele>2153.01</ele>
        <time>2014-02-23T07:50:38Z</time>
      </trkpt>
      <trkpt lat="42.69299" lon="1.39615">
        <ele>2153.97</ele>
        <time>2014-02-23T07:50:48Z</time>
      </trkpt>
      <trkpt lat="42.69297" lon="1.39612">
        <ele>2155.89</ele>
        <time>2014-02-23T07:51:02Z</time>
      </trkpt>
      <trkpt lat="42.69296" lon="1.39609">
        <ele>2156.86</ele>
        <time>2014-02-23T07:51:12Z</time>
      </trkpt>
      <trkpt lat="42.69297" lon="1.39609">
        <ele>2156.37</ele>
        <time>2014-02-23T07:51:24Z</time>
      </trkpt>
      <trkpt lat="42.69297" lon="1.39608">
        <ele>2156.37</ele>
        <time>2014-02-23T07:51:43Z</time>
      </trkpt>
      <trkpt lat="42.69296" lon="1.39608">
        <ele>2155.89</ele>
        <time>2014-02-23T07:51:55Z</time>
      </trkpt>
      <trkpt lat="42.69297" lon="1.39607">
        <ele>2156.37</ele>
        <time>2014-02-23T07:52:08Z</time>
      </trkpt>
      <trkpt lat="42.69295" lon="1.39608">
        <ele>2157.34</ele>
        <time>2014-02-23T07:52:21Z</time>
      </trkpt>
      <trkpt lat="42.69296" lon="1.39607">
        <ele>2157.34</ele>
        <time>2014-02-23T07:52:36Z</time>
      </trkpt>
      <trkpt lat="42.69296" lon="1.39608">
        <ele>2156.86</ele>
        <time>2014-02-23T07:52:52Z</time>
      </trkpt>
      <trkpt lat="42.69297" lon="1.39606">
        <ele>2155.41</ele>
        <time>2014-02-23T07:53:09Z</time>
      </trkpt>
      <trkpt lat="42.69292" lon="1.3961">
        <ele>2158.3</ele>
        <time>2014-02-23T07:53:20Z</time>
      </trkpt>
      <trkpt lat="42.69289" lon="1.39615">
        <ele>2159.26</ele>
        <time>2014-02-23T07:53:30Z</time>
      </trkpt>
      <trkpt lat="42.69288" lon="1.39616">
        <ele>2159.26</ele>
        <time>2014-02-23T07:53:43Z</time>
      </trkpt>
      <trkpt lat="42.69287" lon="1.39613">
        <ele>2160.7</ele>
        <time>2014-02-23T07:53:55Z</time>
      </trkpt>
      <trkpt lat="42.69288" lon="1.3961">
        <ele>2161.18</ele>
        <time>2014-02-23T07:54:04Z</time>
      </trkpt>
      <trkpt lat="42.69287" lon="1.39608">
        <ele>2162.14</ele>
        <time>2014-02-23T07:54:13Z</time>
      </trkpt>
      <trkpt lat="42.69286" lon="1.39609">
        <ele>2164.06</ele>
        <time>2014-02-23T07:54:23Z</time>
      </trkpt>
      <trkpt lat="42.69286" lon="1.39606">
        <ele>2164.55</ele>
        <time>2014-02-23T07:54:37Z</time>
      </trkpt>
      <trkpt lat="42.69285" lon="1.39607">
        <ele>2165.03</ele>
        <time>2014-02-23T07:54:50Z</time>
      </trkpt>
      <trkpt lat="42.69284" lon="1.39607">
        <ele>2165.03</ele>
        <time>2014-02-23T07:55:00Z</time>
      </trkpt>
      <trkpt lat="42.69284" lon="1.39607">
        <ele>2165.03</ele>
        <time>2014-02-23T07:55:14Z</time>
      </trkpt>
      <trkpt lat="42.69283" lon="1.39606">
        <ele>2165.51</ele>
        <time>2014-02-23T07:55:24Z</time>
      </trkpt>
      <trkpt lat="42.69282" lon="1.39605">
        <ele>2166.95</ele>
        <time>2014-02-23T07:55:40Z</time>
      </trkpt>
      <trkpt lat="42.6928" lon="1.39603">
        <ele>2168.87</ele>
        <time>2014-02-23T07:55:53Z</time>
      </trkpt>
      <trkpt lat="42.69279" lon="1.396">
        <ele>2170.31</ele>
        <time>2014-02-23T07:56:03Z</time>
      </trkpt>
      <trkpt lat="42.69278" lon="1.396">
        <ele>2169.83</ele>
        <time>2014-02-23T07:56:15Z</time>
      </trkpt>
      <trkpt lat="42.69278" lon="1.39598">
        <ele>2169.35</ele>
        <time>2014-02-23T07:56:27Z</time>
      </trkpt>
      <trkpt lat="42.69278" lon="1.39596">
        <ele>2169.83</ele>
        <time>2014-02-23T07:56:39Z</time>
      </trkpt>
      <trkpt lat="42.69277" lon="1.39597">
        <ele>2169.83</ele>
        <time>2014-02-23T07:56:47Z</time>
      </trkpt>
      <trkpt lat="42.69273" lon="1.39604">
        <ele>2170.79</ele>
        <time>2014-02-23T07:56:59Z</time>
      </trkpt>
      <trkpt lat="42.69273" lon="1.39604">
        <ele>2172.24</ele>
        <time>2014-02-23T07:57:10Z</time>
      </trkpt>
      <trkpt lat="42.69272" lon="1.39602">
        <ele>2173.2</ele>
        <time>2014-02-23T07:57:20Z</time>
      </trkpt>
      <trkpt lat="42.69271" lon="1.39602">
        <ele>2173.68</ele>
        <time>2014-02-23T07:57:32Z</time>
      </trkpt>
      <trkpt lat="42.69271" lon="1.39601">
        <ele>2174.64</ele>
        <time>2014-02-23T07:57:44Z</time>
      </trkpt>
      <trkpt lat="42.69269" lon="1.396">
        <ele>2177.04</ele>
        <time>2014-02-23T07:57:53Z</time>
      </trkpt>
      <trkpt lat="42.69267" lon="1.39596">
        <ele>2177.52</ele>
        <time>2014-02-23T07:58:03Z</time>
      </trkpt>
      <trkpt lat="42.69265" lon="1.39598">
        <ele>2177.52</ele>
        <time>2014-02-23T07:58:09Z</time>
      </trkpt>
      <trkpt lat="42.69262" lon="1.39601">
        <ele>2180.41</ele>
        <time>2014-02-23T07:58:19Z</time>
      </trkpt>
      <trkpt lat="42.69262" lon="1.396">
        <ele>2180.41</ele>
        <time>2014-02-23T07:58:21Z</time>
      </trkpt>
      <trkpt lat="42.6926" lon="1.39594">
        <ele>2180.41</ele>
        <time>2014-02-23T07:58:31Z</time>
      </trkpt>
      <trkpt lat="42.69259" lon="1.39583">
        <ele>2182.33</ele>
        <time>2014-02-23T07:58:44Z</time>
      </trkpt>
      <trkpt lat="42.69255" lon="1.39576">
        <ele>2184.25</ele>
        <time>2014-02-23T07:58:56Z</time>
      </trkpt>
      <trkpt lat="42.69253" lon="1.39579">
        <ele>2185.69</ele>
        <time>2014-02-23T07:59:05Z</time>
      </trkpt>
      <trkpt lat="42.69253" lon="1.39578">
        <ele>2185.69</ele>
        <time>2014-02-23T07:59:06Z</time>
      </trkpt>
      <trkpt lat="42.69251" lon="1.39579">
        <ele>2186.66</ele>
        <time>2014-02-23T07:59:17Z</time>
      </trkpt>
      <trkpt lat="42.69247" lon="1.39585">
        <ele>2189.06</ele>
        <time>2014-02-23T07:59:30Z</time>
      </trkpt>
      <trkpt lat="42.69246" lon="1.39589">
        <ele>2190.5</ele>
        <time>2014-02-23T07:59:45Z</time>
      </trkpt>
      <trkpt lat="42.69245" lon="1.39592">
        <ele>2190.5</ele>
        <time>2014-02-23T07:59:57Z</time>
      </trkpt>
      <trkpt lat="42.69241" lon="1.39588">
        <ele>2190.98</ele>
        <time>2014-02-23T08:00:06Z</time>
      </trkpt>
      <trkpt lat="42.69236" lon="1.39584">
        <ele>2191.94</ele>
        <time>2014-02-23T08:00:19Z</time>
      </trkpt>
      <trkpt lat="42.69235" lon="1.3958">
        <ele>2193.39</ele>
        <time>2014-02-23T08:00:32Z</time>
      </trkpt>
      <trkpt lat="42.69234" lon="1.3958">
        <ele>2193.39</ele>
        <time>2014-02-23T08:00:35Z</time>
      </trkpt>
      <trkpt lat="42.6923" lon="1.39572">
        <ele>2195.79</ele>
        <time>2014-02-23T08:00:48Z</time>
      </trkpt>
      <trkpt lat="42.69226" lon="1.39563">
        <ele>2196.75</ele>
        <time>2014-02-23T08:01:00Z</time>
      </trkpt>
      <trkpt lat="42.69221" lon="1.39555">
        <ele>2198.67</ele>
        <time>2014-02-23T08:01:13Z</time>
      </trkpt>
      <trkpt lat="42.69217" lon="1.39549">
        <ele>2200.59</ele>
        <time>2014-02-23T08:01:25Z</time>
      </trkpt>
      <trkpt lat="42.69214" lon="1.39548">
        <ele>2200.59</ele>
        <time>2014-02-23T08:01:36Z</time>
      </trkpt>
      <trkpt lat="42.69209" lon="1.39554">
        <ele>2202.52</ele>
        <time>2014-02-23T08:01:48Z</time>
      </trkpt>
      <trkpt lat="42.69209" lon="1.39555">
        <ele>2202.52</ele>
        <time>2014-02-23T08:01:49Z</time>
      </trkpt>
      <trkpt lat="42.69205" lon="1.39561">
        <ele>2204.92</ele>
        <time>2014-02-23T08:02:02Z</time>
      </trkpt>
      <trkpt lat="42.69201" lon="1.39569">
        <ele>2206.36</ele>
        <time>2014-02-23T08:02:13Z</time>
      </trkpt>
      <trkpt lat="42.692" lon="1.39574">
        <ele>2209.25</ele>
        <time>2014-02-23T08:02:23Z</time>
      </trkpt>
      <trkpt lat="42.69198" lon="1.39573">
        <ele>2209.73</ele>
        <time>2014-02-23T08:02:32Z</time>
      </trkpt>
      <trkpt lat="42.69197" lon="1.39573">
        <ele>2209.25</ele>
        <time>2014-02-23T08:02:33Z</time>
      </trkpt>
      <trkpt lat="42.6919" lon="1.39566">
        <ele>2211.65</ele>
        <time>2014-02-23T08:02:45Z</time>
      </trkpt>
      <trkpt lat="42.69185" lon="1.39562">
        <ele>2213.57</ele>
        <time>2014-02-23T08:02:57Z</time>
      </trkpt>
      <trkpt lat="42.69183" lon="1.39564">
        <ele>2213.57</ele>
        <time>2014-02-23T08:03:00Z</time>
      </trkpt>
      <trkpt lat="42.69179" lon="1.39571">
        <ele>2216.46</ele>
        <time>2014-02-23T08:03:11Z</time>
      </trkpt>
      <trkpt lat="42.69177" lon="1.39573">
        <ele>2217.42</ele>
        <time>2014-02-23T08:03:16Z</time>
      </trkpt>
      <trkpt lat="42.6917" lon="1.39573">
        <ele>2219.34</ele>
        <time>2014-02-23T08:03:28Z</time>
      </trkpt>
      <trkpt lat="42.69164" lon="1.39571">
        <ele>2221.26</ele>
        <time>2014-02-23T08:03:39Z</time>
      </trkpt>
      <trkpt lat="42.69156" lon="1.39572">
        <ele>2223.19</ele>
        <time>2014-02-23T08:03:51Z</time>
      </trkpt>
      <trkpt lat="42.6915" lon="1.39575">
        <ele>2226.07</ele>
        <time>2014-02-23T08:04:02Z</time>
      </trkpt>
      <trkpt lat="42.6915" lon="1.39577">
        <ele>2226.55</ele>
        <time>2014-02-23T08:04:09Z</time>
      </trkpt>
      <trkpt lat="42.69147" lon="1.39589">
        <ele>2227.51</ele>
        <time>2014-02-23T08:04:22Z</time>
      </trkpt>
      <trkpt lat="42.69146" lon="1.39598">
        <ele>2229.43</ele>
        <time>2014-02-23T08:04:33Z</time>
      </trkpt>
      <trkpt lat="42.69143" lon="1.39605">
        <ele>2231.84</ele>
        <time>2014-02-23T08:04:44Z</time>
      </trkpt>
      <trkpt lat="42.69143" lon="1.39609">
        <ele>2234.72</ele>
        <time>2014-02-23T08:04:55Z</time>
      </trkpt>
      <trkpt lat="42.69139" lon="1.39605">
        <ele>2229.92</ele>
        <time>2014-02-23T08:05:18Z</time>
      </trkpt>
      <trkpt lat="42.69139" lon="1.39609">
        <ele>2229.92</ele>
        <time>2014-02-23T08:05:26Z</time>
      </trkpt>
      <trkpt lat="42.6914" lon="1.39624">
        <ele>2232.8</ele>
        <time>2014-02-23T08:05:39Z</time>
      </trkpt>
      <trkpt lat="42.69135" lon="1.39634">
        <ele>2239.53</ele>
        <time>2014-02-23T08:05:53Z</time>
      </trkpt>
      <trkpt lat="42.69133" lon="1.39643">
        <ele>2239.53</ele>
        <time>2014-02-23T08:06:06Z</time>
      </trkpt>
      <trkpt lat="42.69135" lon="1.39645">
        <ele>2238.09</ele>
        <time>2014-02-23T08:06:21Z</time>
      </trkpt>
      <trkpt lat="42.69136" lon="1.39646">
        <ele>2238.09</ele>
        <time>2014-02-23T08:06:32Z</time>
      </trkpt>
      <trkpt lat="42.69133" lon="1.39649">
        <ele>2237.61</ele>
        <time>2014-02-23T08:06:51Z</time>
      </trkpt>
      <trkpt lat="42.69134" lon="1.39656">
        <ele>2235.68</ele>
        <time>2014-02-23T08:07:03Z</time>
      </trkpt>
      <trkpt lat="42.69133" lon="1.39665">
        <ele>2237.13</ele>
        <time>2014-02-23T08:07:16Z</time>
      </trkpt>
      <trkpt lat="42.69128" lon="1.3966">
        <ele>2233.28</ele>
        <time>2014-02-23T08:07:38Z</time>
      </trkpt>
      <trkpt lat="42.69124" lon="1.39667">
        <ele>2232.32</ele>
        <time>2014-02-23T08:08:04Z</time>
      </trkpt>
      <trkpt lat="42.69128" lon="1.39659">
        <ele>2230.88</ele>
        <time>2014-02-23T08:08:20Z</time>
      </trkpt>
      <trkpt lat="42.69129" lon="1.39662">
        <ele>2234.72</ele>
        <time>2014-02-23T08:08:35Z</time>
      </trkpt>
      <trkpt lat="42.69132" lon="1.39663">
        <ele>2235.2</ele>
        <time>2014-02-23T08:08:52Z</time>
      </trkpt>
      <trkpt lat="42.69125" lon="1.3966">
        <ele>2235.2</ele>
        <time>2014-02-23T08:09:04Z</time>
      </trkpt>
      <trkpt lat="42.69127" lon="1.39666">
        <ele>2240.97</ele>
        <time>2014-02-23T08:09:42Z</time>
      </trkpt>
      <trkpt lat="42.69127" lon="1.39665">
        <ele>2241.45</ele>
        <time>2014-02-23T08:10:15Z</time>
      </trkpt>
      <trkpt lat="42.69128" lon="1.39666">
        <ele>2239.53</ele>
        <time>2014-02-23T08:10:48Z</time>
      </trkpt>
      <trkpt lat="42.69127" lon="1.39662">
        <ele>2237.13</ele>
        <time>2014-02-23T08:11:27Z</time>
      </trkpt>
      <trkpt lat="42.69127" lon="1.39664">
        <ele>2239.53</ele>
        <time>2014-02-23T08:12:06Z</time>
      </trkpt>
      <trkpt lat="42.69126" lon="1.39661">
        <ele>2239.53</ele>
        <time>2014-02-23T08:12:49Z</time>
      </trkpt>
      <trkpt lat="42.69126" lon="1.3966">
        <ele>2238.09</ele>
        <time>2014-02-23T08:13:22Z</time>
      </trkpt>
      <trkpt lat="42.69124" lon="1.39662">
        <ele>2237.13</ele>
        <time>2014-02-23T08:13:51Z</time>
      </trkpt>
      <trkpt lat="42.69125" lon="1.39662">
        <ele>2234.24</ele>
        <time>2014-02-23T08:14:22Z</time>
      </trkpt>
      <trkpt lat="42.69128" lon="1.39659">
        <ele>2237.61</ele>
        <time>2014-02-23T08:15:03Z</time>
      </trkpt>
      <trkpt lat="42.69129" lon="1.39663">
        <ele>2236.16</ele>
        <time>2014-02-23T08:15:31Z</time>
      </trkpt>
      <trkpt lat="42.69128" lon="1.39659">
        <ele>2234.24</ele>
        <time>2014-02-23T08:16:09Z</time>
      </trkpt>
      <trkpt lat="42.6913" lon="1.39656">
        <ele>2233.28</ele>
        <time>2014-02-23T08:16:13Z</time>
      </trkpt>
      <trkpt lat="42.69133" lon="1.39648">
        <ele>2231.36</ele>
        <time>2014-02-23T08:16:20Z</time>
      </trkpt>
      <trkpt lat="42.69134" lon="1.39647">
        <ele>2232.8</ele>
        <time>2014-02-23T08:16:32Z</time>
      </trkpt>
      <trkpt lat="42.69134" lon="1.39649">
        <ele>2228.95</ele>
        <time>2014-02-23T08:16:49Z</time>
      </trkpt>
      <trkpt lat="42.69135" lon="1.39651">
        <ele>2227.51</ele>
        <time>2014-02-23T08:17:01Z</time>
      </trkpt>
      <trkpt lat="42.69134" lon="1.39653">
        <ele>2227.51</ele>
        <time>2014-02-23T08:17:24Z</time>
      </trkpt>
      <trkpt lat="42.69134" lon="1.39652">
        <ele>2227.99</ele>
        <time>2014-02-23T08:17:37Z</time>
      </trkpt>
      <trkpt lat="42.69136" lon="1.39648">
        <ele>2226.55</ele>
        <time>2014-02-23T08:17:48Z</time>
      </trkpt>
      <trkpt lat="42.69136" lon="1.39648">
        <ele>2229.43</ele>
        <time>2014-02-23T08:18:10Z</time>
      </trkpt>
      <trkpt lat="42.69136" lon="1.39643">
        <ele>2229.92</ele>
        <time>2014-02-23T08:18:25Z</time>
      </trkpt>
      <trkpt lat="42.69135" lon="1.39644">
        <ele>2228.95</ele>
        <time>2014-02-23T08:18:48Z</time>
      </trkpt>
      <trkpt lat="42.69135" lon="1.39642">
        <ele>2230.4</ele>
        <time>2014-02-23T08:19:08Z</time>
      </trkpt>
      <trkpt lat="42.69135" lon="1.39646">
        <ele>2226.55</ele>
        <time>2014-02-23T08:19:19Z</time>
      </trkpt>
      <trkpt lat="42.69138" lon="1.39648">
        <ele>2227.51</ele>
        <time>2014-02-23T08:19:40Z</time>
      </trkpt>
      <trkpt lat="42.69137" lon="1.39646">
        <ele>2229.92</ele>
        <time>2014-02-23T08:19:50Z</time>
      </trkpt>
      <trkpt lat="42.69136" lon="1.39644">
        <ele>2229.92</ele>
        <time>2014-02-23T08:20:03Z</time>
      </trkpt>
      <trkpt lat="42.69136" lon="1.39645">
        <ele>2227.99</ele>
        <time>2014-02-23T08:20:16Z</time>
      </trkpt>
      <trkpt lat="42.69134" lon="1.39647">
        <ele>2227.99</ele>
        <time>2014-02-23T08:20:30Z</time>
      </trkpt>
      <trkpt lat="42.6913" lon="1.39649">
        <ele>2227.99</ele>
        <time>2014-02-23T08:20:52Z</time>
      </trkpt>
      <trkpt lat="42.69126" lon="1.39658">
        <ele>2227.99</ele>
        <time>2014-02-23T08:21:01Z</time>
      </trkpt>
      <trkpt lat="42.69124" lon="1.39663">
        <ele>2229.43</ele>
        <time>2014-02-23T08:21:06Z</time>
      </trkpt>
      <trkpt lat="42.69124" lon="1.39667">
        <ele>2229.43</ele>
        <time>2014-02-23T08:21:09Z</time>
      </trkpt>
      <trkpt lat="42.69124" lon="1.3967">
        <ele>2231.36</ele>
        <time>2014-02-23T08:21:13Z</time>
      </trkpt>
      <trkpt lat="42.69125" lon="1.39679">
        <ele>2230.88</ele>
        <time>2014-02-23T08:21:20Z</time>
      </trkpt>
      <trkpt lat="42.69125" lon="1.39691">
        <ele>2230.4</ele>
        <time>2014-02-23T08:21:31Z</time>
      </trkpt>
      <trkpt lat="42.69124" lon="1.39694">
        <ele>2229.92</ele>
        <time>2014-02-23T08:21:34Z</time>
      </trkpt>
      <trkpt lat="42.69112" lon="1.39709">
        <ele>2228.47</ele>
        <time>2014-02-23T08:21:50Z</time>
      </trkpt>
      <trkpt lat="42.69106" lon="1.39714">
        <ele>2231.36</ele>
        <time>2014-02-23T08:22:02Z</time>
      </trkpt>
      <trkpt lat="42.69099" lon="1.39714">
        <ele>2233.28</ele>
        <time>2014-02-23T08:22:14Z</time>
      </trkpt>
      <trkpt lat="42.69091" lon="1.39714">
        <ele>2234.24</ele>
        <time>2014-02-23T08:22:28Z</time>
      </trkpt>
      <trkpt lat="42.69082" lon="1.39717">
        <ele>2236.16</ele>
        <time>2014-02-23T08:22:42Z</time>
      </trkpt>
      <trkpt lat="42.69078" lon="1.39723">
        <ele>2236.64</ele>
        <time>2014-02-23T08:22:52Z</time>
      </trkpt>
      <trkpt lat="42.6908" lon="1.39722">
        <ele>2238.09</ele>
        <time>2014-02-23T08:23:16Z</time>
      </trkpt>
      <trkpt lat="42.69075" lon="1.3973">
        <ele>2236.16</ele>
        <time>2014-02-23T08:23:31Z</time>
      </trkpt>
      <trkpt lat="42.69073" lon="1.39731">
        <ele>2236.16</ele>
        <time>2014-02-23T08:23:33Z</time>
      </trkpt>
      <trkpt lat="42.6907" lon="1.39733">
        <ele>2236.16</ele>
        <time>2014-02-23T08:23:44Z</time>
      </trkpt>
      <trkpt lat="42.69068" lon="1.39732">
        <ele>2236.64</ele>
        <time>2014-02-23T08:23:55Z</time>
      </trkpt>
      <trkpt lat="42.69064" lon="1.39736">
        <ele>2237.13</ele>
        <time>2014-02-23T08:24:13Z</time>
      </trkpt>
      <trkpt lat="42.69061" lon="1.39739">
        <ele>2238.57</ele>
        <time>2014-02-23T08:24:24Z</time>
      </trkpt>
      <trkpt lat="42.6906" lon="1.3974">
        <ele>2238.57</ele>
        <time>2014-02-23T08:24:36Z</time>
      </trkpt>
      <trkpt lat="42.69058" lon="1.39741">
        <ele>2240.97</ele>
        <time>2014-02-23T08:24:46Z</time>
      </trkpt>
      <trkpt lat="42.69052" lon="1.39746">
        <ele>2244.82</ele>
        <time>2014-02-23T08:24:57Z</time>
      </trkpt>
      <trkpt lat="42.69047" lon="1.39748">
        <ele>2246.74</ele>
        <time>2014-02-23T08:25:09Z</time>
      </trkpt>
      <trkpt lat="42.69046" lon="1.39749">
        <ele>2245.78</ele>
        <time>2014-02-23T08:25:23Z</time>
      </trkpt>
      <trkpt lat="42.69046" lon="1.39747">
        <ele>2245.78</ele>
        <time>2014-02-23T08:25:50Z</time>
      </trkpt>
      <trkpt lat="42.69039" lon="1.3975">
        <ele>2249.62</ele>
        <time>2014-02-23T08:26:02Z</time>
      </trkpt>
      <trkpt lat="42.69032" lon="1.39749">
        <ele>2252.51</ele>
        <time>2014-02-23T08:26:15Z</time>
      </trkpt>
      <trkpt lat="42.69026" lon="1.39746">
        <ele>2254.43</ele>
        <time>2014-02-23T08:26:28Z</time>
      </trkpt>
      <trkpt lat="42.6902" lon="1.39742">
        <ele>2255.87</ele>
        <time>2014-02-23T08:26:42Z</time>
      </trkpt>
      <trkpt lat="42.69013" lon="1.39739">
        <ele>2258.75</ele>
        <time>2014-02-23T08:26:55Z</time>
      </trkpt>
      <trkpt lat="42.69009" lon="1.39737">
        <ele>2261.16</ele>
        <time>2014-02-23T08:27:08Z</time>
      </trkpt>
      <trkpt lat="42.69002" lon="1.39731">
        <ele>2262.12</ele>
        <time>2014-02-23T08:27:23Z</time>
      </trkpt>
      <trkpt lat="42.68996" lon="1.39727">
        <ele>2264.04</ele>
        <time>2014-02-23T08:27:35Z</time>
      </trkpt>
      <trkpt lat="42.68989" lon="1.39722">
        <ele>2265.96</ele>
        <time>2014-02-23T08:27:50Z</time>
      </trkpt>
      <trkpt lat="42.68984" lon="1.39717">
        <ele>2266.45</ele>
        <time>2014-02-23T08:28:05Z</time>
      </trkpt>
      <trkpt lat="42.68976" lon="1.39711">
        <ele>2268.37</ele>
        <time>2014-02-23T08:28:22Z</time>
      </trkpt>
      <trkpt lat="42.68968" lon="1.39703">
        <ele>2269.81</ele>
        <time>2014-02-23T08:28:36Z</time>
      </trkpt>
      <trkpt lat="42.68966" lon="1.39699">
        <ele>2271.25</ele>
        <time>2014-02-23T08:28:46Z</time>
      </trkpt>
      <trkpt lat="42.68963" lon="1.39694">
        <ele>2273.66</ele>
        <time>2014-02-23T08:29:00Z</time>
      </trkpt>
      <trkpt lat="42.68958" lon="1.39689">
        <ele>2275.1</ele>
        <time>2014-02-23T08:29:11Z</time>
      </trkpt>
      <trkpt lat="42.68951" lon="1.39684">
        <ele>2277.02</ele>
        <time>2014-02-23T08:29:27Z</time>
      </trkpt>
      <trkpt lat="42.68945" lon="1.39678">
        <ele>2279.9</ele>
        <time>2014-02-23T08:29:43Z</time>
      </trkpt>
      <trkpt lat="42.6894" lon="1.39673">
        <ele>2280.87</ele>
        <time>2014-02-23T08:29:54Z</time>
      </trkpt>
      <trkpt lat="42.68936" lon="1.3967">
        <ele>2282.31</ele>
        <time>2014-02-23T08:30:10Z</time>
      </trkpt>
      <trkpt lat="42.68934" lon="1.39665">
        <ele>2284.71</ele>
        <time>2014-02-23T08:30:24Z</time>
      </trkpt>
      <trkpt lat="42.6893" lon="1.39661">
        <ele>2288.08</ele>
        <time>2014-02-23T08:30:34Z</time>
      </trkpt>
      <trkpt lat="42.68928" lon="1.39666">
        <ele>2289.52</ele>
        <time>2014-02-23T08:30:42Z</time>
      </trkpt>
      <trkpt lat="42.68928" lon="1.39669">
        <ele>2290</ele>
        <time>2014-02-23T08:30:59Z</time>
      </trkpt>
      <trkpt lat="42.68925" lon="1.39666">
        <ele>2290.96</ele>
        <time>2014-02-23T08:31:27Z</time>
      </trkpt>
      <trkpt lat="42.68925" lon="1.39674">
        <ele>2291.92</ele>
        <time>2014-02-23T08:31:42Z</time>
      </trkpt>
      <trkpt lat="42.68924" lon="1.39681">
        <ele>2294.8</ele>
        <time>2014-02-23T08:31:54Z</time>
      </trkpt>
      <trkpt lat="42.68923" lon="1.39681">
        <ele>2294.32</ele>
        <time>2014-02-23T08:31:58Z</time>
      </trkpt>
      <trkpt lat="42.68918" lon="1.39676">
        <ele>2295.28</ele>
        <time>2014-02-23T08:32:10Z</time>
      </trkpt>
      <trkpt lat="42.68914" lon="1.3967">
        <ele>2296.73</ele>
        <time>2014-02-23T08:32:24Z</time>
      </trkpt>
      <trkpt lat="42.6891" lon="1.3967">
        <ele>2297.69</ele>
        <time>2014-02-23T08:32:35Z</time>
      </trkpt>
      <trkpt lat="42.68909" lon="1.39678">
        <ele>2298.17</ele>
        <time>2014-02-23T08:32:45Z</time>
      </trkpt>
      <trkpt lat="42.68908" lon="1.39688">
        <ele>2300.57</ele>
        <time>2014-02-23T08:32:55Z</time>
      </trkpt>
      <trkpt lat="42.68908" lon="1.39689">
        <ele>2303.94</ele>
        <time>2014-02-23T08:33:05Z</time>
      </trkpt>
      <trkpt lat="42.68906" lon="1.39688">
        <ele>2302.98</ele>
        <time>2014-02-23T08:33:14Z</time>
      </trkpt>
      <trkpt lat="42.68901" lon="1.39684">
        <ele>2302.98</ele>
        <time>2014-02-23T08:33:25Z</time>
      </trkpt>
      <trkpt lat="42.68898" lon="1.39682">
        <ele>2305.38</ele>
        <time>2014-02-23T08:33:37Z</time>
      </trkpt>
      <trkpt lat="42.68888" lon="1.39677">
        <ele>2307.3</ele>
        <time>2014-02-23T08:33:54Z</time>
      </trkpt>
      <trkpt lat="42.68889" lon="1.39679">
        <ele>2308.74</ele>
        <time>2014-02-23T08:34:03Z</time>
      </trkpt>
      <trkpt lat="42.68885" lon="1.39689">
        <ele>2311.63</ele>
        <time>2014-02-23T08:34:16Z</time>
      </trkpt>
      <trkpt lat="42.68884" lon="1.39693">
        <ele>2314.51</ele>
        <time>2014-02-23T08:34:25Z</time>
      </trkpt>
      <trkpt lat="42.68881" lon="1.39687">
        <ele>2317.88</ele>
        <time>2014-02-23T08:34:37Z</time>
      </trkpt>
      <trkpt lat="42.68874" lon="1.39681">
        <ele>2319.8</ele>
        <time>2014-02-23T08:34:51Z</time>
      </trkpt>
      <trkpt lat="42.68871" lon="1.39686">
        <ele>2318.84</ele>
        <time>2014-02-23T08:34:57Z</time>
      </trkpt>
      <trkpt lat="42.68866" lon="1.39689">
        <ele>2321.24</ele>
        <time>2014-02-23T08:35:10Z</time>
      </trkpt>
      <trkpt lat="42.6886" lon="1.39687">
        <ele>2324.12</ele>
        <time>2014-02-23T08:35:23Z</time>
      </trkpt>
      <trkpt lat="42.68853" lon="1.39688">
        <ele>2326.05</ele>
        <time>2014-02-23T08:35:37Z</time>
      </trkpt>
      <trkpt lat="42.68846" lon="1.3969">
        <ele>2327.01</ele>
        <time>2014-02-23T08:35:49Z</time>
      </trkpt>
      <trkpt lat="42.68841" lon="1.39693">
        <ele>2328.93</ele>
        <time>2014-02-23T08:36:01Z</time>
      </trkpt>
      <trkpt lat="42.68832" lon="1.39694">
        <ele>2330.85</ele>
        <time>2014-02-23T08:36:21Z</time>
      </trkpt>
      <trkpt lat="42.68827" lon="1.39691">
        <ele>2333.74</ele>
        <time>2014-02-23T08:36:33Z</time>
      </trkpt>
      <trkpt lat="42.68817" lon="1.39688">
        <ele>2334.22</ele>
        <time>2014-02-23T08:36:48Z</time>
      </trkpt>
      <trkpt lat="42.68809" lon="1.39689">
        <ele>2335.66</ele>
        <time>2014-02-23T08:37:01Z</time>
      </trkpt>
      <trkpt lat="42.68799" lon="1.3969">
        <ele>2337.58</ele>
        <time>2014-02-23T08:37:15Z</time>
      </trkpt>
      <trkpt lat="42.6879" lon="1.39693">
        <ele>2339.99</ele>
        <time>2014-02-23T08:37:28Z</time>
      </trkpt>
      <trkpt lat="42.68786" lon="1.39691">
        <ele>2341.43</ele>
        <time>2014-02-23T08:37:40Z</time>
      </trkpt>
      <trkpt lat="42.68782" lon="1.39683">
        <ele>2345.27</ele>
        <time>2014-02-23T08:37:54Z</time>
      </trkpt>
      <trkpt lat="42.68778" lon="1.39674">
        <ele>2349.12</ele>
        <time>2014-02-23T08:38:07Z</time>
      </trkpt>
      <trkpt lat="42.68773" lon="1.39667">
        <ele>2352.48</ele>
        <time>2014-02-23T08:38:21Z</time>
      </trkpt>
      <trkpt lat="42.6877" lon="1.3966">
        <ele>2354.89</ele>
        <time>2014-02-23T08:38:34Z</time>
      </trkpt>
      <trkpt lat="42.68766" lon="1.39653">
        <ele>2356.81</ele>
        <time>2014-02-23T08:38:48Z</time>
      </trkpt>
      <trkpt lat="42.68758" lon="1.39657">
        <ele>2357.77</ele>
        <time>2014-02-23T08:38:58Z</time>
      </trkpt>
      <trkpt lat="42.68751" lon="1.39664">
        <ele>2357.77</ele>
        <time>2014-02-23T08:39:11Z</time>
      </trkpt>
      <trkpt lat="42.68747" lon="1.39669">
        <ele>2361.62</ele>
        <time>2014-02-23T08:39:24Z</time>
      </trkpt>
      <trkpt lat="42.68743" lon="1.39676">
        <ele>2361.62</ele>
        <time>2014-02-23T08:39:38Z</time>
      </trkpt>
      <trkpt lat="42.6874" lon="1.39666">
        <ele>2363.06</ele>
        <time>2014-02-23T08:39:52Z</time>
      </trkpt>
      <trkpt lat="42.68739" lon="1.39662">
        <ele>2364.5</ele>
        <time>2014-02-23T08:40:00Z</time>
      </trkpt>
      <trkpt lat="42.68733" lon="1.39653">
        <ele>2368.35</ele>
        <time>2014-02-23T08:40:14Z</time>
      </trkpt>
      <trkpt lat="42.68731" lon="1.3965">
        <ele>2369.79</ele>
        <time>2014-02-23T08:40:28Z</time>
      </trkpt>
      <trkpt lat="42.68728" lon="1.39651">
        <ele>2368.83</ele>
        <time>2014-02-23T08:40:42Z</time>
      </trkpt>
      <trkpt lat="42.68727" lon="1.39649">
        <ele>2367.38</ele>
        <time>2014-02-23T08:41:01Z</time>
      </trkpt>
      <trkpt lat="42.68722" lon="1.3964">
        <ele>2370.27</ele>
        <time>2014-02-23T08:41:13Z</time>
      </trkpt>
      <trkpt lat="42.68717" lon="1.39633">
        <ele>2371.71</ele>
        <time>2014-02-23T08:41:25Z</time>
      </trkpt>
      <trkpt lat="42.68712" lon="1.39629">
        <ele>2373.63</ele>
        <time>2014-02-23T08:41:37Z</time>
      </trkpt>
      <trkpt lat="42.68704" lon="1.39623">
        <ele>2374.59</ele>
        <time>2014-02-23T08:41:50Z</time>
      </trkpt>
      <trkpt lat="42.68698" lon="1.39619">
        <ele>2374.11</ele>
        <time>2014-02-23T08:42:01Z</time>
      </trkpt>
      <trkpt lat="42.68691" lon="1.39616">
        <ele>2376.04</ele>
        <time>2014-02-23T08:42:14Z</time>
      </trkpt>
      <trkpt lat="42.68692" lon="1.39615">
        <ele>2376.04</ele>
        <time>2014-02-23T08:42:28Z</time>
      </trkpt>
      <trkpt lat="42.68693" lon="1.39615">
        <ele>2377</ele>
        <time>2014-02-23T08:42:39Z</time>
      </trkpt>
      <trkpt lat="42.68691" lon="1.39614">
        <ele>2375.55</ele>
        <time>2014-02-23T08:42:49Z</time>
      </trkpt>
      <trkpt lat="42.68691" lon="1.39612">
        <ele>2375.55</ele>
        <time>2014-02-23T08:42:58Z</time>
      </trkpt>
      <trkpt lat="42.68686" lon="1.39609">
        <ele>2375.07</ele>
        <time>2014-02-23T08:43:07Z</time>
      </trkpt>
      <trkpt lat="42.68683" lon="1.39609">
        <ele>2376.52</ele>
        <time>2014-02-23T08:43:19Z</time>
      </trkpt>
      <trkpt lat="42.68685" lon="1.39609">
        <ele>2379.4</ele>
        <time>2014-02-23T08:43:33Z</time>
      </trkpt>
      <trkpt lat="42.68681" lon="1.3961">
        <ele>2376.04</ele>
        <time>2014-02-23T08:43:52Z</time>
      </trkpt>
      <trkpt lat="42.68681" lon="1.39609">
        <ele>2375.55</ele>
        <time>2014-02-23T08:44:07Z</time>
      </trkpt>
      <trkpt lat="42.68682" lon="1.3961">
        <ele>2377.96</ele>
        <time>2014-02-23T08:44:24Z</time>
      </trkpt>
      <trkpt lat="42.68683" lon="1.39608">
        <ele>2377.48</ele>
        <time>2014-02-23T08:44:41Z</time>
      </trkpt>
      <trkpt lat="42.68679" lon="1.3961">
        <ele>2377</ele>
        <time>2014-02-23T08:44:53Z</time>
      </trkpt>
      <trkpt lat="42.68671" lon="1.3961">
        <ele>2375.55</ele>
        <time>2014-02-23T08:45:02Z</time>
      </trkpt>
      <trkpt lat="42.6866" lon="1.3961">
        <ele>2374.11</ele>
        <time>2014-02-23T08:45:15Z</time>
      </trkpt>
      <trkpt lat="42.68659" lon="1.39609">
        <ele>2375.07</ele>
        <time>2014-02-23T08:45:27Z</time>
      </trkpt>
      <trkpt lat="42.68645" lon="1.396">
        <ele>2374.11</ele>
        <time>2014-02-23T08:45:43Z</time>
      </trkpt>
      <trkpt lat="42.68635" lon="1.39596">
        <ele>2374.11</ele>
        <time>2014-02-23T08:45:55Z</time>
      </trkpt>
      <trkpt lat="42.68623" lon="1.39594">
        <ele>2375.07</ele>
        <time>2014-02-23T08:46:08Z</time>
      </trkpt>
      <trkpt lat="42.68616" lon="1.39592">
        <ele>2375.07</ele>
        <time>2014-02-23T08:46:20Z</time>
      </trkpt>
      <trkpt lat="42.6861" lon="1.39592">
        <ele>2375.07</ele>
        <time>2014-02-23T08:46:31Z</time>
      </trkpt>
      <trkpt lat="42.68606" lon="1.3959">
        <ele>2377</ele>
        <time>2014-02-23T08:46:39Z</time>
      </trkpt>
      <trkpt lat="42.68603" lon="1.39589">
        <ele>2378.44</ele>
        <time>2014-02-23T08:46:50Z</time>
      </trkpt>
      <trkpt lat="42.68599" lon="1.39586">
        <ele>2377.48</ele>
        <time>2014-02-23T08:47:00Z</time>
      </trkpt>
      <trkpt lat="42.68593" lon="1.39583">
        <ele>2377.48</ele>
        <time>2014-02-23T08:47:10Z</time>
      </trkpt>
      <trkpt lat="42.68586" lon="1.39579">
        <ele>2379.4</ele>
        <time>2014-02-23T08:47:21Z</time>
      </trkpt>
      <trkpt lat="42.6858" lon="1.39576">
        <ele>2380.36</ele>
        <time>2014-02-23T08:47:32Z</time>
      </trkpt>
      <trkpt lat="42.68572" lon="1.39571">
        <ele>2379.4</ele>
        <time>2014-02-23T08:47:42Z</time>
      </trkpt>
      <trkpt lat="42.68564" lon="1.39566">
        <ele>2379.88</ele>
        <time>2014-02-23T08:47:54Z</time>
      </trkpt>
      <trkpt lat="42.68557" lon="1.39563">
        <ele>2380.84</ele>
        <time>2014-02-23T08:48:08Z</time>
      </trkpt>
      <trkpt lat="42.6855" lon="1.39557">
        <ele>2380.36</ele>
        <time>2014-02-23T08:48:23Z</time>
      </trkpt>
      <trkpt lat="42.68541" lon="1.39551">
        <ele>2380.36</ele>
        <time>2014-02-23T08:48:36Z</time>
      </trkpt>
      <trkpt lat="42.68534" lon="1.39549">
        <ele>2381.8</ele>
        <time>2014-02-23T08:48:48Z</time>
      </trkpt>
      <trkpt lat="42.68528" lon="1.39547">
        <ele>2382.28</ele>
        <time>2014-02-23T08:49:03Z</time>
      </trkpt>
      <trkpt lat="42.68522" lon="1.39544">
        <ele>2382.76</ele>
        <time>2014-02-23T08:49:14Z</time>
      </trkpt>
      <trkpt lat="42.68519" lon="1.39541">
        <ele>2381.32</ele>
        <time>2014-02-23T08:49:27Z</time>
      </trkpt>
      <trkpt lat="42.68519" lon="1.39541">
        <ele>2378.92</ele>
        <time>2014-02-23T08:49:39Z</time>
      </trkpt>
      <trkpt lat="42.68515" lon="1.39539">
        <ele>2379.88</ele>
        <time>2014-02-23T08:49:51Z</time>
      </trkpt>
      <trkpt lat="42.68512" lon="1.39537">
        <ele>2380.36</ele>
        <time>2014-02-23T08:50:02Z</time>
      </trkpt>
      <trkpt lat="42.68504" lon="1.39533">
        <ele>2383.25</ele>
        <time>2014-02-23T08:50:17Z</time>
      </trkpt>
      <trkpt lat="42.68497" lon="1.39529">
        <ele>2383.25</ele>
        <time>2014-02-23T08:50:31Z</time>
      </trkpt>
      <trkpt lat="42.6849" lon="1.39526">
        <ele>2383.25</ele>
        <time>2014-02-23T08:50:43Z</time>
      </trkpt>
      <trkpt lat="42.68483" lon="1.39522">
        <ele>2382.28</ele>
        <time>2014-02-23T08:50:55Z</time>
      </trkpt>
      <trkpt lat="42.68476" lon="1.39518">
        <ele>2382.28</ele>
        <time>2014-02-23T08:51:10Z</time>
      </trkpt>
      <trkpt lat="42.68473" lon="1.39514">
        <ele>2382.28</ele>
        <time>2014-02-23T08:51:25Z</time>
      </trkpt>
      <trkpt lat="42.68469" lon="1.3951">
        <ele>2380.36</ele>
        <time>2014-02-23T08:51:39Z</time>
      </trkpt>
      <trkpt lat="42.68465" lon="1.39506">
        <ele>2379.4</ele>
        <time>2014-02-23T08:51:52Z</time>
      </trkpt>
      <trkpt lat="42.68461" lon="1.39501">
        <ele>2378.92</ele>
        <time>2014-02-23T08:52:09Z</time>
      </trkpt>
      <trkpt lat="42.6846" lon="1.39499">
        <ele>2378.44</ele>
        <time>2014-02-23T08:52:19Z</time>
      </trkpt>
      <trkpt lat="42.68456" lon="1.39494">
        <ele>2377.48</ele>
        <time>2014-02-23T08:52:32Z</time>
      </trkpt>
      <trkpt lat="42.68452" lon="1.39491">
        <ele>2376.52</ele>
        <time>2014-02-23T08:52:43Z</time>
      </trkpt>
      <trkpt lat="42.68439" lon="1.39477">
        <ele>2373.63</ele>
        <time>2014-02-23T08:52:58Z</time>
      </trkpt>
      <trkpt lat="42.68433" lon="1.39472">
        <ele>2371.71</ele>
        <time>2014-02-23T08:53:10Z</time>
      </trkpt>
      <trkpt lat="42.68429" lon="1.39473">
        <ele>2372.19</ele>
        <time>2014-02-23T08:53:24Z</time>
      </trkpt>
      <trkpt lat="42.68449" lon="1.39474">
        <ele>2388.05</ele>
        <time>2014-02-23T08:53:48Z</time>
      </trkpt>
      <trkpt lat="42.68438" lon="1.39471">
        <ele>2386.61</ele>
        <time>2014-02-23T08:54:07Z</time>
      </trkpt>
      <trkpt lat="42.68429" lon="1.39468">
        <ele>2383.73</ele>
        <time>2014-02-23T08:54:24Z</time>
      </trkpt>
      <trkpt lat="42.68426" lon="1.39467">
        <ele>2383.73</ele>
        <time>2014-02-23T08:54:28Z</time>
      </trkpt>
      <trkpt lat="42.68417" lon="1.39465">
        <ele>2384.21</ele>
        <time>2014-02-23T08:54:41Z</time>
      </trkpt>
      <trkpt lat="42.68412" lon="1.39464">
        <ele>2383.73</ele>
        <time>2014-02-23T08:54:51Z</time>
      </trkpt>
      <trkpt lat="42.68403" lon="1.39462">
        <ele>2383.73</ele>
        <time>2014-02-23T08:55:03Z</time>
      </trkpt>
      <trkpt lat="42.68396" lon="1.39458">
        <ele>2383.73</ele>
        <time>2014-02-23T08:55:15Z</time>
      </trkpt>
      <trkpt lat="42.68385" lon="1.39454">
        <ele>2383.73</ele>
        <time>2014-02-23T08:55:30Z</time>
      </trkpt>
      <trkpt lat="42.68377" lon="1.39451">
        <ele>2385.65</ele>
        <time>2014-02-23T08:55:42Z</time>
      </trkpt>
      <trkpt lat="42.6837" lon="1.39449">
        <ele>2384.69</ele>
        <time>2014-02-23T08:55:54Z</time>
      </trkpt>
      <trkpt lat="42.68362" lon="1.39447">
        <ele>2382.28</ele>
        <time>2014-02-23T08:56:06Z</time>
      </trkpt>
      <trkpt lat="42.68356" lon="1.39445">
        <ele>2383.73</ele>
        <time>2014-02-23T08:56:18Z</time>
      </trkpt>
      <trkpt lat="42.68351" lon="1.39446">
        <ele>2386.13</ele>
        <time>2014-02-23T08:56:31Z</time>
      </trkpt>
      <trkpt lat="42.68345" lon="1.39444">
        <ele>2388.53</ele>
        <time>2014-02-23T08:56:44Z</time>
      </trkpt>
      <trkpt lat="42.68337" lon="1.39443">
        <ele>2389.01</ele>
        <time>2014-02-23T08:56:58Z</time>
      </trkpt>
      <trkpt lat="42.68329" lon="1.39441">
        <ele>2390.94</ele>
        <time>2014-02-23T08:57:11Z</time>
      </trkpt>
      <trkpt lat="42.68324" lon="1.3944">
        <ele>2393.34</ele>
        <time>2014-02-23T08:57:23Z</time>
      </trkpt>
      <trkpt lat="42.68316" lon="1.39437">
        <ele>2395.26</ele>
        <time>2014-02-23T08:57:36Z</time>
      </trkpt>
      <trkpt lat="42.6831" lon="1.39436">
        <ele>2396.7</ele>
        <time>2014-02-23T08:57:49Z</time>
      </trkpt>
      <trkpt lat="42.68303" lon="1.39433">
        <ele>2398.63</ele>
        <time>2014-02-23T08:58:01Z</time>
      </trkpt>
      <trkpt lat="42.68297" lon="1.39431">
        <ele>2399.59</ele>
        <time>2014-02-23T08:58:13Z</time>
      </trkpt>
      <trkpt lat="42.6829" lon="1.39428">
        <ele>2399.59</ele>
        <time>2014-02-23T08:58:24Z</time>
      </trkpt>
      <trkpt lat="42.68286" lon="1.39427">
        <ele>2400.07</ele>
        <time>2014-02-23T08:58:35Z</time>
      </trkpt>
      <trkpt lat="42.68279" lon="1.39423">
        <ele>2403.91</ele>
        <time>2014-02-23T08:58:47Z</time>
      </trkpt>
      <trkpt lat="42.68273" lon="1.3942">
        <ele>2404.88</ele>
        <time>2014-02-23T08:58:59Z</time>
      </trkpt>
      <trkpt lat="42.68267" lon="1.39417">
        <ele>2406.8</ele>
        <time>2014-02-23T08:59:11Z</time>
      </trkpt>
      <trkpt lat="42.6826" lon="1.39414">
        <ele>2407.28</ele>
        <time>2014-02-23T08:59:24Z</time>
      </trkpt>
      <trkpt lat="42.68253" lon="1.3941">
        <ele>2409.2</ele>
        <time>2014-02-23T08:59:37Z</time>
      </trkpt>
      <trkpt lat="42.68245" lon="1.39404">
        <ele>2410.16</ele>
        <time>2014-02-23T08:59:50Z</time>
      </trkpt>
      <trkpt lat="42.68239" lon="1.394">
        <ele>2411.6</ele>
        <time>2014-02-23T09:00:03Z</time>
      </trkpt>
      <trkpt lat="42.68234" lon="1.39395">
        <ele>2411.6</ele>
        <time>2014-02-23T09:00:15Z</time>
      </trkpt>
      <trkpt lat="42.68226" lon="1.39389">
        <ele>2413.05</ele>
        <time>2014-02-23T09:00:27Z</time>
      </trkpt>
      <trkpt lat="42.68218" lon="1.39384">
        <ele>2414.97</ele>
        <time>2014-02-23T09:00:38Z</time>
      </trkpt>
      <trkpt lat="42.68209" lon="1.39376">
        <ele>2417.85</ele>
        <time>2014-02-23T09:00:51Z</time>
      </trkpt>
      <trkpt lat="42.68203" lon="1.39369">
        <ele>2417.37</ele>
        <time>2014-02-23T09:01:02Z</time>
      </trkpt>
      <trkpt lat="42.68199" lon="1.39365">
        <ele>2418.81</ele>
        <time>2014-02-23T09:01:10Z</time>
      </trkpt>
      <trkpt lat="42.6819" lon="1.39361">
        <ele>2420.74</ele>
        <time>2014-02-23T09:01:22Z</time>
      </trkpt>
      <trkpt lat="42.68182" lon="1.39357">
        <ele>2420.74</ele>
        <time>2014-02-23T09:01:34Z</time>
      </trkpt>
      <trkpt lat="42.68173" lon="1.39353">
        <ele>2422.66</ele>
        <time>2014-02-23T09:01:45Z</time>
      </trkpt>
      <trkpt lat="42.68164" lon="1.3935">
        <ele>2423.14</ele>
        <time>2014-02-23T09:01:58Z</time>
      </trkpt>
      <trkpt lat="42.68159" lon="1.39349">
        <ele>2424.1</ele>
        <time>2014-02-23T09:02:11Z</time>
      </trkpt>
      <trkpt lat="42.6816" lon="1.3935">
        <ele>2422.18</ele>
        <time>2014-02-23T09:02:27Z</time>
      </trkpt>
      <trkpt lat="42.68157" lon="1.39349">
        <ele>2424.1</ele>
        <time>2014-02-23T09:02:40Z</time>
      </trkpt>
      <trkpt lat="42.68154" lon="1.39348">
        <ele>2425.06</ele>
        <time>2014-02-23T09:02:53Z</time>
      </trkpt>
      <trkpt lat="42.68146" lon="1.39345">
        <ele>2426.5</ele>
        <time>2014-02-23T09:03:12Z</time>
      </trkpt>
      <trkpt lat="42.68136" lon="1.39343">
        <ele>2427.95</ele>
        <time>2014-02-23T09:03:24Z</time>
      </trkpt>
      <trkpt lat="42.68125" lon="1.39342">
        <ele>2428.91</ele>
        <time>2014-02-23T09:03:37Z</time>
      </trkpt>
      <trkpt lat="42.68119" lon="1.39342">
        <ele>2429.39</ele>
        <time>2014-02-23T09:03:44Z</time>
      </trkpt>
      <trkpt lat="42.68117" lon="1.39345">
        <ele>2430.83</ele>
        <time>2014-02-23T09:03:51Z</time>
      </trkpt>
      <trkpt lat="42.68115" lon="1.39343">
        <ele>2431.31</ele>
        <time>2014-02-23T09:04:01Z</time>
      </trkpt>
      <trkpt lat="42.68114" lon="1.39345">
        <ele>2424.58</ele>
        <time>2014-02-23T09:04:21Z</time>
      </trkpt>
      <trkpt lat="42.68115" lon="1.39346">
        <ele>2415.93</ele>
        <time>2014-02-23T09:04:39Z</time>
      </trkpt>
      <trkpt lat="42.68122" lon="1.39347">
        <ele>2412.09</ele>
        <time>2014-02-23T09:05:02Z</time>
      </trkpt>
      <trkpt lat="42.68124" lon="1.3935">
        <ele>2413.05</ele>
        <time>2014-02-23T09:05:17Z</time>
      </trkpt>
      <trkpt lat="42.68118" lon="1.39348">
        <ele>2418.33</ele>
        <time>2014-02-23T09:05:34Z</time>
      </trkpt>
      <trkpt lat="42.68118" lon="1.39348">
        <ele>2417.85</ele>
        <time>2014-02-23T09:05:35Z</time>
      </trkpt>
      <trkpt lat="42.68115" lon="1.39349">
        <ele>2419.3</ele>
        <time>2014-02-23T09:05:42Z</time>
      </trkpt>
      <trkpt lat="42.6811" lon="1.39353">
        <ele>2420.74</ele>
        <time>2014-02-23T09:05:47Z</time>
      </trkpt>
      <trkpt lat="42.68106" lon="1.39362">
        <ele>2422.66</ele>
        <time>2014-02-23T09:05:58Z</time>
      </trkpt>
      <trkpt lat="42.68105" lon="1.39367">
        <ele>2421.7</ele>
        <time>2014-02-23T09:06:08Z</time>
      </trkpt>
      <trkpt lat="42.68105" lon="1.39374">
        <ele>2423.62</ele>
        <time>2014-02-23T09:06:20Z</time>
      </trkpt>
      <trkpt lat="42.68101" lon="1.39383">
        <ele>2422.18</ele>
        <time>2014-02-23T09:06:32Z</time>
      </trkpt>
      <trkpt lat="42.68099" lon="1.39387">
        <ele>2423.62</ele>
        <time>2014-02-23T09:06:38Z</time>
      </trkpt>
      <trkpt lat="42.68094" lon="1.39396">
        <ele>2426.02</ele>
        <time>2014-02-23T09:06:52Z</time>
      </trkpt>
      <trkpt lat="42.68094" lon="1.39398">
        <ele>2425.54</ele>
        <time>2014-02-23T09:06:54Z</time>
      </trkpt>
      <trkpt lat="42.68095" lon="1.39404">
        <ele>2426.99</ele>
        <time>2014-02-23T09:07:06Z</time>
      </trkpt>
      <trkpt lat="42.68095" lon="1.39416">
        <ele>2427.95</ele>
        <time>2014-02-23T09:07:19Z</time>
      </trkpt>
      <trkpt lat="42.68092" lon="1.39425">
        <ele>2430.35</ele>
        <time>2014-02-23T09:07:32Z</time>
      </trkpt>
      <trkpt lat="42.68083" lon="1.39432">
        <ele>2431.79</ele>
        <time>2014-02-23T09:07:44Z</time>
      </trkpt>
      <trkpt lat="42.68079" lon="1.39429">
        <ele>2432.75</ele>
        <time>2014-02-23T09:08:02Z</time>
      </trkpt>
      <trkpt lat="42.68077" lon="1.39429">
        <ele>2434.68</ele>
        <time>2014-02-23T09:08:24Z</time>
      </trkpt>
      <trkpt lat="42.68071" lon="1.39442">
        <ele>2434.68</ele>
        <time>2014-02-23T09:08:39Z</time>
      </trkpt>
      <trkpt lat="42.68073" lon="1.39455">
        <ele>2432.75</ele>
        <time>2014-02-23T09:08:50Z</time>
      </trkpt>
      <trkpt lat="42.68067" lon="1.39463">
        <ele>2435.16</ele>
        <time>2014-02-23T09:09:00Z</time>
      </trkpt>
      <trkpt lat="42.6806" lon="1.3947">
        <ele>2438.52</ele>
        <time>2014-02-23T09:09:12Z</time>
      </trkpt>
      <trkpt lat="42.68057" lon="1.39472">
        <ele>2439.96</ele>
        <time>2014-02-23T09:09:23Z</time>
      </trkpt>
      <trkpt lat="42.68048" lon="1.39476">
        <ele>2444.29</ele>
        <time>2014-02-23T09:09:36Z</time>
      </trkpt>
      <trkpt lat="42.68039" lon="1.39479">
        <ele>2449.58</ele>
        <time>2014-02-23T09:09:49Z</time>
      </trkpt>
      <trkpt lat="42.68032" lon="1.3948">
        <ele>2451.98</ele>
        <time>2014-02-23T09:10:00Z</time>
      </trkpt>
      <trkpt lat="42.68035" lon="1.39483">
        <ele>2451.02</ele>
        <time>2014-02-23T09:10:09Z</time>
      </trkpt>
      <trkpt lat="42.68039" lon="1.39489">
        <ele>2452.46</ele>
        <time>2014-02-23T09:10:20Z</time>
      </trkpt>
      <trkpt lat="42.68043" lon="1.39493">
        <ele>2452.94</ele>
        <time>2014-02-23T09:10:30Z</time>
      </trkpt>
      <trkpt lat="42.68047" lon="1.39495">
        <ele>2452.46</ele>
        <time>2014-02-23T09:10:45Z</time>
      </trkpt>
      <trkpt lat="42.68046" lon="1.39498">
        <ele>2451.02</ele>
        <time>2014-02-23T09:10:56Z</time>
      </trkpt>
      <trkpt lat="42.68036" lon="1.39503">
        <ele>2454.86</ele>
        <time>2014-02-23T09:11:11Z</time>
      </trkpt>
      <trkpt lat="42.68036" lon="1.39502">
        <ele>2456.31</ele>
        <time>2014-02-23T09:11:20Z</time>
      </trkpt>
      <trkpt lat="42.68041" lon="1.39507">
        <ele>2455.82</ele>
        <time>2014-02-23T09:11:31Z</time>
      </trkpt>
      <trkpt lat="42.68047" lon="1.39511">
        <ele>2456.79</ele>
        <time>2014-02-23T09:11:42Z</time>
      </trkpt>
      <trkpt lat="42.6805" lon="1.39513">
        <ele>2455.82</ele>
        <time>2014-02-23T09:11:53Z</time>
      </trkpt>
      <trkpt lat="42.68043" lon="1.39515">
        <ele>2459.19</ele>
        <time>2014-02-23T09:12:04Z</time>
      </trkpt>
      <trkpt lat="42.68036" lon="1.39516">
        <ele>2462.55</ele>
        <time>2014-02-23T09:12:21Z</time>
      </trkpt>
      <trkpt lat="42.68039" lon="1.39518">
        <ele>2463.04</ele>
        <time>2014-02-23T09:12:32Z</time>
      </trkpt>
      <trkpt lat="42.68044" lon="1.39521">
        <ele>2464</ele>
        <time>2014-02-23T09:12:41Z</time>
      </trkpt>
      <trkpt lat="42.68049" lon="1.39522">
        <ele>2467.36</ele>
        <time>2014-02-23T09:12:52Z</time>
      </trkpt>
      <trkpt lat="42.6805" lon="1.39523">
        <ele>2465.44</ele>
        <time>2014-02-23T09:13:06Z</time>
      </trkpt>
      <trkpt lat="42.68047" lon="1.39525">
        <ele>2465.44</ele>
        <time>2014-02-23T09:13:18Z</time>
      </trkpt>
      <trkpt lat="42.68042" lon="1.3953">
        <ele>2466.88</ele>
        <time>2014-02-23T09:13:30Z</time>
      </trkpt>
      <trkpt lat="42.68036" lon="1.39531">
        <ele>2470.24</ele>
        <time>2014-02-23T09:13:43Z</time>
      </trkpt>
      <trkpt lat="42.68032" lon="1.39529">
        <ele>2472.17</ele>
        <time>2014-02-23T09:13:56Z</time>
      </trkpt>
      <trkpt lat="42.68032" lon="1.39529">
        <ele>2472.17</ele>
        <time>2014-02-23T09:14:07Z</time>
      </trkpt>
      <trkpt lat="42.68037" lon="1.3953">
        <ele>2477.45</ele>
        <time>2014-02-23T09:14:21Z</time>
      </trkpt>
      <trkpt lat="42.68043" lon="1.39533">
        <ele>2481.78</ele>
        <time>2014-02-23T09:14:31Z</time>
      </trkpt>
      <trkpt lat="42.68048" lon="1.39538">
        <ele>2482.74</ele>
        <time>2014-02-23T09:14:44Z</time>
      </trkpt>
      <trkpt lat="42.68044" lon="1.3954">
        <ele>2478.9</ele>
        <time>2014-02-23T09:14:57Z</time>
      </trkpt>
      <trkpt lat="42.68035" lon="1.39544">
        <ele>2481.3</ele>
        <time>2014-02-23T09:15:14Z</time>
      </trkpt>
      <trkpt lat="42.68033" lon="1.39544">
        <ele>2482.26</ele>
        <time>2014-02-23T09:15:20Z</time>
      </trkpt>
      <trkpt lat="42.68037" lon="1.39548">
        <ele>2482.74</ele>
        <time>2014-02-23T09:15:28Z</time>
      </trkpt>
      <trkpt lat="42.6804" lon="1.3955">
        <ele>2482.74</ele>
        <time>2014-02-23T09:15:40Z</time>
      </trkpt>
      <trkpt lat="42.68042" lon="1.39553">
        <ele>2481.78</ele>
        <time>2014-02-23T09:15:51Z</time>
      </trkpt>
      <trkpt lat="42.68033" lon="1.39555">
        <ele>2482.74</ele>
        <time>2014-02-23T09:16:04Z</time>
      </trkpt>
      <trkpt lat="42.68031" lon="1.39557">
        <ele>2482.74</ele>
        <time>2014-02-23T09:16:17Z</time>
      </trkpt>
      <trkpt lat="42.68034" lon="1.39558">
        <ele>2484.18</ele>
        <time>2014-02-23T09:16:28Z</time>
      </trkpt>
      <trkpt lat="42.68038" lon="1.39564">
        <ele>2483.22</ele>
        <time>2014-02-23T09:16:41Z</time>
      </trkpt>
      <trkpt lat="42.68043" lon="1.39567">
        <ele>2485.15</ele>
        <time>2014-02-23T09:16:53Z</time>
      </trkpt>
      <trkpt lat="42.68043" lon="1.39566">
        <ele>2484.66</ele>
        <time>2014-02-23T09:16:56Z</time>
      </trkpt>
      <trkpt lat="42.68037" lon="1.39571">
        <ele>2488.03</ele>
        <time>2014-02-23T09:17:08Z</time>
      </trkpt>
      <trkpt lat="42.68028" lon="1.39572">
        <ele>2490.91</ele>
        <time>2014-02-23T09:17:22Z</time>
      </trkpt>
      <trkpt lat="42.68032" lon="1.39575">
        <ele>2493.32</ele>
        <time>2014-02-23T09:17:32Z</time>
      </trkpt>
      <trkpt lat="42.68032" lon="1.39577">
        <ele>2490.91</ele>
        <time>2014-02-23T09:17:46Z</time>
      </trkpt>
      <trkpt lat="42.68031" lon="1.39576">
        <ele>2492.36</ele>
        <time>2014-02-23T09:18:07Z</time>
      </trkpt>
      <trkpt lat="42.68037" lon="1.39583">
        <ele>2493.32</ele>
        <time>2014-02-23T09:18:28Z</time>
      </trkpt>
      <trkpt lat="42.68034" lon="1.39586">
        <ele>2493.8</ele>
        <time>2014-02-23T09:18:37Z</time>
      </trkpt>
      <trkpt lat="42.68033" lon="1.39586">
        <ele>2494.76</ele>
        <time>2014-02-23T09:18:39Z</time>
      </trkpt>
      <trkpt lat="42.68028" lon="1.39587">
        <ele>2497.64</ele>
        <time>2014-02-23T09:18:50Z</time>
      </trkpt>
      <trkpt lat="42.68031" lon="1.39591">
        <ele>2496.68</ele>
        <time>2014-02-23T09:19:01Z</time>
      </trkpt>
      <trkpt lat="42.68033" lon="1.39594">
        <ele>2496.2</ele>
        <time>2014-02-23T09:19:08Z</time>
      </trkpt>
      <trkpt lat="42.68034" lon="1.396">
        <ele>2497.16</ele>
        <time>2014-02-23T09:19:19Z</time>
      </trkpt>
      <trkpt lat="42.68027" lon="1.39604">
        <ele>2500.05</ele>
        <time>2014-02-23T09:19:31Z</time>
      </trkpt>
      <trkpt lat="42.68028" lon="1.39608">
        <ele>2501.01</ele>
        <time>2014-02-23T09:19:41Z</time>
      </trkpt>
      <trkpt lat="42.68029" lon="1.39612">
        <ele>2501.01</ele>
        <time>2014-02-23T09:19:45Z</time>
      </trkpt>
      <trkpt lat="42.68027" lon="1.39619">
        <ele>2502.45</ele>
        <time>2014-02-23T09:19:56Z</time>
      </trkpt>
      <trkpt lat="42.68024" lon="1.39627">
        <ele>2504.37</ele>
        <time>2014-02-23T09:20:08Z</time>
      </trkpt>
      <trkpt lat="42.68024" lon="1.39634">
        <ele>2505.33</ele>
        <time>2014-02-23T09:20:20Z</time>
      </trkpt>
      <trkpt lat="42.68026" lon="1.39643">
        <ele>2508.22</ele>
        <time>2014-02-23T09:20:31Z</time>
      </trkpt>
      <trkpt lat="42.68027" lon="1.39648">
        <ele>2510.62</ele>
        <time>2014-02-23T09:20:42Z</time>
      </trkpt>
      <trkpt lat="42.68021" lon="1.39653">
        <ele>2513.02</ele>
        <time>2014-02-23T09:20:55Z</time>
      </trkpt>
      <trkpt lat="42.68022" lon="1.39662">
        <ele>2514.95</ele>
        <time>2014-02-23T09:21:07Z</time>
      </trkpt>
      <trkpt lat="42.68026" lon="1.3967">
        <ele>2513.98</ele>
        <time>2014-02-23T09:21:20Z</time>
      </trkpt>
      <trkpt lat="42.68031" lon="1.39674">
        <ele>2516.87</ele>
        <time>2014-02-23T09:21:31Z</time>
      </trkpt>
      <trkpt lat="42.68035" lon="1.39678">
        <ele>2519.27</ele>
        <time>2014-02-23T09:21:43Z</time>
      </trkpt>
      <trkpt lat="42.68032" lon="1.39685">
        <ele>2521.19</ele>
        <time>2014-02-23T09:21:55Z</time>
      </trkpt>
      <trkpt lat="42.68026" lon="1.39689">
        <ele>2524.56</ele>
        <time>2014-02-23T09:22:06Z</time>
      </trkpt>
      <trkpt lat="42.68021" lon="1.39694">
        <ele>2528.89</ele>
        <time>2014-02-23T09:22:19Z</time>
      </trkpt>
      <trkpt lat="42.68026" lon="1.39705">
        <ele>2527.92</ele>
        <time>2014-02-23T09:22:31Z</time>
      </trkpt>
      <trkpt lat="42.68034" lon="1.39711">
        <ele>2528.4</ele>
        <time>2014-02-23T09:22:44Z</time>
      </trkpt>
      <trkpt lat="42.68034" lon="1.39715">
        <ele>2531.29</ele>
        <time>2014-02-23T09:22:55Z</time>
      </trkpt>
      <trkpt lat="42.68032" lon="1.39716">
        <ele>2533.21</ele>
        <time>2014-02-23T09:23:09Z</time>
      </trkpt>
      <trkpt lat="42.68031" lon="1.39717">
        <ele>2534.65</ele>
        <time>2014-02-23T09:23:26Z</time>
      </trkpt>
      <trkpt lat="42.68033" lon="1.39715">
        <ele>2530.33</ele>
        <time>2014-02-23T09:23:46Z</time>
      </trkpt>
      <trkpt lat="42.68035" lon="1.39718">
        <ele>2531.77</ele>
        <time>2014-02-23T09:24:06Z</time>
      </trkpt>
      <trkpt lat="42.68036" lon="1.39722">
        <ele>2529.85</ele>
        <time>2014-02-23T09:24:30Z</time>
      </trkpt>
      <trkpt lat="42.68034" lon="1.39722">
        <ele>2530.33</ele>
        <time>2014-02-23T09:24:45Z</time>
      </trkpt>
      <trkpt lat="42.68034" lon="1.39723">
        <ele>2533.21</ele>
        <time>2014-02-23T09:25:04Z</time>
      </trkpt>
      <trkpt lat="42.68036" lon="1.39722">
        <ele>2532.25</ele>
        <time>2014-02-23T09:25:23Z</time>
      </trkpt>
      <trkpt lat="42.68033" lon="1.39722">
        <ele>2535.61</ele>
        <time>2014-02-23T09:25:40Z</time>
      </trkpt>
      <trkpt lat="42.68031" lon="1.39724">
        <ele>2539.46</ele>
        <time>2014-02-23T09:25:51Z</time>
      </trkpt>
      <trkpt lat="42.6803" lon="1.39724">
        <ele>2538.5</ele>
        <time>2014-02-23T09:26:04Z</time>
      </trkpt>
      <trkpt lat="42.68025" lon="1.39727">
        <ele>2538.02</ele>
        <time>2014-02-23T09:26:09Z</time>
      </trkpt>
      <trkpt lat="42.68018" lon="1.39732">
        <ele>2540.42</ele>
        <time>2014-02-23T09:26:23Z</time>
      </trkpt>
      <trkpt lat="42.68008" lon="1.39736">
        <ele>2541.38</ele>
        <time>2014-02-23T09:26:37Z</time>
      </trkpt>
      <trkpt lat="42.68002" lon="1.39735">
        <ele>2540.9</ele>
        <time>2014-02-23T09:26:50Z</time>
      </trkpt>
      <trkpt lat="42.67996" lon="1.39731">
        <ele>2543.31</ele>
        <time>2014-02-23T09:27:03Z</time>
      </trkpt>
      <trkpt lat="42.67998" lon="1.39737">
        <ele>2545.23</ele>
        <time>2014-02-23T09:27:14Z</time>
      </trkpt>
      <trkpt lat="42.68001" lon="1.39744">
        <ele>2546.19</ele>
        <time>2014-02-23T09:27:27Z</time>
      </trkpt>
      <trkpt lat="42.68002" lon="1.39746">
        <ele>2546.19</ele>
        <time>2014-02-23T09:27:30Z</time>
      </trkpt>
      <trkpt lat="42.68004" lon="1.39752">
        <ele>2546.19</ele>
        <time>2014-02-23T09:27:42Z</time>
      </trkpt>
      <trkpt lat="42.6801" lon="1.39758">
        <ele>2547.15</ele>
        <time>2014-02-23T09:27:52Z</time>
      </trkpt>
      <trkpt lat="42.68005" lon="1.39762">
        <ele>2548.11</ele>
        <time>2014-02-23T09:28:04Z</time>
      </trkpt>
      <trkpt lat="42.67998" lon="1.39767">
        <ele>2551.48</ele>
        <time>2014-02-23T09:28:18Z</time>
      </trkpt>
      <trkpt lat="42.6799" lon="1.39768">
        <ele>2554.36</ele>
        <time>2014-02-23T09:28:31Z</time>
      </trkpt>
      <trkpt lat="42.67986" lon="1.39767">
        <ele>2556.76</ele>
        <time>2014-02-23T09:28:42Z</time>
      </trkpt>
      <trkpt lat="42.67988" lon="1.39772">
        <ele>2557.73</ele>
        <time>2014-02-23T09:28:51Z</time>
      </trkpt>
      <trkpt lat="42.67991" lon="1.39782">
        <ele>2559.17</ele>
        <time>2014-02-23T09:29:05Z</time>
      </trkpt>
      <trkpt lat="42.67991" lon="1.3979">
        <ele>2558.69</ele>
        <time>2014-02-23T09:29:17Z</time>
      </trkpt>
      <trkpt lat="42.67991" lon="1.39793">
        <ele>2559.17</ele>
        <time>2014-02-23T09:29:23Z</time>
      </trkpt>
      <trkpt lat="42.6799" lon="1.39804">
        <ele>2561.09</ele>
        <time>2014-02-23T09:29:35Z</time>
      </trkpt>
      <trkpt lat="42.67988" lon="1.39814">
        <ele>2563.01</ele>
        <time>2014-02-23T09:29:46Z</time>
      </trkpt>
      <trkpt lat="42.67988" lon="1.39816">
        <ele>2562.53</ele>
        <time>2014-02-23T09:29:56Z</time>
      </trkpt>
      <trkpt lat="42.6799" lon="1.39814">
        <ele>2562.53</ele>
        <time>2014-02-23T09:30:27Z</time>
      </trkpt>
      <trkpt lat="42.67985" lon="1.3981">
        <ele>2562.53</ele>
        <time>2014-02-23T09:30:56Z</time>
      </trkpt>
      <trkpt lat="42.67985" lon="1.39818">
        <ele>2564.93</ele>
        <time>2014-02-23T09:31:14Z</time>
      </trkpt>
      <trkpt lat="42.67987" lon="1.3982">
        <ele>2567.34</ele>
        <time>2014-02-23T09:31:28Z</time>
      </trkpt>
      <trkpt lat="42.67985" lon="1.39825">
        <ele>2568.3</ele>
        <time>2014-02-23T09:31:53Z</time>
      </trkpt>
      <trkpt lat="42.67986" lon="1.39826">
        <ele>2570.7</ele>
        <time>2014-02-23T09:32:04Z</time>
      </trkpt>
      <trkpt lat="42.67982" lon="1.39815">
        <ele>2573.59</ele>
        <time>2014-02-23T09:32:27Z</time>
      </trkpt>
      <trkpt lat="42.67983" lon="1.39822">
        <ele>2573.11</ele>
        <time>2014-02-23T09:32:47Z</time>
      </trkpt>
      <trkpt lat="42.67987" lon="1.39827">
        <ele>2570.7</ele>
        <time>2014-02-23T09:33:06Z</time>
      </trkpt>
      <trkpt lat="42.67987" lon="1.39828">
        <ele>2571.18</ele>
        <time>2014-02-23T09:33:25Z</time>
      </trkpt>
      <trkpt lat="42.67987" lon="1.39826">
        <ele>2571.66</ele>
        <time>2014-02-23T09:33:51Z</time>
      </trkpt>
      <trkpt lat="42.67985" lon="1.39827">
        <ele>2570.22</ele>
        <time>2014-02-23T09:34:10Z</time>
      </trkpt>
      <trkpt lat="42.67983" lon="1.39826">
        <ele>2566.38</ele>
        <time>2014-02-23T09:34:30Z</time>
      </trkpt>
      <trkpt lat="42.67982" lon="1.39825">
        <ele>2568.78</ele>
        <time>2014-02-23T09:34:55Z</time>
      </trkpt>
      <trkpt lat="42.67987" lon="1.39828">
        <ele>2566.38</ele>
        <time>2014-02-23T09:35:14Z</time>
      </trkpt>
      <trkpt lat="42.67984" lon="1.39824">
        <ele>2565.9</ele>
        <time>2014-02-23T09:35:35Z</time>
      </trkpt>
      <trkpt lat="42.67987" lon="1.39827">
        <ele>2567.82</ele>
        <time>2014-02-23T09:35:46Z</time>
      </trkpt>
      <trkpt lat="42.67984" lon="1.39824">
        <ele>2567.34</ele>
        <time>2014-02-23T09:36:03Z</time>
      </trkpt>
      <trkpt lat="42.67986" lon="1.39826">
        <ele>2567.82</ele>
        <time>2014-02-23T09:36:21Z</time>
      </trkpt>
      <trkpt lat="42.67986" lon="1.39826">
        <ele>2570.22</ele>
        <time>2014-02-23T09:36:44Z</time>
      </trkpt>
      <trkpt lat="42.67983" lon="1.39825">
        <ele>2569.74</ele>
        <time>2014-02-23T09:37:06Z</time>
      </trkpt>
      <trkpt lat="42.67981" lon="1.39831">
        <ele>2569.26</ele>
        <time>2014-02-23T09:37:20Z</time>
      </trkpt>
      <trkpt lat="42.67981" lon="1.39827">
        <ele>2568.78</ele>
        <time>2014-02-23T09:37:43Z</time>
      </trkpt>
      <trkpt lat="42.67977" lon="1.39828">
        <ele>2569.74</ele>
        <time>2014-02-23T09:37:53Z</time>
      </trkpt>
      <trkpt lat="42.6797" lon="1.39833">
        <ele>2571.18</ele>
        <time>2014-02-23T09:38:07Z</time>
      </trkpt>
      <trkpt lat="42.67967" lon="1.39835">
        <ele>2572.63</ele>
        <time>2014-02-23T09:38:20Z</time>
      </trkpt>
      <trkpt lat="42.67967" lon="1.39835">
        <ele>2573.11</ele>
        <time>2014-02-23T09:38:22Z</time>
      </trkpt>
      <trkpt lat="42.67957" lon="1.39842">
        <ele>2574.55</ele>
        <time>2014-02-23T09:38:37Z</time>
      </trkpt>
      <trkpt lat="42.6795" lon="1.39847">
        <ele>2574.55</ele>
        <time>2014-02-23T09:38:50Z</time>
      </trkpt>
      <trkpt lat="42.67949" lon="1.39847">
        <ele>2575.03</ele>
        <time>2014-02-23T09:39:00Z</time>
      </trkpt>
      <trkpt lat="42.6795" lon="1.39834">
        <ele>2576.95</ele>
        <time>2014-02-23T09:39:17Z</time>
      </trkpt>
      <trkpt lat="42.67952" lon="1.39821">
        <ele>2577.43</ele>
        <time>2014-02-23T09:39:36Z</time>
      </trkpt>
      <trkpt lat="42.67952" lon="1.39809">
        <ele>2577.91</ele>
        <time>2014-02-23T09:39:50Z</time>
      </trkpt>
      <trkpt lat="42.67951" lon="1.398">
        <ele>2581.76</ele>
        <time>2014-02-23T09:40:01Z</time>
      </trkpt>
      <trkpt lat="42.67951" lon="1.39796">
        <ele>2583.68</ele>
        <time>2014-02-23T09:40:14Z</time>
      </trkpt>
      <trkpt lat="42.67946" lon="1.39787">
        <ele>2585.6</ele>
        <time>2014-02-23T09:40:27Z</time>
      </trkpt>
      <trkpt lat="42.67939" lon="1.39777">
        <ele>2586.56</ele>
        <time>2014-02-23T09:40:41Z</time>
      </trkpt>
      <trkpt lat="42.67931" lon="1.39772">
        <ele>2586.56</ele>
        <time>2014-02-23T09:40:56Z</time>
      </trkpt>
      <trkpt lat="42.67927" lon="1.39773">
        <ele>2587.04</ele>
        <time>2014-02-23T09:41:02Z</time>
      </trkpt>
      <trkpt lat="42.67913" lon="1.39775">
        <ele>2586.08</ele>
        <time>2014-02-23T09:41:16Z</time>
      </trkpt>
      <trkpt lat="42.67909" lon="1.3977">
        <ele>2586.56</ele>
        <time>2014-02-23T09:41:28Z</time>
      </trkpt>
      <trkpt lat="42.67903" lon="1.39766">
        <ele>2586.08</ele>
        <time>2014-02-23T09:41:41Z</time>
      </trkpt>
      <trkpt lat="42.67895" lon="1.39756">
        <ele>2588.01</ele>
        <time>2014-02-23T09:41:55Z</time>
      </trkpt>
      <trkpt lat="42.67889" lon="1.39749">
        <ele>2589.93</ele>
        <time>2014-02-23T09:42:08Z</time>
      </trkpt>
      <trkpt lat="42.67884" lon="1.39742">
        <ele>2591.85</ele>
        <time>2014-02-23T09:42:21Z</time>
      </trkpt>
      <trkpt lat="42.67884" lon="1.39746">
        <ele>2594.74</ele>
        <time>2014-02-23T09:42:33Z</time>
      </trkpt>
      <trkpt lat="42.67883" lon="1.39751">
        <ele>2596.66</ele>
        <time>2014-02-23T09:42:45Z</time>
      </trkpt>
      <trkpt lat="42.6788" lon="1.39761">
        <ele>2597.14</ele>
        <time>2014-02-23T09:42:59Z</time>
      </trkpt>
      <trkpt lat="42.67875" lon="1.39768">
        <ele>2597.62</ele>
        <time>2014-02-23T09:43:12Z</time>
      </trkpt>
      <trkpt lat="42.67872" lon="1.39773">
        <ele>2600.5</ele>
        <time>2014-02-23T09:43:27Z</time>
      </trkpt>
      <trkpt lat="42.6787" lon="1.39779">
        <ele>2600.98</ele>
        <time>2014-02-23T09:43:33Z</time>
      </trkpt>
      <trkpt lat="42.67865" lon="1.39775">
        <ele>2603.39</ele>
        <time>2014-02-23T09:43:43Z</time>
      </trkpt>
      <trkpt lat="42.6786" lon="1.39767">
        <ele>2608.19</ele>
        <time>2014-02-23T09:43:56Z</time>
      </trkpt>
      <trkpt lat="42.67858" lon="1.39763">
        <ele>2609.16</ele>
        <time>2014-02-23T09:44:08Z</time>
      </trkpt>
      <trkpt lat="42.67855" lon="1.39754">
        <ele>2611.08</ele>
        <time>2014-02-23T09:44:23Z</time>
      </trkpt>
      <trkpt lat="42.67855" lon="1.39743">
        <ele>2613</ele>
        <time>2014-02-23T09:44:36Z</time>
      </trkpt>
      <trkpt lat="42.67854" lon="1.39745">
        <ele>2614.92</ele>
        <time>2014-02-23T09:44:45Z</time>
      </trkpt>
      <trkpt lat="42.67851" lon="1.39751">
        <ele>2617.33</ele>
        <time>2014-02-23T09:44:58Z</time>
      </trkpt>
      <trkpt lat="42.67848" lon="1.39758">
        <ele>2617.81</ele>
        <time>2014-02-23T09:45:13Z</time>
      </trkpt>
      <trkpt lat="42.67846" lon="1.39767">
        <ele>2622.13</ele>
        <time>2014-02-23T09:45:25Z</time>
      </trkpt>
      <trkpt lat="42.67843" lon="1.39773">
        <ele>2621.65</ele>
        <time>2014-02-23T09:45:38Z</time>
      </trkpt>
      <trkpt lat="42.67842" lon="1.39766">
        <ele>2621.65</ele>
        <time>2014-02-23T09:45:48Z</time>
      </trkpt>
      <trkpt lat="42.6784" lon="1.39761">
        <ele>2623.09</ele>
        <time>2014-02-23T09:46:00Z</time>
      </trkpt>
      <trkpt lat="42.67838" lon="1.39751">
        <ele>2623.58</ele>
        <time>2014-02-23T09:46:11Z</time>
      </trkpt>
      <trkpt lat="42.67838" lon="1.39751">
        <ele>2624.54</ele>
        <time>2014-02-23T09:46:24Z</time>
      </trkpt>
      <trkpt lat="42.67838" lon="1.39756">
        <ele>2624.06</ele>
        <time>2014-02-23T09:46:36Z</time>
      </trkpt>
      <trkpt lat="42.67836" lon="1.39762">
        <ele>2625.5</ele>
        <time>2014-02-23T09:46:47Z</time>
      </trkpt>
      <trkpt lat="42.67833" lon="1.39763">
        <ele>2625.02</ele>
        <time>2014-02-23T09:46:58Z</time>
      </trkpt>
      <trkpt lat="42.67831" lon="1.39759">
        <ele>2623.58</ele>
        <time>2014-02-23T09:47:10Z</time>
      </trkpt>
      <trkpt lat="42.67831" lon="1.3975">
        <ele>2625.5</ele>
        <time>2014-02-23T09:47:25Z</time>
      </trkpt>
      <trkpt lat="42.67831" lon="1.39742">
        <ele>2625.5</ele>
        <time>2014-02-23T09:47:38Z</time>
      </trkpt>
      <trkpt lat="42.67831" lon="1.39743">
        <ele>2625.98</ele>
        <time>2014-02-23T09:47:49Z</time>
      </trkpt>
      <trkpt lat="42.67829" lon="1.39748">
        <ele>2628.86</ele>
        <time>2014-02-23T09:47:59Z</time>
      </trkpt>
      <trkpt lat="42.67826" lon="1.39756">
        <ele>2628.38</ele>
        <time>2014-02-23T09:48:12Z</time>
      </trkpt>
      <trkpt lat="42.67824" lon="1.39755">
        <ele>2629.34</ele>
        <time>2014-02-23T09:48:24Z</time>
      </trkpt>
      <trkpt lat="42.67823" lon="1.39746">
        <ele>2629.82</ele>
        <time>2014-02-23T09:48:36Z</time>
      </trkpt>
      <trkpt lat="42.67823" lon="1.39733">
        <ele>2633.19</ele>
        <time>2014-02-23T09:48:49Z</time>
      </trkpt>
      <trkpt lat="42.67824" lon="1.39724">
        <ele>2635.59</ele>
        <time>2014-02-23T09:49:02Z</time>
      </trkpt>
      <trkpt lat="42.67825" lon="1.39718">
        <ele>2636.55</ele>
        <time>2014-02-23T09:49:13Z</time>
      </trkpt>
      <trkpt lat="42.67825" lon="1.39711">
        <ele>2638.96</ele>
        <time>2014-02-23T09:49:24Z</time>
      </trkpt>
      <trkpt lat="42.6782" lon="1.39709">
        <ele>2641.36</ele>
        <time>2014-02-23T09:49:34Z</time>
      </trkpt>
      <trkpt lat="42.67818" lon="1.39712">
        <ele>2642.32</ele>
        <time>2014-02-23T09:49:48Z</time>
      </trkpt>
      <trkpt lat="42.67808" lon="1.39714">
        <ele>2644.24</ele>
        <time>2014-02-23T09:50:02Z</time>
      </trkpt>
      <trkpt lat="42.67802" lon="1.39717">
        <ele>2645.21</ele>
        <time>2014-02-23T09:50:14Z</time>
      </trkpt>
      <trkpt lat="42.67793" lon="1.39721">
        <ele>2644.72</ele>
        <time>2014-02-23T09:50:30Z</time>
      </trkpt>
      <trkpt lat="42.67794" lon="1.39724">
        <ele>2646.17</ele>
        <time>2014-02-23T09:50:40Z</time>
      </trkpt>
      <trkpt lat="42.67791" lon="1.39724">
        <ele>2647.13</ele>
        <time>2014-02-23T09:50:51Z</time>
      </trkpt>
      <trkpt lat="42.67791" lon="1.39727">
        <ele>2648.09</ele>
        <time>2014-02-23T09:51:05Z</time>
      </trkpt>
      <trkpt lat="42.67794" lon="1.39736">
        <ele>2650.01</ele>
        <time>2014-02-23T09:51:21Z</time>
      </trkpt>
      <trkpt lat="42.67795" lon="1.39739">
        <ele>2651.93</ele>
        <time>2014-02-23T09:51:35Z</time>
      </trkpt>
      <trkpt lat="42.67792" lon="1.39739">
        <ele>2653.86</ele>
        <time>2014-02-23T09:51:45Z</time>
      </trkpt>
      <trkpt lat="42.67786" lon="1.39737">
        <ele>2652.9</ele>
        <time>2014-02-23T09:51:57Z</time>
      </trkpt>
      <trkpt lat="42.67781" lon="1.39735">
        <ele>2655.3</ele>
        <time>2014-02-23T09:52:13Z</time>
      </trkpt>
      <trkpt lat="42.67778" lon="1.39734">
        <ele>2657.22</ele>
        <time>2014-02-23T09:52:23Z</time>
      </trkpt>
      <trkpt lat="42.67778" lon="1.39734">
        <ele>2658.18</ele>
        <time>2014-02-23T09:52:34Z</time>
      </trkpt>
      <trkpt lat="42.6778" lon="1.39736">
        <ele>2658.66</ele>
        <time>2014-02-23T09:52:44Z</time>
      </trkpt>
      <trkpt lat="42.67782" lon="1.39741">
        <ele>2660.59</ele>
        <time>2014-02-23T09:52:55Z</time>
      </trkpt>
      <trkpt lat="42.67785" lon="1.39748">
        <ele>2662.51</ele>
        <time>2014-02-23T09:53:08Z</time>
      </trkpt>
      <trkpt lat="42.67788" lon="1.39755">
        <ele>2663.95</ele>
        <time>2014-02-23T09:53:18Z</time>
      </trkpt>
      <trkpt lat="42.6779" lon="1.39762">
        <ele>2666.35</ele>
        <time>2014-02-23T09:53:32Z</time>
      </trkpt>
      <trkpt lat="42.67787" lon="1.39764">
        <ele>2667.31</ele>
        <time>2014-02-23T09:53:42Z</time>
      </trkpt>
      <trkpt lat="42.67783" lon="1.39764">
        <ele>2669.24</ele>
        <time>2014-02-23T09:53:54Z</time>
      </trkpt>
      <trkpt lat="42.67777" lon="1.39762">
        <ele>2670.2</ele>
        <time>2014-02-23T09:54:08Z</time>
      </trkpt>
      <trkpt lat="42.67769" lon="1.39759">
        <ele>2670.2</ele>
        <time>2014-02-23T09:54:22Z</time>
      </trkpt>
      <trkpt lat="42.67764" lon="1.39758">
        <ele>2671.64</ele>
        <time>2014-02-23T09:54:34Z</time>
      </trkpt>
      <trkpt lat="42.67764" lon="1.39761">
        <ele>2672.6</ele>
        <time>2014-02-23T09:54:44Z</time>
      </trkpt>
      <trkpt lat="42.67766" lon="1.39771">
        <ele>2674.04</ele>
        <time>2014-02-23T09:54:58Z</time>
      </trkpt>
      <trkpt lat="42.67765" lon="1.39779">
        <ele>2675.97</ele>
        <time>2014-02-23T09:55:10Z</time>
      </trkpt>
      <trkpt lat="42.67764" lon="1.39777">
        <ele>2676.45</ele>
        <time>2014-02-23T09:55:22Z</time>
      </trkpt>
      <trkpt lat="42.67763" lon="1.39778">
        <ele>2677.89</ele>
        <time>2014-02-23T09:55:50Z</time>
      </trkpt>
      <trkpt lat="42.67762" lon="1.39777">
        <ele>2676.45</ele>
        <time>2014-02-23T09:56:07Z</time>
      </trkpt>
      <trkpt lat="42.67759" lon="1.39779">
        <ele>2677.41</ele>
        <time>2014-02-23T09:56:31Z</time>
      </trkpt>
      <trkpt lat="42.67761" lon="1.39783">
        <ele>2678.37</ele>
        <time>2014-02-23T09:56:43Z</time>
      </trkpt>
      <trkpt lat="42.67761" lon="1.39783">
        <ele>2678.85</ele>
        <time>2014-02-23T09:56:59Z</time>
      </trkpt>
      <trkpt lat="42.67759" lon="1.39791">
        <ele>2682.22</ele>
        <time>2014-02-23T09:57:10Z</time>
      </trkpt>
      <trkpt lat="42.67757" lon="1.39801">
        <ele>2685.1</ele>
        <time>2014-02-23T09:57:21Z</time>
      </trkpt>
      <trkpt lat="42.67755" lon="1.3981">
        <ele>2688.46</ele>
        <time>2014-02-23T09:57:33Z</time>
      </trkpt>
      <trkpt lat="42.67752" lon="1.39817">
        <ele>2690.39</ele>
        <time>2014-02-23T09:57:45Z</time>
      </trkpt>
      <trkpt lat="42.67749" lon="1.39822">
        <ele>2691.35</ele>
        <time>2014-02-23T09:57:55Z</time>
      </trkpt>
      <trkpt lat="42.67743" lon="1.39826">
        <ele>2693.27</ele>
        <time>2014-02-23T09:58:06Z</time>
      </trkpt>
      <trkpt lat="42.67739" lon="1.39825">
        <ele>2693.27</ele>
        <time>2014-02-23T09:58:18Z</time>
      </trkpt>
      <trkpt lat="42.67736" lon="1.39827">
        <ele>2694.23</ele>
        <time>2014-02-23T09:58:47Z</time>
      </trkpt>
      <trkpt lat="42.67732" lon="1.39833">
        <ele>2696.15</ele>
        <time>2014-02-23T09:58:59Z</time>
      </trkpt>
      <trkpt lat="42.67729" lon="1.39841">
        <ele>2698.56</ele>
        <time>2014-02-23T09:59:11Z</time>
      </trkpt>
      <trkpt lat="42.67726" lon="1.3985">
        <ele>2700.48</ele>
        <time>2014-02-23T09:59:22Z</time>
      </trkpt>
      <trkpt lat="42.67723" lon="1.39858">
        <ele>2702.4</ele>
        <time>2014-02-23T09:59:34Z</time>
      </trkpt>
      <trkpt lat="42.67724" lon="1.39867">
        <ele>2703.36</ele>
        <time>2014-02-23T09:59:45Z</time>
      </trkpt>
      <trkpt lat="42.67724" lon="1.39874">
        <ele>2704.81</ele>
        <time>2014-02-23T09:59:56Z</time>
      </trkpt>
      <trkpt lat="42.67724" lon="1.39881">
        <ele>2706.73</ele>
        <time>2014-02-23T10:00:07Z</time>
      </trkpt>
      <trkpt lat="42.67722" lon="1.3989">
        <ele>2707.21</ele>
        <time>2014-02-23T10:00:20Z</time>
      </trkpt>
      <trkpt lat="42.67721" lon="1.3989">
        <ele>2709.13</ele>
        <time>2014-02-23T10:00:34Z</time>
      </trkpt>
      <trkpt lat="42.67721" lon="1.39891">
        <ele>2710.09</ele>
        <time>2014-02-23T10:00:49Z</time>
      </trkpt>
      <trkpt lat="42.67718" lon="1.39896">
        <ele>2710.57</ele>
        <time>2014-02-23T10:00:59Z</time>
      </trkpt>
      <trkpt lat="42.67713" lon="1.399">
        <ele>2712.02</ele>
        <time>2014-02-23T10:01:10Z</time>
      </trkpt>
      <trkpt lat="42.6771" lon="1.39907">
        <ele>2713.94</ele>
        <time>2014-02-23T10:01:21Z</time>
      </trkpt>
      <trkpt lat="42.67705" lon="1.39912">
        <ele>2715.86</ele>
        <time>2014-02-23T10:01:32Z</time>
      </trkpt>
      <trkpt lat="42.677" lon="1.39915">
        <ele>2717.78</ele>
        <time>2014-02-23T10:01:43Z</time>
      </trkpt>
      <trkpt lat="42.67696" lon="1.3992">
        <ele>2719.71</ele>
        <time>2014-02-23T10:01:55Z</time>
      </trkpt>
      <trkpt lat="42.67691" lon="1.39925">
        <ele>2721.15</ele>
        <time>2014-02-23T10:02:05Z</time>
      </trkpt>
      <trkpt lat="42.67688" lon="1.39926">
        <ele>2724.03</ele>
        <time>2014-02-23T10:02:16Z</time>
      </trkpt>
      <trkpt lat="42.67684" lon="1.39921">
        <ele>2725.96</ele>
        <time>2014-02-23T10:02:28Z</time>
      </trkpt>
      <trkpt lat="42.67682" lon="1.39921">
        <ele>2725.96</ele>
        <time>2014-02-23T10:02:43Z</time>
      </trkpt>
      <trkpt lat="42.67682" lon="1.3992">
        <ele>2726.44</ele>
        <time>2014-02-23T10:03:11Z</time>
      </trkpt>
      <trkpt lat="42.67682" lon="1.3992">
        <ele>2725.96</ele>
        <time>2014-02-23T10:03:36Z</time>
      </trkpt>
      <trkpt lat="42.67682" lon="1.3992">
        <ele>2725.48</ele>
        <time>2014-02-23T10:03:53Z</time>
      </trkpt>
      <trkpt lat="42.67679" lon="1.39915">
        <ele>2726.92</ele>
        <time>2014-02-23T10:04:10Z</time>
      </trkpt>
      <trkpt lat="42.67675" lon="1.39907">
        <ele>2728.84</ele>
        <time>2014-02-23T10:04:23Z</time>
      </trkpt>
      <trkpt lat="42.6767" lon="1.39899">
        <ele>2730.76</ele>
        <time>2014-02-23T10:04:35Z</time>
      </trkpt>
      <trkpt lat="42.67665" lon="1.39893">
        <ele>2733.65</ele>
        <time>2014-02-23T10:04:48Z</time>
      </trkpt>
      <trkpt lat="42.67662" lon="1.399">
        <ele>2735.57</ele>
        <time>2014-02-23T10:05:00Z</time>
      </trkpt>
      <trkpt lat="42.67657" lon="1.39908">
        <ele>2737.49</ele>
        <time>2014-02-23T10:05:14Z</time>
      </trkpt>
      <trkpt lat="42.67653" lon="1.39914">
        <ele>2737.97</ele>
        <time>2014-02-23T10:05:27Z</time>
      </trkpt>
      <trkpt lat="42.67644" lon="1.39922">
        <ele>2739.41</ele>
        <time>2014-02-23T10:05:44Z</time>
      </trkpt>
      <trkpt lat="42.67643" lon="1.39925">
        <ele>2742.78</ele>
        <time>2014-02-23T10:05:56Z</time>
      </trkpt>
      <trkpt lat="42.67643" lon="1.39926">
        <ele>2742.78</ele>
        <time>2014-02-23T10:05:57Z</time>
      </trkpt>
      <trkpt lat="42.67639" lon="1.39922">
        <ele>2744.7</ele>
        <time>2014-02-23T10:06:07Z</time>
      </trkpt>
      <trkpt lat="42.67635" lon="1.39916">
        <ele>2747.59</ele>
        <time>2014-02-23T10:06:19Z</time>
      </trkpt>
      <trkpt lat="42.67633" lon="1.39908">
        <ele>2749.03</ele>
        <time>2014-02-23T10:06:30Z</time>
      </trkpt>
      <trkpt lat="42.67629" lon="1.39901">
        <ele>2750.47</ele>
        <time>2014-02-23T10:06:42Z</time>
      </trkpt>
      <trkpt lat="42.67626" lon="1.39896">
        <ele>2753.35</ele>
        <time>2014-02-23T10:06:57Z</time>
      </trkpt>
      <trkpt lat="42.67623" lon="1.3989">
        <ele>2754.31</ele>
        <time>2014-02-23T10:07:10Z</time>
      </trkpt>
      <trkpt lat="42.6762" lon="1.39883">
        <ele>2754.8</ele>
        <time>2014-02-23T10:07:21Z</time>
      </trkpt>
      <trkpt lat="42.67618" lon="1.39878">
        <ele>2756.72</ele>
        <time>2014-02-23T10:07:34Z</time>
      </trkpt>
      <trkpt lat="42.67617" lon="1.39875">
        <ele>2757.2</ele>
        <time>2014-02-23T10:07:44Z</time>
      </trkpt>
      <trkpt lat="42.67616" lon="1.39876">
        <ele>2759.12</ele>
        <time>2014-02-23T10:07:53Z</time>
      </trkpt>
      <trkpt lat="42.67612" lon="1.39882">
        <ele>2761.04</ele>
        <time>2014-02-23T10:08:06Z</time>
      </trkpt>
      <trkpt lat="42.67606" lon="1.39891">
        <ele>2762.49</ele>
        <time>2014-02-23T10:08:22Z</time>
      </trkpt>
      <trkpt lat="42.67601" lon="1.39899">
        <ele>2763.93</ele>
        <time>2014-02-23T10:08:35Z</time>
      </trkpt>
      <trkpt lat="42.67596" lon="1.39909">
        <ele>2765.37</ele>
        <time>2014-02-23T10:08:50Z</time>
      </trkpt>
      <trkpt lat="42.67591" lon="1.39918">
        <ele>2767.77</ele>
        <time>2014-02-23T10:09:04Z</time>
      </trkpt>
      <trkpt lat="42.67587" lon="1.39924">
        <ele>2769.21</ele>
        <time>2014-02-23T10:09:15Z</time>
      </trkpt>
      <trkpt lat="42.67584" lon="1.39929">
        <ele>2770.66</ele>
        <time>2014-02-23T10:09:25Z</time>
      </trkpt>
      <trkpt lat="42.6758" lon="1.39937">
        <ele>2771.62</ele>
        <time>2014-02-23T10:09:39Z</time>
      </trkpt>
      <trkpt lat="42.67574" lon="1.39943">
        <ele>2772.58</ele>
        <time>2014-02-23T10:09:57Z</time>
      </trkpt>
      <trkpt lat="42.67569" lon="1.39936">
        <ele>2775.94</ele>
        <time>2014-02-23T10:10:11Z</time>
      </trkpt>
      <trkpt lat="42.67564" lon="1.39934">
        <ele>2778.35</ele>
        <time>2014-02-23T10:10:24Z</time>
      </trkpt>
      <trkpt lat="42.6756" lon="1.39942">
        <ele>2780.75</ele>
        <time>2014-02-23T10:10:39Z</time>
      </trkpt>
      <trkpt lat="42.67557" lon="1.39949">
        <ele>2783.15</ele>
        <time>2014-02-23T10:10:51Z</time>
      </trkpt>
      <trkpt lat="42.67555" lon="1.39956">
        <ele>2785.56</ele>
        <time>2014-02-23T10:11:04Z</time>
      </trkpt>
      <trkpt lat="42.67551" lon="1.39965">
        <ele>2787</ele>
        <time>2014-02-23T10:11:16Z</time>
      </trkpt>
      <trkpt lat="42.67549" lon="1.39972">
        <ele>2788.92</ele>
        <time>2014-02-23T10:11:30Z</time>
      </trkpt>
      <trkpt lat="42.67548" lon="1.39978">
        <ele>2790.36</ele>
        <time>2014-02-23T10:11:43Z</time>
      </trkpt>
      <trkpt lat="42.67546" lon="1.39984">
        <ele>2792.29</ele>
        <time>2014-02-23T10:11:55Z</time>
      </trkpt>
      <trkpt lat="42.67544" lon="1.39987">
        <ele>2792.29</ele>
        <time>2014-02-23T10:12:09Z</time>
      </trkpt>
      <trkpt lat="42.67543" lon="1.39989">
        <ele>2791.33</ele>
        <time>2014-02-23T10:12:38Z</time>
      </trkpt>
      <trkpt lat="42.67544" lon="1.39989">
        <ele>2793.25</ele>
        <time>2014-02-23T10:12:55Z</time>
      </trkpt>
      <trkpt lat="42.6754" lon="1.39998">
        <ele>2794.69</ele>
        <time>2014-02-23T10:13:06Z</time>
      </trkpt>
      <trkpt lat="42.67537" lon="1.40004">
        <ele>2795.65</ele>
        <time>2014-02-23T10:13:15Z</time>
      </trkpt>
      <trkpt lat="42.67532" lon="1.40012">
        <ele>2797.09</ele>
        <time>2014-02-23T10:13:27Z</time>
      </trkpt>
      <trkpt lat="42.6753" lon="1.40017">
        <ele>2799.98</ele>
        <time>2014-02-23T10:13:39Z</time>
      </trkpt>
      <trkpt lat="42.67528" lon="1.40019">
        <ele>2800.46</ele>
        <time>2014-02-23T10:13:43Z</time>
      </trkpt>
      <trkpt lat="42.67526" lon="1.40023">
        <ele>2801.9</ele>
        <time>2014-02-23T10:13:49Z</time>
      </trkpt>
      <trkpt lat="42.67522" lon="1.40018">
        <ele>2803.34</ele>
        <time>2014-02-23T10:13:58Z</time>
      </trkpt>
      <trkpt lat="42.67516" lon="1.40008">
        <ele>2806.23</ele>
        <time>2014-02-23T10:14:12Z</time>
      </trkpt>
      <trkpt lat="42.67513" lon="1.39999">
        <ele>2809.11</ele>
        <time>2014-02-23T10:14:25Z</time>
      </trkpt>
      <trkpt lat="42.67511" lon="1.39996">
        <ele>2810.55</ele>
        <time>2014-02-23T10:14:36Z</time>
      </trkpt>
      <trkpt lat="42.67509" lon="1.39999">
        <ele>2811.99</ele>
        <time>2014-02-23T10:14:55Z</time>
      </trkpt>
      <trkpt lat="42.67507" lon="1.40001">
        <ele>2811.99</ele>
        <time>2014-02-23T10:15:13Z</time>
      </trkpt>
      <trkpt lat="42.67507" lon="1.40001">
        <ele>2811.51</ele>
        <time>2014-02-23T10:15:31Z</time>
      </trkpt>
      <trkpt lat="42.67509" lon="1.4">
        <ele>2813.44</ele>
        <time>2014-02-23T10:15:42Z</time>
      </trkpt>
      <trkpt lat="42.67505" lon="1.40008">
        <ele>2813.92</ele>
        <time>2014-02-23T10:15:53Z</time>
      </trkpt>
      <trkpt lat="42.67502" lon="1.40012">
        <ele>2813.92</ele>
        <time>2014-02-23T10:16:04Z</time>
      </trkpt>
      <trkpt lat="42.67499" lon="1.40017">
        <ele>2814.88</ele>
        <time>2014-02-23T10:16:15Z</time>
      </trkpt>
      <trkpt lat="42.67495" lon="1.40025">
        <ele>2816.32</ele>
        <time>2014-02-23T10:16:27Z</time>
      </trkpt>
      <trkpt lat="42.67492" lon="1.40034">
        <ele>2819.2</ele>
        <time>2014-02-23T10:16:39Z</time>
      </trkpt>
      <trkpt lat="42.67489" lon="1.40038">
        <ele>2820.16</ele>
        <time>2014-02-23T10:16:49Z</time>
      </trkpt>
      <trkpt lat="42.67483" lon="1.40035">
        <ele>2822.09</ele>
        <time>2014-02-23T10:17:03Z</time>
      </trkpt>
      <trkpt lat="42.67481" lon="1.40032">
        <ele>2823.05</ele>
        <time>2014-02-23T10:17:16Z</time>
      </trkpt>
      <trkpt lat="42.67479" lon="1.40035">
        <ele>2824.49</ele>
        <time>2014-02-23T10:17:26Z</time>
      </trkpt>
      <trkpt lat="42.67477" lon="1.40042">
        <ele>2826.89</ele>
        <time>2014-02-23T10:17:36Z</time>
      </trkpt>
      <trkpt lat="42.67477" lon="1.40046">
        <ele>2827.85</ele>
        <time>2014-02-23T10:17:49Z</time>
      </trkpt>
      <trkpt lat="42.67474" lon="1.40052">
        <ele>2826.89</ele>
        <time>2014-02-23T10:17:59Z</time>
      </trkpt>
      <trkpt lat="42.67468" lon="1.40048">
        <ele>2829.3</ele>
        <time>2014-02-23T10:18:10Z</time>
      </trkpt>
      <trkpt lat="42.67463" lon="1.40041">
        <ele>2831.22</ele>
        <time>2014-02-23T10:18:23Z</time>
      </trkpt>
      <trkpt lat="42.6746" lon="1.40036">
        <ele>2832.66</ele>
        <time>2014-02-23T10:18:30Z</time>
      </trkpt>
      <trkpt lat="42.67456" lon="1.40028">
        <ele>2835.06</ele>
        <time>2014-02-23T10:18:43Z</time>
      </trkpt>
      <trkpt lat="42.67451" lon="1.4002">
        <ele>2836.99</ele>
        <time>2014-02-23T10:18:56Z</time>
      </trkpt>
      <trkpt lat="42.67447" lon="1.40011">
        <ele>2836.99</ele>
        <time>2014-02-23T10:19:10Z</time>
      </trkpt>
      <trkpt lat="42.67443" lon="1.40002">
        <ele>2839.39</ele>
        <time>2014-02-23T10:19:22Z</time>
      </trkpt>
      <trkpt lat="42.67441" lon="1.39994">
        <ele>2843.24</ele>
        <time>2014-02-23T10:19:34Z</time>
      </trkpt>
      <trkpt lat="42.67439" lon="1.3999">
        <ele>2844.2</ele>
        <time>2014-02-23T10:19:48Z</time>
      </trkpt>
      <trkpt lat="42.67436" lon="1.39989">
        <ele>2845.64</ele>
        <time>2014-02-23T10:20:01Z</time>
      </trkpt>
      <trkpt lat="42.67436" lon="1.39991">
        <ele>2844.2</ele>
        <time>2014-02-23T10:20:22Z</time>
      </trkpt>
      <trkpt lat="42.67437" lon="1.3999">
        <ele>2843.24</ele>
        <time>2014-02-23T10:20:46Z</time>
      </trkpt>
      <trkpt lat="42.67436" lon="1.3999">
        <ele>2842.28</ele>
        <time>2014-02-23T10:21:11Z</time>
      </trkpt>
      <trkpt lat="42.67436" lon="1.39991">
        <ele>2843.24</ele>
        <time>2014-02-23T10:21:39Z</time>
      </trkpt>
      <trkpt lat="42.67434" lon="1.39993">
        <ele>2842.76</ele>
        <time>2014-02-23T10:22:04Z</time>
      </trkpt>
      <trkpt lat="42.67424" lon="1.39994">
        <ele>2844.68</ele>
        <time>2014-02-23T10:22:16Z</time>
      </trkpt>
      <trkpt lat="42.67423" lon="1.39994">
        <ele>2845.16</ele>
        <time>2014-02-23T10:22:31Z</time>
      </trkpt>
      <trkpt lat="42.67423" lon="1.39995">
        <ele>2843.72</ele>
        <time>2014-02-23T10:22:51Z</time>
      </trkpt>
      <trkpt lat="42.67419" lon="1.39994">
        <ele>2844.2</ele>
        <time>2014-02-23T10:23:02Z</time>
      </trkpt>
      <trkpt lat="42.67416" lon="1.39991">
        <ele>2845.16</ele>
        <time>2014-02-23T10:23:14Z</time>
      </trkpt>
      <trkpt lat="42.67414" lon="1.39987">
        <ele>2847.56</ele>
        <time>2014-02-23T10:23:24Z</time>
      </trkpt>
      <trkpt lat="42.67409" lon="1.3998">
        <ele>2849</ele>
        <time>2014-02-23T10:23:36Z</time>
      </trkpt>
      <trkpt lat="42.67404" lon="1.39975">
        <ele>2849.97</ele>
        <time>2014-02-23T10:23:51Z</time>
      </trkpt>
      <trkpt lat="42.67398" lon="1.39974">
        <ele>2851.89</ele>
        <time>2014-02-23T10:24:02Z</time>
      </trkpt>
      <trkpt lat="42.67392" lon="1.3997">
        <ele>2852.85</ele>
        <time>2014-02-23T10:24:13Z</time>
      </trkpt>
      <trkpt lat="42.67386" lon="1.39965">
        <ele>2854.29</ele>
        <time>2014-02-23T10:24:25Z</time>
      </trkpt>
      <trkpt lat="42.67381" lon="1.39964">
        <ele>2856.21</ele>
        <time>2014-02-23T10:24:36Z</time>
      </trkpt>
      <trkpt lat="42.67373" lon="1.39964">
        <ele>2856.69</ele>
        <time>2014-02-23T10:24:48Z</time>
      </trkpt>
      <trkpt lat="42.67365" lon="1.39964">
        <ele>2860.06</ele>
        <time>2014-02-23T10:25:01Z</time>
      </trkpt>
      <trkpt lat="42.67359" lon="1.39963">
        <ele>2861.02</ele>
        <time>2014-02-23T10:25:12Z</time>
      </trkpt>
      <trkpt lat="42.6735" lon="1.39964">
        <ele>2862.94</ele>
        <time>2014-02-23T10:25:26Z</time>
      </trkpt>
      <trkpt lat="42.67342" lon="1.39964">
        <ele>2864.39</ele>
        <time>2014-02-23T10:25:38Z</time>
      </trkpt>
      <trkpt lat="42.67335" lon="1.39965">
        <ele>2865.83</ele>
        <time>2014-02-23T10:25:50Z</time>
      </trkpt>
      <trkpt lat="42.6733" lon="1.39965">
        <ele>2868.23</ele>
        <time>2014-02-23T10:26:01Z</time>
      </trkpt>
      <trkpt lat="42.67322" lon="1.39965">
        <ele>2870.15</ele>
        <time>2014-02-23T10:26:15Z</time>
      </trkpt>
      <trkpt lat="42.67314" lon="1.39967">
        <ele>2871.11</ele>
        <time>2014-02-23T10:26:28Z</time>
      </trkpt>
      <trkpt lat="42.67312" lon="1.39966">
        <ele>2873.52</ele>
        <time>2014-02-23T10:26:37Z</time>
      </trkpt>
      <trkpt lat="42.67311" lon="1.39958">
        <ele>2874</ele>
        <time>2014-02-23T10:26:50Z</time>
      </trkpt>
      <trkpt lat="42.67306" lon="1.39955">
        <ele>2875.44</ele>
        <time>2014-02-23T10:27:02Z</time>
      </trkpt>
      <trkpt lat="42.67301" lon="1.39954">
        <ele>2877.84</ele>
        <time>2014-02-23T10:27:14Z</time>
      </trkpt>
      <trkpt lat="42.67296" lon="1.39955">
        <ele>2879.29</ele>
        <time>2014-02-23T10:27:26Z</time>
      </trkpt>
      <trkpt lat="42.6729" lon="1.39952">
        <ele>2880.25</ele>
        <time>2014-02-23T10:27:37Z</time>
      </trkpt>
      <trkpt lat="42.67283" lon="1.39952">
        <ele>2882.65</ele>
        <time>2014-02-23T10:27:51Z</time>
      </trkpt>
      <trkpt lat="42.67276" lon="1.3995">
        <ele>2884.09</ele>
        <time>2014-02-23T10:28:03Z</time>
      </trkpt>
      <trkpt lat="42.67273" lon="1.39949">
        <ele>2884.57</ele>
        <time>2014-02-23T10:28:09Z</time>
      </trkpt>
      <trkpt lat="42.67269" lon="1.39948">
        <ele>2885.05</ele>
        <time>2014-02-23T10:28:23Z</time>
      </trkpt>
      <trkpt lat="42.67262" lon="1.39946">
        <ele>2886.98</ele>
        <time>2014-02-23T10:28:34Z</time>
      </trkpt>
      <trkpt lat="42.67254" lon="1.39945">
        <ele>2888.42</ele>
        <time>2014-02-23T10:28:46Z</time>
      </trkpt>
      <trkpt lat="42.67247" lon="1.39945">
        <ele>2889.86</ele>
        <time>2014-02-23T10:28:58Z</time>
      </trkpt>
      <trkpt lat="42.67237" lon="1.39946">
        <ele>2890.82</ele>
        <time>2014-02-23T10:29:11Z</time>
      </trkpt>
      <trkpt lat="42.67229" lon="1.39946">
        <ele>2890.82</ele>
        <time>2014-02-23T10:29:24Z</time>
      </trkpt>
      <trkpt lat="42.67218" lon="1.39947">
        <ele>2892.74</ele>
        <time>2014-02-23T10:29:37Z</time>
      </trkpt>
      <trkpt lat="42.67208" lon="1.39948">
        <ele>2894.19</ele>
        <time>2014-02-23T10:29:51Z</time>
      </trkpt>
      <trkpt lat="42.67202" lon="1.39949">
        <ele>2895.15</ele>
        <time>2014-02-23T10:30:03Z</time>
      </trkpt>
      <trkpt lat="42.67198" lon="1.3995">
        <ele>2896.59</ele>
        <time>2014-02-23T10:30:15Z</time>
      </trkpt>
      <trkpt lat="42.67193" lon="1.39952">
        <ele>2898.03</ele>
        <time>2014-02-23T10:30:28Z</time>
      </trkpt>
      <trkpt lat="42.67187" lon="1.39954">
        <ele>2899.47</ele>
        <time>2014-02-23T10:30:41Z</time>
      </trkpt>
      <trkpt lat="42.67179" lon="1.39956">
        <ele>2900.92</ele>
        <time>2014-02-23T10:30:53Z</time>
      </trkpt>
      <trkpt lat="42.67174" lon="1.39956">
        <ele>2902.84</ele>
        <time>2014-02-23T10:31:07Z</time>
      </trkpt>
      <trkpt lat="42.67167" lon="1.3996">
        <ele>2903.32</ele>
        <time>2014-02-23T10:31:18Z</time>
      </trkpt>
      <trkpt lat="42.67162" lon="1.39963">
        <ele>2904.28</ele>
        <time>2014-02-23T10:31:33Z</time>
      </trkpt>
      <trkpt lat="42.67158" lon="1.39968">
        <ele>2906.2</ele>
        <time>2014-02-23T10:31:47Z</time>
      </trkpt>
      <trkpt lat="42.67152" lon="1.39973">
        <ele>2907.65</ele>
        <time>2014-02-23T10:32:01Z</time>
      </trkpt>
      <trkpt lat="42.67143" lon="1.39977">
        <ele>2909.09</ele>
        <time>2014-02-23T10:32:15Z</time>
      </trkpt>
      <trkpt lat="42.67136" lon="1.39985">
        <ele>2911.01</ele>
        <time>2014-02-23T10:32:29Z</time>
      </trkpt>
      <trkpt lat="42.67133" lon="1.39989">
        <ele>2911.49</ele>
        <time>2014-02-23T10:32:37Z</time>
      </trkpt>
      <trkpt lat="42.67129" lon="1.39997">
        <ele>2912.93</ele>
        <time>2014-02-23T10:32:50Z</time>
      </trkpt>
      <trkpt lat="42.67125" lon="1.40006">
        <ele>2914.85</ele>
        <time>2014-02-23T10:33:02Z</time>
      </trkpt>
      <trkpt lat="42.67122" lon="1.40013">
        <ele>2917.74</ele>
        <time>2014-02-23T10:33:16Z</time>
      </trkpt>
      <trkpt lat="42.67117" lon="1.40023">
        <ele>2919.18</ele>
        <time>2014-02-23T10:33:31Z</time>
      </trkpt>
      <trkpt lat="42.67114" lon="1.4003">
        <ele>2920.62</ele>
        <time>2014-02-23T10:33:42Z</time>
      </trkpt>
      <trkpt lat="42.67113" lon="1.40035">
        <ele>2923.03</ele>
        <time>2014-02-23T10:33:52Z</time>
      </trkpt>
      <trkpt lat="42.67107" lon="1.40043">
        <ele>2924.47</ele>
        <time>2014-02-23T10:34:05Z</time>
      </trkpt>
      <trkpt lat="42.67102" lon="1.40048">
        <ele>2925.91</ele>
        <time>2014-02-23T10:34:16Z</time>
      </trkpt>
      <trkpt lat="42.67099" lon="1.40052">
        <ele>2926.39</ele>
        <time>2014-02-23T10:34:25Z</time>
      </trkpt>
      <trkpt lat="42.67095" lon="1.40059">
        <ele>2928.31</ele>
        <time>2014-02-23T10:34:39Z</time>
      </trkpt>
      <trkpt lat="42.6709" lon="1.40066">
        <ele>2930.72</ele>
        <time>2014-02-23T10:34:52Z</time>
      </trkpt>
      <trkpt lat="42.67084" lon="1.40065">
        <ele>2931.2</ele>
        <time>2014-02-23T10:35:06Z</time>
      </trkpt>
      <trkpt lat="42.6708" lon="1.40064">
        <ele>2931.68</ele>
        <time>2014-02-23T10:35:31Z</time>
      </trkpt>
      <trkpt lat="42.67073" lon="1.40066">
        <ele>2931.68</ele>
        <time>2014-02-23T10:35:59Z</time>
      </trkpt>
      <trkpt lat="42.67081" lon="1.40064">
        <ele>2927.83</ele>
        <time>2014-02-23T10:36:20Z</time>
      </trkpt>
      <trkpt lat="42.67081" lon="1.40062">
        <ele>2928.79</ele>
        <time>2014-02-23T10:36:38Z</time>
      </trkpt>
      <trkpt lat="42.67081" lon="1.40061">
        <ele>2929.27</ele>
        <time>2014-02-23T10:36:39Z</time>
      </trkpt>
      <trkpt lat="42.6708" lon="1.40056">
        <ele>2931.68</ele>
        <time>2014-02-23T10:36:50Z</time>
      </trkpt>
      <trkpt lat="42.67081" lon="1.40043">
        <ele>2934.56</ele>
        <time>2014-02-23T10:37:04Z</time>
      </trkpt>
      <trkpt lat="42.6708" lon="1.40039">
        <ele>2936.97</ele>
        <time>2014-02-23T10:37:20Z</time>
      </trkpt>
      <trkpt lat="42.67078" lon="1.40036">
        <ele>2935.52</ele>
        <time>2014-02-23T10:37:37Z</time>
      </trkpt>
      <trkpt lat="42.67079" lon="1.40026">
        <ele>2936.97</ele>
        <time>2014-02-23T10:37:50Z</time>
      </trkpt>
      <trkpt lat="42.6708" lon="1.40026">
        <ele>2939.85</ele>
        <time>2014-02-23T10:38:17Z</time>
      </trkpt>
      <trkpt lat="42.67078" lon="1.40023">
        <ele>2938.41</ele>
        <time>2014-02-23T10:38:31Z</time>
      </trkpt>
      <trkpt lat="42.67077" lon="1.40021">
        <ele>2939.37</ele>
        <time>2014-02-23T10:38:47Z</time>
      </trkpt>
      <trkpt lat="42.67078" lon="1.40022">
        <ele>2936.97</ele>
        <time>2014-02-23T10:39:13Z</time>
      </trkpt>
      <trkpt lat="42.67078" lon="1.40022">
        <ele>2937.93</ele>
        <time>2014-02-23T10:39:38Z</time>
      </trkpt>
      <trkpt lat="42.67079" lon="1.4002">
        <ele>2937.93</ele>
        <time>2014-02-23T10:40:05Z</time>
      </trkpt>
      <trkpt lat="42.67078" lon="1.40024">
        <ele>2938.41</ele>
        <time>2014-02-23T10:40:35Z</time>
      </trkpt>
      <trkpt lat="42.67077" lon="1.40019">
        <ele>2937.93</ele>
        <time>2014-02-23T10:41:01Z</time>
      </trkpt>
      <trkpt lat="42.67078" lon="1.4002">
        <ele>2936.48</ele>
        <time>2014-02-23T10:41:25Z</time>
      </trkpt>
      <trkpt lat="42.67078" lon="1.4002">
        <ele>2938.41</ele>
        <time>2014-02-23T10:41:49Z</time>
      </trkpt>
      <trkpt lat="42.67076" lon="1.4002">
        <ele>2936</ele>
        <time>2014-02-23T10:42:13Z</time>
      </trkpt>
      <trkpt lat="42.67076" lon="1.4002">
        <ele>2939.37</ele>
        <time>2014-02-23T10:42:29Z</time>
      </trkpt>
      <trkpt lat="42.67076" lon="1.40024">
        <ele>2941.77</ele>
        <time>2014-02-23T10:42:58Z</time>
      </trkpt>
      <trkpt lat="42.6708" lon="1.40021">
        <ele>2939.85</ele>
        <time>2014-02-23T10:43:17Z</time>
      </trkpt>
      <trkpt lat="42.67078" lon="1.40021">
        <ele>2938.41</ele>
        <time>2014-02-23T10:43:29Z</time>
      </trkpt>
      <trkpt lat="42.67075" lon="1.40022">
        <ele>2937.93</ele>
        <time>2014-02-23T10:43:45Z</time>
      </trkpt>
      <trkpt lat="42.67074" lon="1.40025">
        <ele>2940.81</ele>
        <time>2014-02-23T10:43:56Z</time>
      </trkpt>
      <trkpt lat="42.67072" lon="1.40029">
        <ele>2939.85</ele>
        <time>2014-02-23T10:44:14Z</time>
      </trkpt>
      <trkpt lat="42.67068" lon="1.40033">
        <ele>2940.33</ele>
        <time>2014-02-23T10:44:24Z</time>
      </trkpt>
      <trkpt lat="42.67065" lon="1.40024">
        <ele>2942.25</ele>
        <time>2014-02-23T10:44:36Z</time>
      </trkpt>
      <trkpt lat="42.67062" lon="1.40012">
        <ele>2944.17</ele>
        <time>2014-02-23T10:44:50Z</time>
      </trkpt>
      <trkpt lat="42.67057" lon="1.40003">
        <ele>2946.1</ele>
        <time>2014-02-23T10:45:03Z</time>
      </trkpt>
      <trkpt lat="42.67055" lon="1.39998">
        <ele>2947.54</ele>
        <time>2014-02-23T10:45:16Z</time>
      </trkpt>
      <trkpt lat="42.67052" lon="1.39993">
        <ele>2948.02</ele>
        <time>2014-02-23T10:45:27Z</time>
      </trkpt>
      <trkpt lat="42.67046" lon="1.40001">
        <ele>2949.94</ele>
        <time>2014-02-23T10:45:40Z</time>
      </trkpt>
      <trkpt lat="42.67041" lon="1.40005">
        <ele>2950.9</ele>
        <time>2014-02-23T10:45:53Z</time>
      </trkpt>
      <trkpt lat="42.67036" lon="1.40015">
        <ele>2953.31</ele>
        <time>2014-02-23T10:46:06Z</time>
      </trkpt>
      <trkpt lat="42.67032" lon="1.40017">
        <ele>2953.79</ele>
        <time>2014-02-23T10:46:19Z</time>
      </trkpt>
      <trkpt lat="42.6703" lon="1.40021">
        <ele>2954.75</ele>
        <time>2014-02-23T10:46:34Z</time>
      </trkpt>
      <trkpt lat="42.67027" lon="1.40028">
        <ele>2956.19</ele>
        <time>2014-02-23T10:46:48Z</time>
      </trkpt>
      <trkpt lat="42.67022" lon="1.40037">
        <ele>2957.15</ele>
        <time>2014-02-23T10:47:02Z</time>
      </trkpt>
      <trkpt lat="42.67021" lon="1.40044">
        <ele>2958.11</ele>
        <time>2014-02-23T10:47:14Z</time>
      </trkpt>
      <trkpt lat="42.67017" lon="1.4004">
        <ele>2959.56</ele>
        <time>2014-02-23T10:47:24Z</time>
      </trkpt>
      <trkpt lat="42.67013" lon="1.40028">
        <ele>2961.48</ele>
        <time>2014-02-23T10:47:37Z</time>
      </trkpt>
      <trkpt lat="42.67012" lon="1.40017">
        <ele>2964.36</ele>
        <time>2014-02-23T10:47:51Z</time>
      </trkpt>
      <trkpt lat="42.67011" lon="1.40008">
        <ele>2967.25</ele>
        <time>2014-02-23T10:48:04Z</time>
      </trkpt>
      <trkpt lat="42.67009" lon="1.39998">
        <ele>2968.69</ele>
        <time>2014-02-23T10:48:18Z</time>
      </trkpt>
      <trkpt lat="42.67007" lon="1.39985">
        <ele>2969.17</ele>
        <time>2014-02-23T10:48:36Z</time>
      </trkpt>
      <trkpt lat="42.67007" lon="1.3998">
        <ele>2971.09</ele>
        <time>2014-02-23T10:48:50Z</time>
      </trkpt>
      <trkpt lat="42.67007" lon="1.39977">
        <ele>2971.09</ele>
        <time>2014-02-23T10:48:54Z</time>
      </trkpt>
      <trkpt lat="42.67005" lon="1.39968">
        <ele>2971.57</ele>
        <time>2014-02-23T10:49:08Z</time>
      </trkpt>
      <trkpt lat="42.67" lon="1.39972">
        <ele>2974.46</ele>
        <time>2014-02-23T10:49:20Z</time>
      </trkpt>
      <trkpt lat="42.66999" lon="1.39973">
        <ele>2974.94</ele>
        <time>2014-02-23T10:49:38Z</time>
      </trkpt>
      <trkpt lat="42.66993" lon="1.39983">
        <ele>2975.9</ele>
        <time>2014-02-23T10:49:51Z</time>
      </trkpt>
      <trkpt lat="42.66991" lon="1.39989">
        <ele>2975.9</ele>
        <time>2014-02-23T10:50:04Z</time>
      </trkpt>
      <trkpt lat="42.6699" lon="1.39988">
        <ele>2977.34</ele>
        <time>2014-02-23T10:50:30Z</time>
      </trkpt>
      <trkpt lat="42.66992" lon="1.39988">
        <ele>2978.78</ele>
        <time>2014-02-23T10:50:52Z</time>
      </trkpt>
      <trkpt lat="42.66985" lon="1.39995">
        <ele>2979.74</ele>
        <time>2014-02-23T10:51:03Z</time>
      </trkpt>
      <trkpt lat="42.66979" lon="1.40003">
        <ele>2982.15</ele>
        <time>2014-02-23T10:51:14Z</time>
      </trkpt>
      <trkpt lat="42.66972" lon="1.40012">
        <ele>2984.55</ele>
        <time>2014-02-23T10:51:28Z</time>
      </trkpt>
      <trkpt lat="42.66969" lon="1.40011">
        <ele>2985.99</ele>
        <time>2014-02-23T10:51:39Z</time>
      </trkpt>
      <trkpt lat="42.66966" lon="1.40006">
        <ele>2987.43</ele>
        <time>2014-02-23T10:51:58Z</time>
      </trkpt>
      <trkpt lat="42.66964" lon="1.39993">
        <ele>2988.4</ele>
        <time>2014-02-23T10:52:11Z</time>
      </trkpt>
      <trkpt lat="42.66962" lon="1.39982">
        <ele>2990.8</ele>
        <time>2014-02-23T10:52:24Z</time>
      </trkpt>
      <trkpt lat="42.6696" lon="1.39971">
        <ele>2991.28</ele>
        <time>2014-02-23T10:52:39Z</time>
      </trkpt>
      <trkpt lat="42.66958" lon="1.39961">
        <ele>2993.68</ele>
        <time>2014-02-23T10:52:53Z</time>
      </trkpt>
      <trkpt lat="42.66957" lon="1.39953">
        <ele>2995.12</ele>
        <time>2014-02-23T10:53:05Z</time>
      </trkpt>
      <trkpt lat="42.66952" lon="1.3996">
        <ele>2996.57</ele>
        <time>2014-02-23T10:53:18Z</time>
      </trkpt>
      <trkpt lat="42.66946" lon="1.39965">
        <ele>2996.09</ele>
        <time>2014-02-23T10:53:30Z</time>
      </trkpt>
      <trkpt lat="42.66943" lon="1.39968">
        <ele>2998.49</ele>
        <time>2014-02-23T10:53:41Z</time>
      </trkpt>
      <trkpt lat="42.66937" lon="1.39975">
        <ele>2999.93</ele>
        <time>2014-02-23T10:53:54Z</time>
      </trkpt>
      <trkpt lat="42.66931" lon="1.39981">
        <ele>3001.37</ele>
        <time>2014-02-23T10:54:07Z</time>
      </trkpt>
      <trkpt lat="42.66927" lon="1.39986">
        <ele>3004.26</ele>
        <time>2014-02-23T10:54:18Z</time>
      </trkpt>
      <trkpt lat="42.66922" lon="1.39994">
        <ele>3004.74</ele>
        <time>2014-02-23T10:54:32Z</time>
      </trkpt>
      <trkpt lat="42.66917" lon="1.39996">
        <ele>3007.14</ele>
        <time>2014-02-23T10:54:41Z</time>
      </trkpt>
      <trkpt lat="42.66914" lon="1.39987">
        <ele>3009.06</ele>
        <time>2014-02-23T10:54:54Z</time>
      </trkpt>
      <trkpt lat="42.66912" lon="1.39978">
        <ele>3011.47</ele>
        <time>2014-02-23T10:55:06Z</time>
      </trkpt>
      <trkpt lat="42.66911" lon="1.39965">
        <ele>3011.95</ele>
        <time>2014-02-23T10:55:20Z</time>
      </trkpt>
      <trkpt lat="42.6691" lon="1.39957">
        <ele>3014.35</ele>
        <time>2014-02-23T10:55:33Z</time>
      </trkpt>
      <trkpt lat="42.6691" lon="1.39953">
        <ele>3016.27</ele>
        <time>2014-02-23T10:55:43Z</time>
      </trkpt>
      <trkpt lat="42.66904" lon="1.39958">
        <ele>3017.23</ele>
        <time>2014-02-23T10:55:55Z</time>
      </trkpt>
      <trkpt lat="42.66895" lon="1.39961">
        <ele>3018.2</ele>
        <time>2014-02-23T10:56:11Z</time>
      </trkpt>
      <trkpt lat="42.6689" lon="1.39963">
        <ele>3021.56</ele>
        <time>2014-02-23T10:56:22Z</time>
      </trkpt>
      <trkpt lat="42.66883" lon="1.39968">
        <ele>3023</ele>
        <time>2014-02-23T10:56:37Z</time>
      </trkpt>
      <trkpt lat="42.66875" lon="1.39971">
        <ele>3023.96</ele>
        <time>2014-02-23T10:56:52Z</time>
      </trkpt>
      <trkpt lat="42.66868" lon="1.39974">
        <ele>3026.37</ele>
        <time>2014-02-23T10:57:07Z</time>
      </trkpt>
      <trkpt lat="42.66864" lon="1.39976">
        <ele>3028.29</ele>
        <time>2014-02-23T10:57:21Z</time>
      </trkpt>
      <trkpt lat="42.66856" lon="1.39978">
        <ele>3031.66</ele>
        <time>2014-02-23T10:57:32Z</time>
      </trkpt>
      <trkpt lat="42.66853" lon="1.39978">
        <ele>3033.58</ele>
        <time>2014-02-23T10:57:44Z</time>
      </trkpt>
      <trkpt lat="42.66852" lon="1.3997">
        <ele>3034.54</ele>
        <time>2014-02-23T10:57:56Z</time>
      </trkpt>
      <trkpt lat="42.66853" lon="1.39961">
        <ele>3035.5</ele>
        <time>2014-02-23T10:58:13Z</time>
      </trkpt>
      <trkpt lat="42.66851" lon="1.3995">
        <ele>3037.9</ele>
        <time>2014-02-23T10:58:27Z</time>
      </trkpt>
      <trkpt lat="42.66848" lon="1.39944">
        <ele>3038.86</ele>
        <time>2014-02-23T10:58:39Z</time>
      </trkpt>
      <trkpt lat="42.66844" lon="1.3994">
        <ele>3040.31</ele>
        <time>2014-02-23T10:58:50Z</time>
      </trkpt>
      <trkpt lat="42.66841" lon="1.39932">
        <ele>3042.23</ele>
        <time>2014-02-23T10:59:04Z</time>
      </trkpt>
      <trkpt lat="42.66843" lon="1.39926">
        <ele>3044.15</ele>
        <time>2014-02-23T10:59:17Z</time>
      </trkpt>
      <trkpt lat="42.66846" lon="1.39919">
        <ele>3045.11</ele>
        <time>2014-02-23T10:59:32Z</time>
      </trkpt>
      <trkpt lat="42.66849" lon="1.39913">
        <ele>3047.52</ele>
        <time>2014-02-23T10:59:44Z</time>
      </trkpt>
      <trkpt lat="42.66854" lon="1.39905">
        <ele>3049.92</ele>
        <time>2014-02-23T10:59:58Z</time>
      </trkpt>
      <trkpt lat="42.66854" lon="1.39905">
        <ele>3050.88</ele>
        <time>2014-02-23T11:00:07Z</time>
      </trkpt>
      <trkpt lat="42.66853" lon="1.39905">
        <ele>3051.84</ele>
        <time>2014-02-23T11:00:16Z</time>
      </trkpt>
      <trkpt lat="42.66848" lon="1.39905">
        <ele>3052.8</ele>
        <time>2014-02-23T11:00:28Z</time>
      </trkpt>
      <trkpt lat="42.6684" lon="1.39903">
        <ele>3052.8</ele>
        <time>2014-02-23T11:00:41Z</time>
      </trkpt>
      <trkpt lat="42.66834" lon="1.399">
        <ele>3055.21</ele>
        <time>2014-02-23T11:00:52Z</time>
      </trkpt>
      <trkpt lat="42.66829" lon="1.39893">
        <ele>3057.61</ele>
        <time>2014-02-23T11:01:07Z</time>
      </trkpt>
      <trkpt lat="42.66828" lon="1.39895">
        <ele>3057.61</ele>
        <time>2014-02-23T11:01:25Z</time>
      </trkpt>
      <trkpt lat="42.6683" lon="1.39887">
        <ele>3059.53</ele>
        <time>2014-02-23T11:01:43Z</time>
      </trkpt>
      <trkpt lat="42.66829" lon="1.39887">
        <ele>3059.53</ele>
        <time>2014-02-23T11:02:03Z</time>
      </trkpt>
      <trkpt lat="42.66829" lon="1.39886">
        <ele>3059.53</ele>
        <time>2014-02-23T11:02:04Z</time>
      </trkpt>
      <trkpt lat="42.66826" lon="1.3988">
        <ele>3060.49</ele>
        <time>2014-02-23T11:02:15Z</time>
      </trkpt>
      <trkpt lat="42.66823" lon="1.3987">
        <ele>3060.98</ele>
        <time>2014-02-23T11:02:27Z</time>
      </trkpt>
      <trkpt lat="42.66821" lon="1.39857">
        <ele>3061.94</ele>
        <time>2014-02-23T11:02:41Z</time>
      </trkpt>
      <trkpt lat="42.6682" lon="1.39848">
        <ele>3062.9</ele>
        <time>2014-02-23T11:02:52Z</time>
      </trkpt>
      <trkpt lat="42.66822" lon="1.39841">
        <ele>3065.3</ele>
        <time>2014-02-23T11:03:04Z</time>
      </trkpt>
      <trkpt lat="42.66826" lon="1.39828">
        <ele>3065.78</ele>
        <time>2014-02-23T11:03:21Z</time>
      </trkpt>
      <trkpt lat="42.66828" lon="1.39824">
        <ele>3067.22</ele>
        <time>2014-02-23T11:03:33Z</time>
      </trkpt>
      <trkpt lat="42.66826" lon="1.39824">
        <ele>3069.15</ele>
        <time>2014-02-23T11:03:44Z</time>
      </trkpt>
      <trkpt lat="42.66824" lon="1.39822">
        <ele>3070.11</ele>
        <time>2014-02-23T11:04:03Z</time>
      </trkpt>
      <trkpt lat="42.66818" lon="1.39823">
        <ele>3071.55</ele>
        <time>2014-02-23T11:04:17Z</time>
      </trkpt>
      <trkpt lat="42.66813" lon="1.39824">
        <ele>3073.47</ele>
        <time>2014-02-23T11:04:30Z</time>
      </trkpt>
      <trkpt lat="42.66806" lon="1.39824">
        <ele>3075.4</ele>
        <time>2014-02-23T11:04:40Z</time>
      </trkpt>
      <trkpt lat="42.66804" lon="1.39823">
        <ele>3077.32</ele>
        <time>2014-02-23T11:04:49Z</time>
      </trkpt>
      <trkpt lat="42.66807" lon="1.39813">
        <ele>3078.28</ele>
        <time>2014-02-23T11:05:01Z</time>
      </trkpt>
      <trkpt lat="42.66811" lon="1.39805">
        <ele>3078.76</ele>
        <time>2014-02-23T11:05:17Z</time>
      </trkpt>
      <trkpt lat="42.66814" lon="1.39798">
        <ele>3080.2</ele>
        <time>2014-02-23T11:05:32Z</time>
      </trkpt>
      <trkpt lat="42.66817" lon="1.39794">
        <ele>3081.64</ele>
        <time>2014-02-23T11:05:47Z</time>
      </trkpt>
      <trkpt lat="42.66814" lon="1.39795">
        <ele>3083.57</ele>
        <time>2014-02-23T11:05:58Z</time>
      </trkpt>
      <trkpt lat="42.66807" lon="1.39797">
        <ele>3085.49</ele>
        <time>2014-02-23T11:06:10Z</time>
      </trkpt>
      <trkpt lat="42.66802" lon="1.39797">
        <ele>3088.37</ele>
        <time>2014-02-23T11:06:23Z</time>
      </trkpt>
      <trkpt lat="42.66796" lon="1.39797">
        <ele>3090.29</ele>
        <time>2014-02-23T11:06:34Z</time>
      </trkpt>
      <trkpt lat="42.66793" lon="1.39797">
        <ele>3092.22</ele>
        <time>2014-02-23T11:06:45Z</time>
      </trkpt>
      <trkpt lat="42.6679" lon="1.39798">
        <ele>3094.14</ele>
        <time>2014-02-23T11:06:56Z</time>
      </trkpt>
      <trkpt lat="42.6679" lon="1.39793">
        <ele>3092.7</ele>
        <time>2014-02-23T11:07:06Z</time>
      </trkpt>
      <trkpt lat="42.66791" lon="1.39786">
        <ele>3093.18</ele>
        <time>2014-02-23T11:07:17Z</time>
      </trkpt>
      <trkpt lat="42.66795" lon="1.39781">
        <ele>3094.14</ele>
        <time>2014-02-23T11:07:32Z</time>
      </trkpt>
      <trkpt lat="42.66799" lon="1.39774">
        <ele>3095.1</ele>
        <time>2014-02-23T11:07:46Z</time>
      </trkpt>
      <trkpt lat="42.66801" lon="1.39772">
        <ele>3095.1</ele>
        <time>2014-02-23T11:07:58Z</time>
      </trkpt>
      <trkpt lat="42.668" lon="1.39772">
        <ele>3096.06</ele>
        <time>2014-02-23T11:08:11Z</time>
      </trkpt>
      <trkpt lat="42.66795" lon="1.39772">
        <ele>3098.47</ele>
        <time>2014-02-23T11:08:23Z</time>
      </trkpt>
      <trkpt lat="42.66791" lon="1.39771">
        <ele>3101.35</ele>
        <time>2014-02-23T11:08:33Z</time>
      </trkpt>
      <trkpt lat="42.66786" lon="1.39769">
        <ele>3102.79</ele>
        <time>2014-02-23T11:08:45Z</time>
      </trkpt>
      <trkpt lat="42.66782" lon="1.39767">
        <ele>3105.2</ele>
        <time>2014-02-23T11:08:56Z</time>
      </trkpt>
      <trkpt lat="42.66782" lon="1.39764">
        <ele>3105.2</ele>
        <time>2014-02-23T11:09:09Z</time>
      </trkpt>
      <trkpt lat="42.6678" lon="1.39761">
        <ele>3107.6</ele>
        <time>2014-02-23T11:09:24Z</time>
      </trkpt>
      <trkpt lat="42.66779" lon="1.3976">
        <ele>3107.6</ele>
        <time>2014-02-23T11:09:42Z</time>
      </trkpt>
      <trkpt lat="42.66779" lon="1.39753">
        <ele>3108.56</ele>
        <time>2014-02-23T11:09:53Z</time>
      </trkpt>
      <trkpt lat="42.66776" lon="1.39749">
        <ele>3109.52</ele>
        <time>2014-02-23T11:10:02Z</time>
      </trkpt>
      <trkpt lat="42.66772" lon="1.39745">
        <ele>3110</ele>
        <time>2014-02-23T11:10:15Z</time>
      </trkpt>
      <trkpt lat="42.66774" lon="1.39745">
        <ele>3109.52</ele>
        <time>2014-02-23T11:10:29Z</time>
      </trkpt>
      <trkpt lat="42.66772" lon="1.39745">
        <ele>3109.04</ele>
        <time>2014-02-23T11:10:45Z</time>
      </trkpt>
      <trkpt lat="42.66773" lon="1.39744">
        <ele>3107.6</ele>
        <time>2014-02-23T11:11:04Z</time>
      </trkpt>
      <trkpt lat="42.66774" lon="1.39745">
        <ele>3108.08</ele>
        <time>2014-02-23T11:11:32Z</time>
      </trkpt>
      <trkpt lat="42.66775" lon="1.39744">
        <ele>3109.04</ele>
        <time>2014-02-23T11:11:47Z</time>
      </trkpt>
      <trkpt lat="42.66775" lon="1.39743">
        <ele>3110.96</ele>
        <time>2014-02-23T11:12:17Z</time>
      </trkpt>
      <trkpt lat="42.66776" lon="1.39747">
        <ele>3109.04</ele>
        <time>2014-02-23T11:12:43Z</time>
      </trkpt>
      <trkpt lat="42.66773" lon="1.39746">
        <ele>3106.16</ele>
        <time>2014-02-23T11:13:18Z</time>
      </trkpt>
      <trkpt lat="42.66774" lon="1.39743">
        <ele>3104.71</ele>
        <time>2014-02-23T11:13:46Z</time>
      </trkpt>
      <trkpt lat="42.66773" lon="1.39745">
        <ele>3105.68</ele>
        <time>2014-02-23T11:14:20Z</time>
      </trkpt>
      <trkpt lat="42.66772" lon="1.39747">
        <ele>3103.75</ele>
        <time>2014-02-23T11:14:48Z</time>
      </trkpt>
      <trkpt lat="42.66775" lon="1.39747">
        <ele>3102.79</ele>
        <time>2014-02-23T11:15:23Z</time>
      </trkpt>
      <trkpt lat="42.66774" lon="1.39747">
        <ele>3106.64</ele>
        <time>2014-02-23T11:15:58Z</time>
      </trkpt>
      <trkpt lat="42.66774" lon="1.39746">
        <ele>3107.6</ele>
        <time>2014-02-23T11:16:34Z</time>
      </trkpt>
      <trkpt lat="42.66773" lon="1.39747">
        <ele>3110.96</ele>
        <time>2014-02-23T11:17:15Z</time>
      </trkpt>
      <trkpt lat="42.66773" lon="1.39747">
        <ele>3112.89</ele>
        <time>2014-02-23T11:17:52Z</time>
      </trkpt>
      <trkpt lat="42.66774" lon="1.39749">
        <ele>3110</ele>
        <time>2014-02-23T11:18:27Z</time>
      </trkpt>
      <trkpt lat="42.66773" lon="1.3975">
        <ele>3110</ele>
        <time>2014-02-23T11:18:57Z</time>
      </trkpt>
      <trkpt lat="42.66773" lon="1.39747">
        <ele>3109.04</ele>
        <time>2014-02-23T11:19:32Z</time>
      </trkpt>
      <trkpt lat="42.66775" lon="1.39745">
        <ele>3107.6</ele>
        <time>2014-02-23T11:20:05Z</time>
      </trkpt>
      <trkpt lat="42.66776" lon="1.39745">
        <ele>3106.64</ele>
        <time>2014-02-23T11:20:33Z</time>
      </trkpt>
      <trkpt lat="42.66776" lon="1.39748">
        <ele>3106.16</ele>
        <time>2014-02-23T11:21:08Z</time>
      </trkpt>
      <trkpt lat="42.66775" lon="1.39746">
        <ele>3107.12</ele>
        <time>2014-02-23T11:21:47Z</time>
      </trkpt>
      <trkpt lat="42.66775" lon="1.39745">
        <ele>3108.56</ele>
        <time>2014-02-23T11:22:13Z</time>
      </trkpt>
      <trkpt lat="42.66775" lon="1.39743">
        <ele>3106.64</ele>
        <time>2014-02-23T11:22:39Z</time>
      </trkpt>
      <trkpt lat="42.66773" lon="1.39743">
        <ele>3107.12</ele>
        <time>2014-02-23T11:23:05Z</time>
      </trkpt>
      <trkpt lat="42.66774" lon="1.39745">
        <ele>3107.12</ele>
        <time>2014-02-23T11:23:38Z</time>
      </trkpt>
      <trkpt lat="42.66775" lon="1.39742">
        <ele>3106.16</ele>
        <time>2014-02-23T11:24:13Z</time>
      </trkpt>
      <trkpt lat="42.66776" lon="1.39744">
        <ele>3106.64</ele>
        <time>2014-02-23T11:24:49Z</time>
      </trkpt>
      <trkpt lat="42.66775" lon="1.39746">
        <ele>3105.68</ele>
        <time>2014-02-23T11:24:57Z</time>
      </trkpt>
      <trkpt lat="42.66775" lon="1.39747">
        <ele>3105.68</ele>
        <time>2014-02-23T11:25:09Z</time>
      </trkpt>
      <trkpt lat="42.66775" lon="1.39746">
        <ele>3105.68</ele>
        <time>2014-02-23T11:25:26Z</time>
      </trkpt>
      <trkpt lat="42.66772" lon="1.39746">
        <ele>3103.75</ele>
        <time>2014-02-23T11:25:58Z</time>
      </trkpt>
      <trkpt lat="42.66773" lon="1.39745">
        <ele>3104.71</ele>
        <time>2014-02-23T11:26:15Z</time>
      </trkpt>
      <trkpt lat="42.66776" lon="1.39743">
        <ele>3107.12</ele>
        <time>2014-02-23T11:26:44Z</time>
      </trkpt>
      <trkpt lat="42.66774" lon="1.39745">
        <ele>3107.12</ele>
        <time>2014-02-23T11:27:03Z</time>
      </trkpt>
      <trkpt lat="42.66775" lon="1.39745">
        <ele>3107.6</ele>
        <time>2014-02-23T11:27:27Z</time>
      </trkpt>
      <trkpt lat="42.66773" lon="1.39749">
        <ele>3108.08</ele>
        <time>2014-02-23T11:27:43Z</time>
      </trkpt>
      <trkpt lat="42.6677" lon="1.39758">
        <ele>3109.52</ele>
        <time>2014-02-23T11:27:56Z</time>
      </trkpt>
      <trkpt lat="42.66766" lon="1.39762">
        <ele>3110.96</ele>
        <time>2014-02-23T11:28:08Z</time>
      </trkpt>
      <trkpt lat="42.66762" lon="1.39765">
        <ele>3111.92</ele>
        <time>2014-02-23T11:28:20Z</time>
      </trkpt>
      <trkpt lat="42.6676" lon="1.39765">
        <ele>3113.85</ele>
        <time>2014-02-23T11:28:30Z</time>
      </trkpt>
      <trkpt lat="42.66761" lon="1.39761">
        <ele>3115.29</ele>
        <time>2014-02-23T11:28:42Z</time>
      </trkpt>
      <trkpt lat="42.66759" lon="1.39758">
        <ele>3115.29</ele>
        <time>2014-02-23T11:28:54Z</time>
      </trkpt>
      <trkpt lat="42.66756" lon="1.39759">
        <ele>3114.33</ele>
        <time>2014-02-23T11:29:03Z</time>
      </trkpt>
      <trkpt lat="42.66754" lon="1.3976">
        <ele>3113.85</ele>
        <time>2014-02-23T11:29:16Z</time>
      </trkpt>
      <trkpt lat="42.66752" lon="1.3976">
        <ele>3113.85</ele>
        <time>2014-02-23T11:29:29Z</time>
      </trkpt>
      <trkpt lat="42.6675" lon="1.39762">
        <ele>3113.37</ele>
        <time>2014-02-23T11:29:40Z</time>
      </trkpt>
      <trkpt lat="42.66747" lon="1.39763">
        <ele>3115.29</ele>
        <time>2014-02-23T11:29:52Z</time>
      </trkpt>
      <trkpt lat="42.66748" lon="1.39763">
        <ele>3118.65</ele>
        <time>2014-02-23T11:30:02Z</time>
      </trkpt>
      <trkpt lat="42.66747" lon="1.39762">
        <ele>3119.13</ele>
        <time>2014-02-23T11:30:11Z</time>
      </trkpt>
      <trkpt lat="42.66745" lon="1.39764">
        <ele>3120.58</ele>
        <time>2014-02-23T11:30:21Z</time>
      </trkpt>
      <trkpt lat="42.66743" lon="1.39766">
        <ele>3120.1</ele>
        <time>2014-02-23T11:30:35Z</time>
      </trkpt>
      <trkpt lat="42.66742" lon="1.39765">
        <ele>3122.02</ele>
        <time>2014-02-23T11:30:46Z</time>
      </trkpt>
      <trkpt lat="42.66742" lon="1.39766">
        <ele>3123.94</ele>
        <time>2014-02-23T11:30:57Z</time>
      </trkpt>
      <trkpt lat="42.66739" lon="1.39766">
        <ele>3124.42</ele>
        <time>2014-02-23T11:31:08Z</time>
      </trkpt>
      <trkpt lat="42.66738" lon="1.39766">
        <ele>3124.9</ele>
        <time>2014-02-23T11:31:17Z</time>
      </trkpt>
      <trkpt lat="42.66737" lon="1.39766">
        <ele>3125.38</ele>
        <time>2014-02-23T11:31:30Z</time>
      </trkpt>
      <trkpt lat="42.66737" lon="1.39767">
        <ele>3127.79</ele>
        <time>2014-02-23T11:31:40Z</time>
      </trkpt>
      <trkpt lat="42.66737" lon="1.39765">
        <ele>3128.75</ele>
        <time>2014-02-23T11:31:52Z</time>
      </trkpt>
      <trkpt lat="42.66734" lon="1.39764">
        <ele>3130.19</ele>
        <time>2014-02-23T11:32:03Z</time>
      </trkpt>
      <trkpt lat="42.66733" lon="1.39766">
        <ele>3131.63</ele>
        <time>2014-02-23T11:32:17Z</time>
      </trkpt>
      <trkpt lat="42.66731" lon="1.39766">
        <ele>3133.55</ele>
        <time>2014-02-23T11:32:29Z</time>
      </trkpt>
      <trkpt lat="42.66728" lon="1.39767">
        <ele>3135</ele>
        <time>2014-02-23T11:32:41Z</time>
      </trkpt>
      <trkpt lat="42.66727" lon="1.39768">
        <ele>3135.48</ele>
        <time>2014-02-23T11:32:57Z</time>
      </trkpt>
      <trkpt lat="42.66725" lon="1.39769">
        <ele>3137.4</ele>
        <time>2014-02-23T11:33:09Z</time>
      </trkpt>
      <trkpt lat="42.66724" lon="1.39767">
        <ele>3137.88</ele>
        <time>2014-02-23T11:33:20Z</time>
      </trkpt>
      <trkpt lat="42.66721" lon="1.39767">
        <ele>3139.32</ele>
        <time>2014-02-23T11:33:30Z</time>
      </trkpt>
      <trkpt lat="42.66721" lon="1.39767">
        <ele>3140.76</ele>
        <time>2014-02-23T11:33:44Z</time>
      </trkpt>
      <trkpt lat="42.66721" lon="1.39768">
        <ele>3139.8</ele>
        <time>2014-02-23T11:33:58Z</time>
      </trkpt>
      <trkpt lat="42.66718" lon="1.39772">
        <ele>3137.4</ele>
        <time>2014-02-23T11:34:13Z</time>
      </trkpt>
      <trkpt lat="42.66715" lon="1.39777">
        <ele>3138.84</ele>
        <time>2014-02-23T11:34:26Z</time>
      </trkpt>
      <trkpt lat="42.66711" lon="1.39781">
        <ele>3139.8</ele>
        <time>2014-02-23T11:34:37Z</time>
      </trkpt>
      <trkpt lat="42.66705" lon="1.39787">
        <ele>3140.28</ele>
        <time>2014-02-23T11:34:49Z</time>
      </trkpt>
      <trkpt lat="42.66702" lon="1.3979">
        <ele>3139.8</ele>
        <time>2014-02-23T11:35:00Z</time>
      </trkpt>
      <trkpt lat="42.66701" lon="1.39791">
        <ele>3140.28</ele>
        <time>2014-02-23T11:35:16Z</time>
      </trkpt>
      <trkpt lat="42.66699" lon="1.39793">
        <ele>3141.25</ele>
        <time>2014-02-23T11:35:29Z</time>
      </trkpt>
      <trkpt lat="42.66697" lon="1.39795">
        <ele>3141.25</ele>
        <time>2014-02-23T11:35:44Z</time>
      </trkpt>
      <trkpt lat="42.66696" lon="1.39795">
        <ele>3140.28</ele>
        <time>2014-02-23T11:35:57Z</time>
      </trkpt>
      <trkpt lat="42.66695" lon="1.39792">
        <ele>3143.65</ele>
        <time>2014-02-23T11:36:16Z</time>
      </trkpt>
      <trkpt lat="42.66695" lon="1.39793">
        <ele>3144.61</ele>
        <time>2014-02-23T11:36:31Z</time>
      </trkpt>
      <trkpt lat="42.66696" lon="1.39793">
        <ele>3145.09</ele>
        <time>2014-02-23T11:36:56Z</time>
      </trkpt>
      <trkpt lat="42.66696" lon="1.39793">
        <ele>3144.61</ele>
        <time>2014-02-23T11:37:16Z</time>
      </trkpt>
      <trkpt lat="42.66695" lon="1.39791">
        <ele>3142.69</ele>
        <time>2014-02-23T11:37:45Z</time>
      </trkpt>
      <trkpt lat="42.66696" lon="1.39791">
        <ele>3141.73</ele>
        <time>2014-02-23T11:38:10Z</time>
      </trkpt>
      <trkpt lat="42.66696" lon="1.39791">
        <ele>3142.69</ele>
        <time>2014-02-23T11:38:33Z</time>
      </trkpt>
      <trkpt lat="42.66695" lon="1.39792">
        <ele>3142.21</ele>
        <time>2014-02-23T11:38:52Z</time>
      </trkpt>
      <trkpt lat="42.66695" lon="1.39791">
        <ele>3140.76</ele>
        <time>2014-02-23T11:39:23Z</time>
      </trkpt>
      <trkpt lat="42.66696" lon="1.3979">
        <ele>3143.65</ele>
        <time>2014-02-23T11:39:41Z</time>
      </trkpt>
      <trkpt lat="42.66695" lon="1.39793">
        <ele>3144.61</ele>
        <time>2014-02-23T11:40:04Z</time>
      </trkpt>
      <trkpt lat="42.66695" lon="1.39794">
        <ele>3144.13</ele>
        <time>2014-02-23T11:40:29Z</time>
      </trkpt>
      <trkpt lat="42.66695" lon="1.39792">
        <ele>3143.65</ele>
        <time>2014-02-23T11:40:53Z</time>
      </trkpt>
      <trkpt lat="42.66695" lon="1.39792">
        <ele>3142.21</ele>
        <time>2014-02-23T11:41:16Z</time>
      </trkpt>
      <trkpt lat="42.66696" lon="1.39792">
        <ele>3142.69</ele>
        <time>2014-02-23T11:41:32Z</time>
      </trkpt>
      <trkpt lat="42.66695" lon="1.39793">
        <ele>3143.65</ele>
        <time>2014-02-23T11:41:44Z</time>
      </trkpt>
      <trkpt lat="42.66694" lon="1.39794">
        <ele>3144.61</ele>
        <time>2014-02-23T11:42:06Z</time>
      </trkpt>
      <trkpt lat="42.66697" lon="1.3979">
        <ele>3144.61</ele>
        <time>2014-02-23T11:42:20Z</time>
      </trkpt>
      <trkpt lat="42.66698" lon="1.3979">
        <ele>3144.13</ele>
        <time>2014-02-23T11:42:32Z</time>
      </trkpt>
      <trkpt lat="42.66698" lon="1.3979">
        <ele>3143.65</ele>
        <time>2014-02-23T11:42:52Z</time>
      </trkpt>
      <trkpt lat="42.66698" lon="1.3979">
        <ele>3144.13</ele>
        <time>2014-02-23T11:43:07Z</time>
      </trkpt>
      <trkpt lat="42.66698" lon="1.3979">
        <ele>3144.13</ele>
        <time>2014-02-23T11:43:23Z</time>
      </trkpt>
      <trkpt lat="42.66694" lon="1.39793">
        <ele>3143.65</ele>
        <time>2014-02-23T11:43:35Z</time>
      </trkpt>
      <trkpt lat="42.66694" lon="1.39794">
        <ele>3143.17</ele>
        <time>2014-02-23T11:43:51Z</time>
      </trkpt>
      <trkpt lat="42.66694" lon="1.39794">
        <ele>3142.21</ele>
        <time>2014-02-23T11:44:05Z</time>
      </trkpt>
      <trkpt lat="42.66694" lon="1.39795">
        <ele>3142.69</ele>
        <time>2014-02-23T11:44:18Z</time>
      </trkpt>
      <trkpt lat="42.66693" lon="1.39795">
        <ele>3142.21</ele>
        <time>2014-02-23T11:44:45Z</time>
      </trkpt>
      <trkpt lat="42.66693" lon="1.39795">
        <ele>3141.73</ele>
        <time>2014-02-23T11:44:56Z</time>
      </trkpt>
      <trkpt lat="42.66694" lon="1.39794">
        <ele>3141.25</ele>
        <time>2014-02-23T11:45:20Z</time>
      </trkpt>
      <trkpt lat="42.66693" lon="1.39796">
        <ele>3141.25</ele>
        <time>2014-02-23T11:45:33Z</time>
      </trkpt>
      <trkpt lat="42.6669" lon="1.39798">
        <ele>3140.76</ele>
        <time>2014-02-23T11:45:44Z</time>
      </trkpt>
      <trkpt lat="42.6669" lon="1.39799">
        <ele>3140.28</ele>
        <time>2014-02-23T11:46:12Z</time>
      </trkpt>
      <trkpt lat="42.66691" lon="1.39798">
        <ele>3140.28</ele>
        <time>2014-02-23T11:46:42Z</time>
      </trkpt>
      <trkpt lat="42.66691" lon="1.39799">
        <ele>3141.25</ele>
        <time>2014-02-23T11:47:05Z</time>
      </trkpt>
      <trkpt lat="42.66692" lon="1.39796">
        <ele>3142.21</ele>
        <time>2014-02-23T11:47:18Z</time>
      </trkpt>
      <trkpt lat="42.66693" lon="1.39796">
        <ele>3142.69</ele>
        <time>2014-02-23T11:47:29Z</time>
      </trkpt>
      <trkpt lat="42.66697" lon="1.39793">
        <ele>3143.17</ele>
        <time>2014-02-23T11:47:40Z</time>
      </trkpt>
      <trkpt lat="42.66697" lon="1.39792">
        <ele>3143.65</ele>
        <time>2014-02-23T11:47:50Z</time>
      </trkpt>
      <trkpt lat="42.66696" lon="1.39792">
        <ele>3145.09</ele>
        <time>2014-02-23T11:48:19Z</time>
      </trkpt>
      <trkpt lat="42.66698" lon="1.39791">
        <ele>3144.61</ele>
        <time>2014-02-23T11:48:45Z</time>
      </trkpt>
      <trkpt lat="42.66698" lon="1.39793">
        <ele>3144.13</ele>
        <time>2014-02-23T11:49:16Z</time>
      </trkpt>
      <trkpt lat="42.66699" lon="1.39792">
        <ele>3144.61</ele>
        <time>2014-02-23T11:49:34Z</time>
      </trkpt>
      <trkpt lat="42.66699" lon="1.39791">
        <ele>3144.13</ele>
        <time>2014-02-23T11:49:46Z</time>
      </trkpt>
      <trkpt lat="42.66699" lon="1.39789">
        <ele>3143.65</ele>
        <time>2014-02-23T11:50:14Z</time>
      </trkpt>
      <trkpt lat="42.667" lon="1.39789">
        <ele>3142.21</ele>
        <time>2014-02-23T11:50:41Z</time>
      </trkpt>
      <trkpt lat="42.66705" lon="1.39786">
        <ele>3143.17</ele>
        <time>2014-02-23T11:50:53Z</time>
      </trkpt>
      <trkpt lat="42.66706" lon="1.39785">
        <ele>3142.69</ele>
        <time>2014-02-23T11:51:06Z</time>
      </trkpt>
      <trkpt lat="42.66706" lon="1.39786">
        <ele>3143.17</ele>
        <time>2014-02-23T11:51:30Z</time>
      </trkpt>
      <trkpt lat="42.66707" lon="1.39786">
        <ele>3142.21</ele>
        <time>2014-02-23T11:51:45Z</time>
      </trkpt>
      <trkpt lat="42.66707" lon="1.39786">
        <ele>3143.17</ele>
        <time>2014-02-23T11:52:08Z</time>
      </trkpt>
      <trkpt lat="42.66706" lon="1.39785">
        <ele>3142.69</ele>
        <time>2014-02-23T11:52:24Z</time>
      </trkpt>
      <trkpt lat="42.66706" lon="1.39786">
        <ele>3143.17</ele>
        <time>2014-02-23T11:52:41Z</time>
      </trkpt>
      <trkpt lat="42.66705" lon="1.39787">
        <ele>3143.65</ele>
        <time>2014-02-23T11:53:13Z</time>
      </trkpt>
      <trkpt lat="42.66706" lon="1.39786">
        <ele>3143.17</ele>
        <time>2014-02-23T11:53:34Z</time>
      </trkpt>
      <trkpt lat="42.66706" lon="1.39787">
        <ele>3142.21</ele>
        <time>2014-02-23T11:54:01Z</time>
      </trkpt>
      <trkpt lat="42.66706" lon="1.39787">
        <ele>3141.25</ele>
        <time>2014-02-23T11:54:31Z</time>
      </trkpt>
      <trkpt lat="42.66706" lon="1.39786">
        <ele>3141.25</ele>
        <time>2014-02-23T11:54:43Z</time>
      </trkpt>
      <trkpt lat="42.66707" lon="1.39786">
        <ele>3141.25</ele>
        <time>2014-02-23T11:55:15Z</time>
      </trkpt>
      <trkpt lat="42.66708" lon="1.39782">
        <ele>3142.69</ele>
        <time>2014-02-23T11:55:27Z</time>
      </trkpt>
      <trkpt lat="42.66712" lon="1.39778">
        <ele>3143.17</ele>
        <time>2014-02-23T11:55:38Z</time>
      </trkpt>
      <trkpt lat="42.66713" lon="1.39777">
        <ele>3143.65</ele>
        <time>2014-02-23T11:55:39Z</time>
      </trkpt>
      <trkpt lat="42.66718" lon="1.39768">
        <ele>3144.13</ele>
        <time>2014-02-23T11:55:51Z</time>
      </trkpt>
      <trkpt lat="42.66724" lon="1.39765">
        <ele>3142.69</ele>
        <time>2014-02-23T11:56:05Z</time>
      </trkpt>
      <trkpt lat="42.66726" lon="1.39766">
        <ele>3140.28</ele>
        <time>2014-02-23T11:56:17Z</time>
      </trkpt>
      <trkpt lat="42.66729" lon="1.39765">
        <ele>3139.32</ele>
        <time>2014-02-23T11:56:27Z</time>
      </trkpt>
      <trkpt lat="42.66731" lon="1.39764">
        <ele>3136.92</ele>
        <time>2014-02-23T11:56:38Z</time>
      </trkpt>
      <trkpt lat="42.66734" lon="1.39764">
        <ele>3135.48</ele>
        <time>2014-02-23T11:56:50Z</time>
      </trkpt>
      <trkpt lat="42.66735" lon="1.39764">
        <ele>3133.55</ele>
        <time>2014-02-23T11:57:01Z</time>
      </trkpt>
      <trkpt lat="42.66736" lon="1.39765">
        <ele>3132.11</ele>
        <time>2014-02-23T11:57:17Z</time>
      </trkpt>
      <trkpt lat="42.66738" lon="1.39764">
        <ele>3131.63</ele>
        <time>2014-02-23T11:57:34Z</time>
      </trkpt>
      <trkpt lat="42.66738" lon="1.39764">
        <ele>3131.63</ele>
        <time>2014-02-23T11:57:48Z</time>
      </trkpt>
      <trkpt lat="42.66738" lon="1.39764">
        <ele>3131.15</ele>
        <time>2014-02-23T11:57:57Z</time>
      </trkpt>
      <trkpt lat="42.66742" lon="1.39766">
        <ele>3128.75</ele>
        <time>2014-02-23T11:58:09Z</time>
      </trkpt>
      <trkpt lat="42.66744" lon="1.39765">
        <ele>3128.75</ele>
        <time>2014-02-23T11:58:19Z</time>
      </trkpt>
      <trkpt lat="42.66744" lon="1.39766">
        <ele>3128.75</ele>
        <time>2014-02-23T11:58:38Z</time>
      </trkpt>
      <trkpt lat="42.66744" lon="1.39763">
        <ele>3127.79</ele>
        <time>2014-02-23T11:58:53Z</time>
      </trkpt>
      <trkpt lat="42.66748" lon="1.39762">
        <ele>3125.86</ele>
        <time>2014-02-23T11:59:02Z</time>
      </trkpt>
      <trkpt lat="42.66752" lon="1.39761">
        <ele>3122.98</ele>
        <time>2014-02-23T11:59:17Z</time>
      </trkpt>
      <trkpt lat="42.66754" lon="1.39758">
        <ele>3121.54</ele>
        <time>2014-02-23T11:59:22Z</time>
      </trkpt>
      <trkpt lat="42.66756" lon="1.39759">
        <ele>3120.58</ele>
        <time>2014-02-23T11:59:25Z</time>
      </trkpt>
      <trkpt lat="42.66761" lon="1.39755">
        <ele>3118.65</ele>
        <time>2014-02-23T11:59:36Z</time>
      </trkpt>
      <trkpt lat="42.66763" lon="1.39757">
        <ele>3116.73</ele>
        <time>2014-02-23T11:59:45Z</time>
      </trkpt>
      <trkpt lat="42.66765" lon="1.39759">
        <ele>3115.29</ele>
        <time>2014-02-23T11:59:56Z</time>
      </trkpt>
      <trkpt lat="42.66769" lon="1.39756">
        <ele>3111.92</ele>
        <time>2014-02-23T12:00:07Z</time>
      </trkpt>
      <trkpt lat="42.66771" lon="1.39751">
        <ele>3110</ele>
        <time>2014-02-23T12:00:13Z</time>
      </trkpt>
      <trkpt lat="42.66771" lon="1.39749">
        <ele>3109.52</ele>
        <time>2014-02-23T12:00:15Z</time>
      </trkpt>
      <trkpt lat="42.66777" lon="1.39746">
        <ele>3108.56</ele>
        <time>2014-02-23T12:00:26Z</time>
      </trkpt>
      <trkpt lat="42.66778" lon="1.39747">
        <ele>3109.52</ele>
        <time>2014-02-23T12:00:49Z</time>
      </trkpt>
      <trkpt lat="42.66778" lon="1.39749">
        <ele>3106.16</ele>
        <time>2014-02-23T12:01:12Z</time>
      </trkpt>
      <trkpt lat="42.66778" lon="1.39749">
        <ele>3105.68</ele>
        <time>2014-02-23T12:01:27Z</time>
      </trkpt>
      <trkpt lat="42.66779" lon="1.39747">
        <ele>3106.16</ele>
        <time>2014-02-23T12:02:00Z</time>
      </trkpt>
      <trkpt lat="42.66779" lon="1.39743">
        <ele>3102.79</ele>
        <time>2014-02-23T12:02:31Z</time>
      </trkpt>
      <trkpt lat="42.66777" lon="1.39746">
        <ele>3105.68</ele>
        <time>2014-02-23T12:02:58Z</time>
      </trkpt>
      <trkpt lat="42.66777" lon="1.39748">
        <ele>3107.12</ele>
        <time>2014-02-23T12:03:18Z</time>
      </trkpt>
      <trkpt lat="42.66777" lon="1.3975">
        <ele>3109.52</ele>
        <time>2014-02-23T12:03:42Z</time>
      </trkpt>
      <trkpt lat="42.66778" lon="1.39752">
        <ele>3109.52</ele>
        <time>2014-02-23T12:04:17Z</time>
      </trkpt>
      <trkpt lat="42.66779" lon="1.39749">
        <ele>3107.6</ele>
        <time>2014-02-23T12:04:47Z</time>
      </trkpt>
      <trkpt lat="42.66778" lon="1.39751">
        <ele>3107.6</ele>
        <time>2014-02-23T12:05:26Z</time>
      </trkpt>
      <trkpt lat="42.66777" lon="1.39751">
        <ele>3108.56</ele>
        <time>2014-02-23T12:05:59Z</time>
      </trkpt>
      <trkpt lat="42.66776" lon="1.39749">
        <ele>3109.04</ele>
        <time>2014-02-23T12:06:36Z</time>
      </trkpt>
      <trkpt lat="42.66775" lon="1.3975">
        <ele>3105.2</ele>
        <time>2014-02-23T12:07:08Z</time>
      </trkpt>
      <trkpt lat="42.66778" lon="1.39749">
        <ele>3104.23</ele>
        <time>2014-02-23T12:07:46Z</time>
      </trkpt>
      <trkpt lat="42.66778" lon="1.39748">
        <ele>3103.75</ele>
        <time>2014-02-23T12:08:15Z</time>
      </trkpt>
      <trkpt lat="42.66778" lon="1.39748">
        <ele>3105.68</ele>
        <time>2014-02-23T12:08:47Z</time>
      </trkpt>
      <trkpt lat="42.6678" lon="1.39751">
        <ele>3107.6</ele>
        <time>2014-02-23T12:09:26Z</time>
      </trkpt>
      <trkpt lat="42.66778" lon="1.39749">
        <ele>3106.64</ele>
        <time>2014-02-23T12:10:03Z</time>
      </trkpt>
      <trkpt lat="42.66781" lon="1.39747">
        <ele>3106.16</ele>
        <time>2014-02-23T12:10:37Z</time>
      </trkpt>
      <trkpt lat="42.66779" lon="1.39751">
        <ele>3108.56</ele>
        <time>2014-02-23T12:11:20Z</time>
      </trkpt>
      <trkpt lat="42.66778" lon="1.39748">
        <ele>3104.71</ele>
        <time>2014-02-23T12:11:48Z</time>
      </trkpt>
      <trkpt lat="42.66777" lon="1.39748">
        <ele>3102.79</ele>
        <time>2014-02-23T12:12:13Z</time>
      </trkpt>
      <trkpt lat="42.66779" lon="1.39748">
        <ele>3102.31</ele>
        <time>2014-02-23T12:12:50Z</time>
      </trkpt>
      <trkpt lat="42.66779" lon="1.39748">
        <ele>3100.87</ele>
        <time>2014-02-23T12:13:17Z</time>
      </trkpt>
      <trkpt lat="42.66779" lon="1.39748">
        <ele>3100.39</ele>
        <time>2014-02-23T12:13:40Z</time>
      </trkpt>
      <trkpt lat="42.66778" lon="1.39749">
        <ele>3105.2</ele>
        <time>2014-02-23T12:14:08Z</time>
      </trkpt>
      <trkpt lat="42.66778" lon="1.39747">
        <ele>3104.23</ele>
        <time>2014-02-23T12:14:46Z</time>
      </trkpt>
      <trkpt lat="42.66778" lon="1.39749">
        <ele>3106.16</ele>
        <time>2014-02-23T12:15:22Z</time>
      </trkpt>
      <trkpt lat="42.66777" lon="1.39749">
        <ele>3103.75</ele>
        <time>2014-02-23T12:15:44Z</time>
      </trkpt>
      <trkpt lat="42.66779" lon="1.39747">
        <ele>3100.39</ele>
        <time>2014-02-23T12:16:11Z</time>
      </trkpt>
      <trkpt lat="42.66778" lon="1.39746">
        <ele>3098.47</ele>
        <time>2014-02-23T12:16:46Z</time>
      </trkpt>
      <trkpt lat="42.66779" lon="1.39748">
        <ele>3101.35</ele>
        <time>2014-02-23T12:17:16Z</time>
      </trkpt>
      <trkpt lat="42.66779" lon="1.39748">
        <ele>3100.39</ele>
        <time>2014-02-23T12:17:45Z</time>
      </trkpt>
      <trkpt lat="42.66781" lon="1.39747">
        <ele>3100.39</ele>
        <time>2014-02-23T12:18:08Z</time>
      </trkpt>
      <trkpt lat="42.66778" lon="1.39748">
        <ele>3099.91</ele>
        <time>2014-02-23T12:18:42Z</time>
      </trkpt>
      <trkpt lat="42.66778" lon="1.39747">
        <ele>3098.47</ele>
        <time>2014-02-23T12:19:06Z</time>
      </trkpt>
      <trkpt lat="42.66778" lon="1.39748">
        <ele>3099.91</ele>
        <time>2014-02-23T12:19:40Z</time>
      </trkpt>
      <trkpt lat="42.66776" lon="1.39749">
        <ele>3099.43</ele>
        <time>2014-02-23T12:20:22Z</time>
      </trkpt>
      <trkpt lat="42.66777" lon="1.39748">
        <ele>3099.91</ele>
        <time>2014-02-23T12:20:35Z</time>
      </trkpt>
      <trkpt lat="42.66778" lon="1.39748">
        <ele>3099.43</ele>
        <time>2014-02-23T12:20:44Z</time>
      </trkpt>
      <trkpt lat="42.66778" lon="1.39747">
        <ele>3099.91</ele>
        <time>2014-02-23T12:21:02Z</time>
      </trkpt>
      <trkpt lat="42.66777" lon="1.39746">
        <ele>3101.35</ele>
        <time>2014-02-23T12:21:15Z</time>
      </trkpt>
      <trkpt lat="42.66779" lon="1.39748">
        <ele>3102.31</ele>
        <time>2014-02-23T12:21:27Z</time>
      </trkpt>
      <trkpt lat="42.66779" lon="1.39749">
        <ele>3102.79</ele>
        <time>2014-02-23T12:21:41Z</time>
      </trkpt>
      <trkpt lat="42.6678" lon="1.39751">
        <ele>3101.83</ele>
        <time>2014-02-23T12:21:42Z</time>
      </trkpt>
      <trkpt lat="42.66782" lon="1.39754">
        <ele>3101.35</ele>
        <time>2014-02-23T12:21:43Z</time>
      </trkpt>
      <trkpt lat="42.66784" lon="1.39762">
        <ele>3098.47</ele>
        <time>2014-02-23T12:21:45Z</time>
      </trkpt>
      <trkpt lat="42.66785" lon="1.39767">
        <ele>3096.54</ele>
        <time>2014-02-23T12:21:46Z</time>
      </trkpt>
      <trkpt lat="42.66787" lon="1.3977">
        <ele>3094.62</ele>
        <time>2014-02-23T12:21:47Z</time>
      </trkpt>
      <trkpt lat="42.66788" lon="1.39775">
        <ele>3092.7</ele>
        <time>2014-02-23T12:21:48Z</time>
      </trkpt>
      <trkpt lat="42.66789" lon="1.39779">
        <ele>3090.78</ele>
        <time>2014-02-23T12:21:49Z</time>
      </trkpt>
      <trkpt lat="42.66791" lon="1.39782">
        <ele>3088.85</ele>
        <time>2014-02-23T12:21:50Z</time>
      </trkpt>
      <trkpt lat="42.6679" lon="1.39785">
        <ele>3086.93</ele>
        <time>2014-02-23T12:21:51Z</time>
      </trkpt>
      <trkpt lat="42.66791" lon="1.39787">
        <ele>3084.53</ele>
        <time>2014-02-23T12:21:55Z</time>
      </trkpt>
      <trkpt lat="42.66793" lon="1.39788">
        <ele>3084.05</ele>
        <time>2014-02-23T12:21:56Z</time>
      </trkpt>
      <trkpt lat="42.66796" lon="1.39791">
        <ele>3083.09</ele>
        <time>2014-02-23T12:21:57Z</time>
      </trkpt>
      <trkpt lat="42.66797" lon="1.39795">
        <ele>3082.12</ele>
        <time>2014-02-23T12:21:58Z</time>
      </trkpt>
      <trkpt lat="42.66802" lon="1.39802">
        <ele>3078.76</ele>
        <time>2014-02-23T12:22:00Z</time>
      </trkpt>
      <trkpt lat="42.66802" lon="1.39806">
        <ele>3077.32</ele>
        <time>2014-02-23T12:22:01Z</time>
      </trkpt>
      <trkpt lat="42.66803" lon="1.3981">
        <ele>3075.4</ele>
        <time>2014-02-23T12:22:02Z</time>
      </trkpt>
      <trkpt lat="42.66805" lon="1.39814">
        <ele>3073.47</ele>
        <time>2014-02-23T12:22:03Z</time>
      </trkpt>
      <trkpt lat="42.66806" lon="1.39817">
        <ele>3071.55</ele>
        <time>2014-02-23T12:22:04Z</time>
      </trkpt>
      <trkpt lat="42.66809" lon="1.39821">
        <ele>3070.11</ele>
        <time>2014-02-23T12:22:05Z</time>
      </trkpt>
      <trkpt lat="42.66811" lon="1.39826">
        <ele>3068.19</ele>
        <time>2014-02-23T12:22:06Z</time>
      </trkpt>
      <trkpt lat="42.66813" lon="1.3983">
        <ele>3066.74</ele>
        <time>2014-02-23T12:22:07Z</time>
      </trkpt>
      <trkpt lat="42.66817" lon="1.3983">
        <ele>3064.82</ele>
        <time>2014-02-23T12:22:08Z</time>
      </trkpt>
      <trkpt lat="42.66822" lon="1.3983">
        <ele>3063.86</ele>
        <time>2014-02-23T12:22:09Z</time>
      </trkpt>
      <trkpt lat="42.66827" lon="1.39829">
        <ele>3062.9</ele>
        <time>2014-02-23T12:22:10Z</time>
      </trkpt>
      <trkpt lat="42.6683" lon="1.39832">
        <ele>3061.46</ele>
        <time>2014-02-23T12:22:11Z</time>
      </trkpt>
      <trkpt lat="42.66831" lon="1.39839">
        <ele>3059.53</ele>
        <time>2014-02-23T12:22:12Z</time>
      </trkpt>
      <trkpt lat="42.6683" lon="1.39847">
        <ele>3057.61</ele>
        <time>2014-02-23T12:22:13Z</time>
      </trkpt>
      <trkpt lat="42.66832" lon="1.39855">
        <ele>3055.69</ele>
        <time>2014-02-23T12:22:14Z</time>
      </trkpt>
      <trkpt lat="42.66835" lon="1.39862">
        <ele>3054.25</ele>
        <time>2014-02-23T12:22:15Z</time>
      </trkpt>
      <trkpt lat="42.66839" lon="1.39866">
        <ele>3053.28</ele>
        <time>2014-02-23T12:22:16Z</time>
      </trkpt>
      <trkpt lat="42.66842" lon="1.39868">
        <ele>3052.8</ele>
        <time>2014-02-23T12:22:17Z</time>
      </trkpt>
      <trkpt lat="42.66842" lon="1.39868">
        <ele>3051.84</ele>
        <time>2014-02-23T12:22:25Z</time>
      </trkpt>
      <trkpt lat="42.66842" lon="1.39869">
        <ele>3052.32</ele>
        <time>2014-02-23T12:22:52Z</time>
      </trkpt>
      <trkpt lat="42.66843" lon="1.39869">
        <ele>3053.28</ele>
        <time>2014-02-23T12:23:11Z</time>
      </trkpt>
      <trkpt lat="42.66842" lon="1.39869">
        <ele>3054.25</ele>
        <time>2014-02-23T12:23:28Z</time>
      </trkpt>
      <trkpt lat="42.66843" lon="1.39869">
        <ele>3052.32</ele>
        <time>2014-02-23T12:23:54Z</time>
      </trkpt>
      <trkpt lat="42.66842" lon="1.39869">
        <ele>3052.32</ele>
        <time>2014-02-23T12:23:58Z</time>
      </trkpt>
      <trkpt lat="42.66838" lon="1.39888">
        <ele>3049.44</ele>
        <time>2014-02-23T12:24:04Z</time>
      </trkpt>
      <trkpt lat="42.6684" lon="1.3989">
        <ele>3049.44</ele>
        <time>2014-02-23T12:24:05Z</time>
      </trkpt>
      <trkpt lat="42.66842" lon="1.39891">
        <ele>3048.96</ele>
        <time>2014-02-23T12:24:06Z</time>
      </trkpt>
      <trkpt lat="42.66845" lon="1.39892">
        <ele>3048</ele>
        <time>2014-02-23T12:24:07Z</time>
      </trkpt>
      <trkpt lat="42.66847" lon="1.39893">
        <ele>3047.52</ele>
        <time>2014-02-23T12:24:08Z</time>
      </trkpt>
      <trkpt lat="42.6685" lon="1.39894">
        <ele>3047.04</ele>
        <time>2014-02-23T12:24:09Z</time>
      </trkpt>
      <trkpt lat="42.66851" lon="1.39896">
        <ele>3046.56</ele>
        <time>2014-02-23T12:24:10Z</time>
      </trkpt>
      <trkpt lat="42.66851" lon="1.399">
        <ele>3045.11</ele>
        <time>2014-02-23T12:24:11Z</time>
      </trkpt>
      <trkpt lat="42.66852" lon="1.39903">
        <ele>3044.15</ele>
        <time>2014-02-23T12:24:12Z</time>
      </trkpt>
      <trkpt lat="42.66854" lon="1.39906">
        <ele>3043.19</ele>
        <time>2014-02-23T12:24:13Z</time>
      </trkpt>
      <trkpt lat="42.66854" lon="1.39909">
        <ele>3041.75</ele>
        <time>2014-02-23T12:24:14Z</time>
      </trkpt>
      <trkpt lat="42.66856" lon="1.39912">
        <ele>3040.31</ele>
        <time>2014-02-23T12:24:15Z</time>
      </trkpt>
      <trkpt lat="42.66857" lon="1.39915">
        <ele>3039.35</ele>
        <time>2014-02-23T12:24:16Z</time>
      </trkpt>
      <trkpt lat="42.66859" lon="1.39918">
        <ele>3037.9</ele>
        <time>2014-02-23T12:24:17Z</time>
      </trkpt>
      <trkpt lat="42.66862" lon="1.3992">
        <ele>3036.94</ele>
        <time>2014-02-23T12:24:18Z</time>
      </trkpt>
      <trkpt lat="42.66864" lon="1.39922">
        <ele>3035.98</ele>
        <time>2014-02-23T12:24:19Z</time>
      </trkpt>
      <trkpt lat="42.66866" lon="1.39925">
        <ele>3035.02</ele>
        <time>2014-02-23T12:24:20Z</time>
      </trkpt>
      <trkpt lat="42.66869" lon="1.39928">
        <ele>3033.58</ele>
        <time>2014-02-23T12:24:21Z</time>
      </trkpt>
      <trkpt lat="42.66872" lon="1.39937">
        <ele>3030.21</ele>
        <time>2014-02-23T12:24:24Z</time>
      </trkpt>
      <trkpt lat="42.66874" lon="1.39936">
        <ele>3029.25</ele>
        <time>2014-02-23T12:24:25Z</time>
      </trkpt>
      <trkpt lat="42.66878" lon="1.39936">
        <ele>3027.81</ele>
        <time>2014-02-23T12:24:26Z</time>
      </trkpt>
      <trkpt lat="42.6688" lon="1.39939">
        <ele>3026.85</ele>
        <time>2014-02-23T12:24:27Z</time>
      </trkpt>
      <trkpt lat="42.66881" lon="1.39942">
        <ele>3025.41</ele>
        <time>2014-02-23T12:24:28Z</time>
      </trkpt>
      <trkpt lat="42.66884" lon="1.39946">
        <ele>3023.96</ele>
        <time>2014-02-23T12:24:29Z</time>
      </trkpt>
      <trkpt lat="42.66895" lon="1.3996">
        <ele>3016.75</ele>
        <time>2014-02-23T12:24:34Z</time>
      </trkpt>
      <trkpt lat="42.66906" lon="1.39965">
        <ele>3010.99</ele>
        <time>2014-02-23T12:24:38Z</time>
      </trkpt>
      <trkpt lat="42.66909" lon="1.39966">
        <ele>3009.54</ele>
        <time>2014-02-23T12:24:39Z</time>
      </trkpt>
      <trkpt lat="42.66912" lon="1.39969">
        <ele>3008.1</ele>
        <time>2014-02-23T12:24:40Z</time>
      </trkpt>
      <trkpt lat="42.66916" lon="1.39971">
        <ele>3006.66</ele>
        <time>2014-02-23T12:24:41Z</time>
      </trkpt>
      <trkpt lat="42.66931" lon="1.39981">
        <ele>2998.49</ele>
        <time>2014-02-23T12:24:46Z</time>
      </trkpt>
      <trkpt lat="42.66948" lon="1.39982">
        <ele>2991.76</ele>
        <time>2014-02-23T12:24:51Z</time>
      </trkpt>
      <trkpt lat="42.66969" lon="1.39994">
        <ele>2981.67</ele>
        <time>2014-02-23T12:24:57Z</time>
      </trkpt>
      <trkpt lat="42.66973" lon="1.39999">
        <ele>2976.86</ele>
        <time>2014-02-23T12:25:02Z</time>
      </trkpt>
      <trkpt lat="42.66974" lon="1.4">
        <ele>2976.86</ele>
        <time>2014-02-23T12:25:15Z</time>
      </trkpt>
      <trkpt lat="42.66978" lon="1.40015">
        <ele>2974.46</ele>
        <time>2014-02-23T12:25:20Z</time>
      </trkpt>
      <trkpt lat="42.66998" lon="1.40031">
        <ele>2968.21</ele>
        <time>2014-02-23T12:25:26Z</time>
      </trkpt>
      <trkpt lat="42.67009" lon="1.40035">
        <ele>2962.92</ele>
        <time>2014-02-23T12:25:29Z</time>
      </trkpt>
      <trkpt lat="42.67027" lon="1.4005">
        <ele>2951.38</ele>
        <time>2014-02-23T12:25:35Z</time>
      </trkpt>
      <trkpt lat="42.67028" lon="1.40054">
        <ele>2950.42</ele>
        <time>2014-02-23T12:25:36Z</time>
      </trkpt>
      <trkpt lat="42.67034" lon="1.40077">
        <ele>2947.54</ele>
        <time>2014-02-23T12:25:41Z</time>
      </trkpt>
      <trkpt lat="42.67056" lon="1.40135">
        <ele>2940.33</ele>
        <time>2014-02-23T12:25:49Z</time>
      </trkpt>
      <trkpt lat="42.67059" lon="1.40135">
        <ele>2940.33</ele>
        <time>2014-02-23T12:25:55Z</time>
      </trkpt>
      <trkpt lat="42.6706" lon="1.40133">
        <ele>2939.85</ele>
        <time>2014-02-23T12:26:18Z</time>
      </trkpt>
      <trkpt lat="42.6706" lon="1.40133">
        <ele>2939.37</ele>
        <time>2014-02-23T12:26:31Z</time>
      </trkpt>
      <trkpt lat="42.67065" lon="1.40128">
        <ele>2938.89</ele>
        <time>2014-02-23T12:26:34Z</time>
      </trkpt>
      <trkpt lat="42.67071" lon="1.40107">
        <ele>2933.6</ele>
        <time>2014-02-23T12:26:38Z</time>
      </trkpt>
      <trkpt lat="42.67073" lon="1.40102">
        <ele>2931.68</ele>
        <time>2014-02-23T12:26:39Z</time>
      </trkpt>
      <trkpt lat="42.67083" lon="1.40092">
        <ele>2927.83</ele>
        <time>2014-02-23T12:26:42Z</time>
      </trkpt>
      <trkpt lat="42.67083" lon="1.4008">
        <ele>2925.43</ele>
        <time>2014-02-23T12:26:44Z</time>
      </trkpt>
      <trkpt lat="42.67085" lon="1.40073">
        <ele>2924.47</ele>
        <time>2014-02-23T12:26:45Z</time>
      </trkpt>
      <trkpt lat="42.67088" lon="1.40068">
        <ele>2923.03</ele>
        <time>2014-02-23T12:26:46Z</time>
      </trkpt>
      <trkpt lat="42.67089" lon="1.40062">
        <ele>2921.58</ele>
        <time>2014-02-23T12:26:47Z</time>
      </trkpt>
      <trkpt lat="42.67088" lon="1.40057">
        <ele>2920.62</ele>
        <time>2014-02-23T12:26:48Z</time>
      </trkpt>
      <trkpt lat="42.67089" lon="1.40058">
        <ele>2919.18</ele>
        <time>2014-02-23T12:26:56Z</time>
      </trkpt>
      <trkpt lat="42.67089" lon="1.40057">
        <ele>2920.14</ele>
        <time>2014-02-23T12:27:07Z</time>
      </trkpt>
      <trkpt lat="42.6709" lon="1.40055">
        <ele>2920.14</ele>
        <time>2014-02-23T12:27:08Z</time>
      </trkpt>
      <trkpt lat="42.67096" lon="1.40053">
        <ele>2919.18</ele>
        <time>2014-02-23T12:27:10Z</time>
      </trkpt>
      <trkpt lat="42.671" lon="1.40052">
        <ele>2918.7</ele>
        <time>2014-02-23T12:27:11Z</time>
      </trkpt>
      <trkpt lat="42.67103" lon="1.40048">
        <ele>2917.74</ele>
        <time>2014-02-23T12:27:12Z</time>
      </trkpt>
      <trkpt lat="42.67106" lon="1.40045">
        <ele>2916.78</ele>
        <time>2014-02-23T12:27:13Z</time>
      </trkpt>
      <trkpt lat="42.67109" lon="1.40042">
        <ele>2915.82</ele>
        <time>2014-02-23T12:27:14Z</time>
      </trkpt>
      <trkpt lat="42.67112" lon="1.40037">
        <ele>2914.85</ele>
        <time>2014-02-23T12:27:15Z</time>
      </trkpt>
      <trkpt lat="42.67114" lon="1.40031">
        <ele>2913.41</ele>
        <time>2014-02-23T12:27:16Z</time>
      </trkpt>
      <trkpt lat="42.67117" lon="1.40025">
        <ele>2911.97</ele>
        <time>2014-02-23T12:27:17Z</time>
      </trkpt>
      <trkpt lat="42.67121" lon="1.4002">
        <ele>2910.05</ele>
        <time>2014-02-23T12:27:18Z</time>
      </trkpt>
      <trkpt lat="42.67124" lon="1.40018">
        <ele>2908.61</ele>
        <time>2014-02-23T12:27:19Z</time>
      </trkpt>
      <trkpt lat="42.67125" lon="1.40019">
        <ele>2904.28</ele>
        <time>2014-02-23T12:27:27Z</time>
      </trkpt>
      <trkpt lat="42.67126" lon="1.4001">
        <ele>2903.32</ele>
        <time>2014-02-23T12:27:29Z</time>
      </trkpt>
      <trkpt lat="42.67137" lon="1.39984">
        <ele>2899.95</ele>
        <time>2014-02-23T12:27:33Z</time>
      </trkpt>
      <trkpt lat="42.67141" lon="1.39978">
        <ele>2898.99</ele>
        <time>2014-02-23T12:27:34Z</time>
      </trkpt>
      <trkpt lat="42.67144" lon="1.39973">
        <ele>2898.99</ele>
        <time>2014-02-23T12:27:35Z</time>
      </trkpt>
      <trkpt lat="42.67147" lon="1.39968">
        <ele>2898.51</ele>
        <time>2014-02-23T12:27:36Z</time>
      </trkpt>
      <trkpt lat="42.6715" lon="1.39964">
        <ele>2898.03</ele>
        <time>2014-02-23T12:27:37Z</time>
      </trkpt>
      <trkpt lat="42.67154" lon="1.39961">
        <ele>2897.55</ele>
        <time>2014-02-23T12:27:38Z</time>
      </trkpt>
      <trkpt lat="42.67157" lon="1.39958">
        <ele>2897.07</ele>
        <time>2014-02-23T12:27:39Z</time>
      </trkpt>
      <trkpt lat="42.67163" lon="1.39955">
        <ele>2896.11</ele>
        <time>2014-02-23T12:27:41Z</time>
      </trkpt>
      <trkpt lat="42.6718" lon="1.39957">
        <ele>2890.34</ele>
        <time>2014-02-23T12:27:45Z</time>
      </trkpt>
      <trkpt lat="42.67222" lon="1.39941">
        <ele>2881.21</ele>
        <time>2014-02-23T12:27:50Z</time>
      </trkpt>
      <trkpt lat="42.67267" lon="1.39944">
        <ele>2876.4</ele>
        <time>2014-02-23T12:27:57Z</time>
      </trkpt>
      <trkpt lat="42.67272" lon="1.39942">
        <ele>2875.92</ele>
        <time>2014-02-23T12:27:58Z</time>
      </trkpt>
      <trkpt lat="42.67294" lon="1.39946">
        <ele>2870.63</ele>
        <time>2014-02-23T12:28:04Z</time>
      </trkpt>
      <trkpt lat="42.67298" lon="1.39947">
        <ele>2869.67</ele>
        <time>2014-02-23T12:28:10Z</time>
      </trkpt>
      <trkpt lat="42.67298" lon="1.39948">
        <ele>2870.15</ele>
        <time>2014-02-23T12:28:25Z</time>
      </trkpt>
      <trkpt lat="42.67299" lon="1.39948">
        <ele>2869.67</ele>
        <time>2014-02-23T12:28:43Z</time>
      </trkpt>
      <trkpt lat="42.67299" lon="1.39948">
        <ele>2870.63</ele>
        <time>2014-02-23T12:29:02Z</time>
      </trkpt>
      <trkpt lat="42.67299" lon="1.39947">
        <ele>2872.08</ele>
        <time>2014-02-23T12:29:20Z</time>
      </trkpt>
      <trkpt lat="42.67299" lon="1.39946">
        <ele>2872.08</ele>
        <time>2014-02-23T12:29:36Z</time>
      </trkpt>
      <trkpt lat="42.67299" lon="1.39946">
        <ele>2872.08</ele>
        <time>2014-02-23T12:29:51Z</time>
      </trkpt>
      <trkpt lat="42.67299" lon="1.39947">
        <ele>2872.08</ele>
        <time>2014-02-23T12:30:05Z</time>
      </trkpt>
      <trkpt lat="42.67299" lon="1.39947">
        <ele>2872.56</ele>
        <time>2014-02-23T12:30:23Z</time>
      </trkpt>
      <trkpt lat="42.67299" lon="1.39947">
        <ele>2873.04</ele>
        <time>2014-02-23T12:30:44Z</time>
      </trkpt>
      <trkpt lat="42.67299" lon="1.39948">
        <ele>2872.56</ele>
        <time>2014-02-23T12:30:56Z</time>
      </trkpt>
      <trkpt lat="42.673" lon="1.39947">
        <ele>2871.6</ele>
        <time>2014-02-23T12:31:13Z</time>
      </trkpt>
      <trkpt lat="42.67299" lon="1.3995">
        <ele>2872.08</ele>
        <time>2014-02-23T12:31:33Z</time>
      </trkpt>
      <trkpt lat="42.67299" lon="1.3995">
        <ele>2872.56</ele>
        <time>2014-02-23T12:31:58Z</time>
      </trkpt>
      <trkpt lat="42.67299" lon="1.39951">
        <ele>2873.04</ele>
        <time>2014-02-23T12:32:17Z</time>
      </trkpt>
      <trkpt lat="42.67315" lon="1.39967">
        <ele>2867.27</ele>
        <time>2014-02-23T12:32:24Z</time>
      </trkpt>
      <trkpt lat="42.67342" lon="1.39982">
        <ele>2856.21</ele>
        <time>2014-02-23T12:32:29Z</time>
      </trkpt>
      <trkpt lat="42.67357" lon="1.39984">
        <ele>2853.33</ele>
        <time>2014-02-23T12:32:31Z</time>
      </trkpt>
      <trkpt lat="42.67376" lon="1.40014">
        <ele>2847.56</ele>
        <time>2014-02-23T12:32:36Z</time>
      </trkpt>
      <trkpt lat="42.67392" lon="1.40054">
        <ele>2843.72</ele>
        <time>2014-02-23T12:32:44Z</time>
      </trkpt>
      <trkpt lat="42.67395" lon="1.40055">
        <ele>2843.72</ele>
        <time>2014-02-23T12:32:54Z</time>
      </trkpt>
      <trkpt lat="42.67396" lon="1.40055">
        <ele>2844.68</ele>
        <time>2014-02-23T12:33:16Z</time>
      </trkpt>
      <trkpt lat="42.67411" lon="1.40037">
        <ele>2839.39</ele>
        <time>2014-02-23T12:33:24Z</time>
      </trkpt>
      <trkpt lat="42.6743" lon="1.40028">
        <ele>2834.58</ele>
        <time>2014-02-23T12:33:29Z</time>
      </trkpt>
      <trkpt lat="42.67448" lon="1.40024">
        <ele>2830.26</ele>
        <time>2014-02-23T12:33:33Z</time>
      </trkpt>
      <trkpt lat="42.67452" lon="1.40022">
        <ele>2827.85</ele>
        <time>2014-02-23T12:33:39Z</time>
      </trkpt>
      <trkpt lat="42.67451" lon="1.40024">
        <ele>2828.34</ele>
        <time>2014-02-23T12:33:59Z</time>
      </trkpt>
      <trkpt lat="42.67455" lon="1.40022">
        <ele>2827.37</ele>
        <time>2014-02-23T12:34:01Z</time>
      </trkpt>
      <trkpt lat="42.67492" lon="1.40026">
        <ele>2811.51</ele>
        <time>2014-02-23T12:34:09Z</time>
      </trkpt>
      <trkpt lat="42.67521" lon="1.40018">
        <ele>2794.69</ele>
        <time>2014-02-23T12:34:15Z</time>
      </trkpt>
      <trkpt lat="42.67532" lon="1.40021">
        <ele>2786.04</ele>
        <time>2014-02-23T12:34:19Z</time>
      </trkpt>
      <trkpt lat="42.67531" lon="1.40021">
        <ele>2785.56</ele>
        <time>2014-02-23T12:34:33Z</time>
      </trkpt>
      <trkpt lat="42.67531" lon="1.40021">
        <ele>2785.56</ele>
        <time>2014-02-23T12:34:36Z</time>
      </trkpt>
      <trkpt lat="42.6755" lon="1.40024">
        <ele>2777.87</ele>
        <time>2014-02-23T12:34:42Z</time>
      </trkpt>
      <trkpt lat="42.67553" lon="1.40016">
        <ele>2774.98</ele>
        <time>2014-02-23T12:34:44Z</time>
      </trkpt>
      <trkpt lat="42.67555" lon="1.40002">
        <ele>2773.06</ele>
        <time>2014-02-23T12:34:47Z</time>
      </trkpt>
      <trkpt lat="42.67573" lon="1.39987">
        <ele>2767.77</ele>
        <time>2014-02-23T12:34:52Z</time>
      </trkpt>
      <trkpt lat="42.67593" lon="1.39974">
        <ele>2760.08</ele>
        <time>2014-02-23T12:34:57Z</time>
      </trkpt>
      <trkpt lat="42.67602" lon="1.39956">
        <ele>2754.8</ele>
        <time>2014-02-23T12:35:02Z</time>
      </trkpt>
      <trkpt lat="42.67616" lon="1.39957">
        <ele>2748.07</ele>
        <time>2014-02-23T12:35:06Z</time>
      </trkpt>
      <trkpt lat="42.67635" lon="1.39954">
        <ele>2738.93</ele>
        <time>2014-02-23T12:35:11Z</time>
      </trkpt>
      <trkpt lat="42.67669" lon="1.39931">
        <ele>2723.07</ele>
        <time>2014-02-23T12:35:20Z</time>
      </trkpt>
      <trkpt lat="42.67684" lon="1.39927">
        <ele>2716.82</ele>
        <time>2014-02-23T12:35:24Z</time>
      </trkpt>
      <trkpt lat="42.67705" lon="1.39916">
        <ele>2708.65</ele>
        <time>2014-02-23T12:35:30Z</time>
      </trkpt>
      <trkpt lat="42.67709" lon="1.39918">
        <ele>2707.21</ele>
        <time>2014-02-23T12:35:37Z</time>
      </trkpt>
      <trkpt lat="42.67709" lon="1.39918">
        <ele>2709.13</ele>
        <time>2014-02-23T12:36:09Z</time>
      </trkpt>
      <trkpt lat="42.67709" lon="1.39918">
        <ele>2709.13</ele>
        <time>2014-02-23T12:36:33Z</time>
      </trkpt>
      <trkpt lat="42.67711" lon="1.39907">
        <ele>2707.69</ele>
        <time>2014-02-23T12:36:37Z</time>
      </trkpt>
      <trkpt lat="42.67729" lon="1.39847">
        <ele>2691.35</ele>
        <time>2014-02-23T12:36:45Z</time>
      </trkpt>
      <trkpt lat="42.67746" lon="1.39804">
        <ele>2682.22</ele>
        <time>2014-02-23T12:36:51Z</time>
      </trkpt>
      <trkpt lat="42.6776" lon="1.39774">
        <ele>2674.04</ele>
        <time>2014-02-23T12:36:56Z</time>
      </trkpt>
      <trkpt lat="42.67765" lon="1.39773">
        <ele>2667.8</ele>
        <time>2014-02-23T12:37:02Z</time>
      </trkpt>
      <trkpt lat="42.67768" lon="1.39771">
        <ele>2665.87</ele>
        <time>2014-02-23T12:37:07Z</time>
      </trkpt>
      <trkpt lat="42.67783" lon="1.39765">
        <ele>2661.55</ele>
        <time>2014-02-23T12:37:14Z</time>
      </trkpt>
      <trkpt lat="42.67786" lon="1.39746">
        <ele>2656.26</ele>
        <time>2014-02-23T12:37:19Z</time>
      </trkpt>
      <trkpt lat="42.67787" lon="1.39739">
        <ele>2652.42</ele>
        <time>2014-02-23T12:37:22Z</time>
      </trkpt>
      <trkpt lat="42.67794" lon="1.39716">
        <ele>2644.24</ele>
        <time>2014-02-23T12:37:28Z</time>
      </trkpt>
      <trkpt lat="42.6781" lon="1.39713">
        <ele>2637.03</ele>
        <time>2014-02-23T12:37:34Z</time>
      </trkpt>
      <trkpt lat="42.67811" lon="1.39713">
        <ele>2639.92</ele>
        <time>2014-02-23T12:38:04Z</time>
      </trkpt>
      <trkpt lat="42.67812" lon="1.39713">
        <ele>2643.28</ele>
        <time>2014-02-23T12:38:24Z</time>
      </trkpt>
      <trkpt lat="42.6781" lon="1.39712">
        <ele>2643.76</ele>
        <time>2014-02-23T12:38:40Z</time>
      </trkpt>
      <trkpt lat="42.67812" lon="1.39711">
        <ele>2642.32</ele>
        <time>2014-02-23T12:38:55Z</time>
      </trkpt>
      <trkpt lat="42.67814" lon="1.3971">
        <ele>2640.4</ele>
        <time>2014-02-23T12:39:14Z</time>
      </trkpt>
      <trkpt lat="42.67813" lon="1.3971">
        <ele>2640.4</ele>
        <time>2014-02-23T12:39:36Z</time>
      </trkpt>
      <trkpt lat="42.67813" lon="1.39712">
        <ele>2640.88</ele>
        <time>2014-02-23T12:39:59Z</time>
      </trkpt>
      <trkpt lat="42.67813" lon="1.39712">
        <ele>2641.36</ele>
        <time>2014-02-23T12:40:13Z</time>
      </trkpt>
      <trkpt lat="42.67813" lon="1.39713">
        <ele>2640.4</ele>
        <time>2014-02-23T12:40:35Z</time>
      </trkpt>
      <trkpt lat="42.67814" lon="1.39711">
        <ele>2642.32</ele>
        <time>2014-02-23T12:40:53Z</time>
      </trkpt>
      <trkpt lat="42.67813" lon="1.39711">
        <ele>2640.88</ele>
        <time>2014-02-23T12:41:07Z</time>
      </trkpt>
      <trkpt lat="42.67813" lon="1.39712">
        <ele>2640.88</ele>
        <time>2014-02-23T12:41:19Z</time>
      </trkpt>
      <trkpt lat="42.67827" lon="1.39718">
        <ele>2639.44</ele>
        <time>2014-02-23T12:41:26Z</time>
      </trkpt>
      <trkpt lat="42.67836" lon="1.39735">
        <ele>2634.63</ele>
        <time>2014-02-23T12:41:31Z</time>
      </trkpt>
      <trkpt lat="42.67846" lon="1.39744">
        <ele>2627.42</ele>
        <time>2014-02-23T12:41:35Z</time>
      </trkpt>
      <trkpt lat="42.67861" lon="1.39751">
        <ele>2617.33</ele>
        <time>2014-02-23T12:41:40Z</time>
      </trkpt>
      <trkpt lat="42.67866" lon="1.39752">
        <ele>2614.92</ele>
        <time>2014-02-23T12:41:41Z</time>
      </trkpt>
      <trkpt lat="42.67894" lon="1.39782">
        <ele>2598.58</ele>
        <time>2014-02-23T12:41:48Z</time>
      </trkpt>
      <trkpt lat="42.67914" lon="1.39804">
        <ele>2592.33</ele>
        <time>2014-02-23T12:41:51Z</time>
      </trkpt>
      <trkpt lat="42.67927" lon="1.39809">
        <ele>2584.64</ele>
        <time>2014-02-23T12:41:56Z</time>
      </trkpt>
      <trkpt lat="42.67932" lon="1.39804">
        <ele>2583.2</ele>
        <time>2014-02-23T12:42:08Z</time>
      </trkpt>
      <trkpt lat="42.67932" lon="1.39804">
        <ele>2580.8</ele>
        <time>2014-02-23T12:42:28Z</time>
      </trkpt>
      <trkpt lat="42.67933" lon="1.39804">
        <ele>2581.76</ele>
        <time>2014-02-23T12:42:49Z</time>
      </trkpt>
      <trkpt lat="42.67932" lon="1.39804">
        <ele>2581.76</ele>
        <time>2014-02-23T12:43:16Z</time>
      </trkpt>
      <trkpt lat="42.67932" lon="1.39805">
        <ele>2581.28</ele>
        <time>2014-02-23T12:43:34Z</time>
      </trkpt>
      <trkpt lat="42.67939" lon="1.39795">
        <ele>2581.28</ele>
        <time>2014-02-23T12:43:44Z</time>
      </trkpt>
      <trkpt lat="42.67945" lon="1.39786">
        <ele>2580.8</ele>
        <time>2014-02-23T12:43:47Z</time>
      </trkpt>
      <trkpt lat="42.67949" lon="1.39785">
        <ele>2579.35</ele>
        <time>2014-02-23T12:43:54Z</time>
      </trkpt>
      <trkpt lat="42.67952" lon="1.3979">
        <ele>2578.87</ele>
        <time>2014-02-23T12:43:57Z</time>
      </trkpt>
      <trkpt lat="42.67958" lon="1.39802">
        <ele>2577.91</ele>
        <time>2014-02-23T12:44:00Z</time>
      </trkpt>
      <trkpt lat="42.67955" lon="1.39821">
        <ele>2575.03</ele>
        <time>2014-02-23T12:44:07Z</time>
      </trkpt>
      <trkpt lat="42.67954" lon="1.39821">
        <ele>2574.55</ele>
        <time>2014-02-23T12:44:09Z</time>
      </trkpt>
      <trkpt lat="42.6796" lon="1.39836">
        <ele>2571.18</ele>
        <time>2014-02-23T12:44:15Z</time>
      </trkpt>
      <trkpt lat="42.67965" lon="1.39837">
        <ele>2569.74</ele>
        <time>2014-02-23T12:44:16Z</time>
      </trkpt>
      <trkpt lat="42.68009" lon="1.39831">
        <ele>2560.13</ele>
        <time>2014-02-23T12:44:24Z</time>
      </trkpt>
      <trkpt lat="42.6801" lon="1.3983">
        <ele>2560.61</ele>
        <time>2014-02-23T12:44:28Z</time>
      </trkpt>
      <trkpt lat="42.68027" lon="1.39805">
        <ele>2558.69</ele>
        <time>2014-02-23T12:44:37Z</time>
      </trkpt>
      <trkpt lat="42.68031" lon="1.39803">
        <ele>2557.24</ele>
        <time>2014-02-23T12:44:47Z</time>
      </trkpt>
      <trkpt lat="42.6803" lon="1.39805">
        <ele>2559.17</ele>
        <time>2014-02-23T12:45:14Z</time>
      </trkpt>
      <trkpt lat="42.68031" lon="1.39808">
        <ele>2559.17</ele>
        <time>2014-02-23T12:45:31Z</time>
      </trkpt>
      <trkpt lat="42.68031" lon="1.39807">
        <ele>2559.17</ele>
        <time>2014-02-23T12:45:32Z</time>
      </trkpt>
      <trkpt lat="42.68037" lon="1.39771">
        <ele>2551.96</ele>
        <time>2014-02-23T12:45:39Z</time>
      </trkpt>
      <trkpt lat="42.68037" lon="1.39743">
        <ele>2546.19</ele>
        <time>2014-02-23T12:45:43Z</time>
      </trkpt>
      <trkpt lat="42.68038" lon="1.39705">
        <ele>2536.1</ele>
        <time>2014-02-23T12:45:48Z</time>
      </trkpt>
      <trkpt lat="42.68037" lon="1.3967">
        <ele>2525.52</ele>
        <time>2014-02-23T12:45:53Z</time>
      </trkpt>
      <trkpt lat="42.68029" lon="1.3965">
        <ele>2517.35</ele>
        <time>2014-02-23T12:45:57Z</time>
      </trkpt>
      <trkpt lat="42.68031" lon="1.3963">
        <ele>2510.14</ele>
        <time>2014-02-23T12:46:02Z</time>
      </trkpt>
      <trkpt lat="42.68038" lon="1.3961">
        <ele>2505.33</ele>
        <time>2014-02-23T12:46:08Z</time>
      </trkpt>
      <trkpt lat="42.68037" lon="1.39605">
        <ele>2504.37</ele>
        <time>2014-02-23T12:46:09Z</time>
      </trkpt>
      <trkpt lat="42.68041" lon="1.39572">
        <ele>2497.64</ele>
        <time>2014-02-23T12:46:15Z</time>
      </trkpt>
      <trkpt lat="42.68036" lon="1.39568">
        <ele>2491.87</ele>
        <time>2014-02-23T12:46:19Z</time>
      </trkpt>
      <trkpt lat="42.68036" lon="1.39569">
        <ele>2490.91</ele>
        <time>2014-02-23T12:46:20Z</time>
      </trkpt>
      <trkpt lat="42.68039" lon="1.3955">
        <ele>2482.26</ele>
        <time>2014-02-23T12:46:26Z</time>
      </trkpt>
      <trkpt lat="42.6804" lon="1.39536">
        <ele>2478.42</ele>
        <time>2014-02-23T12:46:30Z</time>
      </trkpt>
      <trkpt lat="42.68036" lon="1.39531">
        <ele>2472.17</ele>
        <time>2014-02-23T12:46:36Z</time>
      </trkpt>
      <trkpt lat="42.68036" lon="1.39532">
        <ele>2470.73</ele>
        <time>2014-02-23T12:46:44Z</time>
      </trkpt>
      <trkpt lat="42.68041" lon="1.39513">
        <ele>2463.52</ele>
        <time>2014-02-23T12:46:50Z</time>
      </trkpt>
      <trkpt lat="42.68043" lon="1.39491">
        <ele>2453.9</ele>
        <time>2014-02-23T12:46:55Z</time>
      </trkpt>
      <trkpt lat="42.68044" lon="1.39486">
        <ele>2446.21</ele>
        <time>2014-02-23T12:46:59Z</time>
      </trkpt>
      <trkpt lat="42.68044" lon="1.39485">
        <ele>2442.85</ele>
        <time>2014-02-23T12:47:15Z</time>
      </trkpt>
      <trkpt lat="42.68045" lon="1.39484">
        <ele>2440.44</ele>
        <time>2014-02-23T12:47:22Z</time>
      </trkpt>
      <trkpt lat="42.68047" lon="1.39482">
        <ele>2439</ele>
        <time>2014-02-23T12:47:25Z</time>
      </trkpt>
      <trkpt lat="42.68053" lon="1.39461">
        <ele>2434.68</ele>
        <time>2014-02-23T12:47:30Z</time>
      </trkpt>
      <trkpt lat="42.68064" lon="1.39434">
        <ele>2428.43</ele>
        <time>2014-02-23T12:47:35Z</time>
      </trkpt>
      <trkpt lat="42.68068" lon="1.39427">
        <ele>2426.5</ele>
        <time>2014-02-23T12:47:37Z</time>
      </trkpt>
      <trkpt lat="42.68075" lon="1.39414">
        <ele>2424.58</ele>
        <time>2014-02-23T12:47:40Z</time>
      </trkpt>
      <trkpt lat="42.68089" lon="1.3939">
        <ele>2422.18</ele>
        <time>2014-02-23T12:47:45Z</time>
      </trkpt>
      <trkpt lat="42.68094" lon="1.39379">
        <ele>2421.7</ele>
        <time>2014-02-23T12:47:47Z</time>
      </trkpt>
      <trkpt lat="42.68112" lon="1.39345">
        <ele>2419.78</ele>
        <time>2014-02-23T12:47:56Z</time>
      </trkpt>
      <trkpt lat="42.68131" lon="1.3934">
        <ele>2415.45</ele>
        <time>2014-02-23T12:48:05Z</time>
      </trkpt>
      <trkpt lat="42.68143" lon="1.3934">
        <ele>2414.49</ele>
        <time>2014-02-23T12:48:09Z</time>
      </trkpt>
      <trkpt lat="42.6817" lon="1.39352">
        <ele>2410.16</ele>
        <time>2014-02-23T12:48:21Z</time>
      </trkpt>
      <trkpt lat="42.68169" lon="1.39353">
        <ele>2409.68</ele>
        <time>2014-02-23T12:48:42Z</time>
      </trkpt>
      <trkpt lat="42.68171" lon="1.39354">
        <ele>2412.09</ele>
        <time>2014-02-23T12:49:00Z</time>
      </trkpt>
      <trkpt lat="42.68171" lon="1.39353">
        <ele>2414.01</ele>
        <time>2014-02-23T12:49:23Z</time>
      </trkpt>
      <trkpt lat="42.68172" lon="1.39354">
        <ele>2413.05</ele>
        <time>2014-02-23T12:49:44Z</time>
      </trkpt>
      <trkpt lat="42.68195" lon="1.39368">
        <ele>2409.68</ele>
        <time>2014-02-23T12:49:56Z</time>
      </trkpt>
      <trkpt lat="42.682" lon="1.39371">
        <ele>2408.72</ele>
        <time>2014-02-23T12:49:59Z</time>
      </trkpt>
      <trkpt lat="42.6823" lon="1.39395">
        <ele>2404.39</ele>
        <time>2014-02-23T12:50:12Z</time>
      </trkpt>
      <trkpt lat="42.68276" lon="1.39428">
        <ele>2397.67</ele>
        <time>2014-02-23T12:50:21Z</time>
      </trkpt>
      <trkpt lat="42.68357" lon="1.3946">
        <ele>2382.76</ele>
        <time>2014-02-23T12:50:30Z</time>
      </trkpt>
      <trkpt lat="42.68366" lon="1.39464">
        <ele>2381.32</ele>
        <time>2014-02-23T12:50:31Z</time>
      </trkpt>
      <trkpt lat="42.68452" lon="1.39489">
        <ele>2367.86</ele>
        <time>2014-02-23T12:50:41Z</time>
      </trkpt>
      <trkpt lat="42.68486" lon="1.39504">
        <ele>2364.02</ele>
        <time>2014-02-23T12:50:50Z</time>
      </trkpt>
      <trkpt lat="42.68509" lon="1.39515">
        <ele>2364.98</ele>
        <time>2014-02-23T12:51:05Z</time>
      </trkpt>
      <trkpt lat="42.6853" lon="1.39522">
        <ele>2363.06</ele>
        <time>2014-02-23T12:51:14Z</time>
      </trkpt>
      <trkpt lat="42.68536" lon="1.39523">
        <ele>2361.14</ele>
        <time>2014-02-23T12:51:25Z</time>
      </trkpt>
      <trkpt lat="42.68543" lon="1.39525">
        <ele>2362.1</ele>
        <time>2014-02-23T12:51:39Z</time>
      </trkpt>
      <trkpt lat="42.68551" lon="1.39529">
        <ele>2360.65</ele>
        <time>2014-02-23T12:51:51Z</time>
      </trkpt>
      <trkpt lat="42.68553" lon="1.3953">
        <ele>2360.65</ele>
        <time>2014-02-23T12:52:01Z</time>
      </trkpt>
      <trkpt lat="42.68553" lon="1.39533">
        <ele>2362.58</ele>
        <time>2014-02-23T12:52:11Z</time>
      </trkpt>
      <trkpt lat="42.68556" lon="1.39533">
        <ele>2364.5</ele>
        <time>2014-02-23T12:52:24Z</time>
      </trkpt>
      <trkpt lat="42.68556" lon="1.39534">
        <ele>2364.5</ele>
        <time>2014-02-23T12:52:38Z</time>
      </trkpt>
      <trkpt lat="42.68559" lon="1.39536">
        <ele>2364.02</ele>
        <time>2014-02-23T12:52:49Z</time>
      </trkpt>
      <trkpt lat="42.68563" lon="1.39538">
        <ele>2365.46</ele>
        <time>2014-02-23T12:53:01Z</time>
      </trkpt>
      <trkpt lat="42.68583" lon="1.39544">
        <ele>2363.54</ele>
        <time>2014-02-23T12:53:16Z</time>
      </trkpt>
      <trkpt lat="42.68593" lon="1.39547">
        <ele>2364.02</ele>
        <time>2014-02-23T12:53:23Z</time>
      </trkpt>
      <trkpt lat="42.68601" lon="1.39549">
        <ele>2363.06</ele>
        <time>2014-02-23T12:53:28Z</time>
      </trkpt>
      <trkpt lat="42.68615" lon="1.39555">
        <ele>2360.65</ele>
        <time>2014-02-23T12:53:37Z</time>
      </trkpt>
      <trkpt lat="42.68617" lon="1.39557">
        <ele>2360.65</ele>
        <time>2014-02-23T12:53:49Z</time>
      </trkpt>
      <trkpt lat="42.68619" lon="1.39559">
        <ele>2361.62</ele>
        <time>2014-02-23T12:53:58Z</time>
      </trkpt>
      <trkpt lat="42.6862" lon="1.39563">
        <ele>2363.54</ele>
        <time>2014-02-23T12:54:08Z</time>
      </trkpt>
      <trkpt lat="42.68621" lon="1.39567">
        <ele>2364.02</ele>
        <time>2014-02-23T12:54:19Z</time>
      </trkpt>
      <trkpt lat="42.68622" lon="1.3957">
        <ele>2364.5</ele>
        <time>2014-02-23T12:54:31Z</time>
      </trkpt>
      <trkpt lat="42.68626" lon="1.39573">
        <ele>2364.98</ele>
        <time>2014-02-23T12:54:41Z</time>
      </trkpt>
      <trkpt lat="42.68628" lon="1.39574">
        <ele>2366.9</ele>
        <time>2014-02-23T12:54:52Z</time>
      </trkpt>
      <trkpt lat="42.6863" lon="1.39575">
        <ele>2366.42</ele>
        <time>2014-02-23T12:55:02Z</time>
      </trkpt>
      <trkpt lat="42.68632" lon="1.39578">
        <ele>2366.9</ele>
        <time>2014-02-23T12:55:11Z</time>
      </trkpt>
      <trkpt lat="42.68632" lon="1.39579">
        <ele>2366.9</ele>
        <time>2014-02-23T12:55:21Z</time>
      </trkpt>
      <trkpt lat="42.68634" lon="1.39583">
        <ele>2366.9</ele>
        <time>2014-02-23T12:55:30Z</time>
      </trkpt>
      <trkpt lat="42.68636" lon="1.39585">
        <ele>2368.35</ele>
        <time>2014-02-23T12:55:39Z</time>
      </trkpt>
      <trkpt lat="42.68636" lon="1.39585">
        <ele>2370.75</ele>
        <time>2014-02-23T12:55:47Z</time>
      </trkpt>
      <trkpt lat="42.68636" lon="1.39585">
        <ele>2371.71</ele>
        <time>2014-02-23T12:55:50Z</time>
      </trkpt>
      <trkpt lat="42.68639" lon="1.39588">
        <ele>2370.27</ele>
        <time>2014-02-23T12:56:00Z</time>
      </trkpt>
      <trkpt lat="42.68643" lon="1.3959">
        <ele>2369.31</ele>
        <time>2014-02-23T12:56:10Z</time>
      </trkpt>
      <trkpt lat="42.68648" lon="1.39596">
        <ele>2366.9</ele>
        <time>2014-02-23T12:56:20Z</time>
      </trkpt>
      <trkpt lat="42.6865" lon="1.39601">
        <ele>2368.35</ele>
        <time>2014-02-23T12:56:29Z</time>
      </trkpt>
      <trkpt lat="42.68652" lon="1.39605">
        <ele>2367.38</ele>
        <time>2014-02-23T12:56:38Z</time>
      </trkpt>
      <trkpt lat="42.68657" lon="1.3961">
        <ele>2369.31</ele>
        <time>2014-02-23T12:56:49Z</time>
      </trkpt>
      <trkpt lat="42.68666" lon="1.39609">
        <ele>2368.83</ele>
        <time>2014-02-23T12:56:59Z</time>
      </trkpt>
      <trkpt lat="42.68666" lon="1.39609">
        <ele>2368.83</ele>
        <time>2014-02-23T12:57:00Z</time>
      </trkpt>
      <trkpt lat="42.68674" lon="1.3961">
        <ele>2370.75</ele>
        <time>2014-02-23T12:57:12Z</time>
      </trkpt>
      <trkpt lat="42.6868" lon="1.39611">
        <ele>2370.27</ele>
        <time>2014-02-23T12:57:21Z</time>
      </trkpt>
      <trkpt lat="42.68684" lon="1.3961">
        <ele>2370.75</ele>
        <time>2014-02-23T12:57:32Z</time>
      </trkpt>
      <trkpt lat="42.68685" lon="1.3961">
        <ele>2372.67</ele>
        <time>2014-02-23T12:57:41Z</time>
      </trkpt>
      <trkpt lat="42.68686" lon="1.39609">
        <ele>2372.19</ele>
        <time>2014-02-23T12:57:57Z</time>
      </trkpt>
      <trkpt lat="42.68686" lon="1.39609">
        <ele>2371.71</ele>
        <time>2014-02-23T12:58:11Z</time>
      </trkpt>
      <trkpt lat="42.68687" lon="1.39609">
        <ele>2370.27</ele>
        <time>2014-02-23T12:58:27Z</time>
      </trkpt>
      <trkpt lat="42.68686" lon="1.3961">
        <ele>2371.23</ele>
        <time>2014-02-23T12:58:45Z</time>
      </trkpt>
      <trkpt lat="42.68688" lon="1.39611">
        <ele>2370.27</ele>
        <time>2014-02-23T12:59:11Z</time>
      </trkpt>
      <trkpt lat="42.68686" lon="1.39611">
        <ele>2370.27</ele>
        <time>2014-02-23T12:59:27Z</time>
      </trkpt>
      <trkpt lat="42.68685" lon="1.39611">
        <ele>2368.35</ele>
        <time>2014-02-23T12:59:48Z</time>
      </trkpt>
      <trkpt lat="42.68685" lon="1.39612">
        <ele>2368.35</ele>
        <time>2014-02-23T13:00:07Z</time>
      </trkpt>
      <trkpt lat="42.68691" lon="1.3961">
        <ele>2367.86</ele>
        <time>2014-02-23T13:00:26Z</time>
      </trkpt>
      <trkpt lat="42.68709" lon="1.39642">
        <ele>2365.94</ele>
        <time>2014-02-23T13:00:36Z</time>
      </trkpt>
      <trkpt lat="42.68713" lon="1.39652">
        <ele>2364.98</ele>
        <time>2014-02-23T13:00:38Z</time>
      </trkpt>
      <trkpt lat="42.68728" lon="1.39687">
        <ele>2360.65</ele>
        <time>2014-02-23T13:00:45Z</time>
      </trkpt>
      <trkpt lat="42.68749" lon="1.3969">
        <ele>2354.41</ele>
        <time>2014-02-23T13:00:50Z</time>
      </trkpt>
      <trkpt lat="42.68767" lon="1.39697">
        <ele>2347.2</ele>
        <time>2014-02-23T13:00:54Z</time>
      </trkpt>
      <trkpt lat="42.68772" lon="1.39702">
        <ele>2345.27</ele>
        <time>2014-02-23T13:00:55Z</time>
      </trkpt>
      <trkpt lat="42.68794" lon="1.39719">
        <ele>2339.51</ele>
        <time>2014-02-23T13:00:58Z</time>
      </trkpt>
      <trkpt lat="42.68819" lon="1.39747">
        <ele>2335.66</ele>
        <time>2014-02-23T13:01:03Z</time>
      </trkpt>
      <trkpt lat="42.68849" lon="1.39755">
        <ele>2330.85</ele>
        <time>2014-02-23T13:01:10Z</time>
      </trkpt>
      <trkpt lat="42.68871" lon="1.39749">
        <ele>2324.61</ele>
        <time>2014-02-23T13:01:15Z</time>
      </trkpt>
      <trkpt lat="42.68892" lon="1.39747">
        <ele>2316.91</ele>
        <time>2014-02-23T13:01:20Z</time>
      </trkpt>
      <trkpt lat="42.68907" lon="1.39737">
        <ele>2311.15</ele>
        <time>2014-02-23T13:01:24Z</time>
      </trkpt>
      <trkpt lat="42.68919" lon="1.39728">
        <ele>2304.42</ele>
        <time>2014-02-23T13:01:28Z</time>
      </trkpt>
      <trkpt lat="42.68924" lon="1.39727">
        <ele>2300.09</ele>
        <time>2014-02-23T13:01:32Z</time>
      </trkpt>
      <trkpt lat="42.68927" lon="1.39721">
        <ele>2297.21</ele>
        <time>2014-02-23T13:01:36Z</time>
      </trkpt>
      <trkpt lat="42.6893" lon="1.39718">
        <ele>2295.77</ele>
        <time>2014-02-23T13:01:38Z</time>
      </trkpt>
      <trkpt lat="42.68945" lon="1.39705">
        <ele>2287.59</ele>
        <time>2014-02-23T13:01:44Z</time>
      </trkpt>
      <trkpt lat="42.68961" lon="1.39708">
        <ele>2277.98</ele>
        <time>2014-02-23T13:01:49Z</time>
      </trkpt>
      <trkpt lat="42.68984" lon="1.39699">
        <ele>2265.96</ele>
        <time>2014-02-23T13:01:54Z</time>
      </trkpt>
      <trkpt lat="42.68994" lon="1.39702">
        <ele>2260.68</ele>
        <time>2014-02-23T13:01:56Z</time>
      </trkpt>
      <trkpt lat="42.69031" lon="1.39685">
        <ele>2242.41</ele>
        <time>2014-02-23T13:02:02Z</time>
      </trkpt>
      <trkpt lat="42.69042" lon="1.39682">
        <ele>2239.05</ele>
        <time>2014-02-23T13:02:03Z</time>
      </trkpt>
      <trkpt lat="42.69112" lon="1.39678">
        <ele>2227.51</ele>
        <time>2014-02-23T13:02:10Z</time>
      </trkpt>
      <trkpt lat="42.6912" lon="1.39684">
        <ele>2226.07</ele>
        <time>2014-02-23T13:02:16Z</time>
      </trkpt>
      <trkpt lat="42.69123" lon="1.39683">
        <ele>2228.95</ele>
        <time>2014-02-23T13:02:26Z</time>
      </trkpt>
      <trkpt lat="42.69126" lon="1.39681">
        <ele>2231.36</ele>
        <time>2014-02-23T13:02:36Z</time>
      </trkpt>
      <trkpt lat="42.69127" lon="1.3968">
        <ele>2231.84</ele>
        <time>2014-02-23T13:02:44Z</time>
      </trkpt>
      <trkpt lat="42.69127" lon="1.39679">
        <ele>2230.4</ele>
        <time>2014-02-23T13:02:55Z</time>
      </trkpt>
      <trkpt lat="42.69126" lon="1.39674">
        <ele>2230.88</ele>
        <time>2014-02-23T13:03:05Z</time>
      </trkpt>
      <trkpt lat="42.69123" lon="1.39669">
        <ele>2229.92</ele>
        <time>2014-02-23T13:03:10Z</time>
      </trkpt>
      <trkpt lat="42.69123" lon="1.39662">
        <ele>2229.92</ele>
        <time>2014-02-23T13:03:16Z</time>
      </trkpt>
      <trkpt lat="42.69125" lon="1.39657">
        <ele>2229.43</ele>
        <time>2014-02-23T13:03:19Z</time>
      </trkpt>
      <trkpt lat="42.69128" lon="1.39651">
        <ele>2227.99</ele>
        <time>2014-02-23T13:03:26Z</time>
      </trkpt>
      <trkpt lat="42.69129" lon="1.3965">
        <ele>2227.99</ele>
        <time>2014-02-23T13:03:41Z</time>
      </trkpt>
      <trkpt lat="42.69128" lon="1.39648">
        <ele>2228.47</ele>
        <time>2014-02-23T13:03:53Z</time>
      </trkpt>
      <trkpt lat="42.6913" lon="1.39652">
        <ele>2224.63</ele>
        <time>2014-02-23T13:04:11Z</time>
      </trkpt>
      <trkpt lat="42.6913" lon="1.39655">
        <ele>2224.63</ele>
        <time>2014-02-23T13:04:48Z</time>
      </trkpt>
      <trkpt lat="42.6913" lon="1.39655">
        <ele>2225.11</ele>
        <time>2014-02-23T13:04:59Z</time>
      </trkpt>
      <trkpt lat="42.6913" lon="1.39652">
        <ele>2226.07</ele>
        <time>2014-02-23T13:05:05Z</time>
      </trkpt>
      <trkpt lat="42.69132" lon="1.39647">
        <ele>2226.07</ele>
        <time>2014-02-23T13:05:15Z</time>
      </trkpt>
      <trkpt lat="42.69132" lon="1.39652">
        <ele>2227.99</ele>
        <time>2014-02-23T13:05:26Z</time>
      </trkpt>
      <trkpt lat="42.69138" lon="1.39657">
        <ele>2224.63</ele>
        <time>2014-02-23T13:05:54Z</time>
      </trkpt>
      <trkpt lat="42.69138" lon="1.39656">
        <ele>2227.03</ele>
        <time>2014-02-23T13:06:27Z</time>
      </trkpt>
      <trkpt lat="42.69137" lon="1.39656">
        <ele>2228.47</ele>
        <time>2014-02-23T13:06:52Z</time>
      </trkpt>
      <trkpt lat="42.69136" lon="1.39653">
        <ele>2228.47</ele>
        <time>2014-02-23T13:07:23Z</time>
      </trkpt>
      <trkpt lat="42.69134" lon="1.39653">
        <ele>2234.72</ele>
        <time>2014-02-23T13:07:37Z</time>
      </trkpt>
      <trkpt lat="42.69133" lon="1.3965">
        <ele>2234.24</ele>
        <time>2014-02-23T13:07:55Z</time>
      </trkpt>
      <trkpt lat="42.69133" lon="1.39648">
        <ele>2234.72</ele>
        <time>2014-02-23T13:08:20Z</time>
      </trkpt>
      <trkpt lat="42.69131" lon="1.39646">
        <ele>2235.68</ele>
        <time>2014-02-23T13:08:40Z</time>
      </trkpt>
      <trkpt lat="42.69133" lon="1.39649">
        <ele>2231.36</ele>
        <time>2014-02-23T13:09:06Z</time>
      </trkpt>
      <trkpt lat="42.69135" lon="1.39651">
        <ele>2232.8</ele>
        <time>2014-02-23T13:09:33Z</time>
      </trkpt>
      <trkpt lat="42.69137" lon="1.39653">
        <ele>2233.28</ele>
        <time>2014-02-23T13:10:03Z</time>
      </trkpt>
      <trkpt lat="42.69137" lon="1.39648">
        <ele>2236.64</ele>
        <time>2014-02-23T13:10:24Z</time>
      </trkpt>
      <trkpt lat="42.69136" lon="1.39646">
        <ele>2237.13</ele>
        <time>2014-02-23T13:10:33Z</time>
      </trkpt>
      <trkpt lat="42.69136" lon="1.39647">
        <ele>2235.68</ele>
        <time>2014-02-23T13:10:46Z</time>
      </trkpt>
      <trkpt lat="42.69134" lon="1.39646">
        <ele>2234.24</ele>
        <time>2014-02-23T13:11:03Z</time>
      </trkpt>
      <trkpt lat="42.69131" lon="1.39646">
        <ele>2232.8</ele>
        <time>2014-02-23T13:11:23Z</time>
      </trkpt>
      <trkpt lat="42.69129" lon="1.39643">
        <ele>2232.32</ele>
        <time>2014-02-23T13:11:49Z</time>
      </trkpt>
      <trkpt lat="42.69129" lon="1.39642">
        <ele>2231.36</ele>
        <time>2014-02-23T13:12:18Z</time>
      </trkpt>
      <trkpt lat="42.69128" lon="1.39642">
        <ele>2232.32</ele>
        <time>2014-02-23T13:12:42Z</time>
      </trkpt>
      <trkpt lat="42.69127" lon="1.39642">
        <ele>2232.32</ele>
        <time>2014-02-23T13:13:08Z</time>
      </trkpt>
      <trkpt lat="42.6913" lon="1.3964">
        <ele>2232.8</ele>
        <time>2014-02-23T13:13:33Z</time>
      </trkpt>
      <trkpt lat="42.69127" lon="1.39641">
        <ele>2234.24</ele>
        <time>2014-02-23T13:14:04Z</time>
      </trkpt>
      <trkpt lat="42.69131" lon="1.39641">
        <ele>2234.72</ele>
        <time>2014-02-23T13:14:33Z</time>
      </trkpt>
      <trkpt lat="42.6913" lon="1.39643">
        <ele>2233.28</ele>
        <time>2014-02-23T13:15:07Z</time>
      </trkpt>
      <trkpt lat="42.69135" lon="1.39637">
        <ele>2234.24</ele>
        <time>2014-02-23T13:15:29Z</time>
      </trkpt>
      <trkpt lat="42.69134" lon="1.39636">
        <ele>2235.2</ele>
        <time>2014-02-23T13:15:52Z</time>
      </trkpt>
      <trkpt lat="42.69135" lon="1.39634">
        <ele>2237.61</ele>
        <time>2014-02-23T13:16:21Z</time>
      </trkpt>
      <trkpt lat="42.69133" lon="1.39635">
        <ele>2234.72</ele>
        <time>2014-02-23T13:16:51Z</time>
      </trkpt>
      <trkpt lat="42.69131" lon="1.39629">
        <ele>2236.64</ele>
        <time>2014-02-23T13:17:17Z</time>
      </trkpt>
      <trkpt lat="42.69133" lon="1.39637">
        <ele>2236.16</ele>
        <time>2014-02-23T13:17:48Z</time>
      </trkpt>
      <trkpt lat="42.69131" lon="1.3964">
        <ele>2234.72</ele>
        <time>2014-02-23T13:18:09Z</time>
      </trkpt>
      <trkpt lat="42.69131" lon="1.39641">
        <ele>2236.16</ele>
        <time>2014-02-23T13:18:45Z</time>
      </trkpt>
      <trkpt lat="42.6913" lon="1.39638">
        <ele>2240.01</ele>
        <time>2014-02-23T13:19:12Z</time>
      </trkpt>
      <trkpt lat="42.69127" lon="1.39632">
        <ele>2243.85</ele>
        <time>2014-02-23T13:19:41Z</time>
      </trkpt>
      <trkpt lat="42.69127" lon="1.39629">
        <ele>2243.85</ele>
        <time>2014-02-23T13:20:12Z</time>
      </trkpt>
      <trkpt lat="42.69128" lon="1.39633">
        <ele>2244.33</ele>
        <time>2014-02-23T13:20:39Z</time>
      </trkpt>
      <trkpt lat="42.69127" lon="1.3963">
        <ele>2244.33</ele>
        <time>2014-02-23T13:21:13Z</time>
      </trkpt>
      <trkpt lat="42.69125" lon="1.39622">
        <ele>2253.47</ele>
        <time>2014-02-23T13:21:42Z</time>
      </trkpt>
      <trkpt lat="42.69126" lon="1.39626">
        <ele>2250.1</ele>
        <time>2014-02-23T13:21:54Z</time>
      </trkpt>
      <trkpt lat="42.69129" lon="1.39633">
        <ele>2247.7</ele>
        <time>2014-02-23T13:22:15Z</time>
      </trkpt>
      <trkpt lat="42.69129" lon="1.39631">
        <ele>2249.62</ele>
        <time>2014-02-23T13:22:37Z</time>
      </trkpt>
      <trkpt lat="42.69128" lon="1.39629">
        <ele>2249.62</ele>
        <time>2014-02-23T13:23:04Z</time>
      </trkpt>
      <trkpt lat="42.69128" lon="1.39621">
        <ele>2251.06</ele>
        <time>2014-02-23T13:23:31Z</time>
      </trkpt>
      <trkpt lat="42.69128" lon="1.39626">
        <ele>2250.1</ele>
        <time>2014-02-23T13:24:11Z</time>
      </trkpt>
      <trkpt lat="42.69132" lon="1.39628">
        <ele>2250.58</ele>
        <time>2014-02-23T13:24:43Z</time>
      </trkpt>
      <trkpt lat="42.69136" lon="1.39635">
        <ele>2242.41</ele>
        <time>2014-02-23T13:25:22Z</time>
      </trkpt>
      <trkpt lat="42.69132" lon="1.39636">
        <ele>2242.41</ele>
        <time>2014-02-23T13:25:52Z</time>
      </trkpt>
      <trkpt lat="42.69134" lon="1.39639">
        <ele>2239.05</ele>
        <time>2014-02-23T13:26:20Z</time>
      </trkpt>
      <trkpt lat="42.69134" lon="1.39643">
        <ele>2234.24</ele>
        <time>2014-02-23T13:26:50Z</time>
      </trkpt>
      <trkpt lat="42.69133" lon="1.39646">
        <ele>2228.95</ele>
        <time>2014-02-23T13:27:18Z</time>
      </trkpt>
      <trkpt lat="42.69138" lon="1.39655">
        <ele>2223.19</ele>
        <time>2014-02-23T13:27:47Z</time>
      </trkpt>
      <trkpt lat="42.69134" lon="1.39653">
        <ele>2214.05</ele>
        <time>2014-02-23T13:28:20Z</time>
      </trkpt>
      <trkpt lat="42.69138" lon="1.39657">
        <ele>2209.73</ele>
        <time>2014-02-23T13:28:51Z</time>
      </trkpt>
      <trkpt lat="42.69139" lon="1.39657">
        <ele>2203.96</ele>
        <time>2014-02-23T13:29:11Z</time>
      </trkpt>
      <trkpt lat="42.69141" lon="1.39658">
        <ele>2201.56</ele>
        <time>2014-02-23T13:29:48Z</time>
      </trkpt>
      <trkpt lat="42.69143" lon="1.3966">
        <ele>2195.79</ele>
        <time>2014-02-23T13:30:16Z</time>
      </trkpt>
      <trkpt lat="42.69144" lon="1.39659">
        <ele>2198.19</ele>
        <time>2014-02-23T13:30:41Z</time>
      </trkpt>
      <trkpt lat="42.69143" lon="1.39659">
        <ele>2199.15</ele>
        <time>2014-02-23T13:31:09Z</time>
      </trkpt>
      <trkpt lat="42.69147" lon="1.39656">
        <ele>2202.52</ele>
        <time>2014-02-23T13:31:36Z</time>
      </trkpt>
      <trkpt lat="42.69141" lon="1.39657">
        <ele>2206.36</ele>
        <time>2014-02-23T13:32:04Z</time>
      </trkpt>
      <trkpt lat="42.69142" lon="1.39659">
        <ele>2207.81</ele>
        <time>2014-02-23T13:32:36Z</time>
      </trkpt>
      <trkpt lat="42.6914" lon="1.39656">
        <ele>2205.88</ele>
        <time>2014-02-23T13:33:07Z</time>
      </trkpt>
      <trkpt lat="42.69137" lon="1.39648">
        <ele>2215.01</ele>
        <time>2014-02-23T13:33:35Z</time>
      </trkpt>
      <trkpt lat="42.69133" lon="1.39642">
        <ele>2219.34</ele>
        <time>2014-02-23T13:33:55Z</time>
      </trkpt>
      <trkpt lat="42.69135" lon="1.39644">
        <ele>2220.3</ele>
        <time>2014-02-23T13:34:15Z</time>
      </trkpt>
      <trkpt lat="42.69134" lon="1.39646">
        <ele>2220.78</ele>
        <time>2014-02-23T13:34:42Z</time>
      </trkpt>
      <trkpt lat="42.69128" lon="1.39641">
        <ele>2225.11</ele>
        <time>2014-02-23T13:35:10Z</time>
      </trkpt>
      <trkpt lat="42.69127" lon="1.39635">
        <ele>2229.92</ele>
        <time>2014-02-23T13:35:33Z</time>
      </trkpt>
      <trkpt lat="42.69124" lon="1.3964">
        <ele>2234.72</ele>
        <time>2014-02-23T13:35:56Z</time>
      </trkpt>
      <trkpt lat="42.69119" lon="1.39641">
        <ele>2234.24</ele>
        <time>2014-02-23T13:36:23Z</time>
      </trkpt>
      <trkpt lat="42.6912" lon="1.39642">
        <ele>2235.2</ele>
        <time>2014-02-23T13:36:52Z</time>
      </trkpt>
      <trkpt lat="42.69118" lon="1.3964">
        <ele>2232.32</ele>
        <time>2014-02-23T13:37:21Z</time>
      </trkpt>
      <trkpt lat="42.69114" lon="1.39637">
        <ele>2241.45</ele>
        <time>2014-02-23T13:37:47Z</time>
      </trkpt>
      <trkpt lat="42.69115" lon="1.39643">
        <ele>2246.26</ele>
        <time>2014-02-23T13:38:19Z</time>
      </trkpt>
      <trkpt lat="42.69116" lon="1.39647">
        <ele>2246.74</ele>
        <time>2014-02-23T13:38:55Z</time>
      </trkpt>
      <trkpt lat="42.69111" lon="1.3965">
        <ele>2246.74</ele>
        <time>2014-02-23T13:39:18Z</time>
      </trkpt>
      <trkpt lat="42.69117" lon="1.39646">
        <ele>2244.33</ele>
        <time>2014-02-23T13:39:42Z</time>
      </trkpt>
      <trkpt lat="42.69117" lon="1.39645">
        <ele>2243.37</ele>
        <time>2014-02-23T13:40:12Z</time>
      </trkpt>
      <trkpt lat="42.69116" lon="1.39644">
        <ele>2244.82</ele>
        <time>2014-02-23T13:40:42Z</time>
      </trkpt>
      <trkpt lat="42.6912" lon="1.39643">
        <ele>2244.82</ele>
        <time>2014-02-23T13:41:18Z</time>
      </trkpt>
      <trkpt lat="42.6912" lon="1.39637">
        <ele>2245.78</ele>
        <time>2014-02-23T13:41:52Z</time>
      </trkpt>
      <trkpt lat="42.69118" lon="1.39643">
        <ele>2243.37</ele>
        <time>2014-02-23T13:42:23Z</time>
      </trkpt>
      <trkpt lat="42.69123" lon="1.39646">
        <ele>2242.41</ele>
        <time>2014-02-23T13:42:51Z</time>
      </trkpt>
      <trkpt lat="42.69121" lon="1.39649">
        <ele>2243.85</ele>
        <time>2014-02-23T13:43:22Z</time>
      </trkpt>
      <trkpt lat="42.69124" lon="1.39654">
        <ele>2242.89</ele>
        <time>2014-02-23T13:44:01Z</time>
      </trkpt>
      <trkpt lat="42.69126" lon="1.3965">
        <ele>2242.41</ele>
        <time>2014-02-23T13:44:24Z</time>
      </trkpt>
      <trkpt lat="42.69131" lon="1.39642">
        <ele>2240.01</ele>
        <time>2014-02-23T13:44:54Z</time>
      </trkpt>
      <trkpt lat="42.69126" lon="1.39637">
        <ele>2240.49</ele>
        <time>2014-02-23T13:45:25Z</time>
      </trkpt>
      <trkpt lat="42.6913" lon="1.39633">
        <ele>2245.3</ele>
        <time>2014-02-23T13:45:47Z</time>
      </trkpt>
      <trkpt lat="42.69125" lon="1.39634">
        <ele>2244.33</ele>
        <time>2014-02-23T13:46:00Z</time>
      </trkpt>
      <trkpt lat="42.69128" lon="1.39638">
        <ele>2245.3</ele>
        <time>2014-02-23T13:46:21Z</time>
      </trkpt>
      <trkpt lat="42.69132" lon="1.39639">
        <ele>2246.74</ele>
        <time>2014-02-23T13:46:39Z</time>
      </trkpt>
      <trkpt lat="42.69133" lon="1.3964">
        <ele>2244.82</ele>
        <time>2014-02-23T13:46:54Z</time>
      </trkpt>
      <trkpt lat="42.69136" lon="1.39646">
        <ele>2244.82</ele>
        <time>2014-02-23T13:47:14Z</time>
      </trkpt>
      <trkpt lat="42.69127" lon="1.3964">
        <ele>2247.7</ele>
        <time>2014-02-23T13:47:25Z</time>
      </trkpt>
      <trkpt lat="42.69132" lon="1.39646">
        <ele>2247.22</ele>
        <time>2014-02-23T13:47:43Z</time>
      </trkpt>
      <trkpt lat="42.69134" lon="1.39648">
        <ele>2247.7</ele>
        <time>2014-02-23T13:48:04Z</time>
      </trkpt>
      <trkpt lat="42.69134" lon="1.39653">
        <ele>2248.66</ele>
        <time>2014-02-23T13:48:29Z</time>
      </trkpt>
      <trkpt lat="42.69138" lon="1.39652">
        <ele>2253.95</ele>
        <time>2014-02-23T13:48:57Z</time>
      </trkpt>
      <trkpt lat="42.69136" lon="1.39648">
        <ele>2257.79</ele>
        <time>2014-02-23T13:49:17Z</time>
      </trkpt>
      <trkpt lat="42.69133" lon="1.39647">
        <ele>2257.31</ele>
        <time>2014-02-23T13:49:24Z</time>
      </trkpt>
      <trkpt lat="42.6913" lon="1.3964">
        <ele>2256.83</ele>
        <time>2014-02-23T13:49:33Z</time>
      </trkpt>
      <trkpt lat="42.69126" lon="1.39641">
        <ele>2256.83</ele>
        <time>2014-02-23T13:49:50Z</time>
      </trkpt>
      <trkpt lat="42.69125" lon="1.39641">
        <ele>2252.99</ele>
        <time>2014-02-23T13:50:11Z</time>
      </trkpt>
      <trkpt lat="42.69126" lon="1.39639">
        <ele>2252.03</ele>
        <time>2014-02-23T13:50:21Z</time>
      </trkpt>
      <trkpt lat="42.69124" lon="1.39638">
        <ele>2252.51</ele>
        <time>2014-02-23T13:50:28Z</time>
      </trkpt>
      <trkpt lat="42.69123" lon="1.39643">
        <ele>2248.66</ele>
        <time>2014-02-23T13:50:38Z</time>
      </trkpt>
      <trkpt lat="42.69123" lon="1.39643">
        <ele>2247.7</ele>
        <time>2014-02-23T13:51:00Z</time>
      </trkpt>
      <trkpt lat="42.69124" lon="1.39645">
        <ele>2248.18</ele>
        <time>2014-02-23T13:51:23Z</time>
      </trkpt>
      <trkpt lat="42.69127" lon="1.39646">
        <ele>2247.7</ele>
        <time>2014-02-23T13:51:47Z</time>
      </trkpt>
      <trkpt lat="42.69129" lon="1.39648">
        <ele>2245.78</ele>
        <time>2014-02-23T13:52:00Z</time>
      </trkpt>
      <trkpt lat="42.69129" lon="1.39647">
        <ele>2247.7</ele>
        <time>2014-02-23T13:52:20Z</time>
      </trkpt>
      <trkpt lat="42.69125" lon="1.39645">
        <ele>2248.66</ele>
        <time>2014-02-23T13:52:46Z</time>
      </trkpt>
      <trkpt lat="42.69123" lon="1.39641">
        <ele>2247.7</ele>
        <time>2014-02-23T13:53:16Z</time>
      </trkpt>
      <trkpt lat="42.69122" lon="1.39642">
        <ele>2247.7</ele>
        <time>2014-02-23T13:53:23Z</time>
      </trkpt>
      <trkpt lat="42.69123" lon="1.39645">
        <ele>2246.74</ele>
        <time>2014-02-23T13:53:33Z</time>
      </trkpt>
      <trkpt lat="42.69123" lon="1.3965">
        <ele>2242.89</ele>
        <time>2014-02-23T13:53:51Z</time>
      </trkpt>
      <trkpt lat="42.69129" lon="1.39648">
        <ele>2242.41</ele>
        <time>2014-02-23T13:54:12Z</time>
      </trkpt>
      <trkpt lat="42.69125" lon="1.39649">
        <ele>2241.93</ele>
        <time>2014-02-23T13:54:39Z</time>
      </trkpt>
      <trkpt lat="42.69127" lon="1.39649">
        <ele>2241.45</ele>
        <time>2014-02-23T13:54:55Z</time>
      </trkpt>
      <trkpt lat="42.69125" lon="1.39649">
        <ele>2240.01</ele>
        <time>2014-02-23T13:55:13Z</time>
      </trkpt>
      <trkpt lat="42.69127" lon="1.3964">
        <ele>2239.05</ele>
        <time>2014-02-23T13:55:17Z</time>
      </trkpt>
      <trkpt lat="42.69138" lon="1.39625">
        <ele>2236.16</ele>
        <time>2014-02-23T13:55:22Z</time>
      </trkpt>
      <trkpt lat="42.69133" lon="1.39601">
        <ele>2229.43</ele>
        <time>2014-02-23T13:55:28Z</time>
      </trkpt>
      <trkpt lat="42.69135" lon="1.39596">
        <ele>2228.47</ele>
        <time>2014-02-23T13:55:29Z</time>
      </trkpt>
      <trkpt lat="42.69138" lon="1.39585">
        <ele>2226.07</ele>
        <time>2014-02-23T13:55:31Z</time>
      </trkpt>
      <trkpt lat="42.69144" lon="1.39566">
        <ele>2225.11</ele>
        <time>2014-02-23T13:55:40Z</time>
      </trkpt>
      <trkpt lat="42.69148" lon="1.39567">
        <ele>2225.11</ele>
        <time>2014-02-23T13:55:44Z</time>
      </trkpt>
      <trkpt lat="42.69151" lon="1.39566">
        <ele>2225.11</ele>
        <time>2014-02-23T13:55:45Z</time>
      </trkpt>
      <trkpt lat="42.69153" lon="1.39566">
        <ele>2225.11</ele>
        <time>2014-02-23T13:55:46Z</time>
      </trkpt>
      <trkpt lat="42.69155" lon="1.39564">
        <ele>2225.11</ele>
        <time>2014-02-23T13:55:47Z</time>
      </trkpt>
      <trkpt lat="42.69157" lon="1.39564">
        <ele>2224.63</ele>
        <time>2014-02-23T13:55:48Z</time>
      </trkpt>
      <trkpt lat="42.69159" lon="1.39565">
        <ele>2224.63</ele>
        <time>2014-02-23T13:55:49Z</time>
      </trkpt>
      <trkpt lat="42.69161" lon="1.39565">
        <ele>2224.15</ele>
        <time>2014-02-23T13:55:50Z</time>
      </trkpt>
      <trkpt lat="42.69164" lon="1.39564">
        <ele>2223.67</ele>
        <time>2014-02-23T13:55:51Z</time>
      </trkpt>
      <trkpt lat="42.69167" lon="1.39564">
        <ele>2222.71</ele>
        <time>2014-02-23T13:55:52Z</time>
      </trkpt>
      <trkpt lat="42.6917" lon="1.39564">
        <ele>2222.22</ele>
        <time>2014-02-23T13:55:53Z</time>
      </trkpt>
      <trkpt lat="42.69173" lon="1.39563">
        <ele>2220.78</ele>
        <time>2014-02-23T13:55:54Z</time>
      </trkpt>
      <trkpt lat="42.69177" lon="1.39564">
        <ele>2219.82</ele>
        <time>2014-02-23T13:55:55Z</time>
      </trkpt>
      <trkpt lat="42.6918" lon="1.39564">
        <ele>2218.38</ele>
        <time>2014-02-23T13:55:56Z</time>
      </trkpt>
      <trkpt lat="42.69184" lon="1.39565">
        <ele>2216.94</ele>
        <time>2014-02-23T13:55:57Z</time>
      </trkpt>
      <trkpt lat="42.69187" lon="1.39567">
        <ele>2215.5</ele>
        <time>2014-02-23T13:55:58Z</time>
      </trkpt>
      <trkpt lat="42.69191" lon="1.39569">
        <ele>2214.05</ele>
        <time>2014-02-23T13:55:59Z</time>
      </trkpt>
      <trkpt lat="42.69195" lon="1.3957">
        <ele>2212.61</ele>
        <time>2014-02-23T13:56:00Z</time>
      </trkpt>
      <trkpt lat="42.69196" lon="1.39573">
        <ele>2212.13</ele>
        <time>2014-02-23T13:56:07Z</time>
      </trkpt>
      <trkpt lat="42.69197" lon="1.39574">
        <ele>2212.13</ele>
        <time>2014-02-23T13:56:12Z</time>
      </trkpt>
      <trkpt lat="42.692" lon="1.39574">
        <ele>2211.17</ele>
        <time>2014-02-23T13:56:14Z</time>
      </trkpt>
      <trkpt lat="42.69202" lon="1.39571">
        <ele>2210.69</ele>
        <time>2014-02-23T13:56:15Z</time>
      </trkpt>
      <trkpt lat="42.69209" lon="1.39553">
        <ele>2206.36</ele>
        <time>2014-02-23T13:56:20Z</time>
      </trkpt>
      <trkpt lat="42.69212" lon="1.39554">
        <ele>2204.92</ele>
        <time>2014-02-23T13:56:21Z</time>
      </trkpt>
      <trkpt lat="42.69215" lon="1.39553">
        <ele>2203.48</ele>
        <time>2014-02-23T13:56:22Z</time>
      </trkpt>
      <trkpt lat="42.69219" lon="1.39552">
        <ele>2202.04</ele>
        <time>2014-02-23T13:56:23Z</time>
      </trkpt>
      <trkpt lat="42.69222" lon="1.39555">
        <ele>2201.08</ele>
        <time>2014-02-23T13:56:24Z</time>
      </trkpt>
      <trkpt lat="42.69224" lon="1.39554">
        <ele>2199.15</ele>
        <time>2014-02-23T13:56:25Z</time>
      </trkpt>
      <trkpt lat="42.69227" lon="1.39551">
        <ele>2198.19</ele>
        <time>2014-02-23T13:56:26Z</time>
      </trkpt>
      <trkpt lat="42.6923" lon="1.39549">
        <ele>2196.27</ele>
        <time>2014-02-23T13:56:27Z</time>
      </trkpt>
      <trkpt lat="42.69233" lon="1.39551">
        <ele>2194.35</ele>
        <time>2014-02-23T13:56:28Z</time>
      </trkpt>
      <trkpt lat="42.69238" lon="1.39567">
        <ele>2191.46</ele>
        <time>2014-02-23T13:56:36Z</time>
      </trkpt>
      <trkpt lat="42.69239" lon="1.39569">
        <ele>2190.02</ele>
        <time>2014-02-23T13:56:46Z</time>
      </trkpt>
      <trkpt lat="42.6924" lon="1.39572">
        <ele>2190.02</ele>
        <time>2014-02-23T13:56:57Z</time>
      </trkpt>
      <trkpt lat="42.69242" lon="1.39576">
        <ele>2190.02</ele>
        <time>2014-02-23T13:57:07Z</time>
      </trkpt>
      <trkpt lat="42.69246" lon="1.39582">
        <ele>2188.58</ele>
        <time>2014-02-23T13:57:11Z</time>
      </trkpt>
      <trkpt lat="42.69249" lon="1.39582">
        <ele>2187.62</ele>
        <time>2014-02-23T13:57:12Z</time>
      </trkpt>
      <trkpt lat="42.69251" lon="1.39585">
        <ele>2186.66</ele>
        <time>2014-02-23T13:57:13Z</time>
      </trkpt>
      <trkpt lat="42.69254" lon="1.39594">
        <ele>2184.73</ele>
        <time>2014-02-23T13:57:17Z</time>
      </trkpt>
      <trkpt lat="42.69257" lon="1.39593">
        <ele>2183.77</ele>
        <time>2014-02-23T13:57:18Z</time>
      </trkpt>
      <trkpt lat="42.69259" lon="1.39594">
        <ele>2182.33</ele>
        <time>2014-02-23T13:57:19Z</time>
      </trkpt>
      <trkpt lat="42.6926" lon="1.39596">
        <ele>2181.37</ele>
        <time>2014-02-23T13:57:20Z</time>
      </trkpt>
      <trkpt lat="42.69261" lon="1.39599">
        <ele>2180.41</ele>
        <time>2014-02-23T13:57:21Z</time>
      </trkpt>
      <trkpt lat="42.69261" lon="1.39602">
        <ele>2179.93</ele>
        <time>2014-02-23T13:57:22Z</time>
      </trkpt>
      <trkpt lat="42.69265" lon="1.39607">
        <ele>2178.48</ele>
        <time>2014-02-23T13:57:24Z</time>
      </trkpt>
      <trkpt lat="42.69268" lon="1.39607">
        <ele>2177.04</ele>
        <time>2014-02-23T13:57:25Z</time>
      </trkpt>
      <trkpt lat="42.69269" lon="1.39605">
        <ele>2175.6</ele>
        <time>2014-02-23T13:57:26Z</time>
      </trkpt>
      <trkpt lat="42.69272" lon="1.39603">
        <ele>2172.24</ele>
        <time>2014-02-23T13:57:31Z</time>
      </trkpt>
      <trkpt lat="42.69279" lon="1.39596">
        <ele>2168.39</ele>
        <time>2014-02-23T13:57:38Z</time>
      </trkpt>
      <trkpt lat="42.6928" lon="1.39597">
        <ele>2167.91</ele>
        <time>2014-02-23T13:57:39Z</time>
      </trkpt>
      <trkpt lat="42.69281" lon="1.39599">
        <ele>2167.43</ele>
        <time>2014-02-23T13:57:40Z</time>
      </trkpt>
      <trkpt lat="42.69282" lon="1.396">
        <ele>2166.47</ele>
        <time>2014-02-23T13:57:41Z</time>
      </trkpt>
      <trkpt lat="42.69283" lon="1.39602">
        <ele>2165.51</ele>
        <time>2014-02-23T13:57:42Z</time>
      </trkpt>
      <trkpt lat="42.69284" lon="1.39604">
        <ele>2164.55</ele>
        <time>2014-02-23T13:57:43Z</time>
      </trkpt>
      <trkpt lat="42.69285" lon="1.39606">
        <ele>2164.06</ele>
        <time>2014-02-23T13:57:44Z</time>
      </trkpt>
      <trkpt lat="42.69286" lon="1.3961">
        <ele>2162.62</ele>
        <time>2014-02-23T13:57:46Z</time>
      </trkpt>
      <trkpt lat="42.69288" lon="1.3961">
        <ele>2162.14</ele>
        <time>2014-02-23T13:57:47Z</time>
      </trkpt>
      <trkpt lat="42.6929" lon="1.3961">
        <ele>2161.18</ele>
        <time>2014-02-23T13:57:49Z</time>
      </trkpt>
      <trkpt lat="42.69291" lon="1.39612">
        <ele>2160.7</ele>
        <time>2014-02-23T13:57:50Z</time>
      </trkpt>
      <trkpt lat="42.69292" lon="1.39614">
        <ele>2159.74</ele>
        <time>2014-02-23T13:57:51Z</time>
      </trkpt>
      <trkpt lat="42.69292" lon="1.39617">
        <ele>2159.26</ele>
        <time>2014-02-23T13:57:52Z</time>
      </trkpt>
      <trkpt lat="42.69293" lon="1.39618">
        <ele>2158.3</ele>
        <time>2014-02-23T13:57:53Z</time>
      </trkpt>
      <trkpt lat="42.69294" lon="1.39621">
        <ele>2156.37</ele>
        <time>2014-02-23T13:57:56Z</time>
      </trkpt>
      <trkpt lat="42.69294" lon="1.3962">
        <ele>2154.93</ele>
        <time>2014-02-23T13:57:58Z</time>
      </trkpt>
      <trkpt lat="42.69296" lon="1.39621">
        <ele>2153.97</ele>
        <time>2014-02-23T13:58:00Z</time>
      </trkpt>
      <trkpt lat="42.69299" lon="1.39626">
        <ele>2151.57</ele>
        <time>2014-02-23T13:58:04Z</time>
      </trkpt>
      <trkpt lat="42.69303" lon="1.39627">
        <ele>2149.16</ele>
        <time>2014-02-23T13:58:07Z</time>
      </trkpt>
      <trkpt lat="42.69307" lon="1.39628">
        <ele>2144.84</ele>
        <time>2014-02-23T13:58:12Z</time>
      </trkpt>
      <trkpt lat="42.69311" lon="1.39626">
        <ele>2141.95</ele>
        <time>2014-02-23T13:58:17Z</time>
      </trkpt>
      <trkpt lat="42.69312" lon="1.39627">
        <ele>2140.99</ele>
        <time>2014-02-23T13:58:18Z</time>
      </trkpt>
      <trkpt lat="42.69315" lon="1.39631">
        <ele>2139.07</ele>
        <time>2014-02-23T13:58:21Z</time>
      </trkpt>
      <trkpt lat="42.69317" lon="1.3963">
        <ele>2137.63</ele>
        <time>2014-02-23T13:58:22Z</time>
      </trkpt>
      <trkpt lat="42.69319" lon="1.39631">
        <ele>2136.19</ele>
        <time>2014-02-23T13:58:23Z</time>
      </trkpt>
      <trkpt lat="42.69324" lon="1.39634">
        <ele>2130.42</ele>
        <time>2014-02-23T13:58:29Z</time>
      </trkpt>
      <trkpt lat="42.69323" lon="1.39634">
        <ele>2126.09</ele>
        <time>2014-02-23T13:58:53Z</time>
      </trkpt>
      <trkpt lat="42.69326" lon="1.39634">
        <ele>2127.05</ele>
        <time>2014-02-23T13:59:17Z</time>
      </trkpt>
      <trkpt lat="42.69328" lon="1.39631">
        <ele>2126.57</ele>
        <time>2014-02-23T13:59:20Z</time>
      </trkpt>
      <trkpt lat="42.6933" lon="1.39632">
        <ele>2126.57</ele>
        <time>2014-02-23T13:59:22Z</time>
      </trkpt>
      <trkpt lat="42.6933" lon="1.39635">
        <ele>2126.09</ele>
        <time>2014-02-23T13:59:23Z</time>
      </trkpt>
      <trkpt lat="42.6933" lon="1.39642">
        <ele>2126.09</ele>
        <time>2014-02-23T13:59:26Z</time>
      </trkpt>
      <trkpt lat="42.69331" lon="1.39642">
        <ele>2125.13</ele>
        <time>2014-02-23T13:59:27Z</time>
      </trkpt>
      <trkpt lat="42.69333" lon="1.3964">
        <ele>2124.65</ele>
        <time>2014-02-23T13:59:28Z</time>
      </trkpt>
      <trkpt lat="42.69335" lon="1.39639">
        <ele>2123.69</ele>
        <time>2014-02-23T13:59:29Z</time>
      </trkpt>
      <trkpt lat="42.69336" lon="1.39641">
        <ele>2122.73</ele>
        <time>2014-02-23T13:59:30Z</time>
      </trkpt>
      <trkpt lat="42.69336" lon="1.39643">
        <ele>2122.25</ele>
        <time>2014-02-23T13:59:31Z</time>
      </trkpt>
      <trkpt lat="42.69336" lon="1.39645">
        <ele>2122.25</ele>
        <time>2014-02-23T13:59:32Z</time>
      </trkpt>
      <trkpt lat="42.69337" lon="1.39646">
        <ele>2121.29</ele>
        <time>2014-02-23T13:59:33Z</time>
      </trkpt>
      <trkpt lat="42.69338" lon="1.39646">
        <ele>2120.81</ele>
        <time>2014-02-23T13:59:34Z</time>
      </trkpt>
      <trkpt lat="42.69339" lon="1.39645">
        <ele>2120.32</ele>
        <time>2014-02-23T13:59:35Z</time>
      </trkpt>
      <trkpt lat="42.69342" lon="1.39644">
        <ele>2118.88</ele>
        <time>2014-02-23T13:59:38Z</time>
      </trkpt>
      <trkpt lat="42.69343" lon="1.39648">
        <ele>2118.4</ele>
        <time>2014-02-23T13:59:40Z</time>
      </trkpt>
      <trkpt lat="42.69342" lon="1.3965">
        <ele>2117.44</ele>
        <time>2014-02-23T13:59:41Z</time>
      </trkpt>
      <trkpt lat="42.69343" lon="1.39654">
        <ele>2116</ele>
        <time>2014-02-23T13:59:43Z</time>
      </trkpt>
      <trkpt lat="42.69344" lon="1.39654">
        <ele>2115.04</ele>
        <time>2014-02-23T13:59:44Z</time>
      </trkpt>
      <trkpt lat="42.69347" lon="1.39652">
        <ele>2114.08</ele>
        <time>2014-02-23T13:59:45Z</time>
      </trkpt>
      <trkpt lat="42.69348" lon="1.39651">
        <ele>2113.12</ele>
        <time>2014-02-23T13:59:46Z</time>
      </trkpt>
      <trkpt lat="42.6935" lon="1.39651">
        <ele>2110.23</ele>
        <time>2014-02-23T13:59:54Z</time>
      </trkpt>
      <trkpt lat="42.69352" lon="1.3965">
        <ele>2109.75</ele>
        <time>2014-02-23T13:59:55Z</time>
      </trkpt>
      <trkpt lat="42.69355" lon="1.39647">
        <ele>2109.27</ele>
        <time>2014-02-23T13:59:56Z</time>
      </trkpt>
      <trkpt lat="42.6936" lon="1.39639">
        <ele>2106.87</ele>
        <time>2014-02-23T13:59:59Z</time>
      </trkpt>
      <trkpt lat="42.69361" lon="1.39638">
        <ele>2106.87</ele>
        <time>2014-02-23T14:00:00Z</time>
      </trkpt>
      <trkpt lat="42.69362" lon="1.39637">
        <ele>2106.39</ele>
        <time>2014-02-23T14:00:01Z</time>
      </trkpt>
      <trkpt lat="42.69364" lon="1.39637">
        <ele>2105.91</ele>
        <time>2014-02-23T14:00:02Z</time>
      </trkpt>
      <trkpt lat="42.69365" lon="1.39642">
        <ele>2104.46</ele>
        <time>2014-02-23T14:00:04Z</time>
      </trkpt>
      <trkpt lat="42.69363" lon="1.39643">
        <ele>2103.02</ele>
        <time>2014-02-23T14:00:13Z</time>
      </trkpt>
      <trkpt lat="42.69363" lon="1.39649">
        <ele>2102.54</ele>
        <time>2014-02-23T14:00:16Z</time>
      </trkpt>
      <trkpt lat="42.69363" lon="1.39651">
        <ele>2102.06</ele>
        <time>2014-02-23T14:00:17Z</time>
      </trkpt>
      <trkpt lat="42.69364" lon="1.39654">
        <ele>2101.1</ele>
        <time>2014-02-23T14:00:21Z</time>
      </trkpt>
      <trkpt lat="42.69364" lon="1.39657">
        <ele>2100.62</ele>
        <time>2014-02-23T14:00:22Z</time>
      </trkpt>
      <trkpt lat="42.69365" lon="1.3966">
        <ele>2099.66</ele>
        <time>2014-02-23T14:00:23Z</time>
      </trkpt>
      <trkpt lat="42.69367" lon="1.39666">
        <ele>2097.73</ele>
        <time>2014-02-23T14:00:26Z</time>
      </trkpt>
      <trkpt lat="42.69372" lon="1.39665">
        <ele>2095.33</ele>
        <time>2014-02-23T14:00:37Z</time>
      </trkpt>
      <trkpt lat="42.69376" lon="1.39659">
        <ele>2094.37</ele>
        <time>2014-02-23T14:00:55Z</time>
      </trkpt>
      <trkpt lat="42.6938" lon="1.39655">
        <ele>2093.89</ele>
        <time>2014-02-23T14:00:57Z</time>
      </trkpt>
      <trkpt lat="42.69382" lon="1.39652">
        <ele>2092.93</ele>
        <time>2014-02-23T14:00:59Z</time>
      </trkpt>
      <trkpt lat="42.69385" lon="1.39665">
        <ele>2088.6</ele>
        <time>2014-02-23T14:01:07Z</time>
      </trkpt>
      <trkpt lat="42.69393" lon="1.39664">
        <ele>2085.24</ele>
        <time>2014-02-23T14:01:16Z</time>
      </trkpt>
      <trkpt lat="42.69397" lon="1.39663">
        <ele>2082.35</ele>
        <time>2014-02-23T14:01:19Z</time>
      </trkpt>
      <trkpt lat="42.694" lon="1.3966">
        <ele>2080.91</ele>
        <time>2014-02-23T14:01:21Z</time>
      </trkpt>
      <trkpt lat="42.69403" lon="1.39659">
        <ele>2080.43</ele>
        <time>2014-02-23T14:01:24Z</time>
      </trkpt>
      <trkpt lat="42.69409" lon="1.39674">
        <ele>2076.1</ele>
        <time>2014-02-23T14:01:32Z</time>
      </trkpt>
      <trkpt lat="42.69407" lon="1.39688">
        <ele>2070.82</ele>
        <time>2014-02-23T14:01:38Z</time>
      </trkpt>
      <trkpt lat="42.69406" lon="1.39697">
        <ele>2066.97</ele>
        <time>2014-02-23T14:01:44Z</time>
      </trkpt>
      <trkpt lat="42.69405" lon="1.397">
        <ele>2064.09</ele>
        <time>2014-02-23T14:01:57Z</time>
      </trkpt>
      <trkpt lat="42.69397" lon="1.39734">
        <ele>2060.24</ele>
        <time>2014-02-23T14:02:06Z</time>
      </trkpt>
      <trkpt lat="42.69386" lon="1.39759">
        <ele>2053.51</ele>
        <time>2014-02-23T14:02:14Z</time>
      </trkpt>
      <trkpt lat="42.69392" lon="1.39769">
        <ele>2047.26</ele>
        <time>2014-02-23T14:02:20Z</time>
      </trkpt>
      <trkpt lat="42.69396" lon="1.39766">
        <ele>2045.34</ele>
        <time>2014-02-23T14:02:24Z</time>
      </trkpt>
      <trkpt lat="42.69393" lon="1.39786">
        <ele>2042.94</ele>
        <time>2014-02-23T14:02:31Z</time>
      </trkpt>
      <trkpt lat="42.69392" lon="1.39791">
        <ele>2042.94</ele>
        <time>2014-02-23T14:02:32Z</time>
      </trkpt>
      <trkpt lat="42.69387" lon="1.39808">
        <ele>2041.5</ele>
        <time>2014-02-23T14:02:36Z</time>
      </trkpt>
      <trkpt lat="42.69386" lon="1.39817">
        <ele>2040.54</ele>
        <time>2014-02-23T14:02:42Z</time>
      </trkpt>
      <trkpt lat="42.69392" lon="1.39821">
        <ele>2037.65</ele>
        <time>2014-02-23T14:02:46Z</time>
      </trkpt>
      <trkpt lat="42.69398" lon="1.39833">
        <ele>2031.4</ele>
        <time>2014-02-23T14:02:53Z</time>
      </trkpt>
      <trkpt lat="42.69396" lon="1.3984">
        <ele>2029</ele>
        <time>2014-02-23T14:02:57Z</time>
      </trkpt>
      <trkpt lat="42.69401" lon="1.3986">
        <ele>2022.75</ele>
        <time>2014-02-23T14:03:04Z</time>
      </trkpt>
      <trkpt lat="42.69405" lon="1.39868">
        <ele>2018.43</ele>
        <time>2014-02-23T14:03:07Z</time>
      </trkpt>
      <trkpt lat="42.69407" lon="1.39877">
        <ele>2013.62</ele>
        <time>2014-02-23T14:03:16Z</time>
      </trkpt>
      <trkpt lat="42.69407" lon="1.39878">
        <ele>2012.66</ele>
        <time>2014-02-23T14:03:21Z</time>
      </trkpt>
      <trkpt lat="42.69409" lon="1.39891">
        <ele>2010.25</ele>
        <time>2014-02-23T14:03:29Z</time>
      </trkpt>
      <trkpt lat="42.69409" lon="1.3989">
        <ele>2011.22</ele>
        <time>2014-02-23T14:03:36Z</time>
      </trkpt>
      <trkpt lat="42.6941" lon="1.39895">
        <ele>2011.22</ele>
        <time>2014-02-23T14:03:38Z</time>
      </trkpt>
      <trkpt lat="42.69411" lon="1.39898">
        <ele>2010.25</ele>
        <time>2014-02-23T14:03:39Z</time>
      </trkpt>
      <trkpt lat="42.69412" lon="1.39901">
        <ele>2010.25</ele>
        <time>2014-02-23T14:03:40Z</time>
      </trkpt>
      <trkpt lat="42.69412" lon="1.39905">
        <ele>2009.77</ele>
        <time>2014-02-23T14:03:41Z</time>
      </trkpt>
      <trkpt lat="42.69413" lon="1.39909">
        <ele>2008.81</ele>
        <time>2014-02-23T14:03:42Z</time>
      </trkpt>
      <trkpt lat="42.69413" lon="1.39919">
        <ele>2006.89</ele>
        <time>2014-02-23T14:03:45Z</time>
      </trkpt>
      <trkpt lat="42.69414" lon="1.39922">
        <ele>2004.49</ele>
        <time>2014-02-23T14:03:48Z</time>
      </trkpt>
      <trkpt lat="42.6942" lon="1.39918">
        <ele>2004.97</ele>
        <time>2014-02-23T14:03:55Z</time>
      </trkpt>
      <trkpt lat="42.6942" lon="1.39917">
        <ele>2005.45</ele>
        <time>2014-02-23T14:03:56Z</time>
      </trkpt>
      <trkpt lat="42.69422" lon="1.39917">
        <ele>2005.45</ele>
        <time>2014-02-23T14:03:59Z</time>
      </trkpt>
      <trkpt lat="42.69422" lon="1.39925">
        <ele>2004.49</ele>
        <time>2014-02-23T14:04:02Z</time>
      </trkpt>
      <trkpt lat="42.69421" lon="1.39928">
        <ele>2004.49</ele>
        <time>2014-02-23T14:04:03Z</time>
      </trkpt>
      <trkpt lat="42.69421" lon="1.3993">
        <ele>2004.01</ele>
        <time>2014-02-23T14:04:04Z</time>
      </trkpt>
      <trkpt lat="42.69421" lon="1.39934">
        <ele>2003.52</ele>
        <time>2014-02-23T14:04:05Z</time>
      </trkpt>
      <trkpt lat="42.69421" lon="1.39938">
        <ele>2003.04</ele>
        <time>2014-02-23T14:04:06Z</time>
      </trkpt>
      <trkpt lat="42.69416" lon="1.39983">
        <ele>1996.8</ele>
        <time>2014-02-23T14:04:22Z</time>
      </trkpt>
      <trkpt lat="42.69414" lon="1.39988">
        <ele>1996.32</ele>
        <time>2014-02-23T14:04:24Z</time>
      </trkpt>
      <trkpt lat="42.69422" lon="1.39989">
        <ele>1990.55</ele>
        <time>2014-02-23T14:04:30Z</time>
      </trkpt>
      <trkpt lat="42.69422" lon="1.39988">
        <ele>1988.62</ele>
        <time>2014-02-23T14:04:40Z</time>
      </trkpt>
      <trkpt lat="42.69423" lon="1.39988">
        <ele>1989.1</ele>
        <time>2014-02-23T14:04:41Z</time>
      </trkpt>
      <trkpt lat="42.69426" lon="1.39997">
        <ele>1988.14</ele>
        <time>2014-02-23T14:04:46Z</time>
      </trkpt>
      <trkpt lat="42.69423" lon="1.40009">
        <ele>1988.62</ele>
        <time>2014-02-23T14:04:51Z</time>
      </trkpt>
      <trkpt lat="42.6943" lon="1.40035">
        <ele>1982.38</ele>
        <time>2014-02-23T14:05:00Z</time>
      </trkpt>
      <trkpt lat="42.69441" lon="1.40084">
        <ele>1971.32</ele>
        <time>2014-02-23T14:05:14Z</time>
      </trkpt>
      <trkpt lat="42.69444" lon="1.40114">
        <ele>1964.11</ele>
        <time>2014-02-23T14:05:23Z</time>
      </trkpt>
      <trkpt lat="42.69444" lon="1.40116">
        <ele>1963.63</ele>
        <time>2014-02-23T14:05:29Z</time>
      </trkpt>
      <trkpt lat="42.69456" lon="1.40152">
        <ele>1958.34</ele>
        <time>2014-02-23T14:05:36Z</time>
      </trkpt>
      <trkpt lat="42.69458" lon="1.40159">
        <ele>1957.38</ele>
        <time>2014-02-23T14:05:37Z</time>
      </trkpt>
      <trkpt lat="42.69471" lon="1.40202">
        <ele>1951.13</ele>
        <time>2014-02-23T14:05:43Z</time>
      </trkpt>
      <trkpt lat="42.69511" lon="1.40282">
        <ele>1939.12</ele>
        <time>2014-02-23T14:05:54Z</time>
      </trkpt>
      <trkpt lat="42.69526" lon="1.40304">
        <ele>1937.19</ele>
        <time>2014-02-23T14:05:58Z</time>
      </trkpt>
      <trkpt lat="42.69555" lon="1.40337">
        <ele>1933.83</ele>
        <time>2014-02-23T14:06:09Z</time>
      </trkpt>
      <trkpt lat="42.69556" lon="1.40337">
        <ele>1933.83</ele>
        <time>2014-02-23T14:06:12Z</time>
      </trkpt>
      <trkpt lat="42.69558" lon="1.40319">
        <ele>1929.5</ele>
        <time>2014-02-23T14:06:19Z</time>
      </trkpt>
      <trkpt lat="42.69563" lon="1.4032">
        <ele>1927.1</ele>
        <time>2014-02-23T14:06:25Z</time>
      </trkpt>
      <trkpt lat="42.69566" lon="1.40315">
        <ele>1925.66</ele>
        <time>2014-02-23T14:06:28Z</time>
      </trkpt>
      <trkpt lat="42.69562" lon="1.40296">
        <ele>1921.33</ele>
        <time>2014-02-23T14:06:38Z</time>
      </trkpt>
      <trkpt lat="42.69561" lon="1.40294">
        <ele>1921.33</ele>
        <time>2014-02-23T14:06:41Z</time>
      </trkpt>
      <trkpt lat="42.6957" lon="1.40302">
        <ele>1919.89</ele>
        <time>2014-02-23T14:06:48Z</time>
      </trkpt>
      <trkpt lat="42.69572" lon="1.40291">
        <ele>1917.97</ele>
        <time>2014-02-23T14:06:52Z</time>
      </trkpt>
      <trkpt lat="42.6957" lon="1.40283">
        <ele>1916.53</ele>
        <time>2014-02-23T14:06:56Z</time>
      </trkpt>
      <trkpt lat="42.69573" lon="1.40279">
        <ele>1914.6</ele>
        <time>2014-02-23T14:07:02Z</time>
      </trkpt>
      <trkpt lat="42.69578" lon="1.40273">
        <ele>1912.68</ele>
        <time>2014-02-23T14:07:07Z</time>
      </trkpt>
      <trkpt lat="42.6958" lon="1.40263">
        <ele>1910.76</ele>
        <time>2014-02-23T14:07:12Z</time>
      </trkpt>
      <trkpt lat="42.69589" lon="1.40269">
        <ele>1909.8</ele>
        <time>2014-02-23T14:07:18Z</time>
      </trkpt>
      <trkpt lat="42.69591" lon="1.40276">
        <ele>1908.35</ele>
        <time>2014-02-23T14:07:22Z</time>
      </trkpt>
      <trkpt lat="42.69601" lon="1.40263">
        <ele>1905.47</ele>
        <time>2014-02-23T14:07:30Z</time>
      </trkpt>
      <trkpt lat="42.69606" lon="1.40251">
        <ele>1903.07</ele>
        <time>2014-02-23T14:07:37Z</time>
      </trkpt>
      <trkpt lat="42.69627" lon="1.40249">
        <ele>1898.74</ele>
        <time>2014-02-23T14:07:43Z</time>
      </trkpt>
      <trkpt lat="42.69645" lon="1.4025">
        <ele>1897.78</ele>
        <time>2014-02-23T14:07:49Z</time>
      </trkpt>
      <trkpt lat="42.69645" lon="1.40251">
        <ele>1896.82</ele>
        <time>2014-02-23T14:07:57Z</time>
      </trkpt>
      <trkpt lat="42.69644" lon="1.40249">
        <ele>1897.78</ele>
        <time>2014-02-23T14:08:18Z</time>
      </trkpt>
      <trkpt lat="42.69643" lon="1.40251">
        <ele>1897.3</ele>
        <time>2014-02-23T14:08:21Z</time>
      </trkpt>
      <trkpt lat="42.69645" lon="1.40252">
        <ele>1895.86</ele>
        <time>2014-02-23T14:08:31Z</time>
      </trkpt>
      <trkpt lat="42.69646" lon="1.40252">
        <ele>1894.9</ele>
        <time>2014-02-23T14:09:07Z</time>
      </trkpt>
      <trkpt lat="42.69644" lon="1.40253">
        <ele>1895.86</ele>
        <time>2014-02-23T14:09:27Z</time>
      </trkpt>
      <trkpt lat="42.69645" lon="1.40256">
        <ele>1895.38</ele>
        <time>2014-02-23T14:09:45Z</time>
      </trkpt>
      <trkpt lat="42.69646" lon="1.40255">
        <ele>1895.86</ele>
        <time>2014-02-23T14:09:49Z</time>
      </trkpt>
      <trkpt lat="42.69647" lon="1.40256">
        <ele>1895.86</ele>
        <time>2014-02-23T14:10:02Z</time>
      </trkpt>
      <trkpt lat="42.69648" lon="1.40253">
        <ele>1894.9</ele>
        <time>2014-02-23T14:10:22Z</time>
      </trkpt>
      <trkpt lat="42.69648" lon="1.40255">
        <ele>1896.82</ele>
        <time>2014-02-23T14:10:34Z</time>
      </trkpt>
      <trkpt lat="42.69647" lon="1.40255">
        <ele>1894.9</ele>
        <time>2014-02-23T14:10:48Z</time>
      </trkpt>
      <trkpt lat="42.69649" lon="1.40253">
        <ele>1893.45</ele>
        <time>2014-02-23T14:11:03Z</time>
      </trkpt>
      <trkpt lat="42.69659" lon="1.40251">
        <ele>1892.01</ele>
        <time>2014-02-23T14:11:07Z</time>
      </trkpt>
      <trkpt lat="42.69671" lon="1.40249">
        <ele>1887.69</ele>
        <time>2014-02-23T14:11:15Z</time>
      </trkpt>
      <trkpt lat="42.69692" lon="1.40272">
        <ele>1885.28</ele>
        <time>2014-02-23T14:11:23Z</time>
      </trkpt>
      <trkpt lat="42.69696" lon="1.40271">
        <ele>1884.8</ele>
        <time>2014-02-23T14:11:24Z</time>
      </trkpt>
      <trkpt lat="42.6971" lon="1.4027">
        <ele>1882.4</ele>
        <time>2014-02-23T14:11:29Z</time>
      </trkpt>
      <trkpt lat="42.69712" lon="1.40266">
        <ele>1882.4</ele>
        <time>2014-02-23T14:11:33Z</time>
      </trkpt>
      <trkpt lat="42.69717" lon="1.40271">
        <ele>1882.4</ele>
        <time>2014-02-23T14:11:37Z</time>
      </trkpt>
      <trkpt lat="42.69718" lon="1.40275">
        <ele>1881.44</ele>
        <time>2014-02-23T14:11:43Z</time>
      </trkpt>
      <trkpt lat="42.69721" lon="1.40279">
        <ele>1880.48</ele>
        <time>2014-02-23T14:11:45Z</time>
      </trkpt>
      <trkpt lat="42.69766" lon="1.40328">
        <ele>1873.75</ele>
        <time>2014-02-23T14:11:53Z</time>
      </trkpt>
      <trkpt lat="42.69825" lon="1.40394">
        <ele>1864.13</ele>
        <time>2014-02-23T14:12:04Z</time>
      </trkpt>
      <trkpt lat="42.69829" lon="1.40399">
        <ele>1863.65</ele>
        <time>2014-02-23T14:12:05Z</time>
      </trkpt>
      <trkpt lat="42.69847" lon="1.40421">
        <ele>1859.81</ele>
        <time>2014-02-23T14:12:12Z</time>
      </trkpt>
      <trkpt lat="42.6986" lon="1.40434">
        <ele>1855.48</ele>
        <time>2014-02-23T14:12:19Z</time>
      </trkpt>
      <trkpt lat="42.6986" lon="1.40432">
        <ele>1853.08</ele>
        <time>2014-02-23T14:12:24Z</time>
      </trkpt>
      <trkpt lat="42.69865" lon="1.40429">
        <ele>1851.16</ele>
        <time>2014-02-23T14:12:27Z</time>
      </trkpt>
      <trkpt lat="42.69884" lon="1.40441">
        <ele>1845.39</ele>
        <time>2014-02-23T14:12:34Z</time>
      </trkpt>
      <trkpt lat="42.69891" lon="1.4046">
        <ele>1842.02</ele>
        <time>2014-02-23T14:12:38Z</time>
      </trkpt>
      <trkpt lat="42.699" lon="1.40478">
        <ele>1837.7</ele>
        <time>2014-02-23T14:12:45Z</time>
      </trkpt>
      <trkpt lat="42.69908" lon="1.40471">
        <ele>1834.33</ele>
        <time>2014-02-23T14:12:51Z</time>
      </trkpt>
      <trkpt lat="42.69915" lon="1.40481">
        <ele>1833.37</ele>
        <time>2014-02-23T14:12:56Z</time>
      </trkpt>
      <trkpt lat="42.69919" lon="1.40482">
        <ele>1831.93</ele>
        <time>2014-02-23T14:12:58Z</time>
      </trkpt>
      <trkpt lat="42.69937" lon="1.40504">
        <ele>1824.72</ele>
        <time>2014-02-23T14:13:07Z</time>
      </trkpt>
      <trkpt lat="42.69956" lon="1.40538">
        <ele>1818.95</ele>
        <time>2014-02-23T14:13:18Z</time>
      </trkpt>
      <trkpt lat="42.69957" lon="1.4054">
        <ele>1817.99</ele>
        <time>2014-02-23T14:13:19Z</time>
      </trkpt>
      <trkpt lat="42.69961" lon="1.40529">
        <ele>1814.15</ele>
        <time>2014-02-23T14:13:23Z</time>
      </trkpt>
      <trkpt lat="42.69969" lon="1.40537">
        <ele>1808.38</ele>
        <time>2014-02-23T14:13:29Z</time>
      </trkpt>
      <trkpt lat="42.6998" lon="1.40556">
        <ele>1804.05</ele>
        <time>2014-02-23T14:13:36Z</time>
      </trkpt>
      <trkpt lat="42.69993" lon="1.40564">
        <ele>1796.36</ele>
        <time>2014-02-23T14:13:43Z</time>
      </trkpt>
      <trkpt lat="42.70002" lon="1.4057">
        <ele>1787.71</ele>
        <time>2014-02-23T14:13:49Z</time>
      </trkpt>
      <trkpt lat="42.70016" lon="1.4058">
        <ele>1780.02</ele>
        <time>2014-02-23T14:13:54Z</time>
      </trkpt>
      <trkpt lat="42.70037" lon="1.40574">
        <ele>1773.29</ele>
        <time>2014-02-23T14:13:59Z</time>
      </trkpt>
      <trkpt lat="42.70043" lon="1.40577">
        <ele>1769.44</ele>
        <time>2014-02-23T14:14:02Z</time>
      </trkpt>
      <trkpt lat="42.70047" lon="1.40577">
        <ele>1768.48</ele>
        <time>2014-02-23T14:14:03Z</time>
      </trkpt>
      <trkpt lat="42.70053" lon="1.40578">
        <ele>1767.04</ele>
        <time>2014-02-23T14:14:04Z</time>
      </trkpt>
      <trkpt lat="42.70057" lon="1.40582">
        <ele>1765.6</ele>
        <time>2014-02-23T14:14:05Z</time>
      </trkpt>
      <trkpt lat="42.70059" lon="1.40584">
        <ele>1764.64</ele>
        <time>2014-02-23T14:14:06Z</time>
      </trkpt>
      <trkpt lat="42.70061" lon="1.40586">
        <ele>1763.2</ele>
        <time>2014-02-23T14:14:07Z</time>
      </trkpt>
      <trkpt lat="42.70065" lon="1.40588">
        <ele>1762.23</ele>
        <time>2014-02-23T14:14:08Z</time>
      </trkpt>
      <trkpt lat="42.70068" lon="1.40591">
        <ele>1760.79</ele>
        <time>2014-02-23T14:14:09Z</time>
      </trkpt>
      <trkpt lat="42.70072" lon="1.40594">
        <ele>1759.35</ele>
        <time>2014-02-23T14:14:10Z</time>
      </trkpt>
      <trkpt lat="42.70077" lon="1.40596">
        <ele>1753.58</ele>
        <time>2014-02-23T14:14:17Z</time>
      </trkpt>
      <trkpt lat="42.70081" lon="1.406">
        <ele>1749.26</ele>
        <time>2014-02-23T14:14:38Z</time>
      </trkpt>
      <trkpt lat="42.70088" lon="1.40606">
        <ele>1747.33</ele>
        <time>2014-02-23T14:14:44Z</time>
      </trkpt>
      <trkpt lat="42.70094" lon="1.40597">
        <ele>1746.37</ele>
        <time>2014-02-23T14:14:50Z</time>
      </trkpt>
      <trkpt lat="42.70098" lon="1.40602">
        <ele>1745.41</ele>
        <time>2014-02-23T14:14:52Z</time>
      </trkpt>
      <trkpt lat="42.7011" lon="1.40601">
        <ele>1740.6</ele>
        <time>2014-02-23T14:14:58Z</time>
      </trkpt>
      <trkpt lat="42.70114" lon="1.40589">
        <ele>1737.24</ele>
        <time>2014-02-23T14:15:03Z</time>
      </trkpt>
      <trkpt lat="42.70124" lon="1.4059">
        <ele>1732.91</ele>
        <time>2014-02-23T14:15:09Z</time>
      </trkpt>
      <trkpt lat="42.70133" lon="1.40594">
        <ele>1728.11</ele>
        <time>2014-02-23T14:15:13Z</time>
      </trkpt>
      <trkpt lat="42.70139" lon="1.406">
        <ele>1724.74</ele>
        <time>2014-02-23T14:15:16Z</time>
      </trkpt>
      <trkpt lat="42.7015" lon="1.40609">
        <ele>1719.94</ele>
        <time>2014-02-23T14:15:19Z</time>
      </trkpt>
      <trkpt lat="42.70162" lon="1.40619">
        <ele>1717.53</ele>
        <time>2014-02-23T14:15:22Z</time>
      </trkpt>
      <trkpt lat="42.70172" lon="1.40612">
        <ele>1711.76</ele>
        <time>2014-02-23T14:15:28Z</time>
      </trkpt>
      <trkpt lat="42.70186" lon="1.40607">
        <ele>1703.59</ele>
        <time>2014-02-23T14:15:35Z</time>
      </trkpt>
      <trkpt lat="42.70193" lon="1.40611">
        <ele>1700.71</ele>
        <time>2014-02-23T14:15:37Z</time>
      </trkpt>
      <trkpt lat="42.70204" lon="1.40599">
        <ele>1694.46</ele>
        <time>2014-02-23T14:15:44Z</time>
      </trkpt>
      <trkpt lat="42.70213" lon="1.40593">
        <ele>1689.65</ele>
        <time>2014-02-23T14:15:50Z</time>
      </trkpt>
      <trkpt lat="42.70217" lon="1.40592">
        <ele>1685.33</ele>
        <time>2014-02-23T14:15:56Z</time>
      </trkpt>
      <trkpt lat="42.70215" lon="1.40593">
        <ele>1688.21</ele>
        <time>2014-02-23T14:16:11Z</time>
      </trkpt>
      <trkpt lat="42.7022" lon="1.40594">
        <ele>1688.21</ele>
        <time>2014-02-23T14:16:19Z</time>
      </trkpt>
      <trkpt lat="42.70225" lon="1.4058">
        <ele>1685.81</ele>
        <time>2014-02-23T14:16:24Z</time>
      </trkpt>
      <trkpt lat="42.70225" lon="1.40577">
        <ele>1685.33</ele>
        <time>2014-02-23T14:16:25Z</time>
      </trkpt>
      <trkpt lat="42.70225" lon="1.40575">
        <ele>1684.37</ele>
        <time>2014-02-23T14:16:26Z</time>
      </trkpt>
      <trkpt lat="42.7023" lon="1.40575">
        <ele>1683.89</ele>
        <time>2014-02-23T14:16:29Z</time>
      </trkpt>
      <trkpt lat="42.70233" lon="1.40576">
        <ele>1681.96</ele>
        <time>2014-02-23T14:16:41Z</time>
      </trkpt>
      <trkpt lat="42.70234" lon="1.40575">
        <ele>1681.96</ele>
        <time>2014-02-23T14:16:43Z</time>
      </trkpt>
      <trkpt lat="42.70237" lon="1.40572">
        <ele>1681.48</ele>
        <time>2014-02-23T14:16:45Z</time>
      </trkpt>
      <trkpt lat="42.70239" lon="1.4057">
        <ele>1680.52</ele>
        <time>2014-02-23T14:16:46Z</time>
      </trkpt>
      <trkpt lat="42.70242" lon="1.40569">
        <ele>1679.56</ele>
        <time>2014-02-23T14:16:47Z</time>
      </trkpt>
      <trkpt lat="42.70244" lon="1.40571">
        <ele>1678.6</ele>
        <time>2014-02-23T14:16:48Z</time>
      </trkpt>
      <trkpt lat="42.70246" lon="1.40572">
        <ele>1678.6</ele>
        <time>2014-02-23T14:16:49Z</time>
      </trkpt>
      <trkpt lat="42.70247" lon="1.40573">
        <ele>1678.12</ele>
        <time>2014-02-23T14:16:50Z</time>
      </trkpt>
      <trkpt lat="42.70249" lon="1.40574">
        <ele>1678.12</ele>
        <time>2014-02-23T14:16:51Z</time>
      </trkpt>
      <trkpt lat="42.7025" lon="1.40574">
        <ele>1677.64</ele>
        <time>2014-02-23T14:16:52Z</time>
      </trkpt>
      <trkpt lat="42.70251" lon="1.40572">
        <ele>1677.16</ele>
        <time>2014-02-23T14:16:53Z</time>
      </trkpt>
      <trkpt lat="42.70251" lon="1.4057">
        <ele>1676.68</ele>
        <time>2014-02-23T14:16:54Z</time>
      </trkpt>
      <trkpt lat="42.70252" lon="1.40568">
        <ele>1676.2</ele>
        <time>2014-02-23T14:16:55Z</time>
      </trkpt>
      <trkpt lat="42.7026" lon="1.40568">
        <ele>1674.27</ele>
        <time>2014-02-23T14:17:02Z</time>
      </trkpt>
      <trkpt lat="42.70284" lon="1.40551">
        <ele>1670.91</ele>
        <time>2014-02-23T14:17:09Z</time>
      </trkpt>
      <trkpt lat="42.70287" lon="1.40549">
        <ele>1670.43</ele>
        <time>2014-02-23T14:17:11Z</time>
      </trkpt>
      <trkpt lat="42.70292" lon="1.40548">
        <ele>1668.99</ele>
        <time>2014-02-23T14:17:23Z</time>
      </trkpt>
      <trkpt lat="42.70292" lon="1.40548">
        <ele>1667.54</ele>
        <time>2014-02-23T14:17:35Z</time>
      </trkpt>
      <trkpt lat="42.70294" lon="1.4056">
        <ele>1666.58</ele>
        <time>2014-02-23T14:17:39Z</time>
      </trkpt>
      <trkpt lat="42.70301" lon="1.40562">
        <ele>1665.14</ele>
        <time>2014-02-23T14:17:41Z</time>
      </trkpt>
      <trkpt lat="42.70304" lon="1.40561">
        <ele>1664.18</ele>
        <time>2014-02-23T14:17:42Z</time>
      </trkpt>
      <trkpt lat="42.70307" lon="1.4056">
        <ele>1663.7</ele>
        <time>2014-02-23T14:17:43Z</time>
      </trkpt>
      <trkpt lat="42.7031" lon="1.4056">
        <ele>1662.74</ele>
        <time>2014-02-23T14:17:44Z</time>
      </trkpt>
      <trkpt lat="42.70314" lon="1.4057">
        <ele>1660.81</ele>
        <time>2014-02-23T14:17:47Z</time>
      </trkpt>
      <trkpt lat="42.70317" lon="1.40569">
        <ele>1660.33</ele>
        <time>2014-02-23T14:17:48Z</time>
      </trkpt>
      <trkpt lat="42.7032" lon="1.40567">
        <ele>1659.85</ele>
        <time>2014-02-23T14:17:49Z</time>
      </trkpt>
      <trkpt lat="42.70323" lon="1.40564">
        <ele>1659.37</ele>
        <time>2014-02-23T14:17:50Z</time>
      </trkpt>
      <trkpt lat="42.70326" lon="1.40561">
        <ele>1658.89</ele>
        <time>2014-02-23T14:17:54Z</time>
      </trkpt>
      <trkpt lat="42.70328" lon="1.40563">
        <ele>1657.45</ele>
        <time>2014-02-23T14:17:56Z</time>
      </trkpt>
      <trkpt lat="42.7033" lon="1.40572">
        <ele>1655.53</ele>
        <time>2014-02-23T14:17:59Z</time>
      </trkpt>
      <trkpt lat="42.7033" lon="1.40575">
        <ele>1655.05</ele>
        <time>2014-02-23T14:18:00Z</time>
      </trkpt>
      <trkpt lat="42.70332" lon="1.40577">
        <ele>1654.09</ele>
        <time>2014-02-23T14:18:01Z</time>
      </trkpt>
      <trkpt lat="42.70335" lon="1.4058">
        <ele>1653.12</ele>
        <time>2014-02-23T14:18:02Z</time>
      </trkpt>
      <trkpt lat="42.70338" lon="1.40582">
        <ele>1652.64</ele>
        <time>2014-02-23T14:18:03Z</time>
      </trkpt>
      <trkpt lat="42.70342" lon="1.40584">
        <ele>1651.68</ele>
        <time>2014-02-23T14:18:04Z</time>
      </trkpt>
      <trkpt lat="42.70354" lon="1.4059">
        <ele>1649.28</ele>
        <time>2014-02-23T14:18:06Z</time>
      </trkpt>
      <trkpt lat="42.7036" lon="1.40596">
        <ele>1647.84</ele>
        <time>2014-02-23T14:18:07Z</time>
      </trkpt>
      <trkpt lat="42.70363" lon="1.40601">
        <ele>1647.36</ele>
        <time>2014-02-23T14:18:08Z</time>
      </trkpt>
      <trkpt lat="42.70364" lon="1.40605">
        <ele>1646.88</ele>
        <time>2014-02-23T14:18:09Z</time>
      </trkpt>
      <trkpt lat="42.70368" lon="1.40617">
        <ele>1645.91</ele>
        <time>2014-02-23T14:18:16Z</time>
      </trkpt>
      <trkpt lat="42.7038" lon="1.40615">
        <ele>1641.11</ele>
        <time>2014-02-23T14:18:21Z</time>
      </trkpt>
      <trkpt lat="42.70383" lon="1.40618">
        <ele>1640.15</ele>
        <time>2014-02-23T14:18:22Z</time>
      </trkpt>
      <trkpt lat="42.70387" lon="1.4062">
        <ele>1639.19</ele>
        <time>2014-02-23T14:18:23Z</time>
      </trkpt>
      <trkpt lat="42.70393" lon="1.40617">
        <ele>1636.78</ele>
        <time>2014-02-23T14:18:25Z</time>
      </trkpt>
      <trkpt lat="42.70396" lon="1.40619">
        <ele>1635.34</ele>
        <time>2014-02-23T14:18:26Z</time>
      </trkpt>
      <trkpt lat="42.70399" lon="1.40619">
        <ele>1633.9</ele>
        <time>2014-02-23T14:18:27Z</time>
      </trkpt>
      <trkpt lat="42.70401" lon="1.40616">
        <ele>1632.94</ele>
        <time>2014-02-23T14:18:28Z</time>
      </trkpt>
      <trkpt lat="42.70411" lon="1.40615">
        <ele>1629.09</ele>
        <time>2014-02-23T14:18:31Z</time>
      </trkpt>
      <trkpt lat="42.70413" lon="1.40617">
        <ele>1628.13</ele>
        <time>2014-02-23T14:18:32Z</time>
      </trkpt>
      <trkpt lat="42.70416" lon="1.40617">
        <ele>1627.17</ele>
        <time>2014-02-23T14:18:34Z</time>
      </trkpt>
      <trkpt lat="42.70417" lon="1.40615">
        <ele>1626.21</ele>
        <time>2014-02-23T14:18:35Z</time>
      </trkpt>
      <trkpt lat="42.70419" lon="1.40614">
        <ele>1625.25</ele>
        <time>2014-02-23T14:18:36Z</time>
      </trkpt>
      <trkpt lat="42.7042" lon="1.40616">
        <ele>1623.8</ele>
        <time>2014-02-23T14:18:39Z</time>
      </trkpt>
      <trkpt lat="42.70422" lon="1.40619">
        <ele>1623.32</ele>
        <time>2014-02-23T14:18:49Z</time>
      </trkpt>
      <trkpt lat="42.70422" lon="1.4062">
        <ele>1623.8</ele>
        <time>2014-02-23T14:18:52Z</time>
      </trkpt>
      <trkpt lat="42.70423" lon="1.40627">
        <ele>1622.84</ele>
        <time>2014-02-23T14:18:55Z</time>
      </trkpt>
      <trkpt lat="42.70422" lon="1.40631">
        <ele>1622.84</ele>
        <time>2014-02-23T14:18:56Z</time>
      </trkpt>
      <trkpt lat="42.70422" lon="1.40634">
        <ele>1622.36</ele>
        <time>2014-02-23T14:18:57Z</time>
      </trkpt>
      <trkpt lat="42.70422" lon="1.40637">
        <ele>1621.88</ele>
        <time>2014-02-23T14:18:58Z</time>
      </trkpt>
      <trkpt lat="42.70423" lon="1.40639">
        <ele>1621.88</ele>
        <time>2014-02-23T14:18:59Z</time>
      </trkpt>
      <trkpt lat="42.70425" lon="1.40648">
        <ele>1620.44</ele>
        <time>2014-02-23T14:19:02Z</time>
      </trkpt>
      <trkpt lat="42.70427" lon="1.40647">
        <ele>1619.96</ele>
        <time>2014-02-23T14:19:03Z</time>
      </trkpt>
      <trkpt lat="42.70429" lon="1.40648">
        <ele>1619</ele>
        <time>2014-02-23T14:19:04Z</time>
      </trkpt>
      <trkpt lat="42.70431" lon="1.4065">
        <ele>1618.52</ele>
        <time>2014-02-23T14:19:05Z</time>
      </trkpt>
      <trkpt lat="42.70431" lon="1.40651">
        <ele>1618.52</ele>
        <time>2014-02-23T14:19:06Z</time>
      </trkpt>
      <trkpt lat="42.70432" lon="1.40653">
        <ele>1617.56</ele>
        <time>2014-02-23T14:19:07Z</time>
      </trkpt>
      <trkpt lat="42.70433" lon="1.40655">
        <ele>1617.07</ele>
        <time>2014-02-23T14:19:08Z</time>
      </trkpt>
      <trkpt lat="42.70435" lon="1.40654">
        <ele>1614.67</ele>
        <time>2014-02-23T14:19:12Z</time>
      </trkpt>
      <trkpt lat="42.7044" lon="1.40647">
        <ele>1611.79</ele>
        <time>2014-02-23T14:19:20Z</time>
      </trkpt>
      <trkpt lat="42.70441" lon="1.40648">
        <ele>1610.83</ele>
        <time>2014-02-23T14:19:21Z</time>
      </trkpt>
      <trkpt lat="42.70445" lon="1.4065">
        <ele>1609.86</ele>
        <time>2014-02-23T14:19:24Z</time>
      </trkpt>
      <trkpt lat="42.70446" lon="1.40653">
        <ele>1609.38</ele>
        <time>2014-02-23T14:19:25Z</time>
      </trkpt>
      <trkpt lat="42.70447" lon="1.40655">
        <ele>1609.38</ele>
        <time>2014-02-23T14:19:27Z</time>
      </trkpt>
      <trkpt lat="42.70451" lon="1.40656">
        <ele>1608.42</ele>
        <time>2014-02-23T14:19:29Z</time>
      </trkpt>
      <trkpt lat="42.70453" lon="1.40655">
        <ele>1607.94</ele>
        <time>2014-02-23T14:19:30Z</time>
      </trkpt>
      <trkpt lat="42.7046" lon="1.40645">
        <ele>1602.66</ele>
        <time>2014-02-23T14:19:38Z</time>
      </trkpt>
      <trkpt lat="42.70469" lon="1.40625">
        <ele>1597.85</ele>
        <time>2014-02-23T14:19:44Z</time>
      </trkpt>
      <trkpt lat="42.70472" lon="1.40625">
        <ele>1596.89</ele>
        <time>2014-02-23T14:19:45Z</time>
      </trkpt>
      <trkpt lat="42.70473" lon="1.40627">
        <ele>1595.93</ele>
        <time>2014-02-23T14:19:46Z</time>
      </trkpt>
      <trkpt lat="42.70475" lon="1.40628">
        <ele>1594.96</ele>
        <time>2014-02-23T14:19:47Z</time>
      </trkpt>
      <trkpt lat="42.70477" lon="1.40629">
        <ele>1594</ele>
        <time>2014-02-23T14:19:48Z</time>
      </trkpt>
      <trkpt lat="42.70478" lon="1.40628">
        <ele>1593.04</ele>
        <time>2014-02-23T14:19:49Z</time>
      </trkpt>
      <trkpt lat="42.70479" lon="1.40626">
        <ele>1592.08</ele>
        <time>2014-02-23T14:19:50Z</time>
      </trkpt>
      <trkpt lat="42.7048" lon="1.40623">
        <ele>1591.12</ele>
        <time>2014-02-23T14:19:51Z</time>
      </trkpt>
      <trkpt lat="42.70483" lon="1.40614">
        <ele>1587.27</ele>
        <time>2014-02-23T14:19:54Z</time>
      </trkpt>
      <trkpt lat="42.70486" lon="1.40614">
        <ele>1586.31</ele>
        <time>2014-02-23T14:19:55Z</time>
      </trkpt>
      <trkpt lat="42.70488" lon="1.40616">
        <ele>1584.87</ele>
        <time>2014-02-23T14:19:56Z</time>
      </trkpt>
      <trkpt lat="42.70494" lon="1.40626">
        <ele>1581.99</ele>
        <time>2014-02-23T14:20:00Z</time>
      </trkpt>
      <trkpt lat="42.70497" lon="1.40631">
        <ele>1581.03</ele>
        <time>2014-02-23T14:20:03Z</time>
      </trkpt>
      <trkpt lat="42.705" lon="1.4063">
        <ele>1579.58</ele>
        <time>2014-02-23T14:20:04Z</time>
      </trkpt>
      <trkpt lat="42.70503" lon="1.40627">
        <ele>1577.18</ele>
        <time>2014-02-23T14:20:07Z</time>
      </trkpt>
      <trkpt lat="42.70506" lon="1.40628">
        <ele>1576.22</ele>
        <time>2014-02-23T14:20:08Z</time>
      </trkpt>
      <trkpt lat="42.70507" lon="1.40628">
        <ele>1574.78</ele>
        <time>2014-02-23T14:20:09Z</time>
      </trkpt>
      <trkpt lat="42.70508" lon="1.40629">
        <ele>1573.82</ele>
        <time>2014-02-23T14:20:10Z</time>
      </trkpt>
      <trkpt lat="42.70509" lon="1.4063">
        <ele>1572.85</ele>
        <time>2014-02-23T14:20:11Z</time>
      </trkpt>
      <trkpt lat="42.7051" lon="1.4063">
        <ele>1572.37</ele>
        <time>2014-02-23T14:20:12Z</time>
      </trkpt>
      <trkpt lat="42.7051" lon="1.40627">
        <ele>1571.41</ele>
        <time>2014-02-23T14:20:15Z</time>
      </trkpt>
      <trkpt lat="42.7051" lon="1.40625">
        <ele>1571.41</ele>
        <time>2014-02-23T14:20:16Z</time>
      </trkpt>
      <trkpt lat="42.70512" lon="1.40623">
        <ele>1570.93</ele>
        <time>2014-02-23T14:20:18Z</time>
      </trkpt>
      <trkpt lat="42.70514" lon="1.40623">
        <ele>1570.93</ele>
        <time>2014-02-23T14:20:19Z</time>
      </trkpt>
      <trkpt lat="42.70516" lon="1.40626">
        <ele>1570.45</ele>
        <time>2014-02-23T14:20:20Z</time>
      </trkpt>
      <trkpt lat="42.70518" lon="1.4063">
        <ele>1570.45</ele>
        <time>2014-02-23T14:20:21Z</time>
      </trkpt>
      <trkpt lat="42.70519" lon="1.40633">
        <ele>1570.45</ele>
        <time>2014-02-23T14:20:22Z</time>
      </trkpt>
      <trkpt lat="42.70519" lon="1.40635">
        <ele>1569.97</ele>
        <time>2014-02-23T14:20:30Z</time>
      </trkpt>
      <trkpt lat="42.7052" lon="1.40637">
        <ele>1569.01</ele>
        <time>2014-02-23T14:20:31Z</time>
      </trkpt>
      <trkpt lat="42.70522" lon="1.40642">
        <ele>1566.61</ele>
        <time>2014-02-23T14:20:40Z</time>
      </trkpt>
      <trkpt lat="42.70523" lon="1.40646">
        <ele>1565.16</ele>
        <time>2014-02-23T14:20:59Z</time>
      </trkpt>
      <trkpt lat="42.70524" lon="1.40645">
        <ele>1566.12</ele>
        <time>2014-02-23T14:21:15Z</time>
      </trkpt>
      <trkpt lat="42.70525" lon="1.40648">
        <ele>1566.12</ele>
        <time>2014-02-23T14:21:22Z</time>
      </trkpt>
      <trkpt lat="42.70528" lon="1.40652">
        <ele>1565.16</ele>
        <time>2014-02-23T14:21:26Z</time>
      </trkpt>
      <trkpt lat="42.7053" lon="1.40655">
        <ele>1564.68</ele>
        <time>2014-02-23T14:21:27Z</time>
      </trkpt>
      <trkpt lat="42.70531" lon="1.40658">
        <ele>1564.68</ele>
        <time>2014-02-23T14:21:28Z</time>
      </trkpt>
      <trkpt lat="42.70531" lon="1.40661">
        <ele>1564.68</ele>
        <time>2014-02-23T14:21:29Z</time>
      </trkpt>
      <trkpt lat="42.70532" lon="1.40663">
        <ele>1564.2</ele>
        <time>2014-02-23T14:21:30Z</time>
      </trkpt>
      <trkpt lat="42.70532" lon="1.40665">
        <ele>1564.2</ele>
        <time>2014-02-23T14:21:31Z</time>
      </trkpt>
      <trkpt lat="42.70533" lon="1.40667">
        <ele>1563.72</ele>
        <time>2014-02-23T14:21:32Z</time>
      </trkpt>
      <trkpt lat="42.70533" lon="1.40669">
        <ele>1563.72</ele>
        <time>2014-02-23T14:21:33Z</time>
      </trkpt>
      <trkpt lat="42.70533" lon="1.40671">
        <ele>1563.72</ele>
        <time>2014-02-23T14:21:34Z</time>
      </trkpt>
      <trkpt lat="42.70533" lon="1.40673">
        <ele>1564.2</ele>
        <time>2014-02-23T14:21:35Z</time>
      </trkpt>
      <trkpt lat="42.70532" lon="1.40675">
        <ele>1564.2</ele>
        <time>2014-02-23T14:21:36Z</time>
      </trkpt>
      <trkpt lat="42.70532" lon="1.40677">
        <ele>1564.68</ele>
        <time>2014-02-23T14:21:37Z</time>
      </trkpt>
      <trkpt lat="42.70532" lon="1.4068">
        <ele>1564.68</ele>
        <time>2014-02-23T14:21:38Z</time>
      </trkpt>
      <trkpt lat="42.70532" lon="1.40685">
        <ele>1565.64</ele>
        <time>2014-02-23T14:21:43Z</time>
      </trkpt>
      <trkpt lat="42.70534" lon="1.40691">
        <ele>1565.16</ele>
        <time>2014-02-23T14:21:49Z</time>
      </trkpt>
      <trkpt lat="42.70535" lon="1.40692">
        <ele>1565.64</ele>
        <time>2014-02-23T14:21:50Z</time>
      </trkpt>
      <trkpt lat="42.70535" lon="1.40694">
        <ele>1565.64</ele>
        <time>2014-02-23T14:21:51Z</time>
      </trkpt>
      <trkpt lat="42.70536" lon="1.40696">
        <ele>1566.12</ele>
        <time>2014-02-23T14:21:52Z</time>
      </trkpt>
      <trkpt lat="42.70536" lon="1.40697">
        <ele>1566.61</ele>
        <time>2014-02-23T14:21:53Z</time>
      </trkpt>
      <trkpt lat="42.70536" lon="1.40698">
        <ele>1567.09</ele>
        <time>2014-02-23T14:21:54Z</time>
      </trkpt>
      <trkpt lat="42.70536" lon="1.407">
        <ele>1567.09</ele>
        <time>2014-02-23T14:21:57Z</time>
      </trkpt>
      <trkpt lat="42.70537" lon="1.40702">
        <ele>1567.09</ele>
        <time>2014-02-23T14:21:58Z</time>
      </trkpt>
      <trkpt lat="42.70536" lon="1.40706">
        <ele>1567.09</ele>
        <time>2014-02-23T14:21:59Z</time>
      </trkpt>
      <trkpt lat="42.70536" lon="1.40708">
        <ele>1567.09</ele>
        <time>2014-02-23T14:22:00Z</time>
      </trkpt>
      <trkpt lat="42.70537" lon="1.4071">
        <ele>1567.09</ele>
        <time>2014-02-23T14:22:01Z</time>
      </trkpt>
      <trkpt lat="42.70538" lon="1.40713">
        <ele>1567.57</ele>
        <time>2014-02-23T14:22:02Z</time>
      </trkpt>
      <trkpt lat="42.70538" lon="1.40716">
        <ele>1568.05</ele>
        <time>2014-02-23T14:22:03Z</time>
      </trkpt>
      <trkpt lat="42.70539" lon="1.40719">
        <ele>1568.05</ele>
        <time>2014-02-23T14:22:04Z</time>
      </trkpt>
      <trkpt lat="42.7054" lon="1.4072">
        <ele>1567.57</ele>
        <time>2014-02-23T14:22:05Z</time>
      </trkpt>
      <trkpt lat="42.70543" lon="1.40727">
        <ele>1568.53</ele>
        <time>2014-02-23T14:22:11Z</time>
      </trkpt>
      <trkpt lat="42.70545" lon="1.40728">
        <ele>1569.01</ele>
        <time>2014-02-23T14:22:12Z</time>
      </trkpt>
      <trkpt lat="42.70547" lon="1.40728">
        <ele>1569.49</ele>
        <time>2014-02-23T14:22:13Z</time>
      </trkpt>
      <trkpt lat="42.70552" lon="1.40725">
        <ele>1569.97</ele>
        <time>2014-02-23T14:22:15Z</time>
      </trkpt>
      <trkpt lat="42.70556" lon="1.40722">
        <ele>1569.97</ele>
        <time>2014-02-23T14:22:16Z</time>
      </trkpt>
      <trkpt lat="42.70563" lon="1.40721">
        <ele>1569.97</ele>
        <time>2014-02-23T14:22:21Z</time>
      </trkpt>
      <trkpt lat="42.70562" lon="1.40727">
        <ele>1569.97</ele>
        <time>2014-02-23T14:22:22Z</time>
      </trkpt>
      <trkpt lat="42.70563" lon="1.40731">
        <ele>1569.97</ele>
        <time>2014-02-23T14:22:23Z</time>
      </trkpt>
      <trkpt lat="42.70563" lon="1.40736">
        <ele>1569.97</ele>
        <time>2014-02-23T14:22:24Z</time>
      </trkpt>
      <trkpt lat="42.70564" lon="1.40741">
        <ele>1569.97</ele>
        <time>2014-02-23T14:22:25Z</time>
      </trkpt>
      <trkpt lat="42.70565" lon="1.40744">
        <ele>1569.97</ele>
        <time>2014-02-23T14:22:26Z</time>
      </trkpt>
      <trkpt lat="42.70566" lon="1.40748">
        <ele>1569.97</ele>
        <time>2014-02-23T14:22:27Z</time>
      </trkpt>
      <trkpt lat="42.70566" lon="1.4075">
        <ele>1569.97</ele>
        <time>2014-02-23T14:22:29Z</time>
      </trkpt>
      <trkpt lat="42.70566" lon="1.40752">
        <ele>1569.49</ele>
        <time>2014-02-23T14:22:30Z</time>
      </trkpt>
      <trkpt lat="42.70567" lon="1.40755">
        <ele>1569.49</ele>
        <time>2014-02-23T14:22:31Z</time>
      </trkpt>
      <trkpt lat="42.70567" lon="1.40758">
        <ele>1569.49</ele>
        <time>2014-02-23T14:22:32Z</time>
      </trkpt>
      <trkpt lat="42.70567" lon="1.4076">
        <ele>1569.97</ele>
        <time>2014-02-23T14:22:33Z</time>
      </trkpt>
      <trkpt lat="42.70568" lon="1.40767">
        <ele>1569.97</ele>
        <time>2014-02-23T14:22:36Z</time>
      </trkpt>
      <trkpt lat="42.70571" lon="1.40771">
        <ele>1570.45</ele>
        <time>2014-02-23T14:22:39Z</time>
      </trkpt>
      <trkpt lat="42.70573" lon="1.40772">
        <ele>1570.45</ele>
        <time>2014-02-23T14:22:40Z</time>
      </trkpt>
      <trkpt lat="42.70575" lon="1.40776">
        <ele>1570.45</ele>
        <time>2014-02-23T14:22:41Z</time>
      </trkpt>
      <trkpt lat="42.70576" lon="1.40781">
        <ele>1570.45</ele>
        <time>2014-02-23T14:22:42Z</time>
      </trkpt>
      <trkpt lat="42.70576" lon="1.40785">
        <ele>1570.45</ele>
        <time>2014-02-23T14:22:43Z</time>
      </trkpt>
      <trkpt lat="42.70576" lon="1.40788">
        <ele>1570.93</ele>
        <time>2014-02-23T14:22:44Z</time>
      </trkpt>
      <trkpt lat="42.70578" lon="1.40791">
        <ele>1570.93</ele>
        <time>2014-02-23T14:22:45Z</time>
      </trkpt>
      <trkpt lat="42.70579" lon="1.40794">
        <ele>1570.93</ele>
        <time>2014-02-23T14:22:46Z</time>
      </trkpt>
      <trkpt lat="42.7058" lon="1.40796">
        <ele>1570.93</ele>
        <time>2014-02-23T14:22:47Z</time>
      </trkpt>
      <trkpt lat="42.70589" lon="1.40809">
        <ele>1569.97</ele>
        <time>2014-02-23T14:22:52Z</time>
      </trkpt>
      <trkpt lat="42.70591" lon="1.40808">
        <ele>1569.97</ele>
        <time>2014-02-23T14:22:53Z</time>
      </trkpt>
      <trkpt lat="42.70593" lon="1.40805">
        <ele>1569.97</ele>
        <time>2014-02-23T14:22:54Z</time>
      </trkpt>
      <trkpt lat="42.70595" lon="1.40802">
        <ele>1569.49</ele>
        <time>2014-02-23T14:22:55Z</time>
      </trkpt>
      <trkpt lat="42.70596" lon="1.40799">
        <ele>1569.49</ele>
        <time>2014-02-23T14:22:56Z</time>
      </trkpt>
      <trkpt lat="42.70596" lon="1.40797">
        <ele>1569.49</ele>
        <time>2014-02-23T14:22:57Z</time>
      </trkpt>
      <trkpt lat="42.70594" lon="1.40796">
        <ele>1569.01</ele>
        <time>2014-02-23T14:22:58Z</time>
      </trkpt>
      <trkpt lat="42.70593" lon="1.40798">
        <ele>1567.57</ele>
        <time>2014-02-23T14:23:00Z</time>
      </trkpt>
      <trkpt lat="42.70596" lon="1.40798">
        <ele>1567.57</ele>
        <time>2014-02-23T14:23:01Z</time>
      </trkpt>
      <trkpt lat="42.70598" lon="1.40799">
        <ele>1566.61</ele>
        <time>2014-02-23T14:23:02Z</time>
      </trkpt>
      <trkpt lat="42.70604" lon="1.40799">
        <ele>1566.12</ele>
        <time>2014-02-23T14:23:04Z</time>
      </trkpt>
      <trkpt lat="42.70607" lon="1.40801">
        <ele>1566.12</ele>
        <time>2014-02-23T14:23:05Z</time>
      </trkpt>
      <trkpt lat="42.70599" lon="1.40803">
        <ele>1560.36</ele>
        <time>2014-02-23T14:23:13Z</time>
      </trkpt>
      <trkpt lat="42.70599" lon="1.408">
        <ele>1555.07</ele>
        <time>2014-02-23T14:23:21Z</time>
      </trkpt>
      <trkpt lat="42.70598" lon="1.40794">
        <ele>1554.11</ele>
        <time>2014-02-23T14:23:24Z</time>
      </trkpt>
      <trkpt lat="42.70601" lon="1.40794">
        <ele>1550.26</ele>
        <time>2014-02-23T14:23:25Z</time>
      </trkpt>
      <trkpt lat="42.7061" lon="1.40794">
        <ele>1535.36</ele>
        <time>2014-02-23T14:23:35Z</time>
      </trkpt>
      <trkpt lat="42.70612" lon="1.40793">
        <ele>1521.9</ele>
        <time>2014-02-23T14:23:50Z</time>
      </trkpt>
      <trkpt lat="42.7061" lon="1.4079">
        <ele>1516.62</ele>
        <time>2014-02-23T14:24:09Z</time>
      </trkpt>
      <trkpt lat="42.7061" lon="1.40794">
        <ele>1512.29</ele>
        <time>2014-02-23T14:24:29Z</time>
      </trkpt>
      <trkpt lat="42.7061" lon="1.40788">
        <ele>1508.45</ele>
        <time>2014-02-23T14:24:48Z</time>
      </trkpt>
      <trkpt lat="42.70611" lon="1.40787">
        <ele>1507.48</ele>
        <time>2014-02-23T14:24:52Z</time>
      </trkpt>
      <trkpt lat="42.70614" lon="1.40785">
        <ele>1506.04</ele>
        <time>2014-02-23T14:24:55Z</time>
      </trkpt>
      <trkpt lat="42.70616" lon="1.40786">
        <ele>1506.04</ele>
        <time>2014-02-23T14:24:56Z</time>
      </trkpt>
      <trkpt lat="42.70617" lon="1.40788">
        <ele>1506.04</ele>
        <time>2014-02-23T14:24:57Z</time>
      </trkpt>
      <trkpt lat="42.70618" lon="1.40789">
        <ele>1506.04</ele>
        <time>2014-02-23T14:24:58Z</time>
      </trkpt>
      <trkpt lat="42.7062" lon="1.40791">
        <ele>1505.56</ele>
        <time>2014-02-23T14:24:59Z</time>
      </trkpt>
      <trkpt lat="42.70621" lon="1.40791">
        <ele>1505.56</ele>
        <time>2014-02-23T14:25:00Z</time>
      </trkpt>
      <trkpt lat="42.70622" lon="1.40794">
        <ele>1505.56</ele>
        <time>2014-02-23T14:25:03Z</time>
      </trkpt>
      <trkpt lat="42.70624" lon="1.40796">
        <ele>1504.6</ele>
        <time>2014-02-23T14:25:04Z</time>
      </trkpt>
      <trkpt lat="42.70626" lon="1.40799">
        <ele>1504.12</ele>
        <time>2014-02-23T14:25:05Z</time>
      </trkpt>
      <trkpt lat="42.70633" lon="1.40806">
        <ele>1499.79</ele>
        <time>2014-02-23T14:25:12Z</time>
      </trkpt>
      <trkpt lat="42.70642" lon="1.40817">
        <ele>1496.91</ele>
        <time>2014-02-23T14:25:22Z</time>
      </trkpt>
      <trkpt lat="42.70644" lon="1.40823">
        <ele>1496.43</ele>
        <time>2014-02-23T14:25:28Z</time>
      </trkpt>
      <trkpt lat="42.70645" lon="1.40842">
        <ele>1494.99</ele>
        <time>2014-02-23T14:25:32Z</time>
      </trkpt>
      <trkpt lat="42.70647" lon="1.40844">
        <ele>1494.51</ele>
        <time>2014-02-23T14:25:33Z</time>
      </trkpt>
      <trkpt lat="42.70648" lon="1.40847">
        <ele>1494.51</ele>
        <time>2014-02-23T14:25:34Z</time>
      </trkpt>
      <trkpt lat="42.70649" lon="1.40851">
        <ele>1494.03</ele>
        <time>2014-02-23T14:25:35Z</time>
      </trkpt>
      <trkpt lat="42.7065" lon="1.40856">
        <ele>1494.03</ele>
        <time>2014-02-23T14:25:36Z</time>
      </trkpt>
      <trkpt lat="42.7065" lon="1.4086">
        <ele>1493.55</ele>
        <time>2014-02-23T14:25:37Z</time>
      </trkpt>
      <trkpt lat="42.70651" lon="1.40866">
        <ele>1493.55</ele>
        <time>2014-02-23T14:25:39Z</time>
      </trkpt>
      <trkpt lat="42.70651" lon="1.40869">
        <ele>1493.55</ele>
        <time>2014-02-23T14:25:40Z</time>
      </trkpt>
      <trkpt lat="42.70651" lon="1.40872">
        <ele>1493.55</ele>
        <time>2014-02-23T14:25:41Z</time>
      </trkpt>
      <trkpt lat="42.70651" lon="1.40877">
        <ele>1493.55</ele>
        <time>2014-02-23T14:25:42Z</time>
      </trkpt>
      <trkpt lat="42.7065" lon="1.40882">
        <ele>1493.06</ele>
        <time>2014-02-23T14:25:43Z</time>
      </trkpt>
      <trkpt lat="42.70649" lon="1.40887">
        <ele>1493.06</ele>
        <time>2014-02-23T14:25:44Z</time>
      </trkpt>
      <trkpt lat="42.70651" lon="1.40891">
        <ele>1493.06</ele>
        <time>2014-02-23T14:25:45Z</time>
      </trkpt>
      <trkpt lat="42.70653" lon="1.40896">
        <ele>1492.58</ele>
        <time>2014-02-23T14:25:46Z</time>
      </trkpt>
      <trkpt lat="42.70653" lon="1.40903">
        <ele>1492.58</ele>
        <time>2014-02-23T14:25:47Z</time>
      </trkpt>
      <trkpt lat="42.70654" lon="1.40909">
        <ele>1492.58</ele>
        <time>2014-02-23T14:25:48Z</time>
      </trkpt>
      <trkpt lat="42.70655" lon="1.40931">
        <ele>1493.06</ele>
        <time>2014-02-23T14:25:54Z</time>
      </trkpt>
      <trkpt lat="42.70655" lon="1.40934">
        <ele>1493.06</ele>
        <time>2014-02-23T14:25:55Z</time>
      </trkpt>
      <trkpt lat="42.70654" lon="1.40937">
        <ele>1493.06</ele>
        <time>2014-02-23T14:25:56Z</time>
      </trkpt>
      <trkpt lat="42.70654" lon="1.40943">
        <ele>1490.66</ele>
        <time>2014-02-23T14:26:05Z</time>
      </trkpt>
      <trkpt lat="42.70657" lon="1.40947">
        <ele>1488.74</ele>
        <time>2014-02-23T14:26:15Z</time>
      </trkpt>
      <trkpt lat="42.70658" lon="1.40949">
        <ele>1485.37</ele>
        <time>2014-02-23T14:26:33Z</time>
      </trkpt>
      <trkpt lat="42.70655" lon="1.40951">
        <ele>1485.37</ele>
        <time>2014-02-23T14:26:45Z</time>
      </trkpt>
      <trkpt lat="42.70654" lon="1.40953">
        <ele>1485.37</ele>
        <time>2014-02-23T14:26:46Z</time>
      </trkpt>
      <trkpt lat="42.70654" lon="1.40957">
        <ele>1485.37</ele>
        <time>2014-02-23T14:26:47Z</time>
      </trkpt>
      <trkpt lat="42.70654" lon="1.40962">
        <ele>1485.85</ele>
        <time>2014-02-23T14:26:48Z</time>
      </trkpt>
      <trkpt lat="42.70653" lon="1.40966">
        <ele>1486.34</ele>
        <time>2014-02-23T14:26:49Z</time>
      </trkpt>
      <trkpt lat="42.70653" lon="1.40969">
        <ele>1487.3</ele>
        <time>2014-02-23T14:26:50Z</time>
      </trkpt>
      <trkpt lat="42.70652" lon="1.40987">
        <ele>1492.1</ele>
        <time>2014-02-23T14:27:00Z</time>
      </trkpt>
      <trkpt lat="42.70651" lon="1.40992">
        <ele>1494.03</ele>
        <time>2014-02-23T14:27:02Z</time>
      </trkpt>
      <trkpt lat="42.70651" lon="1.40995">
        <ele>1494.99</ele>
        <time>2014-02-23T14:27:03Z</time>
      </trkpt>
      <trkpt lat="42.70657" lon="1.41027">
        <ele>1508.45</ele>
        <time>2014-02-23T14:27:13Z</time>
      </trkpt>
      <trkpt lat="42.70658" lon="1.41029">
        <ele>1509.41</ele>
        <time>2014-02-23T14:27:14Z</time>
      </trkpt>
      <trkpt lat="42.70658" lon="1.41032">
        <ele>1510.37</ele>
        <time>2014-02-23T14:27:15Z</time>
      </trkpt>
      <trkpt lat="42.70659" lon="1.41033">
        <ele>1511.81</ele>
        <time>2014-02-23T14:27:16Z</time>
      </trkpt>
      <trkpt lat="42.70665" lon="1.41018">
        <ele>1516.14</ele>
        <time>2014-02-23T14:27:22Z</time>
      </trkpt>
      <trkpt lat="42.70669" lon="1.41009">
        <ele>1518.06</ele>
        <time>2014-02-23T14:27:26Z</time>
      </trkpt>
      <trkpt lat="42.70674" lon="1.41011">
        <ele>1517.58</ele>
        <time>2014-02-23T14:27:30Z</time>
      </trkpt>
      <trkpt lat="42.70675" lon="1.41013">
        <ele>1517.58</ele>
        <time>2014-02-23T14:27:31Z</time>
      </trkpt>
      <trkpt lat="42.70671" lon="1.41024">
        <ele>1514.69</ele>
        <time>2014-02-23T14:27:34Z</time>
      </trkpt>
      <trkpt lat="42.70672" lon="1.41026">
        <ele>1514.69</ele>
        <time>2014-02-23T14:27:35Z</time>
      </trkpt>
      <trkpt lat="42.7067" lon="1.41031">
        <ele>1511.81</ele>
        <time>2014-02-23T14:27:45Z</time>
      </trkpt>
      <trkpt lat="42.70669" lon="1.41033">
        <ele>1511.33</ele>
        <time>2014-02-23T14:27:46Z</time>
      </trkpt>
      <trkpt lat="42.70671" lon="1.41034">
        <ele>1511.33</ele>
        <time>2014-02-23T14:27:47Z</time>
      </trkpt>
      <trkpt lat="42.70672" lon="1.41037">
        <ele>1511.33</ele>
        <time>2014-02-23T14:27:48Z</time>
      </trkpt>
      <trkpt lat="42.70673" lon="1.41041">
        <ele>1511.33</ele>
        <time>2014-02-23T14:27:49Z</time>
      </trkpt>
      <trkpt lat="42.70674" lon="1.41044">
        <ele>1511.33</ele>
        <time>2014-02-23T14:27:50Z</time>
      </trkpt>
      <trkpt lat="42.70677" lon="1.41047">
        <ele>1511.33</ele>
        <time>2014-02-23T14:27:51Z</time>
      </trkpt>
      <trkpt lat="42.7068" lon="1.41051">
        <ele>1510.85</ele>
        <time>2014-02-23T14:27:52Z</time>
      </trkpt>
      <trkpt lat="42.70683" lon="1.41056">
        <ele>1510.37</ele>
        <time>2014-02-23T14:27:53Z</time>
      </trkpt>
      <trkpt lat="42.70685" lon="1.4106">
        <ele>1510.37</ele>
        <time>2014-02-23T14:27:54Z</time>
      </trkpt>
      <trkpt lat="42.70688" lon="1.41066">
        <ele>1510.37</ele>
        <time>2014-02-23T14:27:55Z</time>
      </trkpt>
      <trkpt lat="42.70691" lon="1.41072">
        <ele>1510.37</ele>
        <time>2014-02-23T14:27:56Z</time>
      </trkpt>
      <trkpt lat="42.70691" lon="1.41079">
        <ele>1509.89</ele>
        <time>2014-02-23T14:27:57Z</time>
      </trkpt>
      <trkpt lat="42.70692" lon="1.41086">
        <ele>1508.93</ele>
        <time>2014-02-23T14:27:58Z</time>
      </trkpt>
      <trkpt lat="42.70692" lon="1.41092">
        <ele>1507.97</ele>
        <time>2014-02-23T14:27:59Z</time>
      </trkpt>
      <trkpt lat="42.70692" lon="1.41098">
        <ele>1507.48</ele>
        <time>2014-02-23T14:28:00Z</time>
      </trkpt>
      <trkpt lat="42.70693" lon="1.41101">
        <ele>1507</ele>
        <time>2014-02-23T14:28:01Z</time>
      </trkpt>
      <trkpt lat="42.70694" lon="1.41105">
        <ele>1506.52</ele>
        <time>2014-02-23T14:28:02Z</time>
      </trkpt>
      <trkpt lat="42.70697" lon="1.41139">
        <ele>1500.76</ele>
        <time>2014-02-23T14:28:10Z</time>
      </trkpt>
      <trkpt lat="42.70696" lon="1.41147">
        <ele>1500.27</ele>
        <time>2014-02-23T14:28:12Z</time>
      </trkpt>
      <trkpt lat="42.70697" lon="1.41151">
        <ele>1499.31</ele>
        <time>2014-02-23T14:28:13Z</time>
      </trkpt>
      <trkpt lat="42.70699" lon="1.41156">
        <ele>1498.83</ele>
        <time>2014-02-23T14:28:14Z</time>
      </trkpt>
      <trkpt lat="42.70698" lon="1.41173">
        <ele>1495.95</ele>
        <time>2014-02-23T14:28:17Z</time>
      </trkpt>
      <trkpt lat="42.70697" lon="1.41179">
        <ele>1495.47</ele>
        <time>2014-02-23T14:28:18Z</time>
      </trkpt>
      <trkpt lat="42.70695" lon="1.41192">
        <ele>1494.51</ele>
        <time>2014-02-23T14:28:20Z</time>
      </trkpt>
      <trkpt lat="42.70689" lon="1.41221">
        <ele>1493.06</ele>
        <time>2014-02-23T14:28:24Z</time>
      </trkpt>
      <trkpt lat="42.70688" lon="1.41229">
        <ele>1493.06</ele>
        <time>2014-02-23T14:28:25Z</time>
      </trkpt>
      <trkpt lat="42.70687" lon="1.41235">
        <ele>1493.55</ele>
        <time>2014-02-23T14:28:26Z</time>
      </trkpt>
      <trkpt lat="42.70687" lon="1.41241">
        <ele>1494.03</ele>
        <time>2014-02-23T14:28:27Z</time>
      </trkpt>
      <trkpt lat="42.70687" lon="1.41246">
        <ele>1493.55</ele>
        <time>2014-02-23T14:28:28Z</time>
      </trkpt>
      <trkpt lat="42.70687" lon="1.41253">
        <ele>1493.55</ele>
        <time>2014-02-23T14:28:29Z</time>
      </trkpt>
      <trkpt lat="42.70687" lon="1.41261">
        <ele>1493.55</ele>
        <time>2014-02-23T14:28:30Z</time>
      </trkpt>
      <trkpt lat="42.70687" lon="1.41269">
        <ele>1493.55</ele>
        <time>2014-02-23T14:28:31Z</time>
      </trkpt>
      <trkpt lat="42.70687" lon="1.41276">
        <ele>1493.55</ele>
        <time>2014-02-23T14:28:32Z</time>
      </trkpt>
      <trkpt lat="42.70687" lon="1.41282">
        <ele>1493.06</ele>
        <time>2014-02-23T14:28:33Z</time>
      </trkpt>
      <trkpt lat="42.70686" lon="1.41289">
        <ele>1493.06</ele>
        <time>2014-02-23T14:28:34Z</time>
      </trkpt>
      <trkpt lat="42.70686" lon="1.41301">
        <ele>1492.58</ele>
        <time>2014-02-23T14:28:36Z</time>
      </trkpt>
      <trkpt lat="42.70687" lon="1.41307">
        <ele>1492.58</ele>
        <time>2014-02-23T14:28:37Z</time>
      </trkpt>
      <trkpt lat="42.70689" lon="1.41318">
        <ele>1492.1</ele>
        <time>2014-02-23T14:28:39Z</time>
      </trkpt>
      <trkpt lat="42.70688" lon="1.41323">
        <ele>1492.1</ele>
        <time>2014-02-23T14:28:40Z</time>
      </trkpt>
      <trkpt lat="42.70689" lon="1.4133">
        <ele>1481.53</ele>
        <time>2014-02-23T14:28:48Z</time>
      </trkpt>
      <trkpt lat="42.70689" lon="1.41332">
        <ele>1480.09</ele>
        <time>2014-02-23T14:28:49Z</time>
      </trkpt>
      <trkpt lat="42.70688" lon="1.41336">
        <ele>1480.09</ele>
        <time>2014-02-23T14:28:50Z</time>
      </trkpt>
      <trkpt lat="42.70688" lon="1.4134">
        <ele>1480.57</ele>
        <time>2014-02-23T14:28:51Z</time>
      </trkpt>
      <trkpt lat="42.70683" lon="1.41366">
        <ele>1484.41</ele>
        <time>2014-02-23T14:28:56Z</time>
      </trkpt>
      <trkpt lat="42.70683" lon="1.41369">
        <ele>1484.89</ele>
        <time>2014-02-23T14:28:57Z</time>
      </trkpt>
      <trkpt lat="42.70683" lon="1.41372">
        <ele>1485.37</ele>
        <time>2014-02-23T14:28:58Z</time>
      </trkpt>
      <trkpt lat="42.70683" lon="1.41375">
        <ele>1484.89</ele>
        <time>2014-02-23T14:28:59Z</time>
      </trkpt>
      <trkpt lat="42.70683" lon="1.41377">
        <ele>1484.41</ele>
        <time>2014-02-23T14:29:00Z</time>
      </trkpt>
      <trkpt lat="42.70684" lon="1.4138">
        <ele>1484.89</ele>
        <time>2014-02-23T14:29:01Z</time>
      </trkpt>
      <trkpt lat="42.70685" lon="1.41391">
        <ele>1484.89</ele>
        <time>2014-02-23T14:29:04Z</time>
      </trkpt>
      <trkpt lat="42.70684" lon="1.41397">
        <ele>1485.37</ele>
        <time>2014-02-23T14:29:06Z</time>
      </trkpt>
      <trkpt lat="42.70684" lon="1.41399">
        <ele>1485.85</ele>
        <time>2014-02-23T14:29:07Z</time>
      </trkpt>
      <trkpt lat="42.70684" lon="1.414">
        <ele>1485.85</ele>
        <time>2014-02-23T14:29:08Z</time>
      </trkpt>
      <trkpt lat="42.70681" lon="1.41405">
        <ele>1483.45</ele>
        <time>2014-02-23T14:29:10Z</time>
      </trkpt>
      <trkpt lat="42.70682" lon="1.41407">
        <ele>1482.49</ele>
        <time>2014-02-23T14:29:11Z</time>
      </trkpt>
      <trkpt lat="42.70682" lon="1.4141">
        <ele>1481.05</ele>
        <time>2014-02-23T14:29:12Z</time>
      </trkpt>
      <trkpt lat="42.70669" lon="1.41419">
        <ele>1468.55</ele>
        <time>2014-02-23T14:29:21Z</time>
      </trkpt>
      <trkpt lat="42.70675" lon="1.41427">
        <ele>1448.36</ele>
        <time>2014-02-23T14:29:33Z</time>
      </trkpt>
      <trkpt lat="42.70675" lon="1.41434">
        <ele>1445.48</ele>
        <time>2014-02-23T14:29:43Z</time>
      </trkpt>
      <trkpt lat="42.70676" lon="1.41438">
        <ele>1434.42</ele>
        <time>2014-02-23T14:29:55Z</time>
      </trkpt>
      <trkpt lat="42.70675" lon="1.41441">
        <ele>1432.98</ele>
        <time>2014-02-23T14:29:58Z</time>
      </trkpt>
      <trkpt lat="42.70676" lon="1.41444">
        <ele>1432.98</ele>
        <time>2014-02-23T14:29:59Z</time>
      </trkpt>
      <trkpt lat="42.70677" lon="1.4145">
        <ele>1432.98</ele>
        <time>2014-02-23T14:30:00Z</time>
      </trkpt>
      <trkpt lat="42.70678" lon="1.41455">
        <ele>1432.98</ele>
        <time>2014-02-23T14:30:01Z</time>
      </trkpt>
      <trkpt lat="42.70678" lon="1.41459">
        <ele>1432.98</ele>
        <time>2014-02-23T14:30:02Z</time>
      </trkpt>
      <trkpt lat="42.70679" lon="1.41462">
        <ele>1432.98</ele>
        <time>2014-02-23T14:30:03Z</time>
      </trkpt>
      <trkpt lat="42.70677" lon="1.41465">
        <ele>1432.02</ele>
        <time>2014-02-23T14:30:04Z</time>
      </trkpt>
      <trkpt lat="42.70675" lon="1.41489">
        <ele>1426.73</ele>
        <time>2014-02-23T14:30:14Z</time>
      </trkpt>
      <trkpt lat="42.70671" lon="1.41508">
        <ele>1424.33</ele>
        <time>2014-02-23T14:30:21Z</time>
      </trkpt>
      <trkpt lat="42.7067" lon="1.41511">
        <ele>1423.85</ele>
        <time>2014-02-23T14:30:22Z</time>
      </trkpt>
      <trkpt lat="42.7067" lon="1.41513">
        <ele>1423.85</ele>
        <time>2014-02-23T14:30:23Z</time>
      </trkpt>
      <trkpt lat="42.70669" lon="1.41515">
        <ele>1423.37</ele>
        <time>2014-02-23T14:30:24Z</time>
      </trkpt>
      <trkpt lat="42.70668" lon="1.41516">
        <ele>1422.89</ele>
        <time>2014-02-23T14:30:25Z</time>
      </trkpt>
      <trkpt lat="42.70666" lon="1.41521">
        <ele>1420.97</ele>
        <time>2014-02-23T14:30:29Z</time>
      </trkpt>
      <trkpt lat="42.70669" lon="1.41529">
        <ele>1410.39</ele>
        <time>2014-02-23T14:30:39Z</time>
      </trkpt>
      <trkpt lat="42.70668" lon="1.41527">
        <ele>1406.07</ele>
        <time>2014-02-23T14:30:55Z</time>
      </trkpt>
      <trkpt lat="42.70667" lon="1.41525">
        <ele>1398.86</ele>
        <time>2014-02-23T14:31:05Z</time>
      </trkpt>
      <trkpt lat="42.70667" lon="1.41521">
        <ele>1393.09</ele>
        <time>2014-02-23T14:31:18Z</time>
      </trkpt>
      <trkpt lat="42.70666" lon="1.41522">
        <ele>1392.13</ele>
        <time>2014-02-23T14:31:28Z</time>
      </trkpt>
      <trkpt lat="42.70671" lon="1.41525">
        <ele>1390.68</ele>
        <time>2014-02-23T14:31:32Z</time>
      </trkpt>
      <trkpt lat="42.70672" lon="1.41529">
        <ele>1389.24</ele>
        <time>2014-02-23T14:31:35Z</time>
      </trkpt>
      <trkpt lat="42.70665" lon="1.41532">
        <ele>1388.28</ele>
        <time>2014-02-23T14:31:41Z</time>
      </trkpt>
      <trkpt lat="42.70662" lon="1.41536">
        <ele>1389.72</ele>
        <time>2014-02-23T14:31:50Z</time>
      </trkpt>
      <trkpt lat="42.70665" lon="1.41536">
        <ele>1389.24</ele>
        <time>2014-02-23T14:32:12Z</time>
      </trkpt>
      <trkpt lat="42.70666" lon="1.41536">
        <ele>1388.76</ele>
        <time>2014-02-23T14:32:14Z</time>
      </trkpt>
      <trkpt lat="42.70667" lon="1.41548">
        <ele>1386.36</ele>
        <time>2014-02-23T14:32:24Z</time>
      </trkpt>
      <trkpt lat="42.70667" lon="1.41551">
        <ele>1385.4</ele>
        <time>2014-02-23T14:32:25Z</time>
      </trkpt>
      <trkpt lat="42.70668" lon="1.41554">
        <ele>1383.96</ele>
        <time>2014-02-23T14:32:28Z</time>
      </trkpt>
      <trkpt lat="42.70672" lon="1.41556">
        <ele>1379.63</ele>
        <time>2014-02-23T14:32:31Z</time>
      </trkpt>
      <trkpt lat="42.70672" lon="1.4156">
        <ele>1377.23</ele>
        <time>2014-02-23T14:32:33Z</time>
      </trkpt>
      <trkpt lat="42.70673" lon="1.41562">
        <ele>1376.26</ele>
        <time>2014-02-23T14:32:34Z</time>
      </trkpt>
      <trkpt lat="42.70677" lon="1.41562">
        <ele>1373.86</ele>
        <time>2014-02-23T14:32:36Z</time>
      </trkpt>
      <trkpt lat="42.70679" lon="1.41564">
        <ele>1372.9</ele>
        <time>2014-02-23T14:32:37Z</time>
      </trkpt>
      <trkpt lat="42.7068" lon="1.41566">
        <ele>1371.94</ele>
        <time>2014-02-23T14:32:38Z</time>
      </trkpt>
      <trkpt lat="42.70681" lon="1.41567">
        <ele>1370.98</ele>
        <time>2014-02-23T14:32:39Z</time>
      </trkpt>
      <trkpt lat="42.70684" lon="1.4157">
        <ele>1367.61</ele>
        <time>2014-02-23T14:32:44Z</time>
      </trkpt>
      <trkpt lat="42.70689" lon="1.4157">
        <ele>1364.25</ele>
        <time>2014-02-23T14:32:52Z</time>
      </trkpt>
      <trkpt lat="42.70691" lon="1.41571">
        <ele>1363.77</ele>
        <time>2014-02-23T14:32:54Z</time>
      </trkpt>
      <trkpt lat="42.70692" lon="1.41574">
        <ele>1363.29</ele>
        <time>2014-02-23T14:32:57Z</time>
      </trkpt>
      <trkpt lat="42.70694" lon="1.41576">
        <ele>1361.36</ele>
        <time>2014-02-23T14:33:00Z</time>
      </trkpt>
      <trkpt lat="42.70694" lon="1.41579">
        <ele>1358</ele>
        <time>2014-02-23T14:33:11Z</time>
      </trkpt>
      <trkpt lat="42.70696" lon="1.41582">
        <ele>1357.04</ele>
        <time>2014-02-23T14:33:14Z</time>
      </trkpt>
      <trkpt lat="42.707" lon="1.41581">
        <ele>1354.63</ele>
        <time>2014-02-23T14:33:20Z</time>
      </trkpt>
      <trkpt lat="42.70701" lon="1.4158">
        <ele>1353.67</ele>
        <time>2014-02-23T14:33:23Z</time>
      </trkpt>
      <trkpt lat="42.70709" lon="1.41581">
        <ele>1349.83</ele>
        <time>2014-02-23T14:33:29Z</time>
      </trkpt>
      <trkpt lat="42.70711" lon="1.41585">
        <ele>1347.43</ele>
        <time>2014-02-23T14:33:32Z</time>
      </trkpt>
      <trkpt lat="42.70715" lon="1.41591">
        <ele>1343.1</ele>
        <time>2014-02-23T14:33:36Z</time>
      </trkpt>
      <trkpt lat="42.70718" lon="1.41608">
        <ele>1336.37</ele>
        <time>2014-02-23T14:33:44Z</time>
      </trkpt>
      <trkpt lat="42.7072" lon="1.41608">
        <ele>1336.37</ele>
        <time>2014-02-23T14:33:54Z</time>
      </trkpt>
      <trkpt lat="42.70725" lon="1.41604">
        <ele>1335.89</ele>
        <time>2014-02-23T14:34:02Z</time>
      </trkpt>
      <trkpt lat="42.70728" lon="1.41599">
        <ele>1331.56</ele>
        <time>2014-02-23T14:34:12Z</time>
      </trkpt>
      <trkpt lat="42.70734" lon="1.41592">
        <ele>1329.16</ele>
        <time>2014-02-23T14:34:20Z</time>
      </trkpt>
      <trkpt lat="42.70741" lon="1.41599">
        <ele>1324.35</ele>
        <time>2014-02-23T14:34:26Z</time>
      </trkpt>
      <trkpt lat="42.7075" lon="1.41605">
        <ele>1316.18</ele>
        <time>2014-02-23T14:34:33Z</time>
      </trkpt>
      <trkpt lat="42.7075" lon="1.41606">
        <ele>1316.18</ele>
        <time>2014-02-23T14:34:34Z</time>
      </trkpt>
      <trkpt lat="42.70752" lon="1.41608">
        <ele>1314.26</ele>
        <time>2014-02-23T14:34:41Z</time>
      </trkpt>
      <trkpt lat="42.7076" lon="1.41592">
        <ele>1310.9</ele>
        <time>2014-02-23T14:34:47Z</time>
      </trkpt>
      <trkpt lat="42.7076" lon="1.41594">
        <ele>1309.93</ele>
        <time>2014-02-23T14:34:53Z</time>
      </trkpt>
      <trkpt lat="42.70763" lon="1.41619">
        <ele>1306.57</ele>
        <time>2014-02-23T14:35:01Z</time>
      </trkpt>
      <trkpt lat="42.70763" lon="1.4162">
        <ele>1306.09</ele>
        <time>2014-02-23T14:35:09Z</time>
      </trkpt>
      <trkpt lat="42.70764" lon="1.41621">
        <ele>1305.61</ele>
        <time>2014-02-23T14:35:10Z</time>
      </trkpt>
      <trkpt lat="42.70765" lon="1.41624">
        <ele>1304.65</ele>
        <time>2014-02-23T14:35:11Z</time>
      </trkpt>
      <trkpt lat="42.70766" lon="1.41626">
        <ele>1304.17</ele>
        <time>2014-02-23T14:35:12Z</time>
      </trkpt>
      <trkpt lat="42.70768" lon="1.41626">
        <ele>1303.69</ele>
        <time>2014-02-23T14:35:13Z</time>
      </trkpt>
      <trkpt lat="42.70769" lon="1.41624">
        <ele>1302.72</ele>
        <time>2014-02-23T14:35:14Z</time>
      </trkpt>
      <trkpt lat="42.70772" lon="1.41622">
        <ele>1300.8</ele>
        <time>2014-02-23T14:35:25Z</time>
      </trkpt>
      <trkpt lat="42.70775" lon="1.41622">
        <ele>1300.8</ele>
        <time>2014-02-23T14:35:33Z</time>
      </trkpt>
      <trkpt lat="42.70776" lon="1.41625">
        <ele>1300.32</ele>
        <time>2014-02-23T14:35:34Z</time>
      </trkpt>
      <trkpt lat="42.70776" lon="1.41627">
        <ele>1299.84</ele>
        <time>2014-02-23T14:35:35Z</time>
      </trkpt>
      <trkpt lat="42.70777" lon="1.41627">
        <ele>1298.88</ele>
        <time>2014-02-23T14:35:36Z</time>
      </trkpt>
      <trkpt lat="42.70778" lon="1.41625">
        <ele>1298.88</ele>
        <time>2014-02-23T14:35:37Z</time>
      </trkpt>
      <trkpt lat="42.70779" lon="1.41623">
        <ele>1298.4</ele>
        <time>2014-02-23T14:35:38Z</time>
      </trkpt>
      <trkpt lat="42.70784" lon="1.41612">
        <ele>1297.44</ele>
        <time>2014-02-23T14:35:47Z</time>
      </trkpt>
      <trkpt lat="42.70786" lon="1.41609">
        <ele>1295.99</ele>
        <time>2014-02-23T14:35:50Z</time>
      </trkpt>
      <trkpt lat="42.70789" lon="1.4161">
        <ele>1294.55</ele>
        <time>2014-02-23T14:35:52Z</time>
      </trkpt>
      <trkpt lat="42.70793" lon="1.41608">
        <ele>1290.71</ele>
        <time>2014-02-23T14:35:58Z</time>
      </trkpt>
      <trkpt lat="42.70796" lon="1.41613">
        <ele>1288.78</ele>
        <time>2014-02-23T14:36:01Z</time>
      </trkpt>
      <trkpt lat="42.70803" lon="1.41622">
        <ele>1282.06</ele>
        <time>2014-02-23T14:36:10Z</time>
      </trkpt>
      <trkpt lat="42.70805" lon="1.41623">
        <ele>1280.61</ele>
        <time>2014-02-23T14:36:12Z</time>
      </trkpt>
      <trkpt lat="42.70807" lon="1.41621">
        <ele>1279.65</ele>
        <time>2014-02-23T14:36:14Z</time>
      </trkpt>
      <trkpt lat="42.70809" lon="1.41619">
        <ele>1279.17</ele>
        <time>2014-02-23T14:36:15Z</time>
      </trkpt>
      <trkpt lat="42.70813" lon="1.4161">
        <ele>1277.73</ele>
        <time>2014-02-23T14:36:22Z</time>
      </trkpt>
      <trkpt lat="42.70813" lon="1.41606">
        <ele>1276.29</ele>
        <time>2014-02-23T14:36:28Z</time>
      </trkpt>
      <trkpt lat="42.70813" lon="1.41601">
        <ele>1276.77</ele>
        <time>2014-02-23T14:36:38Z</time>
      </trkpt>
      <trkpt lat="42.70814" lon="1.41602">
        <ele>1275.81</ele>
        <time>2014-02-23T14:36:39Z</time>
      </trkpt>
      <trkpt lat="42.70818" lon="1.41603">
        <ele>1272.92</ele>
        <time>2014-02-23T14:36:43Z</time>
      </trkpt>
      <trkpt lat="42.70819" lon="1.41597">
        <ele>1271.96</ele>
        <time>2014-02-23T14:36:49Z</time>
      </trkpt>
      <trkpt lat="42.70815" lon="1.41582">
        <ele>1269.56</ele>
        <time>2014-02-23T14:37:01Z</time>
      </trkpt>
      <trkpt lat="42.70814" lon="1.41582">
        <ele>1266.19</ele>
        <time>2014-02-23T14:37:11Z</time>
      </trkpt>
      <trkpt lat="42.70817" lon="1.41581">
        <ele>1264.75</ele>
        <time>2014-02-23T14:37:23Z</time>
      </trkpt>
      <trkpt lat="42.70818" lon="1.4158">
        <ele>1264.75</ele>
        <time>2014-02-23T14:37:26Z</time>
      </trkpt>
      <trkpt lat="42.70815" lon="1.41564">
        <ele>1261.87</ele>
        <time>2014-02-23T14:37:36Z</time>
      </trkpt>
      <trkpt lat="42.70818" lon="1.41553">
        <ele>1259.94</ele>
        <time>2014-02-23T14:37:43Z</time>
      </trkpt>
      <trkpt lat="42.7082" lon="1.41551">
        <ele>1258.02</ele>
        <time>2014-02-23T14:37:47Z</time>
      </trkpt>
      <trkpt lat="42.70819" lon="1.41549">
        <ele>1256.58</ele>
        <time>2014-02-23T14:37:51Z</time>
      </trkpt>
      <trkpt lat="42.70834" lon="1.41536">
        <ele>1252.74</ele>
        <time>2014-02-23T14:37:58Z</time>
      </trkpt>
      <trkpt lat="42.70837" lon="1.41517">
        <ele>1247.45</ele>
        <time>2014-02-23T14:38:02Z</time>
      </trkpt>
      <trkpt lat="42.70837" lon="1.41514">
        <ele>1245.53</ele>
        <time>2014-02-23T14:38:06Z</time>
      </trkpt>
      <trkpt lat="42.7085" lon="1.41511">
        <ele>1242.64</ele>
        <time>2014-02-23T14:38:12Z</time>
      </trkpt>
      <trkpt lat="42.70852" lon="1.4151">
        <ele>1240.24</ele>
        <time>2014-02-23T14:38:26Z</time>
      </trkpt>
      <trkpt lat="42.70854" lon="1.41508">
        <ele>1243.12</ele>
        <time>2014-02-23T14:38:38Z</time>
      </trkpt>
      <trkpt lat="42.70852" lon="1.41508">
        <ele>1243.12</ele>
        <time>2014-02-23T14:38:49Z</time>
      </trkpt>
      <trkpt lat="42.70855" lon="1.41511">
        <ele>1246.01</ele>
        <time>2014-02-23T14:39:09Z</time>
      </trkpt>
      <trkpt lat="42.70855" lon="1.41509">
        <ele>1246.49</ele>
        <time>2014-02-23T14:39:31Z</time>
      </trkpt>
      <trkpt lat="42.70853" lon="1.41509">
        <ele>1246.97</ele>
        <time>2014-02-23T14:39:50Z</time>
      </trkpt>
      <trkpt lat="42.70865" lon="1.41489">
        <ele>1248.89</ele>
        <time>2014-02-23T14:39:59Z</time>
      </trkpt>
      <trkpt lat="42.7088" lon="1.4147">
        <ele>1247.45</ele>
        <time>2014-02-23T14:40:09Z</time>
      </trkpt>
      <trkpt lat="42.70885" lon="1.41482">
        <ele>1245.04</ele>
        <time>2014-02-23T14:40:16Z</time>
      </trkpt>
      <trkpt lat="42.70887" lon="1.41504">
        <ele>1242.64</ele>
        <time>2014-02-23T14:40:20Z</time>
      </trkpt>
      <trkpt lat="42.70891" lon="1.41526">
        <ele>1239.28</ele>
        <time>2014-02-23T14:40:25Z</time>
      </trkpt>
      <trkpt lat="42.70891" lon="1.41533">
        <ele>1239.28</ele>
        <time>2014-02-23T14:40:36Z</time>
      </trkpt>
      <trkpt lat="42.70891" lon="1.41533">
        <ele>1241.68</ele>
        <time>2014-02-23T14:40:55Z</time>
      </trkpt>
      <trkpt lat="42.70894" lon="1.41537">
        <ele>1242.16</ele>
        <time>2014-02-23T14:41:13Z</time>
      </trkpt>
      <trkpt lat="42.70895" lon="1.41538">
        <ele>1242.16</ele>
        <time>2014-02-23T14:41:14Z</time>
      </trkpt>
      <trkpt lat="42.70897" lon="1.41538">
        <ele>1241.2</ele>
        <time>2014-02-23T14:41:19Z</time>
      </trkpt>
      <trkpt lat="42.70897" lon="1.41539">
        <ele>1240.72</ele>
        <time>2014-02-23T14:41:20Z</time>
      </trkpt>
      <trkpt lat="42.70896" lon="1.4154">
        <ele>1236.39</ele>
        <time>2014-02-23T14:41:32Z</time>
      </trkpt>
      <trkpt lat="42.70894" lon="1.41541">
        <ele>1235.43</ele>
        <time>2014-02-23T14:41:47Z</time>
      </trkpt>
      <trkpt lat="42.70896" lon="1.41537">
        <ele>1238.32</ele>
        <time>2014-02-23T14:42:00Z</time>
      </trkpt>
      <trkpt lat="42.70896" lon="1.41537">
        <ele>1238.32</ele>
        <time>2014-02-23T14:42:09Z</time>
      </trkpt>
      <trkpt lat="42.70892" lon="1.41535">
        <ele>1236.87</ele>
        <time>2014-02-23T14:42:19Z</time>
      </trkpt>
      <trkpt lat="42.70891" lon="1.41535">
        <ele>1235.91</ele>
        <time>2014-02-23T14:42:36Z</time>
      </trkpt>
      <trkpt lat="42.70886" lon="1.41535">
        <ele>1236.87</ele>
        <time>2014-02-23T14:43:08Z</time>
      </trkpt>
      <trkpt lat="42.70885" lon="1.41537">
        <ele>1234.47</ele>
        <time>2014-02-23T14:43:38Z</time>
      </trkpt>
      <trkpt lat="42.70887" lon="1.4154">
        <ele>1234.95</ele>
        <time>2014-02-23T14:44:01Z</time>
      </trkpt>
      <trkpt lat="42.70889" lon="1.41534">
        <ele>1234.95</ele>
        <time>2014-02-23T14:44:29Z</time>
      </trkpt>
      <trkpt lat="42.70893" lon="1.41529">
        <ele>1240.24</ele>
        <time>2014-02-23T14:44:58Z</time>
      </trkpt>
      <trkpt lat="42.7089" lon="1.41532">
        <ele>1247.93</ele>
        <time>2014-02-23T14:45:24Z</time>
      </trkpt>
      <trkpt lat="42.70889" lon="1.41532">
        <ele>1248.89</ele>
        <time>2014-02-23T14:45:41Z</time>
      </trkpt>
      <trkpt lat="42.70892" lon="1.41536">
        <ele>1247.93</ele>
        <time>2014-02-23T14:46:13Z</time>
      </trkpt>
      <trkpt lat="42.70892" lon="1.41536">
        <ele>1246.97</ele>
        <time>2014-02-23T14:46:40Z</time>
      </trkpt>
      <trkpt lat="42.70893" lon="1.41536">
        <ele>1246.49</ele>
        <time>2014-02-23T14:47:04Z</time>
      </trkpt>
      <trkpt lat="42.70894" lon="1.41539">
        <ele>1244.08</ele>
        <time>2014-02-23T14:47:28Z</time>
      </trkpt>
      <trkpt lat="42.70895" lon="1.4154">
        <ele>1239.28</ele>
        <time>2014-02-23T14:47:39Z</time>
      </trkpt>
      <trkpt lat="42.70892" lon="1.41542">
        <ele>1238.8</ele>
        <time>2014-02-23T14:48:01Z</time>
      </trkpt>
      <trkpt lat="42.70894" lon="1.41539">
        <ele>1240.24</ele>
        <time>2014-02-23T14:48:14Z</time>
      </trkpt>
      <trkpt lat="42.70894" lon="1.41545">
        <ele>1240.72</ele>
        <time>2014-02-23T14:48:26Z</time>
      </trkpt>
      <trkpt lat="42.70895" lon="1.41548">
        <ele>1238.8</ele>
        <time>2014-02-23T14:48:42Z</time>
      </trkpt>
      <trkpt lat="42.70892" lon="1.41556">
        <ele>1232.07</ele>
        <time>2014-02-23T14:49:02Z</time>
      </trkpt>
      <trkpt lat="42.70897" lon="1.41559">
        <ele>1228.7</ele>
        <time>2014-02-23T14:49:27Z</time>
      </trkpt>
      <trkpt lat="42.70897" lon="1.41561">
        <ele>1227.26</ele>
        <time>2014-02-23T14:49:51Z</time>
      </trkpt>
      <trkpt lat="42.70897" lon="1.41561">
        <ele>1229.18</ele>
        <time>2014-02-23T14:50:05Z</time>
      </trkpt>
      <trkpt lat="42.70894" lon="1.41569">
        <ele>1227.26</ele>
        <time>2014-02-23T14:50:17Z</time>
      </trkpt>
      <trkpt lat="42.70889" lon="1.41579">
        <ele>1227.74</ele>
        <time>2014-02-23T14:50:30Z</time>
      </trkpt>
      <trkpt lat="42.70887" lon="1.41591">
        <ele>1227.26</ele>
        <time>2014-02-23T14:50:42Z</time>
      </trkpt>
      <trkpt lat="42.70887" lon="1.41603">
        <ele>1228.7</ele>
        <time>2014-02-23T14:50:54Z</time>
      </trkpt>
      <trkpt lat="42.70889" lon="1.41616">
        <ele>1229.66</ele>
        <time>2014-02-23T14:51:05Z</time>
      </trkpt>
      <trkpt lat="42.70889" lon="1.41629">
        <ele>1229.66</ele>
        <time>2014-02-23T14:51:15Z</time>
      </trkpt>
      <trkpt lat="42.7089" lon="1.41644">
        <ele>1229.66</ele>
        <time>2014-02-23T14:51:28Z</time>
      </trkpt>
      <trkpt lat="42.70894" lon="1.41661">
        <ele>1227.26</ele>
        <time>2014-02-23T14:51:42Z</time>
      </trkpt>
      <trkpt lat="42.70895" lon="1.4168">
        <ele>1225.34</ele>
        <time>2014-02-23T14:51:57Z</time>
      </trkpt>
      <trkpt lat="42.70895" lon="1.41681">
        <ele>1225.82</ele>
        <time>2014-02-23T14:51:58Z</time>
      </trkpt>
      <trkpt lat="42.70898" lon="1.41702">
        <ele>1222.93</ele>
        <time>2014-02-23T14:52:12Z</time>
      </trkpt>
      <trkpt lat="42.709" lon="1.41712">
        <ele>1222.93</ele>
        <time>2014-02-23T14:52:23Z</time>
      </trkpt>
      <trkpt lat="42.70903" lon="1.41725">
        <ele>1221.49</ele>
        <time>2014-02-23T14:52:33Z</time>
      </trkpt>
      <trkpt lat="42.70905" lon="1.41728">
        <ele>1221.97</ele>
        <time>2014-02-23T14:52:36Z</time>
      </trkpt>
      <trkpt lat="42.70911" lon="1.41741">
        <ele>1222.45</ele>
        <time>2014-02-23T14:52:46Z</time>
      </trkpt>
      <trkpt lat="42.70912" lon="1.41745">
        <ele>1221.49</ele>
        <time>2014-02-23T14:52:50Z</time>
      </trkpt>
      <trkpt lat="42.70914" lon="1.41758">
        <ele>1221.97</ele>
        <time>2014-02-23T14:53:01Z</time>
      </trkpt>
      <trkpt lat="42.70915" lon="1.4176">
        <ele>1221.97</ele>
        <time>2014-02-23T14:53:03Z</time>
      </trkpt>
      <trkpt lat="42.70916" lon="1.41762">
        <ele>1221.49</ele>
        <time>2014-02-23T14:53:05Z</time>
      </trkpt>
      <trkpt lat="42.7092" lon="1.4177">
        <ele>1221.01</ele>
        <time>2014-02-23T14:53:15Z</time>
      </trkpt>
      <trkpt lat="42.7092" lon="1.41772">
        <ele>1221.01</ele>
        <time>2014-02-23T14:53:18Z</time>
      </trkpt>
      <trkpt lat="42.70922" lon="1.41786">
        <ele>1218.61</ele>
        <time>2014-02-23T14:53:29Z</time>
      </trkpt>
      <trkpt lat="42.70923" lon="1.41804">
        <ele>1212.36</ele>
        <time>2014-02-23T14:53:41Z</time>
      </trkpt>
      <trkpt lat="42.70926" lon="1.41815">
        <ele>1209.48</ele>
        <time>2014-02-23T14:53:52Z</time>
      </trkpt>
      <trkpt lat="42.70929" lon="1.41833">
        <ele>1208.51</ele>
        <time>2014-02-23T14:54:05Z</time>
      </trkpt>
      <trkpt lat="42.70931" lon="1.41844">
        <ele>1207.07</ele>
        <time>2014-02-23T14:54:13Z</time>
      </trkpt>
      <trkpt lat="42.70929" lon="1.41855">
        <ele>1206.59</ele>
        <time>2014-02-23T14:54:20Z</time>
      </trkpt>
      <trkpt lat="42.70929" lon="1.41859">
        <ele>1206.11</ele>
        <time>2014-02-23T14:54:23Z</time>
      </trkpt>
      <trkpt lat="42.70932" lon="1.41871">
        <ele>1204.67</ele>
        <time>2014-02-23T14:54:33Z</time>
      </trkpt>
      <trkpt lat="42.70938" lon="1.4188">
        <ele>1206.11</ele>
        <time>2014-02-23T14:54:45Z</time>
      </trkpt>
      <trkpt lat="42.7094" lon="1.4189">
        <ele>1207.07</ele>
        <time>2014-02-23T14:54:56Z</time>
      </trkpt>
      <trkpt lat="42.70937" lon="1.41904">
        <ele>1207.07</ele>
        <time>2014-02-23T14:55:10Z</time>
      </trkpt>
      <trkpt lat="42.70932" lon="1.41918">
        <ele>1205.15</ele>
        <time>2014-02-23T14:55:21Z</time>
      </trkpt>
      <trkpt lat="42.70931" lon="1.41938">
        <ele>1205.15</ele>
        <time>2014-02-23T14:55:34Z</time>
      </trkpt>
      <trkpt lat="42.70931" lon="1.41948">
        <ele>1206.11</ele>
        <time>2014-02-23T14:55:43Z</time>
      </trkpt>
      <trkpt lat="42.70926" lon="1.41964">
        <ele>1208.03</ele>
        <time>2014-02-23T14:55:55Z</time>
      </trkpt>
      <trkpt lat="42.70924" lon="1.41974">
        <ele>1208.51</ele>
        <time>2014-02-23T14:56:00Z</time>
      </trkpt>
      <trkpt lat="42.70922" lon="1.41976">
        <ele>1208.03</ele>
        <time>2014-02-23T14:56:02Z</time>
      </trkpt>
      <trkpt lat="42.7092" lon="1.41984">
        <ele>1205.63</ele>
        <time>2014-02-23T14:56:08Z</time>
      </trkpt>
      <trkpt lat="42.70919" lon="1.41992">
        <ele>1204.67</ele>
        <time>2014-02-23T14:56:14Z</time>
      </trkpt>
      <trkpt lat="42.70919" lon="1.42007">
        <ele>1205.15</ele>
        <time>2014-02-23T14:56:27Z</time>
      </trkpt>
      <trkpt lat="42.70917" lon="1.42026">
        <ele>1206.11</ele>
        <time>2014-02-23T14:56:39Z</time>
      </trkpt>
      <trkpt lat="42.70913" lon="1.42048">
        <ele>1204.67</ele>
        <time>2014-02-23T14:56:52Z</time>
      </trkpt>
      <trkpt lat="42.70913" lon="1.42058">
        <ele>1203.71</ele>
        <time>2014-02-23T14:57:08Z</time>
      </trkpt>
      <trkpt lat="42.70919" lon="1.42069">
        <ele>1207.07</ele>
        <time>2014-02-23T14:57:15Z</time>
      </trkpt>
      <trkpt lat="42.70923" lon="1.42081">
        <ele>1211.88</ele>
        <time>2014-02-23T14:57:27Z</time>
      </trkpt>
      <trkpt lat="42.70923" lon="1.42092">
        <ele>1211.88</ele>
        <time>2014-02-23T14:57:40Z</time>
      </trkpt>
      <trkpt lat="42.70925" lon="1.42105">
        <ele>1212.84</ele>
        <time>2014-02-23T14:57:52Z</time>
      </trkpt>
      <trkpt lat="42.70925" lon="1.42109">
        <ele>1212.84</ele>
        <time>2014-02-23T14:57:57Z</time>
      </trkpt>
      <trkpt lat="42.7093" lon="1.4212">
        <ele>1213.32</ele>
        <time>2014-02-23T14:58:07Z</time>
      </trkpt>
      <trkpt lat="42.70933" lon="1.42132">
        <ele>1214.28</ele>
        <time>2014-02-23T14:58:16Z</time>
      </trkpt>
      <trkpt lat="42.70936" lon="1.42143">
        <ele>1214.28</ele>
        <time>2014-02-23T14:58:25Z</time>
      </trkpt>
      <trkpt lat="42.70939" lon="1.42152">
        <ele>1214.28</ele>
        <time>2014-02-23T14:58:30Z</time>
      </trkpt>
      <trkpt lat="42.70939" lon="1.42158">
        <ele>1214.76</ele>
        <time>2014-02-23T14:58:33Z</time>
      </trkpt>
      <trkpt lat="42.7094" lon="1.42165">
        <ele>1214.76</ele>
        <time>2014-02-23T14:58:38Z</time>
      </trkpt>
      <trkpt lat="42.70942" lon="1.42171">
        <ele>1215.24</ele>
        <time>2014-02-23T14:58:42Z</time>
      </trkpt>
      <trkpt lat="42.70946" lon="1.42188">
        <ele>1215.72</ele>
        <time>2014-02-23T14:58:55Z</time>
      </trkpt>
      <trkpt lat="42.70946" lon="1.4219">
        <ele>1215.72</ele>
        <time>2014-02-23T14:58:57Z</time>
      </trkpt>
      <trkpt lat="42.70947" lon="1.42195">
        <ele>1216.21</ele>
        <time>2014-02-23T14:59:00Z</time>
      </trkpt>
      <trkpt lat="42.70947" lon="1.42201">
        <ele>1216.21</ele>
        <time>2014-02-23T14:59:03Z</time>
      </trkpt>
      <trkpt lat="42.70949" lon="1.42223">
        <ele>1217.65</ele>
        <time>2014-02-23T14:59:19Z</time>
      </trkpt>
      <trkpt lat="42.70951" lon="1.42239">
        <ele>1220.53</ele>
        <time>2014-02-23T14:59:32Z</time>
      </trkpt>
      <trkpt lat="42.70952" lon="1.42242">
        <ele>1221.01</ele>
        <time>2014-02-23T14:59:34Z</time>
      </trkpt>
      <trkpt lat="42.70953" lon="1.42247">
        <ele>1221.01</ele>
        <time>2014-02-23T14:59:37Z</time>
      </trkpt>
      <trkpt lat="42.70959" lon="1.42264">
        <ele>1221.01</ele>
        <time>2014-02-23T14:59:49Z</time>
      </trkpt>
      <trkpt lat="42.70958" lon="1.42278">
        <ele>1221.49</ele>
        <time>2014-02-23T15:00:00Z</time>
      </trkpt>
      <trkpt lat="42.70958" lon="1.42282">
        <ele>1221.49</ele>
        <time>2014-02-23T15:00:03Z</time>
      </trkpt>
      <trkpt lat="42.70959" lon="1.42305">
        <ele>1221.01</ele>
        <time>2014-02-23T15:00:19Z</time>
      </trkpt>
      <trkpt lat="42.7096" lon="1.42326">
        <ele>1222.45</ele>
        <time>2014-02-23T15:00:34Z</time>
      </trkpt>
      <trkpt lat="42.70964" lon="1.4234">
        <ele>1221.49</ele>
        <time>2014-02-23T15:00:44Z</time>
      </trkpt>
      <trkpt lat="42.70973" lon="1.42352">
        <ele>1222.93</ele>
        <time>2014-02-23T15:00:56Z</time>
      </trkpt>
      <trkpt lat="42.7098" lon="1.42364">
        <ele>1222.45</ele>
        <time>2014-02-23T15:01:11Z</time>
      </trkpt>
      <trkpt lat="42.7098" lon="1.42368">
        <ele>1222.45</ele>
        <time>2014-02-23T15:01:16Z</time>
      </trkpt>
      <trkpt lat="42.70981" lon="1.42378">
        <ele>1219.57</ele>
        <time>2014-02-23T15:01:27Z</time>
      </trkpt>
      <trkpt lat="42.70984" lon="1.42395">
        <ele>1220.05</ele>
        <time>2014-02-23T15:01:40Z</time>
      </trkpt>
      <trkpt lat="42.70988" lon="1.42407">
        <ele>1219.09</ele>
        <time>2014-02-23T15:01:52Z</time>
      </trkpt>
      <trkpt lat="42.70995" lon="1.42422">
        <ele>1214.76</ele>
        <time>2014-02-23T15:02:07Z</time>
      </trkpt>
      <trkpt lat="42.70997" lon="1.42431">
        <ele>1213.32</ele>
        <time>2014-02-23T15:02:19Z</time>
      </trkpt>
      <trkpt lat="42.70998" lon="1.42446">
        <ele>1209.96</ele>
        <time>2014-02-23T15:02:33Z</time>
      </trkpt>
      <trkpt lat="42.71005" lon="1.4246">
        <ele>1200.34</ele>
        <time>2014-02-23T15:02:46Z</time>
      </trkpt>
      <trkpt lat="42.71013" lon="1.42472">
        <ele>1192.65</ele>
        <time>2014-02-23T15:03:01Z</time>
      </trkpt>
      <trkpt lat="42.71014" lon="1.42473">
        <ele>1192.17</ele>
        <time>2014-02-23T15:03:02Z</time>
      </trkpt>
      <trkpt lat="42.71017" lon="1.4248">
        <ele>1191.69</ele>
        <time>2014-02-23T15:03:07Z</time>
      </trkpt>
      <trkpt lat="42.7102" lon="1.42483">
        <ele>1189.77</ele>
        <time>2014-02-23T15:03:18Z</time>
      </trkpt>
      <trkpt lat="42.71025" lon="1.42491">
        <ele>1188.33</ele>
        <time>2014-02-23T15:03:33Z</time>
      </trkpt>
      <trkpt lat="42.71033" lon="1.42499">
        <ele>1187.85</ele>
        <time>2014-02-23T15:03:44Z</time>
      </trkpt>
      <trkpt lat="42.71041" lon="1.42502">
        <ele>1188.81</ele>
        <time>2014-02-23T15:03:56Z</time>
      </trkpt>
      <trkpt lat="42.7104" lon="1.42504">
        <ele>1191.21</ele>
        <time>2014-02-23T15:04:13Z</time>
      </trkpt>
      <trkpt lat="42.71042" lon="1.42507">
        <ele>1190.73</ele>
        <time>2014-02-23T15:04:29Z</time>
      </trkpt>
      <trkpt lat="42.71042" lon="1.42515">
        <ele>1188.33</ele>
        <time>2014-02-23T15:04:59Z</time>
      </trkpt>
      <trkpt lat="42.71047" lon="1.42512">
        <ele>1192.17</ele>
        <time>2014-02-23T15:05:30Z</time>
      </trkpt>
      <trkpt lat="42.71049" lon="1.42501">
        <ele>1192.17</ele>
        <time>2014-02-23T15:05:50Z</time>
      </trkpt>
      <trkpt lat="42.71046" lon="1.42502">
        <ele>1192.65</ele>
        <time>2014-02-23T15:06:12Z</time>
      </trkpt>
    </trkseg>
  </trk>
</gpx>